<?xml version="1.0" encoding="UTF-8" standalone="no" ?>
<gpx xmlns="http://www.topografix.com/GPX/1/1" xmlns:xsi="http://www.w3.org/2001/XMLSchema-instance" xsi:schemaLocation="http://www.topografix.com/GPX/1/1 http://www.topografix.com/GPX/1/1/gpx.xsd" version="1.1" creator="VisuGPX - https://www.visugpx.com">
  <metadata>
    <name>Pornichet 04/04/2021</name>
    <desc><![CDATA[Sortie VTT du dimanche 04 avril 2021]]></desc>
  </metadata>
  <trk>
    <name><![CDATA[Pornichet Cyclisme]]></name>
    <trkseg>
      <trkpt lat="47.26375" lon="-2.31589">
        <ele>8.5</ele>
        <time>2021-04-04T07:15:14.000Z</time>
      </trkpt>
      <trkpt lat="47.26372" lon="-2.3161">
        <ele>8.4</ele>
        <time>2021-04-04T07:15:18.000Z</time>
      </trkpt>
      <trkpt lat="47.26373" lon="-2.31615">
        <ele>-0.20000000298023</ele>
        <time>2021-04-04T07:15:19.000Z</time>
      </trkpt>
      <trkpt lat="47.26376" lon="-2.31631">
        <ele>-0.20000000298023</ele>
        <time>2021-04-04T07:15:22.000Z</time>
      </trkpt>
      <trkpt lat="47.26377" lon="-2.31656">
        <ele>-0.20000000298023</ele>
        <time>2021-04-04T07:15:27.000Z</time>
      </trkpt>
      <trkpt lat="47.26374" lon="-2.31659">
        <ele>-0.20000000298023</ele>
        <time>2021-04-04T07:15:28.000Z</time>
      </trkpt>
      <trkpt lat="47.2635" lon="-2.31673">
        <ele>-0.20000000298023</ele>
        <time>2021-04-04T07:15:34.000Z</time>
      </trkpt>
      <trkpt lat="47.2632" lon="-2.31692">
        <ele>-0.20000000298023</ele>
        <time>2021-04-04T07:15:40.000Z</time>
      </trkpt>
      <trkpt lat="47.2631" lon="-2.31699">
        <ele>-0.20000000298023</ele>
        <time>2021-04-04T07:15:42.000Z</time>
      </trkpt>
      <trkpt lat="47.26293" lon="-2.31707">
        <ele>-0.80000001192093</ele>
        <time>2021-04-04T07:15:45.000Z</time>
      </trkpt>
      <trkpt lat="47.26287" lon="-2.31711">
        <ele>-1.2000000476837</ele>
        <time>2021-04-04T07:15:46.000Z</time>
      </trkpt>
      <trkpt lat="47.26282" lon="-2.31714">
        <ele>-1.6000000238419</ele>
        <time>2021-04-04T07:15:47.000Z</time>
      </trkpt>
      <trkpt lat="47.26276" lon="-2.31716">
        <ele>-2.2000000476837</ele>
        <time>2021-04-04T07:15:48.000Z</time>
      </trkpt>
      <trkpt lat="47.26272" lon="-2.31719">
        <ele>-2.5999999046326</ele>
        <time>2021-04-04T07:15:49.000Z</time>
      </trkpt>
      <trkpt lat="47.26269" lon="-2.31724">
        <ele>-2.5999999046326</ele>
        <time>2021-04-04T07:15:50.000Z</time>
      </trkpt>
      <trkpt lat="47.26269" lon="-2.31746">
        <ele>-2.5999999046326</ele>
        <time>2021-04-04T07:15:53.000Z</time>
      </trkpt>
      <trkpt lat="47.2627" lon="-2.31753">
        <ele>-2.5999999046326</ele>
        <time>2021-04-04T07:15:54.000Z</time>
      </trkpt>
      <trkpt lat="47.26273" lon="-2.31788">
        <ele>-2.5999999046326</ele>
        <time>2021-04-04T07:15:59.000Z</time>
      </trkpt>
      <trkpt lat="47.26272" lon="-2.31796">
        <ele>-3</ele>
        <time>2021-04-04T07:16:00.000Z</time>
      </trkpt>
      <trkpt lat="47.26272" lon="-2.31804">
        <ele>-3.4000000953674</ele>
        <time>2021-04-04T07:16:01.000Z</time>
      </trkpt>
      <trkpt lat="47.26272" lon="-2.31812">
        <ele>-3.7999999523163</ele>
        <time>2021-04-04T07:16:02.000Z</time>
      </trkpt>
      <trkpt lat="47.26272" lon="-2.31819">
        <ele>-4.1999998092651</ele>
        <time>2021-04-04T07:16:03.000Z</time>
      </trkpt>
      <trkpt lat="47.26271" lon="-2.31827">
        <ele>-4.5999999046326</ele>
        <time>2021-04-04T07:16:04.000Z</time>
      </trkpt>
      <trkpt lat="47.26271" lon="-2.31843">
        <ele>-4.5999999046326</ele>
        <time>2021-04-04T07:16:06.000Z</time>
      </trkpt>
      <trkpt lat="47.2627" lon="-2.31887">
        <ele>-4.5999999046326</ele>
        <time>2021-04-04T07:16:12.000Z</time>
      </trkpt>
      <trkpt lat="47.26265" lon="-2.319">
        <ele>-4.5999999046326</ele>
        <time>2021-04-04T07:16:15.000Z</time>
      </trkpt>
      <trkpt lat="47.26251" lon="-2.31917">
        <ele>-4.5999999046326</ele>
        <time>2021-04-04T07:16:20.000Z</time>
      </trkpt>
      <trkpt lat="47.26236" lon="-2.31941">
        <ele>-4.5999999046326</ele>
        <time>2021-04-04T07:16:25.000Z</time>
      </trkpt>
      <trkpt lat="47.26233" lon="-2.31946">
        <ele>-4.5999999046326</ele>
        <time>2021-04-04T07:16:26.000Z</time>
      </trkpt>
      <trkpt lat="47.26227" lon="-2.31956">
        <ele>-4.5999999046326</ele>
        <time>2021-04-04T07:16:28.000Z</time>
      </trkpt>
      <trkpt lat="47.26217" lon="-2.31978">
        <ele>-4.5999999046326</ele>
        <time>2021-04-04T07:16:32.000Z</time>
      </trkpt>
      <trkpt lat="47.26207" lon="-2.31982">
        <ele>-4.5999999046326</ele>
        <time>2021-04-04T07:16:35.000Z</time>
      </trkpt>
      <trkpt lat="47.26198" lon="-2.3199">
        <ele>-4.5999999046326</ele>
        <time>2021-04-04T07:16:38.000Z</time>
      </trkpt>
      <trkpt lat="47.26195" lon="-2.31993">
        <ele>-4.5999999046326</ele>
        <time>2021-04-04T07:16:39.000Z</time>
      </trkpt>
      <trkpt lat="47.26186" lon="-2.32002">
        <ele>-4.5999999046326</ele>
        <time>2021-04-04T07:16:42.000Z</time>
      </trkpt>
      <trkpt lat="47.26176" lon="-2.32012">
        <ele>-4.5999999046326</ele>
        <time>2021-04-04T07:16:46.000Z</time>
      </trkpt>
      <trkpt lat="47.26172" lon="-2.32029">
        <ele>-4.5999999046326</ele>
        <time>2021-04-04T07:16:50.000Z</time>
      </trkpt>
      <trkpt lat="47.2617" lon="-2.32031">
        <ele>-4.5999999046326</ele>
        <time>2021-04-04T07:16:51.000Z</time>
      </trkpt>
      <trkpt lat="47.26157" lon="-2.32032">
        <ele>-4.5999999046326</ele>
        <time>2021-04-04T07:16:56.000Z</time>
      </trkpt>
      <trkpt lat="47.26151" lon="-2.32034">
        <ele>-4.5999999046326</ele>
        <time>2021-04-04T07:16:58.000Z</time>
      </trkpt>
      <trkpt lat="47.26139" lon="-2.32041">
        <ele>-4.5999999046326</ele>
        <time>2021-04-04T07:17:01.000Z</time>
      </trkpt>
      <trkpt lat="47.26128" lon="-2.32061">
        <ele>-4.5999999046326</ele>
        <time>2021-04-04T07:17:05.000Z</time>
      </trkpt>
      <trkpt lat="47.26125" lon="-2.32068">
        <ele>-4.5999999046326</ele>
        <time>2021-04-04T07:17:06.000Z</time>
      </trkpt>
      <trkpt lat="47.26114" lon="-2.32103">
        <ele>-4.5999999046326</ele>
        <time>2021-04-04T07:17:12.000Z</time>
      </trkpt>
      <trkpt lat="47.26101" lon="-2.32151">
        <ele>-4.5999999046326</ele>
        <time>2021-04-04T07:17:20.000Z</time>
      </trkpt>
      <trkpt lat="47.2609" lon="-2.32181">
        <ele>-4.5999999046326</ele>
        <time>2021-04-04T07:17:25.000Z</time>
      </trkpt>
      <trkpt lat="47.26085" lon="-2.32192">
        <ele>-4.5999999046326</ele>
        <time>2021-04-04T07:17:27.000Z</time>
      </trkpt>
      <trkpt lat="47.26065" lon="-2.32231">
        <ele>-4.5999999046326</ele>
        <time>2021-04-04T07:17:34.000Z</time>
      </trkpt>
      <trkpt lat="47.26055" lon="-2.32245">
        <ele>-4.5999999046326</ele>
        <time>2021-04-04T07:17:37.000Z</time>
      </trkpt>
      <trkpt lat="47.26047" lon="-2.32253">
        <ele>-4.5999999046326</ele>
        <time>2021-04-04T07:17:39.000Z</time>
      </trkpt>
      <trkpt lat="47.26018" lon="-2.32286">
        <ele>-4.5999999046326</ele>
        <time>2021-04-04T07:17:46.000Z</time>
      </trkpt>
      <trkpt lat="47.25992" lon="-2.32315">
        <ele>-4.5999999046326</ele>
        <time>2021-04-04T07:17:52.000Z</time>
      </trkpt>
      <trkpt lat="47.25958" lon="-2.32359">
        <ele>-4.5999999046326</ele>
        <time>2021-04-04T07:18:00.000Z</time>
      </trkpt>
      <trkpt lat="47.25917" lon="-2.32409">
        <ele>-4.5999999046326</ele>
        <time>2021-04-04T07:18:10.000Z</time>
      </trkpt>
      <trkpt lat="47.25885" lon="-2.32451">
        <ele>-4.5999999046326</ele>
        <time>2021-04-04T07:18:18.000Z</time>
      </trkpt>
      <trkpt lat="47.25875" lon="-2.32465">
        <ele>-4.5999999046326</ele>
        <time>2021-04-04T07:18:21.000Z</time>
      </trkpt>
      <trkpt lat="47.25874" lon="-2.32474">
        <ele>-4.5999999046326</ele>
        <time>2021-04-04T07:18:23.000Z</time>
      </trkpt>
      <trkpt lat="47.25884" lon="-2.32483">
        <ele>-4.5999999046326</ele>
        <time>2021-04-04T07:18:26.000Z</time>
      </trkpt>
      <trkpt lat="47.25896" lon="-2.32504">
        <ele>-4.5999999046326</ele>
        <time>2021-04-04T07:18:30.000Z</time>
      </trkpt>
      <trkpt lat="47.25899" lon="-2.32511">
        <ele>-4.5999999046326</ele>
        <time>2021-04-04T07:18:31.000Z</time>
      </trkpt>
      <trkpt lat="47.25912" lon="-2.32552">
        <ele>-4.5999999046326</ele>
        <time>2021-04-04T07:18:37.000Z</time>
      </trkpt>
      <trkpt lat="47.25923" lon="-2.32593">
        <ele>-4.5999999046326</ele>
        <time>2021-04-04T07:18:43.000Z</time>
      </trkpt>
      <trkpt lat="47.25931" lon="-2.32634">
        <ele>-4.5999999046326</ele>
        <time>2021-04-04T07:18:49.000Z</time>
      </trkpt>
      <trkpt lat="47.25936" lon="-2.32664">
        <ele>-4.5999999046326</ele>
        <time>2021-04-04T07:18:54.000Z</time>
      </trkpt>
      <trkpt lat="47.25939" lon="-2.32665">
        <ele>-4.5999999046326</ele>
        <time>2021-04-04T07:18:55.000Z</time>
      </trkpt>
      <trkpt lat="47.25954" lon="-2.32665">
        <ele>-4.5999999046326</ele>
        <time>2021-04-04T07:18:59.000Z</time>
      </trkpt>
      <trkpt lat="47.25958" lon="-2.32665">
        <ele>-4.5999999046326</ele>
        <time>2021-04-04T07:19:00.000Z</time>
      </trkpt>
      <trkpt lat="47.25989" lon="-2.32661">
        <ele>-4.5999999046326</ele>
        <time>2021-04-04T07:19:07.000Z</time>
      </trkpt>
      <trkpt lat="47.2603" lon="-2.32655">
        <ele>-4.5999999046326</ele>
        <time>2021-04-04T07:19:16.000Z</time>
      </trkpt>
      <trkpt lat="47.26071" lon="-2.32648">
        <ele>-4.5999999046326</ele>
        <time>2021-04-04T07:19:25.000Z</time>
      </trkpt>
      <trkpt lat="47.2612" lon="-2.3264">
        <ele>-4.5999999046326</ele>
        <time>2021-04-04T07:19:32.000Z</time>
      </trkpt>
      <trkpt lat="47.26155" lon="-2.3265">
        <ele>-4.5999999046326</ele>
        <time>2021-04-04T07:19:39.000Z</time>
      </trkpt>
      <trkpt lat="47.2619" lon="-2.32674">
        <ele>-4.5999999046326</ele>
        <time>2021-04-04T07:19:47.000Z</time>
      </trkpt>
      <trkpt lat="47.26202" lon="-2.32687">
        <ele>-4.5999999046326</ele>
        <time>2021-04-04T07:19:50.000Z</time>
      </trkpt>
      <trkpt lat="47.26216" lon="-2.32709">
        <ele>-4.5999999046326</ele>
        <time>2021-04-04T07:19:54.000Z</time>
      </trkpt>
      <trkpt lat="47.26244" lon="-2.32749">
        <ele>-4.5999999046326</ele>
        <time>2021-04-04T07:20:01.000Z</time>
      </trkpt>
      <trkpt lat="47.26271" lon="-2.32799">
        <ele>-4.5999999046326</ele>
        <time>2021-04-04T07:20:09.000Z</time>
      </trkpt>
      <trkpt lat="47.26274" lon="-2.32806">
        <ele>-4.5999999046326</ele>
        <time>2021-04-04T07:20:10.000Z</time>
      </trkpt>
      <trkpt lat="47.26277" lon="-2.32814">
        <ele>-5</ele>
        <time>2021-04-04T07:20:11.000Z</time>
      </trkpt>
      <trkpt lat="47.26279" lon="-2.32822">
        <ele>-5.4000000953674</ele>
        <time>2021-04-04T07:20:12.000Z</time>
      </trkpt>
      <trkpt lat="47.26281" lon="-2.3283">
        <ele>-5.8000001907349</ele>
        <time>2021-04-04T07:20:13.000Z</time>
      </trkpt>
      <trkpt lat="47.26283" lon="-2.32837">
        <ele>-6.4000000953674</ele>
        <time>2021-04-04T07:20:14.000Z</time>
      </trkpt>
      <trkpt lat="47.26286" lon="-2.32844">
        <ele>-6.8000001907349</ele>
        <time>2021-04-04T07:20:15.000Z</time>
      </trkpt>
      <trkpt lat="47.26289" lon="-2.32851">
        <ele>-6.8000001907349</ele>
        <time>2021-04-04T07:20:16.000Z</time>
      </trkpt>
      <trkpt lat="47.26297" lon="-2.32861">
        <ele>-6.8000001907349</ele>
        <time>2021-04-04T07:20:18.000Z</time>
      </trkpt>
      <trkpt lat="47.26308" lon="-2.32866">
        <ele>-6.8000001907349</ele>
        <time>2021-04-04T07:20:20.000Z</time>
      </trkpt>
      <trkpt lat="47.26312" lon="-2.32868">
        <ele>-6.8000001907349</ele>
        <time>2021-04-04T07:20:21.000Z</time>
      </trkpt>
      <trkpt lat="47.26317" lon="-2.32873">
        <ele>-6.8000001907349</ele>
        <time>2021-04-04T07:20:22.000Z</time>
      </trkpt>
      <trkpt lat="47.26327" lon="-2.32899">
        <ele>-6.8000001907349</ele>
        <time>2021-04-04T07:20:26.000Z</time>
      </trkpt>
      <trkpt lat="47.26343" lon="-2.32955">
        <ele>-6.8000001907349</ele>
        <time>2021-04-04T07:20:34.000Z</time>
      </trkpt>
      <trkpt lat="47.26348" lon="-2.32967">
        <ele>-6.8000001907349</ele>
        <time>2021-04-04T07:20:36.000Z</time>
      </trkpt>
      <trkpt lat="47.26352" lon="-2.32974">
        <ele>-6.8000001907349</ele>
        <time>2021-04-04T07:20:38.000Z</time>
      </trkpt>
      <trkpt lat="47.26355" lon="-2.32974">
        <ele>-6.8000001907349</ele>
        <time>2021-04-04T07:20:42.000Z</time>
      </trkpt>
      <trkpt lat="47.26355" lon="-2.32974">
        <ele>-6.8000001907349</ele>
        <time>2021-04-04T07:20:43.000Z</time>
      </trkpt>
      <trkpt lat="47.26355" lon="-2.32975">
        <ele>-6.8000001907349</ele>
        <time>2021-04-04T07:20:51.000Z</time>
      </trkpt>
      <trkpt lat="47.26358" lon="-2.32978">
        <ele>-6.8000001907349</ele>
        <time>2021-04-04T07:20:53.000Z</time>
      </trkpt>
      <trkpt lat="47.26363" lon="-2.32995">
        <ele>-6.8000001907349</ele>
        <time>2021-04-04T07:20:57.000Z</time>
      </trkpt>
      <trkpt lat="47.26364" lon="-2.33008">
        <ele>-6.8000001907349</ele>
        <time>2021-04-04T07:20:59.000Z</time>
      </trkpt>
      <trkpt lat="47.26365" lon="-2.33028">
        <ele>-6.8000001907349</ele>
        <time>2021-04-04T07:21:02.000Z</time>
      </trkpt>
      <trkpt lat="47.26365" lon="-2.33035">
        <ele>-6.8000001907349</ele>
        <time>2021-04-04T07:21:03.000Z</time>
      </trkpt>
      <trkpt lat="47.26369" lon="-2.331">
        <ele>-6.8000001907349</ele>
        <time>2021-04-04T07:21:12.000Z</time>
      </trkpt>
      <trkpt lat="47.26375" lon="-2.33179">
        <ele>-6.8000001907349</ele>
        <time>2021-04-04T07:21:23.000Z</time>
      </trkpt>
      <trkpt lat="47.2638" lon="-2.33245">
        <ele>-6.8000001907349</ele>
        <time>2021-04-04T07:21:32.000Z</time>
      </trkpt>
      <trkpt lat="47.26392" lon="-2.33266">
        <ele>-6.8000001907349</ele>
        <time>2021-04-04T07:21:36.000Z</time>
      </trkpt>
      <trkpt lat="47.26407" lon="-2.33269">
        <ele>-6.8000001907349</ele>
        <time>2021-04-04T07:21:39.000Z</time>
      </trkpt>
      <trkpt lat="47.26412" lon="-2.33269">
        <ele>-6.8000001907349</ele>
        <time>2021-04-04T07:21:40.000Z</time>
      </trkpt>
      <trkpt lat="47.2645" lon="-2.33272">
        <ele>-6.8000001907349</ele>
        <time>2021-04-04T07:21:48.000Z</time>
      </trkpt>
      <trkpt lat="47.26455" lon="-2.33273">
        <ele>-6.8000001907349</ele>
        <time>2021-04-04T07:21:49.000Z</time>
      </trkpt>
      <trkpt lat="47.26476" lon="-2.33281">
        <ele>-6.8000001907349</ele>
        <time>2021-04-04T07:21:54.000Z</time>
      </trkpt>
      <trkpt lat="47.2648" lon="-2.33281">
        <ele>-6.8000001907349</ele>
        <time>2021-04-04T07:21:55.000Z</time>
      </trkpt>
      <trkpt lat="47.26497" lon="-2.3328">
        <ele>-6.8000001907349</ele>
        <time>2021-04-04T07:22:00.000Z</time>
      </trkpt>
      <trkpt lat="47.26512" lon="-2.33289">
        <ele>-6.8000001907349</ele>
        <time>2021-04-04T07:22:04.000Z</time>
      </trkpt>
      <trkpt lat="47.26529" lon="-2.3329">
        <ele>-6.8000001907349</ele>
        <time>2021-04-04T07:22:08.000Z</time>
      </trkpt>
      <trkpt lat="47.26537" lon="-2.33297">
        <ele>-6.8000001907349</ele>
        <time>2021-04-04T07:22:11.000Z</time>
      </trkpt>
      <trkpt lat="47.26545" lon="-2.33293">
        <ele>-6.8000001907349</ele>
        <time>2021-04-04T07:22:14.000Z</time>
      </trkpt>
      <trkpt lat="47.26552" lon="-2.33286">
        <ele>-6.8000001907349</ele>
        <time>2021-04-04T07:22:16.000Z</time>
      </trkpt>
      <trkpt lat="47.2657" lon="-2.33266">
        <ele>-6.1999998092651</ele>
        <time>2021-04-04T07:22:21.000Z</time>
      </trkpt>
      <trkpt lat="47.26574" lon="-2.33262">
        <ele>-5.8000001907349</ele>
        <time>2021-04-04T07:22:22.000Z</time>
      </trkpt>
      <trkpt lat="47.26578" lon="-2.33259">
        <ele>-5</ele>
        <time>2021-04-04T07:22:23.000Z</time>
      </trkpt>
      <trkpt lat="47.26582" lon="-2.33255">
        <ele>-4.5999999046326</ele>
        <time>2021-04-04T07:22:24.000Z</time>
      </trkpt>
      <trkpt lat="47.26597" lon="-2.3324">
        <ele>-4.5999999046326</ele>
        <time>2021-04-04T07:22:28.000Z</time>
      </trkpt>
      <trkpt lat="47.26625" lon="-2.3321">
        <ele>-4.5999999046326</ele>
        <time>2021-04-04T07:22:35.000Z</time>
      </trkpt>
      <trkpt lat="47.26647" lon="-2.33186">
        <ele>-4.5999999046326</ele>
        <time>2021-04-04T07:22:41.000Z</time>
      </trkpt>
      <trkpt lat="47.26651" lon="-2.33182">
        <ele>-4.5999999046326</ele>
        <time>2021-04-04T07:22:42.000Z</time>
      </trkpt>
      <trkpt lat="47.26679" lon="-2.33154">
        <ele>-4.5999999046326</ele>
        <time>2021-04-04T07:22:49.000Z</time>
      </trkpt>
      <trkpt lat="47.26715" lon="-2.33119">
        <ele>-4.5999999046326</ele>
        <time>2021-04-04T07:22:58.000Z</time>
      </trkpt>
      <trkpt lat="47.26739" lon="-2.33094">
        <ele>-4.5999999046326</ele>
        <time>2021-04-04T07:23:05.000Z</time>
      </trkpt>
      <trkpt lat="47.2675" lon="-2.33086">
        <ele>-4.5999999046326</ele>
        <time>2021-04-04T07:23:08.000Z</time>
      </trkpt>
      <trkpt lat="47.26754" lon="-2.33088">
        <ele>-4.5999999046326</ele>
        <time>2021-04-04T07:23:09.000Z</time>
      </trkpt>
      <trkpt lat="47.2676" lon="-2.33099">
        <ele>-5</ele>
        <time>2021-04-04T07:23:11.000Z</time>
      </trkpt>
      <trkpt lat="47.26762" lon="-2.33106">
        <ele>-5.8000001907349</ele>
        <time>2021-04-04T07:23:12.000Z</time>
      </trkpt>
      <trkpt lat="47.26763" lon="-2.33113">
        <ele>-6.4000000953674</ele>
        <time>2021-04-04T07:23:13.000Z</time>
      </trkpt>
      <trkpt lat="47.26764" lon="-2.33121">
        <ele>-6.8000001907349</ele>
        <time>2021-04-04T07:23:14.000Z</time>
      </trkpt>
      <trkpt lat="47.26764" lon="-2.33135">
        <ele>-6.8000001907349</ele>
        <time>2021-04-04T07:23:16.000Z</time>
      </trkpt>
      <trkpt lat="47.26763" lon="-2.33142">
        <ele>-6.8000001907349</ele>
        <time>2021-04-04T07:23:17.000Z</time>
      </trkpt>
      <trkpt lat="47.26757" lon="-2.33171">
        <ele>-6.8000001907349</ele>
        <time>2021-04-04T07:23:21.000Z</time>
      </trkpt>
      <trkpt lat="47.26743" lon="-2.33218">
        <ele>-6.8000001907349</ele>
        <time>2021-04-04T07:23:28.000Z</time>
      </trkpt>
      <trkpt lat="47.26734" lon="-2.33259">
        <ele>-6.8000001907349</ele>
        <time>2021-04-04T07:23:34.000Z</time>
      </trkpt>
      <trkpt lat="47.26737" lon="-2.33297">
        <ele>-6.8000001907349</ele>
        <time>2021-04-04T07:23:39.000Z</time>
      </trkpt>
      <trkpt lat="47.26739" lon="-2.33304">
        <ele>-6.8000001907349</ele>
        <time>2021-04-04T07:23:40.000Z</time>
      </trkpt>
      <trkpt lat="47.26752" lon="-2.33357">
        <ele>-6.8000001907349</ele>
        <time>2021-04-04T07:23:47.000Z</time>
      </trkpt>
      <trkpt lat="47.26756" lon="-2.33404">
        <ele>-6.8000001907349</ele>
        <time>2021-04-04T07:23:53.000Z</time>
      </trkpt>
      <trkpt lat="47.26762" lon="-2.33456">
        <ele>-6.8000001907349</ele>
        <time>2021-04-04T07:24:00.000Z</time>
      </trkpt>
      <trkpt lat="47.26772" lon="-2.33515">
        <ele>-6.8000001907349</ele>
        <time>2021-04-04T07:24:08.000Z</time>
      </trkpt>
      <trkpt lat="47.26779" lon="-2.33575">
        <ele>-6.8000001907349</ele>
        <time>2021-04-04T07:24:16.000Z</time>
      </trkpt>
      <trkpt lat="47.2678" lon="-2.33582">
        <ele>-6.8000001907349</ele>
        <time>2021-04-04T07:24:17.000Z</time>
      </trkpt>
      <trkpt lat="47.2678" lon="-2.33617">
        <ele>-6.8000001907349</ele>
        <time>2021-04-04T07:24:22.000Z</time>
      </trkpt>
      <trkpt lat="47.26778" lon="-2.33679">
        <ele>-6.8000001907349</ele>
        <time>2021-04-04T07:24:31.000Z</time>
      </trkpt>
      <trkpt lat="47.26778" lon="-2.33692">
        <ele>-6.4000000953674</ele>
        <time>2021-04-04T07:24:33.000Z</time>
      </trkpt>
      <trkpt lat="47.26778" lon="-2.33698">
        <ele>-6</ele>
        <time>2021-04-04T07:24:34.000Z</time>
      </trkpt>
      <trkpt lat="47.2678" lon="-2.33704">
        <ele>-5.5999999046326</ele>
        <time>2021-04-04T07:24:35.000Z</time>
      </trkpt>
      <trkpt lat="47.26782" lon="-2.33708">
        <ele>-5.1999998092651</ele>
        <time>2021-04-04T07:24:36.000Z</time>
      </trkpt>
      <trkpt lat="47.26786" lon="-2.33712">
        <ele>-4.8000001907349</ele>
        <time>2021-04-04T07:24:37.000Z</time>
      </trkpt>
      <trkpt lat="47.26798" lon="-2.33724">
        <ele>-4.8000001907349</ele>
        <time>2021-04-04T07:24:40.000Z</time>
      </trkpt>
      <trkpt lat="47.26825" lon="-2.33753">
        <ele>-4.8000001907349</ele>
        <time>2021-04-04T07:24:47.000Z</time>
      </trkpt>
      <trkpt lat="47.26832" lon="-2.33762">
        <ele>-4.4000000953674</ele>
        <time>2021-04-04T07:24:49.000Z</time>
      </trkpt>
      <trkpt lat="47.26836" lon="-2.33767">
        <ele>-4</ele>
        <time>2021-04-04T07:24:50.000Z</time>
      </trkpt>
      <trkpt lat="47.2684" lon="-2.33771">
        <ele>-3</ele>
        <time>2021-04-04T07:24:51.000Z</time>
      </trkpt>
      <trkpt lat="47.26844" lon="-2.33775">
        <ele>-2.5999999046326</ele>
        <time>2021-04-04T07:24:52.000Z</time>
      </trkpt>
      <trkpt lat="47.26849" lon="-2.33778">
        <ele>-2.5999999046326</ele>
        <time>2021-04-04T07:24:53.000Z</time>
      </trkpt>
      <trkpt lat="47.26863" lon="-2.33783">
        <ele>-2.5999999046326</ele>
        <time>2021-04-04T07:24:56.000Z</time>
      </trkpt>
      <trkpt lat="47.26882" lon="-2.3379">
        <ele>-2.5999999046326</ele>
        <time>2021-04-04T07:25:00.000Z</time>
      </trkpt>
      <trkpt lat="47.26894" lon="-2.338">
        <ele>-2.5999999046326</ele>
        <time>2021-04-04T07:25:03.000Z</time>
      </trkpt>
      <trkpt lat="47.26899" lon="-2.33812">
        <ele>-2.5999999046326</ele>
        <time>2021-04-04T07:25:05.000Z</time>
      </trkpt>
      <trkpt lat="47.26902" lon="-2.33825">
        <ele>-2.5999999046326</ele>
        <time>2021-04-04T07:25:07.000Z</time>
      </trkpt>
      <trkpt lat="47.26911" lon="-2.33867">
        <ele>-2.5999999046326</ele>
        <time>2021-04-04T07:25:13.000Z</time>
      </trkpt>
      <trkpt lat="47.26922" lon="-2.33916">
        <ele>-2.5999999046326</ele>
        <time>2021-04-04T07:25:20.000Z</time>
      </trkpt>
      <trkpt lat="47.26936" lon="-2.33976">
        <ele>-2.5999999046326</ele>
        <time>2021-04-04T07:25:29.000Z</time>
      </trkpt>
      <trkpt lat="47.2695" lon="-2.34036">
        <ele>-2.5999999046326</ele>
        <time>2021-04-04T07:25:38.000Z</time>
      </trkpt>
      <trkpt lat="47.26954" lon="-2.34057">
        <ele>-2.5999999046326</ele>
        <time>2021-04-04T07:25:41.000Z</time>
      </trkpt>
      <trkpt lat="47.2696" lon="-2.34085">
        <ele>-2.5999999046326</ele>
        <time>2021-04-04T07:25:45.000Z</time>
      </trkpt>
      <trkpt lat="47.26973" lon="-2.34142">
        <ele>-2.5999999046326</ele>
        <time>2021-04-04T07:25:53.000Z</time>
      </trkpt>
      <trkpt lat="47.26987" lon="-2.34198">
        <ele>-2.5999999046326</ele>
        <time>2021-04-04T07:26:01.000Z</time>
      </trkpt>
      <trkpt lat="47.27001" lon="-2.3426">
        <ele>-2.5999999046326</ele>
        <time>2021-04-04T07:26:10.000Z</time>
      </trkpt>
      <trkpt lat="47.27007" lon="-2.34287">
        <ele>-2.5999999046326</ele>
        <time>2021-04-04T07:26:14.000Z</time>
      </trkpt>
      <trkpt lat="47.27007" lon="-2.34305">
        <ele>-2.5999999046326</ele>
        <time>2021-04-04T07:26:17.000Z</time>
      </trkpt>
      <trkpt lat="47.27011" lon="-2.34319">
        <ele>-2.5999999046326</ele>
        <time>2021-04-04T07:26:21.000Z</time>
      </trkpt>
      <trkpt lat="47.27022" lon="-2.3432">
        <ele>-2.2000000476837</ele>
        <time>2021-04-04T07:26:24.000Z</time>
      </trkpt>
      <trkpt lat="47.27026" lon="-2.34318">
        <ele>-1.7999999523163</ele>
        <time>2021-04-04T07:26:25.000Z</time>
      </trkpt>
      <trkpt lat="47.2703" lon="-2.34318">
        <ele>-1.3999999761581</ele>
        <time>2021-04-04T07:26:26.000Z</time>
      </trkpt>
      <trkpt lat="47.27034" lon="-2.34317">
        <ele>-1</ele>
        <time>2021-04-04T07:26:27.000Z</time>
      </trkpt>
      <trkpt lat="47.27039" lon="-2.34317">
        <ele>-0.60000002384186</ele>
        <time>2021-04-04T07:26:28.000Z</time>
      </trkpt>
      <trkpt lat="47.27052" lon="-2.34317">
        <ele>-0.60000002384186</ele>
        <time>2021-04-04T07:26:31.000Z</time>
      </trkpt>
      <trkpt lat="47.27061" lon="-2.34318">
        <ele>-0.60000002384186</ele>
        <time>2021-04-04T07:26:33.000Z</time>
      </trkpt>
      <trkpt lat="47.27077" lon="-2.34318">
        <ele>-0.60000002384186</ele>
        <time>2021-04-04T07:26:37.000Z</time>
      </trkpt>
      <trkpt lat="47.27081" lon="-2.34318">
        <ele>11.9</ele>
        <time>2021-04-04T07:26:38.000Z</time>
      </trkpt>
      <trkpt lat="47.27085" lon="-2.34318">
        <ele>0.40000000596046</ele>
        <time>2021-04-04T07:26:39.000Z</time>
      </trkpt>
      <trkpt lat="47.27089" lon="-2.34318">
        <ele>0.80000001192093</ele>
        <time>2021-04-04T07:26:40.000Z</time>
      </trkpt>
      <trkpt lat="47.27093" lon="-2.34318">
        <ele>1.3999999761581</ele>
        <time>2021-04-04T07:26:41.000Z</time>
      </trkpt>
      <trkpt lat="47.27097" lon="-2.34318">
        <ele>1.7999999523163</ele>
        <time>2021-04-04T07:26:42.000Z</time>
      </trkpt>
      <trkpt lat="47.27104" lon="-2.34318">
        <ele>1.7999999523163</ele>
        <time>2021-04-04T07:26:44.000Z</time>
      </trkpt>
      <trkpt lat="47.27114" lon="-2.34319">
        <ele>1.7999999523163</ele>
        <time>2021-04-04T07:26:49.000Z</time>
      </trkpt>
      <trkpt lat="47.27124" lon="-2.34318">
        <ele>1.7999999523163</ele>
        <time>2021-04-04T07:26:54.000Z</time>
      </trkpt>
      <trkpt lat="47.27142" lon="-2.34319">
        <ele>1.7999999523163</ele>
        <time>2021-04-04T07:26:59.000Z</time>
      </trkpt>
      <trkpt lat="47.27174" lon="-2.3432">
        <ele>1.7999999523163</ele>
        <time>2021-04-04T07:27:07.000Z</time>
      </trkpt>
      <trkpt lat="47.27183" lon="-2.3432">
        <ele>2.2000000476837</ele>
        <time>2021-04-04T07:27:09.000Z</time>
      </trkpt>
      <trkpt lat="47.27187" lon="-2.34321">
        <ele>2.5999999046326</ele>
        <time>2021-04-04T07:27:10.000Z</time>
      </trkpt>
      <trkpt lat="47.27191" lon="-2.34321">
        <ele>3</ele>
        <time>2021-04-04T07:27:11.000Z</time>
      </trkpt>
      <trkpt lat="47.27195" lon="-2.34321">
        <ele>3.5999999046326</ele>
        <time>2021-04-04T07:27:12.000Z</time>
      </trkpt>
      <trkpt lat="47.27199" lon="-2.34321">
        <ele>4</ele>
        <time>2021-04-04T07:27:13.000Z</time>
      </trkpt>
      <trkpt lat="47.27207" lon="-2.34321">
        <ele>4</ele>
        <time>2021-04-04T07:27:15.000Z</time>
      </trkpt>
      <trkpt lat="47.2724" lon="-2.34321">
        <ele>4.4000000953674</ele>
        <time>2021-04-04T07:27:23.000Z</time>
      </trkpt>
      <trkpt lat="47.27244" lon="-2.34321">
        <ele>4.8000001907349</ele>
        <time>2021-04-04T07:27:24.000Z</time>
      </trkpt>
      <trkpt lat="47.27248" lon="-2.34321">
        <ele>5.1999998092651</ele>
        <time>2021-04-04T07:27:25.000Z</time>
      </trkpt>
      <trkpt lat="47.27252" lon="-2.34321">
        <ele>5.5999999046326</ele>
        <time>2021-04-04T07:27:26.000Z</time>
      </trkpt>
      <trkpt lat="47.27256" lon="-2.34321">
        <ele>6.1999998092651</ele>
        <time>2021-04-04T07:27:27.000Z</time>
      </trkpt>
      <trkpt lat="47.27269" lon="-2.3432">
        <ele>6.1999998092651</ele>
        <time>2021-04-04T07:27:30.000Z</time>
      </trkpt>
      <trkpt lat="47.27277" lon="-2.34318">
        <ele>6.1999998092651</ele>
        <time>2021-04-04T07:27:32.000Z</time>
      </trkpt>
      <trkpt lat="47.27288" lon="-2.34314">
        <ele>6.5999999046326</ele>
        <time>2021-04-04T07:27:35.000Z</time>
      </trkpt>
      <trkpt lat="47.27292" lon="-2.34312">
        <ele>7</ele>
        <time>2021-04-04T07:27:36.000Z</time>
      </trkpt>
      <trkpt lat="47.27296" lon="-2.34311">
        <ele>7.4000000953674</ele>
        <time>2021-04-04T07:27:37.000Z</time>
      </trkpt>
      <trkpt lat="47.273" lon="-2.34309">
        <ele>7.8000001907349</ele>
        <time>2021-04-04T07:27:38.000Z</time>
      </trkpt>
      <trkpt lat="47.27304" lon="-2.34308">
        <ele>8.1999998092651</ele>
        <time>2021-04-04T07:27:39.000Z</time>
      </trkpt>
      <trkpt lat="47.27319" lon="-2.34299">
        <ele>8.1999998092651</ele>
        <time>2021-04-04T07:27:43.000Z</time>
      </trkpt>
      <trkpt lat="47.27346" lon="-2.34281">
        <ele>8.1999998092651</ele>
        <time>2021-04-04T07:27:50.000Z</time>
      </trkpt>
      <trkpt lat="47.27353" lon="-2.34275">
        <ele>8.6000003814697</ele>
        <time>2021-04-04T07:27:52.000Z</time>
      </trkpt>
      <trkpt lat="47.27356" lon="-2.34273">
        <ele>9</ele>
        <time>2021-04-04T07:27:53.000Z</time>
      </trkpt>
      <trkpt lat="47.2736" lon="-2.3427">
        <ele>9.3999996185303</ele>
        <time>2021-04-04T07:27:54.000Z</time>
      </trkpt>
      <trkpt lat="47.27364" lon="-2.34268">
        <ele>9.8000001907349</ele>
        <time>2021-04-04T07:27:55.000Z</time>
      </trkpt>
      <trkpt lat="47.27367" lon="-2.34265">
        <ele>10.199999809265</ele>
        <time>2021-04-04T07:27:56.000Z</time>
      </trkpt>
      <trkpt lat="47.27394" lon="-2.34247">
        <ele>10.199999809265</ele>
        <time>2021-04-04T07:28:04.000Z</time>
      </trkpt>
      <trkpt lat="47.27412" lon="-2.3424">
        <ele>10.199999809265</ele>
        <time>2021-04-04T07:28:09.000Z</time>
      </trkpt>
      <trkpt lat="47.27415" lon="-2.34243">
        <ele>10.199999809265</ele>
        <time>2021-04-04T07:28:10.000Z</time>
      </trkpt>
      <trkpt lat="47.2742" lon="-2.34259">
        <ele>10.199999809265</ele>
        <time>2021-04-04T07:28:13.000Z</time>
      </trkpt>
      <trkpt lat="47.27419" lon="-2.34271">
        <ele>10.199999809265</ele>
        <time>2021-04-04T07:28:15.000Z</time>
      </trkpt>
      <trkpt lat="47.27419" lon="-2.34309">
        <ele>10.199999809265</ele>
        <time>2021-04-04T07:28:21.000Z</time>
      </trkpt>
      <trkpt lat="47.27419" lon="-2.34357">
        <ele>10.199999809265</ele>
        <time>2021-04-04T07:28:29.000Z</time>
      </trkpt>
      <trkpt lat="47.2742" lon="-2.34363">
        <ele>10.60000038147</ele>
        <time>2021-04-04T07:28:30.000Z</time>
      </trkpt>
      <trkpt lat="47.2742" lon="-2.34369">
        <ele>11</ele>
        <time>2021-04-04T07:28:31.000Z</time>
      </trkpt>
      <trkpt lat="47.27421" lon="-2.34375">
        <ele>11.800000190735</ele>
        <time>2021-04-04T07:28:32.000Z</time>
      </trkpt>
      <trkpt lat="47.27422" lon="-2.34381">
        <ele>12.199999809265</ele>
        <time>2021-04-04T07:28:33.000Z</time>
      </trkpt>
      <trkpt lat="47.27423" lon="-2.34406">
        <ele>12.199999809265</ele>
        <time>2021-04-04T07:28:37.000Z</time>
      </trkpt>
      <trkpt lat="47.27426" lon="-2.34464">
        <ele>12.199999809265</ele>
        <time>2021-04-04T07:28:46.000Z</time>
      </trkpt>
      <trkpt lat="47.2743" lon="-2.34504">
        <ele>12.60000038147</ele>
        <time>2021-04-04T07:28:52.000Z</time>
      </trkpt>
      <trkpt lat="47.27432" lon="-2.34511">
        <ele>13.199999809265</ele>
        <time>2021-04-04T07:28:53.000Z</time>
      </trkpt>
      <trkpt lat="47.27433" lon="-2.34517">
        <ele>13.60000038147</ele>
        <time>2021-04-04T07:28:54.000Z</time>
      </trkpt>
      <trkpt lat="47.27434" lon="-2.34523">
        <ele>14</ele>
        <time>2021-04-04T07:28:55.000Z</time>
      </trkpt>
      <trkpt lat="47.27435" lon="-2.34529">
        <ele>14.39999961853</ele>
        <time>2021-04-04T07:28:56.000Z</time>
      </trkpt>
      <trkpt lat="47.2744" lon="-2.34553">
        <ele>14.39999961853</ele>
        <time>2021-04-04T07:29:00.000Z</time>
      </trkpt>
      <trkpt lat="47.2745" lon="-2.34598">
        <ele>14.39999961853</ele>
        <time>2021-04-04T07:29:07.000Z</time>
      </trkpt>
      <trkpt lat="47.27454" lon="-2.34635">
        <ele>14.39999961853</ele>
        <time>2021-04-04T07:29:12.000Z</time>
      </trkpt>
      <trkpt lat="47.27456" lon="-2.34651">
        <ele>14.39999961853</ele>
        <time>2021-04-04T07:29:14.000Z</time>
      </trkpt>
      <trkpt lat="47.27459" lon="-2.34715">
        <ele>14.39999961853</ele>
        <time>2021-04-04T07:29:22.000Z</time>
      </trkpt>
      <trkpt lat="47.27458" lon="-2.34775">
        <ele>14.39999961853</ele>
        <time>2021-04-04T07:29:29.000Z</time>
      </trkpt>
      <trkpt lat="47.27461" lon="-2.34821">
        <ele>14</ele>
        <time>2021-04-04T07:29:34.000Z</time>
      </trkpt>
      <trkpt lat="47.27461" lon="-2.34831">
        <ele>13.60000038147</ele>
        <time>2021-04-04T07:29:35.000Z</time>
      </trkpt>
      <trkpt lat="47.27462" lon="-2.34842">
        <ele>13.199999809265</ele>
        <time>2021-04-04T07:29:36.000Z</time>
      </trkpt>
      <trkpt lat="47.27462" lon="-2.34852">
        <ele>12.800000190735</ele>
        <time>2021-04-04T07:29:37.000Z</time>
      </trkpt>
      <trkpt lat="47.27462" lon="-2.34862">
        <ele>12.39999961853</ele>
        <time>2021-04-04T07:29:38.000Z</time>
      </trkpt>
      <trkpt lat="47.27461" lon="-2.34893">
        <ele>11.800000190735</ele>
        <time>2021-04-04T07:29:41.000Z</time>
      </trkpt>
      <trkpt lat="47.27462" lon="-2.34903">
        <ele>11.39999961853</ele>
        <time>2021-04-04T07:29:42.000Z</time>
      </trkpt>
      <trkpt lat="47.27463" lon="-2.34913">
        <ele>11</ele>
        <time>2021-04-04T07:29:43.000Z</time>
      </trkpt>
      <trkpt lat="47.27465" lon="-2.34921">
        <ele>10.60000038147</ele>
        <time>2021-04-04T07:29:44.000Z</time>
      </trkpt>
      <trkpt lat="47.27467" lon="-2.34929">
        <ele>10.199999809265</ele>
        <time>2021-04-04T07:29:45.000Z</time>
      </trkpt>
      <trkpt lat="47.27469" lon="-2.34937">
        <ele>10.199999809265</ele>
        <time>2021-04-04T07:29:46.000Z</time>
      </trkpt>
      <trkpt lat="47.27478" lon="-2.34969">
        <ele>10.199999809265</ele>
        <time>2021-04-04T07:29:50.000Z</time>
      </trkpt>
      <trkpt lat="47.27492" lon="-2.35021">
        <ele>10.199999809265</ele>
        <time>2021-04-04T07:29:57.000Z</time>
      </trkpt>
      <trkpt lat="47.27496" lon="-2.35035">
        <ele>10.60000038147</ele>
        <time>2021-04-04T07:29:59.000Z</time>
      </trkpt>
      <trkpt lat="47.27498" lon="-2.35042">
        <ele>11</ele>
        <time>2021-04-04T07:30:00.000Z</time>
      </trkpt>
      <trkpt lat="47.275" lon="-2.35049">
        <ele>11.60000038147</ele>
        <time>2021-04-04T07:30:01.000Z</time>
      </trkpt>
      <trkpt lat="47.27501" lon="-2.35056">
        <ele>12</ele>
        <time>2021-04-04T07:30:02.000Z</time>
      </trkpt>
      <trkpt lat="47.27502" lon="-2.35064">
        <ele>12.39999961853</ele>
        <time>2021-04-04T07:30:03.000Z</time>
      </trkpt>
      <trkpt lat="47.27499" lon="-2.35109">
        <ele>12.39999961853</ele>
        <time>2021-04-04T07:30:09.000Z</time>
      </trkpt>
      <trkpt lat="47.27501" lon="-2.35123">
        <ele>12.39999961853</ele>
        <time>2021-04-04T07:30:11.000Z</time>
      </trkpt>
      <trkpt lat="47.27507" lon="-2.35132">
        <ele>12.39999961853</ele>
        <time>2021-04-04T07:30:13.000Z</time>
      </trkpt>
      <trkpt lat="47.2752" lon="-2.35139">
        <ele>12.39999961853</ele>
        <time>2021-04-04T07:30:16.000Z</time>
      </trkpt>
      <trkpt lat="47.27525" lon="-2.3514">
        <ele>12.39999961853</ele>
        <time>2021-04-04T07:30:17.000Z</time>
      </trkpt>
      <trkpt lat="47.27531" lon="-2.35141">
        <ele>12.39999961853</ele>
        <time>2021-04-04T07:30:18.000Z</time>
      </trkpt>
      <trkpt lat="47.27552" lon="-2.35139">
        <ele>12.39999961853</ele>
        <time>2021-04-04T07:30:22.000Z</time>
      </trkpt>
      <trkpt lat="47.27591" lon="-2.35135">
        <ele>12.39999961853</ele>
        <time>2021-04-04T07:30:29.000Z</time>
      </trkpt>
      <trkpt lat="47.27596" lon="-2.35135">
        <ele>12.39999961853</ele>
        <time>2021-04-04T07:30:30.000Z</time>
      </trkpt>
      <trkpt lat="47.27605" lon="-2.35144">
        <ele>12.39999961853</ele>
        <time>2021-04-04T07:30:32.000Z</time>
      </trkpt>
      <trkpt lat="47.27609" lon="-2.35167">
        <ele>11.60000038147</ele>
        <time>2021-04-04T07:30:35.000Z</time>
      </trkpt>
      <trkpt lat="47.27612" lon="-2.35175">
        <ele>11.199999809265</ele>
        <time>2021-04-04T07:30:36.000Z</time>
      </trkpt>
      <trkpt lat="47.27615" lon="-2.3518">
        <ele>10.800000190735</ele>
        <time>2021-04-04T07:30:37.000Z</time>
      </trkpt>
      <trkpt lat="47.27619" lon="-2.35182">
        <ele>10.39999961853</ele>
        <time>2021-04-04T07:30:38.000Z</time>
      </trkpt>
      <trkpt lat="47.27638" lon="-2.3518">
        <ele>10.39999961853</ele>
        <time>2021-04-04T07:30:41.000Z</time>
      </trkpt>
      <trkpt lat="47.27666" lon="-2.35179">
        <ele>10.39999961853</ele>
        <time>2021-04-04T07:30:46.000Z</time>
      </trkpt>
      <trkpt lat="47.2767" lon="-2.35184">
        <ele>10.39999961853</ele>
        <time>2021-04-04T07:30:47.000Z</time>
      </trkpt>
      <trkpt lat="47.27674" lon="-2.352">
        <ele>10</ele>
        <time>2021-04-04T07:30:49.000Z</time>
      </trkpt>
      <trkpt lat="47.27675" lon="-2.35209">
        <ele>9.6000003814697</ele>
        <time>2021-04-04T07:30:50.000Z</time>
      </trkpt>
      <trkpt lat="47.27675" lon="-2.35217">
        <ele>9</ele>
        <time>2021-04-04T07:30:51.000Z</time>
      </trkpt>
      <trkpt lat="47.27674" lon="-2.35222">
        <ele>8.6000003814697</ele>
        <time>2021-04-04T07:30:52.000Z</time>
      </trkpt>
      <trkpt lat="47.27673" lon="-2.35225">
        <ele>8.1999998092651</ele>
        <time>2021-04-04T07:30:53.000Z</time>
      </trkpt>
      <trkpt lat="47.27659" lon="-2.35234">
        <ele>8.1999998092651</ele>
        <time>2021-04-04T07:30:57.000Z</time>
      </trkpt>
      <trkpt lat="47.27654" lon="-2.35235">
        <ele>8.1999998092651</ele>
        <time>2021-04-04T07:30:58.000Z</time>
      </trkpt>
      <trkpt lat="47.27644" lon="-2.35238">
        <ele>8.1999998092651</ele>
        <time>2021-04-04T07:31:00.000Z</time>
      </trkpt>
      <trkpt lat="47.27634" lon="-2.35243">
        <ele>8.1999998092651</ele>
        <time>2021-04-04T07:31:02.000Z</time>
      </trkpt>
      <trkpt lat="47.27592" lon="-2.35269">
        <ele>8.1999998092651</ele>
        <time>2021-04-04T07:31:10.000Z</time>
      </trkpt>
      <trkpt lat="47.27547" lon="-2.35292">
        <ele>8.1999998092651</ele>
        <time>2021-04-04T07:31:18.000Z</time>
      </trkpt>
      <trkpt lat="47.2751" lon="-2.35299">
        <ele>8.1999998092651</ele>
        <time>2021-04-04T07:31:24.000Z</time>
      </trkpt>
      <trkpt lat="47.27501" lon="-2.35298">
        <ele>7.5999999046326</ele>
        <time>2021-04-04T07:31:26.000Z</time>
      </trkpt>
      <trkpt lat="47.27498" lon="-2.35294">
        <ele>7.1999998092651</ele>
        <time>2021-04-04T07:31:27.000Z</time>
      </trkpt>
      <trkpt lat="47.27497" lon="-2.35289">
        <ele>6.8000001907349</ele>
        <time>2021-04-04T07:31:28.000Z</time>
      </trkpt>
      <trkpt lat="47.27497" lon="-2.35282">
        <ele>6.4000000953674</ele>
        <time>2021-04-04T07:31:29.000Z</time>
      </trkpt>
      <trkpt lat="47.27497" lon="-2.35275">
        <ele>6</ele>
        <time>2021-04-04T07:31:30.000Z</time>
      </trkpt>
      <trkpt lat="47.27498" lon="-2.35269">
        <ele>6</ele>
        <time>2021-04-04T07:31:31.000Z</time>
      </trkpt>
      <trkpt lat="47.275" lon="-2.35242">
        <ele>6.4000000953674</ele>
        <time>2021-04-04T07:31:35.000Z</time>
      </trkpt>
      <trkpt lat="47.27501" lon="-2.35234">
        <ele>6.8000001907349</ele>
        <time>2021-04-04T07:31:36.000Z</time>
      </trkpt>
      <trkpt lat="47.27501" lon="-2.35227">
        <ele>7.1999998092651</ele>
        <time>2021-04-04T07:31:37.000Z</time>
      </trkpt>
      <trkpt lat="47.27501" lon="-2.3522">
        <ele>7.8000001907349</ele>
        <time>2021-04-04T07:31:38.000Z</time>
      </trkpt>
      <trkpt lat="47.275" lon="-2.35212">
        <ele>8.1999998092651</ele>
        <time>2021-04-04T07:31:39.000Z</time>
      </trkpt>
      <trkpt lat="47.27499" lon="-2.35197">
        <ele>8.1999998092651</ele>
        <time>2021-04-04T07:31:41.000Z</time>
      </trkpt>
      <trkpt lat="47.275" lon="-2.35189">
        <ele>8.6000003814697</ele>
        <time>2021-04-04T07:31:42.000Z</time>
      </trkpt>
      <trkpt lat="47.275" lon="-2.35182">
        <ele>9</ele>
        <time>2021-04-04T07:31:43.000Z</time>
      </trkpt>
      <trkpt lat="47.275" lon="-2.35174">
        <ele>9.3999996185303</ele>
        <time>2021-04-04T07:31:44.000Z</time>
      </trkpt>
      <trkpt lat="47.275" lon="-2.35167">
        <ele>10</ele>
        <time>2021-04-04T07:31:45.000Z</time>
      </trkpt>
      <trkpt lat="47.275" lon="-2.35159">
        <ele>10.39999961853</ele>
        <time>2021-04-04T07:31:46.000Z</time>
      </trkpt>
      <trkpt lat="47.275" lon="-2.3513">
        <ele>10.39999961853</ele>
        <time>2021-04-04T07:31:50.000Z</time>
      </trkpt>
      <trkpt lat="47.27501" lon="-2.35114">
        <ele>10.800000190735</ele>
        <time>2021-04-04T07:31:52.000Z</time>
      </trkpt>
      <trkpt lat="47.27501" lon="-2.35107">
        <ele>11.199999809265</ele>
        <time>2021-04-04T07:31:53.000Z</time>
      </trkpt>
      <trkpt lat="47.27501" lon="-2.35099">
        <ele>11.60000038147</ele>
        <time>2021-04-04T07:31:54.000Z</time>
      </trkpt>
      <trkpt lat="47.27501" lon="-2.35092">
        <ele>12</ele>
        <time>2021-04-04T07:31:55.000Z</time>
      </trkpt>
      <trkpt lat="47.27502" lon="-2.35084">
        <ele>12.39999961853</ele>
        <time>2021-04-04T07:31:56.000Z</time>
      </trkpt>
      <trkpt lat="47.27502" lon="-2.35077">
        <ele>12.39999961853</ele>
        <time>2021-04-04T07:31:57.000Z</time>
      </trkpt>
      <trkpt lat="47.27504" lon="-2.35055">
        <ele>12.39999961853</ele>
        <time>2021-04-04T07:32:00.000Z</time>
      </trkpt>
      <trkpt lat="47.27503" lon="-2.35041">
        <ele>12.39999961853</ele>
        <time>2021-04-04T07:32:02.000Z</time>
      </trkpt>
      <trkpt lat="47.27498" lon="-2.35026">
        <ele>12.39999961853</ele>
        <time>2021-04-04T07:32:04.000Z</time>
      </trkpt>
      <trkpt lat="47.27494" lon="-2.35011">
        <ele>12.39999961853</ele>
        <time>2021-04-04T07:32:06.000Z</time>
      </trkpt>
      <trkpt lat="47.27477" lon="-2.34948">
        <ele>12.39999961853</ele>
        <time>2021-04-04T07:32:14.000Z</time>
      </trkpt>
      <trkpt lat="47.2747" lon="-2.34926">
        <ele>12</ele>
        <time>2021-04-04T07:32:17.000Z</time>
      </trkpt>
      <trkpt lat="47.27468" lon="-2.34919">
        <ele>11.39999961853</ele>
        <time>2021-04-04T07:32:18.000Z</time>
      </trkpt>
      <trkpt lat="47.27466" lon="-2.34912">
        <ele>11</ele>
        <time>2021-04-04T07:32:19.000Z</time>
      </trkpt>
      <trkpt lat="47.27465" lon="-2.34905">
        <ele>10.60000038147</ele>
        <time>2021-04-04T07:32:20.000Z</time>
      </trkpt>
      <trkpt lat="47.27464" lon="-2.34897">
        <ele>10.199999809265</ele>
        <time>2021-04-04T07:32:21.000Z</time>
      </trkpt>
      <trkpt lat="47.27463" lon="-2.3488">
        <ele>10.199999809265</ele>
        <time>2021-04-04T07:32:23.000Z</time>
      </trkpt>
      <trkpt lat="47.27463" lon="-2.34865">
        <ele>10.199999809265</ele>
        <time>2021-04-04T07:32:25.000Z</time>
      </trkpt>
      <trkpt lat="47.27461" lon="-2.34838">
        <ele>10.199999809265</ele>
        <time>2021-04-04T07:32:29.000Z</time>
      </trkpt>
      <trkpt lat="47.27459" lon="-2.34835">
        <ele>10.199999809265</ele>
        <time>2021-04-04T07:32:30.000Z</time>
      </trkpt>
      <trkpt lat="47.27447" lon="-2.34838">
        <ele>10.199999809265</ele>
        <time>2021-04-04T07:32:33.000Z</time>
      </trkpt>
      <trkpt lat="47.27442" lon="-2.3484">
        <ele>10.199999809265</ele>
        <time>2021-04-04T07:32:34.000Z</time>
      </trkpt>
      <trkpt lat="47.2742" lon="-2.3485">
        <ele>10.199999809265</ele>
        <time>2021-04-04T07:32:38.000Z</time>
      </trkpt>
      <trkpt lat="47.27375" lon="-2.34866">
        <ele>10.199999809265</ele>
        <time>2021-04-04T07:32:46.000Z</time>
      </trkpt>
      <trkpt lat="47.2737" lon="-2.34865">
        <ele>9.8000001907349</ele>
        <time>2021-04-04T07:32:48.000Z</time>
      </trkpt>
      <trkpt lat="47.27368" lon="-2.34862">
        <ele>9.3999996185303</ele>
        <time>2021-04-04T07:32:49.000Z</time>
      </trkpt>
      <trkpt lat="47.27367" lon="-2.34857">
        <ele>8.8000001907349</ele>
        <time>2021-04-04T07:32:50.000Z</time>
      </trkpt>
      <trkpt lat="47.27366" lon="-2.34851">
        <ele>8.3999996185303</ele>
        <time>2021-04-04T07:32:51.000Z</time>
      </trkpt>
      <trkpt lat="47.27364" lon="-2.34844">
        <ele>8</ele>
        <time>2021-04-04T07:32:52.000Z</time>
      </trkpt>
      <trkpt lat="47.27355" lon="-2.34802">
        <ele>8</ele>
        <time>2021-04-04T07:32:58.000Z</time>
      </trkpt>
      <trkpt lat="47.27354" lon="-2.34795">
        <ele>8</ele>
        <time>2021-04-04T07:32:59.000Z</time>
      </trkpt>
      <trkpt lat="47.27349" lon="-2.34772">
        <ele>8</ele>
        <time>2021-04-04T07:33:02.000Z</time>
      </trkpt>
      <trkpt lat="47.27349" lon="-2.34765">
        <ele>9</ele>
        <time>2021-04-04T07:33:03.000Z</time>
      </trkpt>
      <trkpt lat="47.27348" lon="-2.34759">
        <ele>9.6000003814697</ele>
        <time>2021-04-04T07:33:04.000Z</time>
      </trkpt>
      <trkpt lat="47.27346" lon="-2.34755">
        <ele>10</ele>
        <time>2021-04-04T07:33:05.000Z</time>
      </trkpt>
      <trkpt lat="47.27345" lon="-2.34753">
        <ele>10.60000038147</ele>
        <time>2021-04-04T07:33:06.000Z</time>
      </trkpt>
      <trkpt lat="47.27342" lon="-2.34732">
        <ele>10.60000038147</ele>
        <time>2021-04-04T07:33:10.000Z</time>
      </trkpt>
      <trkpt lat="47.27335" lon="-2.34694">
        <ele>10.60000038147</ele>
        <time>2021-04-04T07:33:15.000Z</time>
      </trkpt>
      <trkpt lat="47.27333" lon="-2.34679">
        <ele>10.60000038147</ele>
        <time>2021-04-04T07:33:17.000Z</time>
      </trkpt>
      <trkpt lat="47.27326" lon="-2.34647">
        <ele>10.60000038147</ele>
        <time>2021-04-04T07:33:21.000Z</time>
      </trkpt>
      <trkpt lat="47.27313" lon="-2.3459">
        <ele>11.39999961853</ele>
        <time>2021-04-04T07:33:28.000Z</time>
      </trkpt>
      <trkpt lat="47.27311" lon="-2.34581">
        <ele>12</ele>
        <time>2021-04-04T07:33:29.000Z</time>
      </trkpt>
      <trkpt lat="47.2731" lon="-2.34573">
        <ele>12.39999961853</ele>
        <time>2021-04-04T07:33:30.000Z</time>
      </trkpt>
      <trkpt lat="47.27308" lon="-2.34565">
        <ele>12.800000190735</ele>
        <time>2021-04-04T07:33:31.000Z</time>
      </trkpt>
      <trkpt lat="47.27299" lon="-2.34522">
        <ele>12.800000190735</ele>
        <time>2021-04-04T07:33:36.000Z</time>
      </trkpt>
      <trkpt lat="47.27288" lon="-2.34473">
        <ele>12.800000190735</ele>
        <time>2021-04-04T07:33:42.000Z</time>
      </trkpt>
      <trkpt lat="47.27284" lon="-2.34461">
        <ele>12.800000190735</ele>
        <time>2021-04-04T07:33:44.000Z</time>
      </trkpt>
      <trkpt lat="47.27281" lon="-2.34458">
        <ele>12.39999961853</ele>
        <time>2021-04-04T07:33:45.000Z</time>
      </trkpt>
      <trkpt lat="47.27276" lon="-2.34456">
        <ele>12</ele>
        <time>2021-04-04T07:33:46.000Z</time>
      </trkpt>
      <trkpt lat="47.2727" lon="-2.34457">
        <ele>11.39999961853</ele>
        <time>2021-04-04T07:33:47.000Z</time>
      </trkpt>
      <trkpt lat="47.27263" lon="-2.34458">
        <ele>11</ele>
        <time>2021-04-04T07:33:48.000Z</time>
      </trkpt>
      <trkpt lat="47.27256" lon="-2.3446">
        <ele>10.60000038147</ele>
        <time>2021-04-04T07:33:49.000Z</time>
      </trkpt>
      <trkpt lat="47.27226" lon="-2.34461">
        <ele>9.8000001907349</ele>
        <time>2021-04-04T07:33:53.000Z</time>
      </trkpt>
      <trkpt lat="47.27218" lon="-2.34461">
        <ele>9.3999996185303</ele>
        <time>2021-04-04T07:33:54.000Z</time>
      </trkpt>
      <trkpt lat="47.2721" lon="-2.34461">
        <ele>9</ele>
        <time>2021-04-04T07:33:55.000Z</time>
      </trkpt>
      <trkpt lat="47.27202" lon="-2.34461">
        <ele>8.6000003814697</ele>
        <time>2021-04-04T07:33:56.000Z</time>
      </trkpt>
      <trkpt lat="47.27195" lon="-2.3446">
        <ele>8.1999998092651</ele>
        <time>2021-04-04T07:33:57.000Z</time>
      </trkpt>
      <trkpt lat="47.27188" lon="-2.3446">
        <ele>7.5999999046326</ele>
        <time>2021-04-04T07:33:58.000Z</time>
      </trkpt>
      <trkpt lat="47.27181" lon="-2.3446">
        <ele>7</ele>
        <time>2021-04-04T07:33:59.000Z</time>
      </trkpt>
      <trkpt lat="47.27175" lon="-2.3446">
        <ele>6.1999998092651</ele>
        <time>2021-04-04T07:34:00.000Z</time>
      </trkpt>
      <trkpt lat="47.2717" lon="-2.3446">
        <ele>5.5999999046326</ele>
        <time>2021-04-04T07:34:01.000Z</time>
      </trkpt>
      <trkpt lat="47.27166" lon="-2.34461">
        <ele>4.8000001907349</ele>
        <time>2021-04-04T07:34:02.000Z</time>
      </trkpt>
      <trkpt lat="47.27162" lon="-2.34466">
        <ele>4</ele>
        <time>2021-04-04T07:34:03.000Z</time>
      </trkpt>
      <trkpt lat="47.27161" lon="-2.34472">
        <ele>3.4000000953674</ele>
        <time>2021-04-04T07:34:04.000Z</time>
      </trkpt>
      <trkpt lat="47.27161" lon="-2.34479">
        <ele>2.5999999046326</ele>
        <time>2021-04-04T07:34:05.000Z</time>
      </trkpt>
      <trkpt lat="47.27163" lon="-2.34486">
        <ele>2</ele>
        <time>2021-04-04T07:34:06.000Z</time>
      </trkpt>
      <trkpt lat="47.27166" lon="-2.34494">
        <ele>1.2000000476837</ele>
        <time>2021-04-04T07:34:07.000Z</time>
      </trkpt>
      <trkpt lat="47.27168" lon="-2.34502">
        <ele>0.40000000596046</ele>
        <time>2021-04-04T07:34:08.000Z</time>
      </trkpt>
      <trkpt lat="47.2717" lon="-2.34512">
        <ele>-0.20000000298023</ele>
        <time>2021-04-04T07:34:09.000Z</time>
      </trkpt>
      <trkpt lat="47.27172" lon="-2.34521">
        <ele>-0.20000000298023</ele>
        <time>2021-04-04T07:34:10.000Z</time>
      </trkpt>
      <trkpt lat="47.27184" lon="-2.34581">
        <ele>-0.20000000298023</ele>
        <time>2021-04-04T07:34:16.000Z</time>
      </trkpt>
      <trkpt lat="47.27194" lon="-2.34631">
        <ele>0.20000000298023</ele>
        <time>2021-04-04T07:34:21.000Z</time>
      </trkpt>
      <trkpt lat="47.27197" lon="-2.34642">
        <ele>0.60000002384186</ele>
        <time>2021-04-04T07:34:22.000Z</time>
      </trkpt>
      <trkpt lat="47.27199" lon="-2.34652">
        <ele>1</ele>
        <time>2021-04-04T07:34:23.000Z</time>
      </trkpt>
      <trkpt lat="47.27202" lon="-2.34662">
        <ele>1.3999999761581</ele>
        <time>2021-04-04T07:34:24.000Z</time>
      </trkpt>
      <trkpt lat="47.27204" lon="-2.34672">
        <ele>1.7999999523163</ele>
        <time>2021-04-04T07:34:25.000Z</time>
      </trkpt>
      <trkpt lat="47.2722" lon="-2.34739">
        <ele>1.7999999523163</ele>
        <time>2021-04-04T07:34:32.000Z</time>
      </trkpt>
      <trkpt lat="47.27222" lon="-2.34748">
        <ele>2.2000000476837</ele>
        <time>2021-04-04T07:34:33.000Z</time>
      </trkpt>
      <trkpt lat="47.27224" lon="-2.34756">
        <ele>2.5999999046326</ele>
        <time>2021-04-04T07:34:34.000Z</time>
      </trkpt>
      <trkpt lat="47.27226" lon="-2.34765">
        <ele>3.2000000476837</ele>
        <time>2021-04-04T07:34:35.000Z</time>
      </trkpt>
      <trkpt lat="47.27228" lon="-2.34774">
        <ele>3.5999999046326</ele>
        <time>2021-04-04T07:34:36.000Z</time>
      </trkpt>
      <trkpt lat="47.2723" lon="-2.34783">
        <ele>4</ele>
        <time>2021-04-04T07:34:37.000Z</time>
      </trkpt>
      <trkpt lat="47.27236" lon="-2.3481">
        <ele>4</ele>
        <time>2021-04-04T07:34:40.000Z</time>
      </trkpt>
      <trkpt lat="47.27253" lon="-2.34876">
        <ele>4</ele>
        <time>2021-04-04T07:34:47.000Z</time>
      </trkpt>
      <trkpt lat="47.27269" lon="-2.34945">
        <ele>4</ele>
        <time>2021-04-04T07:34:54.000Z</time>
      </trkpt>
      <trkpt lat="47.27286" lon="-2.35017">
        <ele>4</ele>
        <time>2021-04-04T07:35:01.000Z</time>
      </trkpt>
      <trkpt lat="47.27304" lon="-2.35095">
        <ele>4</ele>
        <time>2021-04-04T07:35:09.000Z</time>
      </trkpt>
      <trkpt lat="47.27308" lon="-2.35115">
        <ele>3.5999999046326</ele>
        <time>2021-04-04T07:35:11.000Z</time>
      </trkpt>
      <trkpt lat="47.2731" lon="-2.35125">
        <ele>3.2000000476837</ele>
        <time>2021-04-04T07:35:12.000Z</time>
      </trkpt>
      <trkpt lat="47.27312" lon="-2.35135">
        <ele>2.7999999523163</ele>
        <time>2021-04-04T07:35:13.000Z</time>
      </trkpt>
      <trkpt lat="47.27315" lon="-2.35145">
        <ele>2.4000000953674</ele>
        <time>2021-04-04T07:35:14.000Z</time>
      </trkpt>
      <trkpt lat="47.27317" lon="-2.35155">
        <ele>2</ele>
        <time>2021-04-04T07:35:15.000Z</time>
      </trkpt>
      <trkpt lat="47.27332" lon="-2.35225">
        <ele>2</ele>
        <time>2021-04-04T07:35:22.000Z</time>
      </trkpt>
      <trkpt lat="47.27349" lon="-2.35304">
        <ele>2</ele>
        <time>2021-04-04T07:35:30.000Z</time>
      </trkpt>
      <trkpt lat="47.27352" lon="-2.35314">
        <ele>2</ele>
        <time>2021-04-04T07:35:31.000Z</time>
      </trkpt>
      <trkpt lat="47.27366" lon="-2.35378">
        <ele>2</ele>
        <time>2021-04-04T07:35:37.000Z</time>
      </trkpt>
      <trkpt lat="47.27372" lon="-2.3541">
        <ele>1.3999999761581</ele>
        <time>2021-04-04T07:35:40.000Z</time>
      </trkpt>
      <trkpt lat="47.27375" lon="-2.35421">
        <ele>1</ele>
        <time>2021-04-04T07:35:41.000Z</time>
      </trkpt>
      <trkpt lat="47.27377" lon="-2.35432">
        <ele>0.40000000596046</ele>
        <time>2021-04-04T07:35:42.000Z</time>
      </trkpt>
      <trkpt lat="47.2738" lon="-2.35442">
        <ele>9</ele>
        <time>2021-04-04T07:35:43.000Z</time>
      </trkpt>
      <trkpt lat="47.27383" lon="-2.35453">
        <ele>-0.40000000596046</ele>
        <time>2021-04-04T07:35:44.000Z</time>
      </trkpt>
      <trkpt lat="47.27385" lon="-2.35464">
        <ele>-0.80000001192093</ele>
        <time>2021-04-04T07:35:45.000Z</time>
      </trkpt>
      <trkpt lat="47.27387" lon="-2.35475">
        <ele>-1.2000000476837</ele>
        <time>2021-04-04T07:35:46.000Z</time>
      </trkpt>
      <trkpt lat="47.2739" lon="-2.35486">
        <ele>-1.7999999523163</ele>
        <time>2021-04-04T07:35:47.000Z</time>
      </trkpt>
      <trkpt lat="47.27392" lon="-2.35498">
        <ele>-2.2000000476837</ele>
        <time>2021-04-04T07:35:48.000Z</time>
      </trkpt>
      <trkpt lat="47.27394" lon="-2.35509">
        <ele>-2.5999999046326</ele>
        <time>2021-04-04T07:35:49.000Z</time>
      </trkpt>
      <trkpt lat="47.27396" lon="-2.3552">
        <ele>-2.5999999046326</ele>
        <time>2021-04-04T07:35:50.000Z</time>
      </trkpt>
      <trkpt lat="47.27409" lon="-2.35597">
        <ele>-2.5999999046326</ele>
        <time>2021-04-04T07:35:57.000Z</time>
      </trkpt>
      <trkpt lat="47.27412" lon="-2.35618">
        <ele>-3</ele>
        <time>2021-04-04T07:35:59.000Z</time>
      </trkpt>
      <trkpt lat="47.27414" lon="-2.35629">
        <ele>-3.4000000953674</ele>
        <time>2021-04-04T07:36:00.000Z</time>
      </trkpt>
      <trkpt lat="47.27415" lon="-2.35639">
        <ele>-4</ele>
        <time>2021-04-04T07:36:01.000Z</time>
      </trkpt>
      <trkpt lat="47.27417" lon="-2.35649">
        <ele>-4.4000000953674</ele>
        <time>2021-04-04T07:36:02.000Z</time>
      </trkpt>
      <trkpt lat="47.2742" lon="-2.35658">
        <ele>-5</ele>
        <time>2021-04-04T07:36:03.000Z</time>
      </trkpt>
      <trkpt lat="47.27424" lon="-2.35665">
        <ele>-5</ele>
        <time>2021-04-04T07:36:04.000Z</time>
      </trkpt>
      <trkpt lat="47.27437" lon="-2.35676">
        <ele>-5</ele>
        <time>2021-04-04T07:36:07.000Z</time>
      </trkpt>
      <trkpt lat="47.27447" lon="-2.3568">
        <ele>-5</ele>
        <time>2021-04-04T07:36:09.000Z</time>
      </trkpt>
      <trkpt lat="47.27454" lon="-2.3568">
        <ele>-5</ele>
        <time>2021-04-04T07:36:10.000Z</time>
      </trkpt>
      <trkpt lat="47.2747" lon="-2.35681">
        <ele>-5</ele>
        <time>2021-04-04T07:36:12.000Z</time>
      </trkpt>
      <trkpt lat="47.2751" lon="-2.35688">
        <ele>-5</ele>
        <time>2021-04-04T07:36:18.000Z</time>
      </trkpt>
      <trkpt lat="47.27534" lon="-2.35693">
        <ele>-5.8000001907349</ele>
        <time>2021-04-04T07:36:22.000Z</time>
      </trkpt>
      <trkpt lat="47.27539" lon="-2.35694">
        <ele>-6.1999998092651</ele>
        <time>2021-04-04T07:36:23.000Z</time>
      </trkpt>
      <trkpt lat="47.27545" lon="-2.35695">
        <ele>-6.5999999046326</ele>
        <time>2021-04-04T07:36:24.000Z</time>
      </trkpt>
      <trkpt lat="47.27551" lon="-2.35696">
        <ele>-7</ele>
        <time>2021-04-04T07:36:25.000Z</time>
      </trkpt>
      <trkpt lat="47.27568" lon="-2.35701">
        <ele>-6.5999999046326</ele>
        <time>2021-04-04T07:36:28.000Z</time>
      </trkpt>
      <trkpt lat="47.27574" lon="-2.35703">
        <ele>-6.1999998092651</ele>
        <time>2021-04-04T07:36:29.000Z</time>
      </trkpt>
      <trkpt lat="47.2758" lon="-2.35704">
        <ele>-5.8000001907349</ele>
        <time>2021-04-04T07:36:30.000Z</time>
      </trkpt>
      <trkpt lat="47.27586" lon="-2.35705">
        <ele>-5.4000000953674</ele>
        <time>2021-04-04T07:36:31.000Z</time>
      </trkpt>
      <trkpt lat="47.27592" lon="-2.35707">
        <ele>-5</ele>
        <time>2021-04-04T07:36:32.000Z</time>
      </trkpt>
      <trkpt lat="47.27621" lon="-2.35714">
        <ele>-5</ele>
        <time>2021-04-04T07:36:37.000Z</time>
      </trkpt>
      <trkpt lat="47.27652" lon="-2.35722">
        <ele>-5</ele>
        <time>2021-04-04T07:36:43.000Z</time>
      </trkpt>
      <trkpt lat="47.27687" lon="-2.35732">
        <ele>-5</ele>
        <time>2021-04-04T07:36:50.000Z</time>
      </trkpt>
      <trkpt lat="47.27692" lon="-2.35731">
        <ele>-5</ele>
        <time>2021-04-04T07:36:51.000Z</time>
      </trkpt>
      <trkpt lat="47.27696" lon="-2.35727">
        <ele>-4.5999999046326</ele>
        <time>2021-04-04T07:36:52.000Z</time>
      </trkpt>
      <trkpt lat="47.27701" lon="-2.35724">
        <ele>-4</ele>
        <time>2021-04-04T07:36:53.000Z</time>
      </trkpt>
      <trkpt lat="47.27706" lon="-2.3572">
        <ele>-3.5999999046326</ele>
        <time>2021-04-04T07:36:54.000Z</time>
      </trkpt>
      <trkpt lat="47.2771" lon="-2.35715">
        <ele>-3.2000000476837</ele>
        <time>2021-04-04T07:36:55.000Z</time>
      </trkpt>
      <trkpt lat="47.27714" lon="-2.35711">
        <ele>-2.7999999523163</ele>
        <time>2021-04-04T07:36:56.000Z</time>
      </trkpt>
      <trkpt lat="47.27721" lon="-2.35701">
        <ele>-2.7999999523163</ele>
        <time>2021-04-04T07:36:58.000Z</time>
      </trkpt>
      <trkpt lat="47.27725" lon="-2.35696">
        <ele>-2.4000000953674</ele>
        <time>2021-04-04T07:36:59.000Z</time>
      </trkpt>
      <trkpt lat="47.27729" lon="-2.3569">
        <ele>-1.7999999523163</ele>
        <time>2021-04-04T07:37:00.000Z</time>
      </trkpt>
      <trkpt lat="47.27732" lon="-2.35685">
        <ele>-1.3999999761581</ele>
        <time>2021-04-04T07:37:01.000Z</time>
      </trkpt>
      <trkpt lat="47.27736" lon="-2.35679">
        <ele>-1</ele>
        <time>2021-04-04T07:37:02.000Z</time>
      </trkpt>
      <trkpt lat="47.27739" lon="-2.35674">
        <ele>-0.60000002384186</ele>
        <time>2021-04-04T07:37:03.000Z</time>
      </trkpt>
      <trkpt lat="47.27743" lon="-2.35669">
        <ele>-0.60000002384186</ele>
        <time>2021-04-04T07:37:04.000Z</time>
      </trkpt>
      <trkpt lat="47.27746" lon="-2.35663">
        <ele>-0.60000002384186</ele>
        <time>2021-04-04T07:37:05.000Z</time>
      </trkpt>
      <trkpt lat="47.27761" lon="-2.35641">
        <ele>13.9</ele>
        <time>2021-04-04T07:37:09.000Z</time>
      </trkpt>
      <trkpt lat="47.27764" lon="-2.35637">
        <ele>0.40000000596046</ele>
        <time>2021-04-04T07:37:10.000Z</time>
      </trkpt>
      <trkpt lat="47.27768" lon="-2.35633">
        <ele>1.3999999761581</ele>
        <time>2021-04-04T07:37:11.000Z</time>
      </trkpt>
      <trkpt lat="47.27772" lon="-2.35629">
        <ele>1.7999999523163</ele>
        <time>2021-04-04T07:37:12.000Z</time>
      </trkpt>
      <trkpt lat="47.27776" lon="-2.35625">
        <ele>1.7999999523163</ele>
        <time>2021-04-04T07:37:13.000Z</time>
      </trkpt>
      <trkpt lat="47.2778" lon="-2.35623">
        <ele>1.7999999523163</ele>
        <time>2021-04-04T07:37:14.000Z</time>
      </trkpt>
      <trkpt lat="47.27798" lon="-2.35613">
        <ele>1.7999999523163</ele>
        <time>2021-04-04T07:37:18.000Z</time>
      </trkpt>
      <trkpt lat="47.27832" lon="-2.35604">
        <ele>1.7999999523163</ele>
        <time>2021-04-04T07:37:25.000Z</time>
      </trkpt>
      <trkpt lat="47.27859" lon="-2.35596">
        <ele>1.7999999523163</ele>
        <time>2021-04-04T07:37:31.000Z</time>
      </trkpt>
      <trkpt lat="47.27884" lon="-2.35591">
        <ele>2.2000000476837</ele>
        <time>2021-04-04T07:37:37.000Z</time>
      </trkpt>
      <trkpt lat="47.27888" lon="-2.3559">
        <ele>2.5999999046326</ele>
        <time>2021-04-04T07:37:38.000Z</time>
      </trkpt>
      <trkpt lat="47.27892" lon="-2.35589">
        <ele>3</ele>
        <time>2021-04-04T07:37:39.000Z</time>
      </trkpt>
      <trkpt lat="47.27896" lon="-2.35588">
        <ele>3.4000000953674</ele>
        <time>2021-04-04T07:37:40.000Z</time>
      </trkpt>
      <trkpt lat="47.279" lon="-2.35587">
        <ele>4</ele>
        <time>2021-04-04T07:37:41.000Z</time>
      </trkpt>
      <trkpt lat="47.27926" lon="-2.35581">
        <ele>4</ele>
        <time>2021-04-04T07:37:47.000Z</time>
      </trkpt>
      <trkpt lat="47.27949" lon="-2.35578">
        <ele>4</ele>
        <time>2021-04-04T07:37:53.000Z</time>
      </trkpt>
      <trkpt lat="47.27972" lon="-2.35583">
        <ele>4</ele>
        <time>2021-04-04T07:37:59.000Z</time>
      </trkpt>
      <trkpt lat="47.27994" lon="-2.35584">
        <ele>4</ele>
        <time>2021-04-04T07:38:05.000Z</time>
      </trkpt>
      <trkpt lat="47.28006" lon="-2.3558">
        <ele>4.4000000953674</ele>
        <time>2021-04-04T07:38:08.000Z</time>
      </trkpt>
      <trkpt lat="47.2801" lon="-2.35579">
        <ele>4.8000001907349</ele>
        <time>2021-04-04T07:38:09.000Z</time>
      </trkpt>
      <trkpt lat="47.28014" lon="-2.35579">
        <ele>5.1999998092651</ele>
        <time>2021-04-04T07:38:10.000Z</time>
      </trkpt>
      <trkpt lat="47.28018" lon="-2.35579">
        <ele>5.5999999046326</ele>
        <time>2021-04-04T07:38:11.000Z</time>
      </trkpt>
      <trkpt lat="47.28022" lon="-2.35579">
        <ele>6</ele>
        <time>2021-04-04T07:38:12.000Z</time>
      </trkpt>
      <trkpt lat="47.28037" lon="-2.35575">
        <ele>6</ele>
        <time>2021-04-04T07:38:16.000Z</time>
      </trkpt>
      <trkpt lat="47.28041" lon="-2.35575">
        <ele>6</ele>
        <time>2021-04-04T07:38:17.000Z</time>
      </trkpt>
      <trkpt lat="47.28055" lon="-2.3558">
        <ele>6</ele>
        <time>2021-04-04T07:38:21.000Z</time>
      </trkpt>
      <trkpt lat="47.28061" lon="-2.35582">
        <ele>6</ele>
        <time>2021-04-04T07:38:23.000Z</time>
      </trkpt>
      <trkpt lat="47.28069" lon="-2.35587">
        <ele>6</ele>
        <time>2021-04-04T07:38:28.000Z</time>
      </trkpt>
      <trkpt lat="47.2807" lon="-2.35591">
        <ele>6</ele>
        <time>2021-04-04T07:38:31.000Z</time>
      </trkpt>
      <trkpt lat="47.28072" lon="-2.35596">
        <ele>6</ele>
        <time>2021-04-04T07:39:08.000Z</time>
      </trkpt>
      <trkpt lat="47.28073" lon="-2.35599">
        <ele>6</ele>
        <time>2021-04-04T07:39:09.000Z</time>
      </trkpt>
      <trkpt lat="47.28076" lon="-2.35614">
        <ele>6.4000000953674</ele>
        <time>2021-04-04T07:39:13.000Z</time>
      </trkpt>
      <trkpt lat="47.28076" lon="-2.35617">
        <ele>6.8000001907349</ele>
        <time>2021-04-04T07:39:14.000Z</time>
      </trkpt>
      <trkpt lat="47.28076" lon="-2.3562">
        <ele>7.5999999046326</ele>
        <time>2021-04-04T07:39:15.000Z</time>
      </trkpt>
      <trkpt lat="47.28077" lon="-2.35624">
        <ele>8</ele>
        <time>2021-04-04T07:39:16.000Z</time>
      </trkpt>
      <trkpt lat="47.28077" lon="-2.35637">
        <ele>8</ele>
        <time>2021-04-04T07:39:20.000Z</time>
      </trkpt>
      <trkpt lat="47.28078" lon="-2.3564">
        <ele>8.3999996185303</ele>
        <time>2021-04-04T07:39:21.000Z</time>
      </trkpt>
      <trkpt lat="47.28079" lon="-2.35644">
        <ele>8.8000001907349</ele>
        <time>2021-04-04T07:39:22.000Z</time>
      </trkpt>
      <trkpt lat="47.2808" lon="-2.35647">
        <ele>9.1999998092651</ele>
        <time>2021-04-04T07:39:23.000Z</time>
      </trkpt>
      <trkpt lat="47.28081" lon="-2.35651">
        <ele>9.8000001907349</ele>
        <time>2021-04-04T07:39:24.000Z</time>
      </trkpt>
      <trkpt lat="47.28081" lon="-2.35654">
        <ele>10.199999809265</ele>
        <time>2021-04-04T07:39:25.000Z</time>
      </trkpt>
      <trkpt lat="47.28084" lon="-2.35665">
        <ele>10.199999809265</ele>
        <time>2021-04-04T07:39:28.000Z</time>
      </trkpt>
      <trkpt lat="47.28085" lon="-2.35668">
        <ele>10.60000038147</ele>
        <time>2021-04-04T07:39:29.000Z</time>
      </trkpt>
      <trkpt lat="47.28086" lon="-2.35671">
        <ele>11</ele>
        <time>2021-04-04T07:39:30.000Z</time>
      </trkpt>
      <trkpt lat="47.28086" lon="-2.35673">
        <ele>11.39999961853</ele>
        <time>2021-04-04T07:39:31.000Z</time>
      </trkpt>
      <trkpt lat="47.28087" lon="-2.35675">
        <ele>11.800000190735</ele>
        <time>2021-04-04T07:39:32.000Z</time>
      </trkpt>
      <trkpt lat="47.28088" lon="-2.35678">
        <ele>12.199999809265</ele>
        <time>2021-04-04T07:39:33.000Z</time>
      </trkpt>
      <trkpt lat="47.28089" lon="-2.3568">
        <ele>12.199999809265</ele>
        <time>2021-04-04T07:39:34.000Z</time>
      </trkpt>
      <trkpt lat="47.28095" lon="-2.35692">
        <ele>12.199999809265</ele>
        <time>2021-04-04T07:39:41.000Z</time>
      </trkpt>
      <trkpt lat="47.28096" lon="-2.35693">
        <ele>12.199999809265</ele>
        <time>2021-04-04T07:39:42.000Z</time>
      </trkpt>
      <trkpt lat="47.28097" lon="-2.35693">
        <ele>12.60000038147</ele>
        <time>2021-04-04T07:39:43.000Z</time>
      </trkpt>
      <trkpt lat="47.28098" lon="-2.35693">
        <ele>13</ele>
        <time>2021-04-04T07:39:44.000Z</time>
      </trkpt>
      <trkpt lat="47.281" lon="-2.35691">
        <ele>13.39999961853</ele>
        <time>2021-04-04T07:39:45.000Z</time>
      </trkpt>
      <trkpt lat="47.281" lon="-2.3569">
        <ele>13.800000190735</ele>
        <time>2021-04-04T07:39:46.000Z</time>
      </trkpt>
      <trkpt lat="47.28101" lon="-2.35689">
        <ele>14.199999809265</ele>
        <time>2021-04-04T07:39:47.000Z</time>
      </trkpt>
      <trkpt lat="47.28106" lon="-2.35687">
        <ele>14.199999809265</ele>
        <time>2021-04-04T07:39:50.000Z</time>
      </trkpt>
      <trkpt lat="47.28111" lon="-2.35685">
        <ele>14.60000038147</ele>
        <time>2021-04-04T07:39:54.000Z</time>
      </trkpt>
      <trkpt lat="47.28112" lon="-2.35684">
        <ele>15.199999809265</ele>
        <time>2021-04-04T07:39:55.000Z</time>
      </trkpt>
      <trkpt lat="47.28113" lon="-2.35684">
        <ele>15.60000038147</ele>
        <time>2021-04-04T07:39:56.000Z</time>
      </trkpt>
      <trkpt lat="47.28113" lon="-2.35684">
        <ele>16</ele>
        <time>2021-04-04T07:39:57.000Z</time>
      </trkpt>
      <trkpt lat="47.28114" lon="-2.35683">
        <ele>16.39999961853</ele>
        <time>2021-04-04T07:39:58.000Z</time>
      </trkpt>
      <trkpt lat="47.28121" lon="-2.35682">
        <ele>17.60000038147</ele>
        <time>2021-04-04T07:40:08.000Z</time>
      </trkpt>
      <trkpt lat="47.28122" lon="-2.35682">
        <ele>18</ele>
        <time>2021-04-04T07:40:09.000Z</time>
      </trkpt>
      <trkpt lat="47.28122" lon="-2.35682">
        <ele>18.39999961853</ele>
        <time>2021-04-04T07:40:10.000Z</time>
      </trkpt>
      <trkpt lat="47.28128" lon="-2.35678">
        <ele>18.39999961853</ele>
        <time>2021-04-04T07:40:16.000Z</time>
      </trkpt>
      <trkpt lat="47.28133" lon="-2.35676">
        <ele>18.799999237061</ele>
        <time>2021-04-04T07:40:18.000Z</time>
      </trkpt>
      <trkpt lat="47.28135" lon="-2.35675">
        <ele>19.200000762939</ele>
        <time>2021-04-04T07:40:19.000Z</time>
      </trkpt>
      <trkpt lat="47.28136" lon="-2.35673">
        <ele>19.799999237061</ele>
        <time>2021-04-04T07:40:20.000Z</time>
      </trkpt>
      <trkpt lat="47.28139" lon="-2.3567">
        <ele>20.200000762939</ele>
        <time>2021-04-04T07:40:21.000Z</time>
      </trkpt>
      <trkpt lat="47.28142" lon="-2.35669">
        <ele>20.60000038147</ele>
        <time>2021-04-04T07:40:22.000Z</time>
      </trkpt>
      <trkpt lat="47.28153" lon="-2.35675">
        <ele>20.60000038147</ele>
        <time>2021-04-04T07:40:26.000Z</time>
      </trkpt>
      <trkpt lat="47.28161" lon="-2.35681">
        <ele>20.200000762939</ele>
        <time>2021-04-04T07:40:30.000Z</time>
      </trkpt>
      <trkpt lat="47.28162" lon="-2.3568">
        <ele>19.799999237061</ele>
        <time>2021-04-04T07:40:31.000Z</time>
      </trkpt>
      <trkpt lat="47.28163" lon="-2.35679">
        <ele>19.200000762939</ele>
        <time>2021-04-04T07:40:32.000Z</time>
      </trkpt>
      <trkpt lat="47.28164" lon="-2.35679">
        <ele>18.799999237061</ele>
        <time>2021-04-04T07:40:33.000Z</time>
      </trkpt>
      <trkpt lat="47.28165" lon="-2.35679">
        <ele>18.39999961853</ele>
        <time>2021-04-04T07:40:34.000Z</time>
      </trkpt>
      <trkpt lat="47.28169" lon="-2.35683">
        <ele>18.39999961853</ele>
        <time>2021-04-04T07:40:36.000Z</time>
      </trkpt>
      <trkpt lat="47.28175" lon="-2.35693">
        <ele>18</ele>
        <time>2021-04-04T07:40:39.000Z</time>
      </trkpt>
      <trkpt lat="47.28177" lon="-2.35695">
        <ele>17.39999961853</ele>
        <time>2021-04-04T07:40:40.000Z</time>
      </trkpt>
      <trkpt lat="47.28179" lon="-2.35697">
        <ele>16.799999237061</ele>
        <time>2021-04-04T07:40:41.000Z</time>
      </trkpt>
      <trkpt lat="47.2818" lon="-2.35698">
        <ele>16.39999961853</ele>
        <time>2021-04-04T07:40:42.000Z</time>
      </trkpt>
      <trkpt lat="47.2818" lon="-2.35698">
        <ele>15.800000190735</ele>
        <time>2021-04-04T07:40:43.000Z</time>
      </trkpt>
      <trkpt lat="47.28201" lon="-2.35722">
        <ele>11.800000190735</ele>
        <time>2021-04-04T07:42:09.000Z</time>
      </trkpt>
      <trkpt lat="47.28203" lon="-2.35722">
        <ele>11.800000190735</ele>
        <time>2021-04-04T07:42:11.000Z</time>
      </trkpt>
      <trkpt lat="47.28214" lon="-2.35722">
        <ele>11.800000190735</ele>
        <time>2021-04-04T07:42:17.000Z</time>
      </trkpt>
      <trkpt lat="47.28217" lon="-2.35723">
        <ele>11.800000190735</ele>
        <time>2021-04-04T07:42:20.000Z</time>
      </trkpt>
      <trkpt lat="47.2822" lon="-2.35728">
        <ele>11.800000190735</ele>
        <time>2021-04-04T07:42:30.000Z</time>
      </trkpt>
      <trkpt lat="47.28221" lon="-2.35731">
        <ele>11.800000190735</ele>
        <time>2021-04-04T07:42:31.000Z</time>
      </trkpt>
      <trkpt lat="47.28223" lon="-2.35738">
        <ele>11.800000190735</ele>
        <time>2021-04-04T07:42:34.000Z</time>
      </trkpt>
      <trkpt lat="47.28225" lon="-2.35746">
        <ele>11.800000190735</ele>
        <time>2021-04-04T07:42:37.000Z</time>
      </trkpt>
      <trkpt lat="47.28229" lon="-2.35759">
        <ele>12.199999809265</ele>
        <time>2021-04-04T07:42:42.000Z</time>
      </trkpt>
      <trkpt lat="47.2823" lon="-2.35761">
        <ele>12.60000038147</ele>
        <time>2021-04-04T07:42:43.000Z</time>
      </trkpt>
      <trkpt lat="47.28231" lon="-2.35764">
        <ele>13.199999809265</ele>
        <time>2021-04-04T07:42:44.000Z</time>
      </trkpt>
      <trkpt lat="47.28231" lon="-2.35766">
        <ele>13.60000038147</ele>
        <time>2021-04-04T07:42:45.000Z</time>
      </trkpt>
      <trkpt lat="47.28231" lon="-2.35768">
        <ele>14</ele>
        <time>2021-04-04T07:42:46.000Z</time>
      </trkpt>
      <trkpt lat="47.28231" lon="-2.35772">
        <ele>14</ele>
        <time>2021-04-04T07:42:49.000Z</time>
      </trkpt>
      <trkpt lat="47.28228" lon="-2.35774">
        <ele>14</ele>
        <time>2021-04-04T07:43:05.000Z</time>
      </trkpt>
      <trkpt lat="47.28226" lon="-2.3578">
        <ele>14</ele>
        <time>2021-04-04T07:43:08.000Z</time>
      </trkpt>
      <trkpt lat="47.28218" lon="-2.35787">
        <ele>14</ele>
        <time>2021-04-04T07:43:14.000Z</time>
      </trkpt>
      <trkpt lat="47.28215" lon="-2.35786">
        <ele>14.39999961853</ele>
        <time>2021-04-04T07:43:15.000Z</time>
      </trkpt>
      <trkpt lat="47.28213" lon="-2.35785">
        <ele>14.800000190735</ele>
        <time>2021-04-04T07:43:16.000Z</time>
      </trkpt>
      <trkpt lat="47.28211" lon="-2.35783">
        <ele>15.199999809265</ele>
        <time>2021-04-04T07:43:17.000Z</time>
      </trkpt>
      <trkpt lat="47.28211" lon="-2.35781">
        <ele>15.800000190735</ele>
        <time>2021-04-04T07:43:18.000Z</time>
      </trkpt>
      <trkpt lat="47.2821" lon="-2.35777">
        <ele>16.200000762939</ele>
        <time>2021-04-04T07:43:19.000Z</time>
      </trkpt>
      <trkpt lat="47.2821" lon="-2.35755">
        <ele>15.60000038147</ele>
        <time>2021-04-04T07:43:23.000Z</time>
      </trkpt>
      <trkpt lat="47.2821" lon="-2.35751">
        <ele>15.199999809265</ele>
        <time>2021-04-04T07:43:24.000Z</time>
      </trkpt>
      <trkpt lat="47.2821" lon="-2.35748">
        <ele>14.800000190735</ele>
        <time>2021-04-04T07:43:25.000Z</time>
      </trkpt>
      <trkpt lat="47.2821" lon="-2.35746">
        <ele>14.39999961853</ele>
        <time>2021-04-04T07:43:26.000Z</time>
      </trkpt>
      <trkpt lat="47.28209" lon="-2.35745">
        <ele>13.800000190735</ele>
        <time>2021-04-04T07:43:27.000Z</time>
      </trkpt>
      <trkpt lat="47.28208" lon="-2.35745">
        <ele>13.199999809265</ele>
        <time>2021-04-04T07:43:28.000Z</time>
      </trkpt>
      <trkpt lat="47.28206" lon="-2.35745">
        <ele>12.60000038147</ele>
        <time>2021-04-04T07:43:29.000Z</time>
      </trkpt>
      <trkpt lat="47.28205" lon="-2.35746">
        <ele>12.199999809265</ele>
        <time>2021-04-04T07:43:30.000Z</time>
      </trkpt>
      <trkpt lat="47.28204" lon="-2.35748">
        <ele>11.60000038147</ele>
        <time>2021-04-04T07:43:31.000Z</time>
      </trkpt>
      <trkpt lat="47.28199" lon="-2.35756">
        <ele>11.60000038147</ele>
        <time>2021-04-04T07:43:35.000Z</time>
      </trkpt>
      <trkpt lat="47.2819" lon="-2.3576">
        <ele>11.60000038147</ele>
        <time>2021-04-04T07:43:41.000Z</time>
      </trkpt>
      <trkpt lat="47.28182" lon="-2.35756">
        <ele>11.60000038147</ele>
        <time>2021-04-04T07:43:46.000Z</time>
      </trkpt>
      <trkpt lat="47.2818" lon="-2.35755">
        <ele>11.60000038147</ele>
        <time>2021-04-04T07:43:47.000Z</time>
      </trkpt>
      <trkpt lat="47.28171" lon="-2.35753">
        <ele>11.60000038147</ele>
        <time>2021-04-04T07:43:53.000Z</time>
      </trkpt>
      <trkpt lat="47.28165" lon="-2.35754">
        <ele>11.60000038147</ele>
        <time>2021-04-04T07:43:56.000Z</time>
      </trkpt>
      <trkpt lat="47.28161" lon="-2.35756">
        <ele>11.60000038147</ele>
        <time>2021-04-04T07:43:59.000Z</time>
      </trkpt>
      <trkpt lat="47.28159" lon="-2.35763">
        <ele>11.60000038147</ele>
        <time>2021-04-04T07:44:04.000Z</time>
      </trkpt>
      <trkpt lat="47.28161" lon="-2.35771">
        <ele>11.60000038147</ele>
        <time>2021-04-04T07:44:10.000Z</time>
      </trkpt>
      <trkpt lat="47.28161" lon="-2.35774">
        <ele>11.60000038147</ele>
        <time>2021-04-04T07:44:13.000Z</time>
      </trkpt>
      <trkpt lat="47.28163" lon="-2.3578">
        <ele>11.60000038147</ele>
        <time>2021-04-04T07:44:20.000Z</time>
      </trkpt>
      <trkpt lat="47.28166" lon="-2.35784">
        <ele>11.60000038147</ele>
        <time>2021-04-04T07:44:22.000Z</time>
      </trkpt>
      <trkpt lat="47.28173" lon="-2.35798">
        <ele>11.60000038147</ele>
        <time>2021-04-04T07:44:27.000Z</time>
      </trkpt>
      <trkpt lat="47.28182" lon="-2.35822">
        <ele>11.60000038147</ele>
        <time>2021-04-04T07:44:32.000Z</time>
      </trkpt>
      <trkpt lat="47.28191" lon="-2.3584">
        <ele>11.60000038147</ele>
        <time>2021-04-04T07:44:37.000Z</time>
      </trkpt>
      <trkpt lat="47.28194" lon="-2.35852">
        <ele>11.60000038147</ele>
        <time>2021-04-04T07:44:41.000Z</time>
      </trkpt>
      <trkpt lat="47.28194" lon="-2.35856">
        <ele>11.60000038147</ele>
        <time>2021-04-04T07:44:43.000Z</time>
      </trkpt>
      <trkpt lat="47.282" lon="-2.35872">
        <ele>11.60000038147</ele>
        <time>2021-04-04T07:44:49.000Z</time>
      </trkpt>
      <trkpt lat="47.28211" lon="-2.35893">
        <ele>11.60000038147</ele>
        <time>2021-04-04T07:44:55.000Z</time>
      </trkpt>
      <trkpt lat="47.28222" lon="-2.35899">
        <ele>11.60000038147</ele>
        <time>2021-04-04T07:44:58.000Z</time>
      </trkpt>
      <trkpt lat="47.28226" lon="-2.35899">
        <ele>11.60000038147</ele>
        <time>2021-04-04T07:44:59.000Z</time>
      </trkpt>
      <trkpt lat="47.28236" lon="-2.35897">
        <ele>11.60000038147</ele>
        <time>2021-04-04T07:45:03.000Z</time>
      </trkpt>
      <trkpt lat="47.28244" lon="-2.35898">
        <ele>11.60000038147</ele>
        <time>2021-04-04T07:45:07.000Z</time>
      </trkpt>
      <trkpt lat="47.28247" lon="-2.35901">
        <ele>11.60000038147</ele>
        <time>2021-04-04T07:45:09.000Z</time>
      </trkpt>
      <trkpt lat="47.28254" lon="-2.35915">
        <ele>11.60000038147</ele>
        <time>2021-04-04T07:45:14.000Z</time>
      </trkpt>
      <trkpt lat="47.28259" lon="-2.35925">
        <ele>11.60000038147</ele>
        <time>2021-04-04T07:45:16.000Z</time>
      </trkpt>
      <trkpt lat="47.28281" lon="-2.35969">
        <ele>11.60000038147</ele>
        <time>2021-04-04T07:45:23.000Z</time>
      </trkpt>
      <trkpt lat="47.28279" lon="-2.35989">
        <ele>11.60000038147</ele>
        <time>2021-04-04T07:45:26.000Z</time>
      </trkpt>
      <trkpt lat="47.28278" lon="-2.35995">
        <ele>11.60000038147</ele>
        <time>2021-04-04T07:45:27.000Z</time>
      </trkpt>
      <trkpt lat="47.28274" lon="-2.3602">
        <ele>11.60000038147</ele>
        <time>2021-04-04T07:45:32.000Z</time>
      </trkpt>
      <trkpt lat="47.28281" lon="-2.36034">
        <ele>12</ele>
        <time>2021-04-04T07:45:37.000Z</time>
      </trkpt>
      <trkpt lat="47.28283" lon="-2.36036">
        <ele>12.60000038147</ele>
        <time>2021-04-04T07:45:38.000Z</time>
      </trkpt>
      <trkpt lat="47.28284" lon="-2.36037">
        <ele>13</ele>
        <time>2021-04-04T07:45:39.000Z</time>
      </trkpt>
      <trkpt lat="47.28286" lon="-2.36039">
        <ele>13.60000038147</ele>
        <time>2021-04-04T07:45:40.000Z</time>
      </trkpt>
      <trkpt lat="47.28288" lon="-2.3604">
        <ele>14</ele>
        <time>2021-04-04T07:45:41.000Z</time>
      </trkpt>
      <trkpt lat="47.28289" lon="-2.36042">
        <ele>14.60000038147</ele>
        <time>2021-04-04T07:45:42.000Z</time>
      </trkpt>
      <trkpt lat="47.28291" lon="-2.36043">
        <ele>15</ele>
        <time>2021-04-04T07:45:43.000Z</time>
      </trkpt>
      <trkpt lat="47.28292" lon="-2.36044">
        <ele>15.39999961853</ele>
        <time>2021-04-04T07:45:44.000Z</time>
      </trkpt>
      <trkpt lat="47.28294" lon="-2.36045">
        <ele>16</ele>
        <time>2021-04-04T07:45:45.000Z</time>
      </trkpt>
      <trkpt lat="47.28296" lon="-2.36045">
        <ele>16.39999961853</ele>
        <time>2021-04-04T07:45:46.000Z</time>
      </trkpt>
      <trkpt lat="47.28299" lon="-2.36048">
        <ele>16.799999237061</ele>
        <time>2021-04-04T07:45:48.000Z</time>
      </trkpt>
      <trkpt lat="47.28301" lon="-2.36049">
        <ele>17.200000762939</ele>
        <time>2021-04-04T07:45:49.000Z</time>
      </trkpt>
      <trkpt lat="47.28303" lon="-2.36049">
        <ele>17.60000038147</ele>
        <time>2021-04-04T07:45:50.000Z</time>
      </trkpt>
      <trkpt lat="47.28306" lon="-2.3605">
        <ele>18.39999961853</ele>
        <time>2021-04-04T07:45:51.000Z</time>
      </trkpt>
      <trkpt lat="47.28323" lon="-2.36048">
        <ele>18.39999961853</ele>
        <time>2021-04-04T07:45:57.000Z</time>
      </trkpt>
      <trkpt lat="47.28341" lon="-2.36033">
        <ele>18.39999961853</ele>
        <time>2021-04-04T07:46:03.000Z</time>
      </trkpt>
      <trkpt lat="47.28355" lon="-2.36026">
        <ele>18.799999237061</ele>
        <time>2021-04-04T07:46:08.000Z</time>
      </trkpt>
      <trkpt lat="47.28357" lon="-2.36025">
        <ele>19.39999961853</ele>
        <time>2021-04-04T07:46:09.000Z</time>
      </trkpt>
      <trkpt lat="47.28359" lon="-2.36025">
        <ele>19.799999237061</ele>
        <time>2021-04-04T07:46:10.000Z</time>
      </trkpt>
      <trkpt lat="47.28362" lon="-2.36024">
        <ele>20.200000762939</ele>
        <time>2021-04-04T07:46:11.000Z</time>
      </trkpt>
      <trkpt lat="47.28364" lon="-2.36024">
        <ele>20.60000038147</ele>
        <time>2021-04-04T07:46:12.000Z</time>
      </trkpt>
      <trkpt lat="47.28367" lon="-2.36023">
        <ele>21</ele>
        <time>2021-04-04T07:46:14.000Z</time>
      </trkpt>
      <trkpt lat="47.2837" lon="-2.36023">
        <ele>21.39999961853</ele>
        <time>2021-04-04T07:46:15.000Z</time>
      </trkpt>
      <trkpt lat="47.28372" lon="-2.36023">
        <ele>22.200000762939</ele>
        <time>2021-04-04T07:46:16.000Z</time>
      </trkpt>
      <trkpt lat="47.28374" lon="-2.36022">
        <ele>22.60000038147</ele>
        <time>2021-04-04T07:46:17.000Z</time>
      </trkpt>
      <trkpt lat="47.28382" lon="-2.36023">
        <ele>23</ele>
        <time>2021-04-04T07:46:21.000Z</time>
      </trkpt>
      <trkpt lat="47.28384" lon="-2.36023">
        <ele>23.60000038147</ele>
        <time>2021-04-04T07:46:22.000Z</time>
      </trkpt>
      <trkpt lat="47.28386" lon="-2.36024">
        <ele>24</ele>
        <time>2021-04-04T07:46:23.000Z</time>
      </trkpt>
      <trkpt lat="47.28387" lon="-2.36024">
        <ele>24.39999961853</ele>
        <time>2021-04-04T07:46:24.000Z</time>
      </trkpt>
      <trkpt lat="47.28389" lon="-2.36024">
        <ele>24.799999237061</ele>
        <time>2021-04-04T07:46:25.000Z</time>
      </trkpt>
      <trkpt lat="47.28399" lon="-2.36022">
        <ele>25.200000762939</ele>
        <time>2021-04-04T07:46:30.000Z</time>
      </trkpt>
      <trkpt lat="47.28401" lon="-2.36021">
        <ele>25.60000038147</ele>
        <time>2021-04-04T07:46:31.000Z</time>
      </trkpt>
      <trkpt lat="47.28403" lon="-2.36019">
        <ele>26.200000762939</ele>
        <time>2021-04-04T07:46:32.000Z</time>
      </trkpt>
      <trkpt lat="47.28404" lon="-2.36017">
        <ele>26.60000038147</ele>
        <time>2021-04-04T07:46:33.000Z</time>
      </trkpt>
      <trkpt lat="47.28407" lon="-2.36014">
        <ele>27</ele>
        <time>2021-04-04T07:46:34.000Z</time>
      </trkpt>
      <trkpt lat="47.28412" lon="-2.36009">
        <ele>27</ele>
        <time>2021-04-04T07:46:36.000Z</time>
      </trkpt>
      <trkpt lat="47.28424" lon="-2.35996">
        <ele>27</ele>
        <time>2021-04-04T07:46:42.000Z</time>
      </trkpt>
      <trkpt lat="47.28435" lon="-2.35992">
        <ele>27</ele>
        <time>2021-04-04T07:46:47.000Z</time>
      </trkpt>
      <trkpt lat="47.28439" lon="-2.35994">
        <ele>27</ele>
        <time>2021-04-04T07:46:49.000Z</time>
      </trkpt>
      <trkpt lat="47.28443" lon="-2.35997">
        <ele>27</ele>
        <time>2021-04-04T07:46:52.000Z</time>
      </trkpt>
      <trkpt lat="47.28448" lon="-2.36003">
        <ele>27</ele>
        <time>2021-04-04T07:46:56.000Z</time>
      </trkpt>
      <trkpt lat="47.2845" lon="-2.36004">
        <ele>27</ele>
        <time>2021-04-04T07:46:57.000Z</time>
      </trkpt>
      <trkpt lat="47.28456" lon="-2.36011">
        <ele>27</ele>
        <time>2021-04-04T07:47:20.000Z</time>
      </trkpt>
      <trkpt lat="47.28459" lon="-2.36015">
        <ele>27</ele>
        <time>2021-04-04T07:47:22.000Z</time>
      </trkpt>
      <trkpt lat="47.28472" lon="-2.36029">
        <ele>27</ele>
        <time>2021-04-04T07:47:28.000Z</time>
      </trkpt>
      <trkpt lat="47.2849" lon="-2.36035">
        <ele>27</ele>
        <time>2021-04-04T07:47:34.000Z</time>
      </trkpt>
      <trkpt lat="47.28505" lon="-2.36045">
        <ele>27</ele>
        <time>2021-04-04T07:47:40.000Z</time>
      </trkpt>
      <trkpt lat="47.28527" lon="-2.36072">
        <ele>27.39999961853</ele>
        <time>2021-04-04T07:47:47.000Z</time>
      </trkpt>
      <trkpt lat="47.28529" lon="-2.36076">
        <ele>27.799999237061</ele>
        <time>2021-04-04T07:47:48.000Z</time>
      </trkpt>
      <trkpt lat="47.2853" lon="-2.36081">
        <ele>28.200000762939</ele>
        <time>2021-04-04T07:47:49.000Z</time>
      </trkpt>
      <trkpt lat="47.28531" lon="-2.36085">
        <ele>28.60000038147</ele>
        <time>2021-04-04T07:47:50.000Z</time>
      </trkpt>
      <trkpt lat="47.28532" lon="-2.3609">
        <ele>29</ele>
        <time>2021-04-04T07:47:51.000Z</time>
      </trkpt>
      <trkpt lat="47.28533" lon="-2.36094">
        <ele>29</ele>
        <time>2021-04-04T07:47:52.000Z</time>
      </trkpt>
      <trkpt lat="47.28538" lon="-2.36131">
        <ele>29</ele>
        <time>2021-04-04T07:47:57.000Z</time>
      </trkpt>
      <trkpt lat="47.2855" lon="-2.36156">
        <ele>29</ele>
        <time>2021-04-04T07:48:02.000Z</time>
      </trkpt>
      <trkpt lat="47.28555" lon="-2.36158">
        <ele>29</ele>
        <time>2021-04-04T07:48:04.000Z</time>
      </trkpt>
      <trkpt lat="47.28559" lon="-2.36155">
        <ele>29</ele>
        <time>2021-04-04T07:48:06.000Z</time>
      </trkpt>
      <trkpt lat="47.28568" lon="-2.36149">
        <ele>29.39999961853</ele>
        <time>2021-04-04T07:48:11.000Z</time>
      </trkpt>
      <trkpt lat="47.2857" lon="-2.36149">
        <ele>29.799999237061</ele>
        <time>2021-04-04T07:48:12.000Z</time>
      </trkpt>
      <trkpt lat="47.28572" lon="-2.36149">
        <ele>30.39999961853</ele>
        <time>2021-04-04T07:48:13.000Z</time>
      </trkpt>
      <trkpt lat="47.28574" lon="-2.36149">
        <ele>30.799999237061</ele>
        <time>2021-04-04T07:48:14.000Z</time>
      </trkpt>
      <trkpt lat="47.28577" lon="-2.36151">
        <ele>31.200000762939</ele>
        <time>2021-04-04T07:48:15.000Z</time>
      </trkpt>
      <trkpt lat="47.2858" lon="-2.36152">
        <ele>31.200000762939</ele>
        <time>2021-04-04T07:48:16.000Z</time>
      </trkpt>
      <trkpt lat="47.28588" lon="-2.36154">
        <ele>31.200000762939</ele>
        <time>2021-04-04T07:48:19.000Z</time>
      </trkpt>
      <trkpt lat="47.28607" lon="-2.36151">
        <ele>31.200000762939</ele>
        <time>2021-04-04T07:48:25.000Z</time>
      </trkpt>
      <trkpt lat="47.28623" lon="-2.36139">
        <ele>31.200000762939</ele>
        <time>2021-04-04T07:48:31.000Z</time>
      </trkpt>
      <trkpt lat="47.28637" lon="-2.3615">
        <ele>31.200000762939</ele>
        <time>2021-04-04T07:48:36.000Z</time>
      </trkpt>
      <trkpt lat="47.28648" lon="-2.36171">
        <ele>31.200000762939</ele>
        <time>2021-04-04T07:48:41.000Z</time>
      </trkpt>
      <trkpt lat="47.28658" lon="-2.36182">
        <ele>30.799999237061</ele>
        <time>2021-04-04T07:48:44.000Z</time>
      </trkpt>
      <trkpt lat="47.2866" lon="-2.36186">
        <ele>30.39999961853</ele>
        <time>2021-04-04T07:48:45.000Z</time>
      </trkpt>
      <trkpt lat="47.28662" lon="-2.36191">
        <ele>30</ele>
        <time>2021-04-04T07:48:46.000Z</time>
      </trkpt>
      <trkpt lat="47.28664" lon="-2.36196">
        <ele>29.60000038147</ele>
        <time>2021-04-04T07:48:47.000Z</time>
      </trkpt>
      <trkpt lat="47.28666" lon="-2.36201">
        <ele>29.200000762939</ele>
        <time>2021-04-04T07:48:48.000Z</time>
      </trkpt>
      <trkpt lat="47.2867" lon="-2.36219">
        <ele>29.200000762939</ele>
        <time>2021-04-04T07:48:51.000Z</time>
      </trkpt>
      <trkpt lat="47.28667" lon="-2.36246">
        <ele>29.200000762939</ele>
        <time>2021-04-04T07:48:55.000Z</time>
      </trkpt>
      <trkpt lat="47.28665" lon="-2.36269">
        <ele>28.60000038147</ele>
        <time>2021-04-04T07:48:59.000Z</time>
      </trkpt>
      <trkpt lat="47.28666" lon="-2.36273">
        <ele>28.200000762939</ele>
        <time>2021-04-04T07:49:00.000Z</time>
      </trkpt>
      <trkpt lat="47.28668" lon="-2.36277">
        <ele>27.799999237061</ele>
        <time>2021-04-04T07:49:01.000Z</time>
      </trkpt>
      <trkpt lat="47.28672" lon="-2.3628">
        <ele>27.39999961853</ele>
        <time>2021-04-04T07:49:02.000Z</time>
      </trkpt>
      <trkpt lat="47.28675" lon="-2.36281">
        <ele>27</ele>
        <time>2021-04-04T07:49:03.000Z</time>
      </trkpt>
      <trkpt lat="47.28686" lon="-2.36281">
        <ele>27</ele>
        <time>2021-04-04T07:49:06.000Z</time>
      </trkpt>
      <trkpt lat="47.28694" lon="-2.3628">
        <ele>27</ele>
        <time>2021-04-04T07:49:08.000Z</time>
      </trkpt>
      <trkpt lat="47.28705" lon="-2.36285">
        <ele>26.60000038147</ele>
        <time>2021-04-04T07:49:11.000Z</time>
      </trkpt>
      <trkpt lat="47.28707" lon="-2.36288">
        <ele>26</ele>
        <time>2021-04-04T07:49:12.000Z</time>
      </trkpt>
      <trkpt lat="47.28709" lon="-2.36292">
        <ele>25.60000038147</ele>
        <time>2021-04-04T07:49:13.000Z</time>
      </trkpt>
      <trkpt lat="47.2871" lon="-2.36296">
        <ele>25</ele>
        <time>2021-04-04T07:49:14.000Z</time>
      </trkpt>
      <trkpt lat="47.2871" lon="-2.36301">
        <ele>24.60000038147</ele>
        <time>2021-04-04T07:49:15.000Z</time>
      </trkpt>
      <trkpt lat="47.2871" lon="-2.36305">
        <ele>24.60000038147</ele>
        <time>2021-04-04T07:49:16.000Z</time>
      </trkpt>
      <trkpt lat="47.28708" lon="-2.36325">
        <ele>25</ele>
        <time>2021-04-04T07:49:20.000Z</time>
      </trkpt>
      <trkpt lat="47.28708" lon="-2.36329">
        <ele>25.60000038147</ele>
        <time>2021-04-04T07:49:21.000Z</time>
      </trkpt>
      <trkpt lat="47.28707" lon="-2.36334">
        <ele>26</ele>
        <time>2021-04-04T07:49:22.000Z</time>
      </trkpt>
      <trkpt lat="47.28705" lon="-2.36338">
        <ele>26.39999961853</ele>
        <time>2021-04-04T07:49:23.000Z</time>
      </trkpt>
      <trkpt lat="47.28704" lon="-2.36343">
        <ele>27</ele>
        <time>2021-04-04T07:49:24.000Z</time>
      </trkpt>
      <trkpt lat="47.28703" lon="-2.36357">
        <ele>27.39999961853</ele>
        <time>2021-04-04T07:49:27.000Z</time>
      </trkpt>
      <trkpt lat="47.28702" lon="-2.36361">
        <ele>27.799999237061</ele>
        <time>2021-04-04T07:49:28.000Z</time>
      </trkpt>
      <trkpt lat="47.28701" lon="-2.36364">
        <ele>28.200000762939</ele>
        <time>2021-04-04T07:49:29.000Z</time>
      </trkpt>
      <trkpt lat="47.287" lon="-2.36367">
        <ele>28.60000038147</ele>
        <time>2021-04-04T07:49:30.000Z</time>
      </trkpt>
      <trkpt lat="47.28698" lon="-2.3637">
        <ele>29</ele>
        <time>2021-04-04T07:49:31.000Z</time>
      </trkpt>
      <trkpt lat="47.28695" lon="-2.36382">
        <ele>29</ele>
        <time>2021-04-04T07:49:34.000Z</time>
      </trkpt>
      <trkpt lat="47.28691" lon="-2.36409">
        <ele>29.39999961853</ele>
        <time>2021-04-04T07:49:40.000Z</time>
      </trkpt>
      <trkpt lat="47.28691" lon="-2.36412">
        <ele>29.799999237061</ele>
        <time>2021-04-04T07:49:41.000Z</time>
      </trkpt>
      <trkpt lat="47.28691" lon="-2.36417">
        <ele>30.200000762939</ele>
        <time>2021-04-04T07:49:42.000Z</time>
      </trkpt>
      <trkpt lat="47.28692" lon="-2.36421">
        <ele>30.60000038147</ele>
        <time>2021-04-04T07:49:43.000Z</time>
      </trkpt>
      <trkpt lat="47.28692" lon="-2.36425">
        <ele>31</ele>
        <time>2021-04-04T07:49:44.000Z</time>
      </trkpt>
      <trkpt lat="47.28693" lon="-2.36442">
        <ele>31</ele>
        <time>2021-04-04T07:49:49.000Z</time>
      </trkpt>
      <trkpt lat="47.28694" lon="-2.36463">
        <ele>31</ele>
        <time>2021-04-04T07:49:54.000Z</time>
      </trkpt>
      <trkpt lat="47.28692" lon="-2.36492">
        <ele>31</ele>
        <time>2021-04-04T07:50:01.000Z</time>
      </trkpt>
      <trkpt lat="47.28694" lon="-2.36518">
        <ele>31</ele>
        <time>2021-04-04T07:50:06.000Z</time>
      </trkpt>
      <trkpt lat="47.28697" lon="-2.36554">
        <ele>30.60000038147</ele>
        <time>2021-04-04T07:50:11.000Z</time>
      </trkpt>
      <trkpt lat="47.28697" lon="-2.36561">
        <ele>30.200000762939</ele>
        <time>2021-04-04T07:50:12.000Z</time>
      </trkpt>
      <trkpt lat="47.28697" lon="-2.36567">
        <ele>29.799999237061</ele>
        <time>2021-04-04T07:50:13.000Z</time>
      </trkpt>
      <trkpt lat="47.28695" lon="-2.36572">
        <ele>29.39999961853</ele>
        <time>2021-04-04T07:50:14.000Z</time>
      </trkpt>
      <trkpt lat="47.28693" lon="-2.36578">
        <ele>28.799999237061</ele>
        <time>2021-04-04T07:50:15.000Z</time>
      </trkpt>
      <trkpt lat="47.2869" lon="-2.36584">
        <ele>28.200000762939</ele>
        <time>2021-04-04T07:50:16.000Z</time>
      </trkpt>
      <trkpt lat="47.28688" lon="-2.3659">
        <ele>27.799999237061</ele>
        <time>2021-04-04T07:50:17.000Z</time>
      </trkpt>
      <trkpt lat="47.28685" lon="-2.36597">
        <ele>27.200000762939</ele>
        <time>2021-04-04T07:50:18.000Z</time>
      </trkpt>
      <trkpt lat="47.28679" lon="-2.36603">
        <ele>26.60000038147</ele>
        <time>2021-04-04T07:50:19.000Z</time>
      </trkpt>
      <trkpt lat="47.28674" lon="-2.36606">
        <ele>26</ele>
        <time>2021-04-04T07:50:20.000Z</time>
      </trkpt>
      <trkpt lat="47.28668" lon="-2.36608">
        <ele>25.39999961853</ele>
        <time>2021-04-04T07:50:21.000Z</time>
      </trkpt>
      <trkpt lat="47.28662" lon="-2.36609">
        <ele>24.200000762939</ele>
        <time>2021-04-04T07:50:22.000Z</time>
      </trkpt>
      <trkpt lat="47.28656" lon="-2.3661">
        <ele>24.200000762939</ele>
        <time>2021-04-04T07:50:23.000Z</time>
      </trkpt>
      <trkpt lat="47.28634" lon="-2.3662">
        <ele>23.799999237061</ele>
        <time>2021-04-04T07:50:27.000Z</time>
      </trkpt>
      <trkpt lat="47.2863" lon="-2.36623">
        <ele>23.39999961853</ele>
        <time>2021-04-04T07:50:28.000Z</time>
      </trkpt>
      <trkpt lat="47.28625" lon="-2.36626">
        <ele>23</ele>
        <time>2021-04-04T07:50:29.000Z</time>
      </trkpt>
      <trkpt lat="47.28622" lon="-2.36629">
        <ele>22.60000038147</ele>
        <time>2021-04-04T07:50:30.000Z</time>
      </trkpt>
      <trkpt lat="47.28618" lon="-2.36631">
        <ele>22</ele>
        <time>2021-04-04T07:50:31.000Z</time>
      </trkpt>
      <trkpt lat="47.28616" lon="-2.36632">
        <ele>21.60000038147</ele>
        <time>2021-04-04T07:50:32.000Z</time>
      </trkpt>
      <trkpt lat="47.28613" lon="-2.36634">
        <ele>21</ele>
        <time>2021-04-04T07:50:33.000Z</time>
      </trkpt>
      <trkpt lat="47.28611" lon="-2.36635">
        <ele>20.39999961853</ele>
        <time>2021-04-04T07:50:34.000Z</time>
      </trkpt>
      <trkpt lat="47.28609" lon="-2.36636">
        <ele>19.799999237061</ele>
        <time>2021-04-04T07:50:35.000Z</time>
      </trkpt>
      <trkpt lat="47.28607" lon="-2.36637">
        <ele>19.200000762939</ele>
        <time>2021-04-04T07:50:36.000Z</time>
      </trkpt>
      <trkpt lat="47.28606" lon="-2.36639">
        <ele>18.60000038147</ele>
        <time>2021-04-04T07:50:37.000Z</time>
      </trkpt>
      <trkpt lat="47.28605" lon="-2.3664">
        <ele>18</ele>
        <time>2021-04-04T07:50:38.000Z</time>
      </trkpt>
      <trkpt lat="47.28604" lon="-2.36641">
        <ele>17.200000762939</ele>
        <time>2021-04-04T07:50:39.000Z</time>
      </trkpt>
      <trkpt lat="47.28602" lon="-2.36643">
        <ele>16.799999237061</ele>
        <time>2021-04-04T07:50:41.000Z</time>
      </trkpt>
      <trkpt lat="47.286" lon="-2.36643">
        <ele>16.39999961853</ele>
        <time>2021-04-04T07:50:42.000Z</time>
      </trkpt>
      <trkpt lat="47.28598" lon="-2.36644">
        <ele>16</ele>
        <time>2021-04-04T07:50:43.000Z</time>
      </trkpt>
      <trkpt lat="47.28595" lon="-2.36648">
        <ele>15.60000038147</ele>
        <time>2021-04-04T07:50:44.000Z</time>
      </trkpt>
      <trkpt lat="47.28592" lon="-2.36652">
        <ele>15</ele>
        <time>2021-04-04T07:50:45.000Z</time>
      </trkpt>
      <trkpt lat="47.28588" lon="-2.36656">
        <ele>15</ele>
        <time>2021-04-04T07:50:46.000Z</time>
      </trkpt>
      <trkpt lat="47.28577" lon="-2.36663">
        <ele>15</ele>
        <time>2021-04-04T07:50:48.000Z</time>
      </trkpt>
      <trkpt lat="47.28571" lon="-2.36665">
        <ele>14.60000038147</ele>
        <time>2021-04-04T07:50:49.000Z</time>
      </trkpt>
      <trkpt lat="47.28565" lon="-2.36665">
        <ele>14.199999809265</ele>
        <time>2021-04-04T07:50:50.000Z</time>
      </trkpt>
      <trkpt lat="47.28559" lon="-2.36665">
        <ele>13.800000190735</ele>
        <time>2021-04-04T07:50:51.000Z</time>
      </trkpt>
      <trkpt lat="47.28554" lon="-2.36665">
        <ele>13.39999961853</ele>
        <time>2021-04-04T07:50:52.000Z</time>
      </trkpt>
      <trkpt lat="47.28549" lon="-2.36665">
        <ele>13</ele>
        <time>2021-04-04T07:50:53.000Z</time>
      </trkpt>
      <trkpt lat="47.28531" lon="-2.36665">
        <ele>13</ele>
        <time>2021-04-04T07:50:57.000Z</time>
      </trkpt>
      <trkpt lat="47.28528" lon="-2.36667">
        <ele>13</ele>
        <time>2021-04-04T07:50:58.000Z</time>
      </trkpt>
      <trkpt lat="47.28524" lon="-2.36675">
        <ele>13</ele>
        <time>2021-04-04T07:51:00.000Z</time>
      </trkpt>
      <trkpt lat="47.28525" lon="-2.36697">
        <ele>13</ele>
        <time>2021-04-04T07:51:04.000Z</time>
      </trkpt>
      <trkpt lat="47.28531" lon="-2.3671">
        <ele>13</ele>
        <time>2021-04-04T07:51:06.000Z</time>
      </trkpt>
      <trkpt lat="47.28535" lon="-2.36717">
        <ele>12.60000038147</ele>
        <time>2021-04-04T07:51:07.000Z</time>
      </trkpt>
      <trkpt lat="47.28539" lon="-2.36724">
        <ele>12</ele>
        <time>2021-04-04T07:51:08.000Z</time>
      </trkpt>
      <trkpt lat="47.28543" lon="-2.36732">
        <ele>11.60000038147</ele>
        <time>2021-04-04T07:51:09.000Z</time>
      </trkpt>
      <trkpt lat="47.28547" lon="-2.3674">
        <ele>11.199999809265</ele>
        <time>2021-04-04T07:51:10.000Z</time>
      </trkpt>
      <trkpt lat="47.2855" lon="-2.36749">
        <ele>10.199999809265</ele>
        <time>2021-04-04T07:51:11.000Z</time>
      </trkpt>
      <trkpt lat="47.28555" lon="-2.36757">
        <ele>9.8000001907349</ele>
        <time>2021-04-04T07:51:12.000Z</time>
      </trkpt>
      <trkpt lat="47.28559" lon="-2.36766">
        <ele>9.3999996185303</ele>
        <time>2021-04-04T07:51:13.000Z</time>
      </trkpt>
      <trkpt lat="47.28564" lon="-2.36774">
        <ele>8.8000001907349</ele>
        <time>2021-04-04T07:51:14.000Z</time>
      </trkpt>
      <trkpt lat="47.28568" lon="-2.36783">
        <ele>8.3999996185303</ele>
        <time>2021-04-04T07:51:15.000Z</time>
      </trkpt>
      <trkpt lat="47.28598" lon="-2.36837">
        <ele>8.3999996185303</ele>
        <time>2021-04-04T07:51:22.000Z</time>
      </trkpt>
      <trkpt lat="47.28602" lon="-2.36842">
        <ele>7.8000001907349</ele>
        <time>2021-04-04T07:51:23.000Z</time>
      </trkpt>
      <trkpt lat="47.28606" lon="-2.36845">
        <ele>7.4000000953674</ele>
        <time>2021-04-04T07:51:24.000Z</time>
      </trkpt>
      <trkpt lat="47.28611" lon="-2.36846">
        <ele>7</ele>
        <time>2021-04-04T07:51:25.000Z</time>
      </trkpt>
      <trkpt lat="47.28616" lon="-2.36844">
        <ele>6.5999999046326</ele>
        <time>2021-04-04T07:51:26.000Z</time>
      </trkpt>
      <trkpt lat="47.2862" lon="-2.3684">
        <ele>6.1999998092651</ele>
        <time>2021-04-04T07:51:27.000Z</time>
      </trkpt>
      <trkpt lat="47.28624" lon="-2.36836">
        <ele>6.1999998092651</ele>
        <time>2021-04-04T07:51:28.000Z</time>
      </trkpt>
      <trkpt lat="47.28628" lon="-2.36832">
        <ele>6.1999998092651</ele>
        <time>2021-04-04T07:51:29.000Z</time>
      </trkpt>
      <trkpt lat="47.28647" lon="-2.36808">
        <ele>6.1999998092651</ele>
        <time>2021-04-04T07:51:34.000Z</time>
      </trkpt>
      <trkpt lat="47.28661" lon="-2.36793">
        <ele>6.1999998092651</ele>
        <time>2021-04-04T07:51:38.000Z</time>
      </trkpt>
      <trkpt lat="47.28664" lon="-2.36793">
        <ele>6.1999998092651</ele>
        <time>2021-04-04T07:51:39.000Z</time>
      </trkpt>
      <trkpt lat="47.28673" lon="-2.36803">
        <ele>6.1999998092651</ele>
        <time>2021-04-04T07:51:43.000Z</time>
      </trkpt>
      <trkpt lat="47.28681" lon="-2.36822">
        <ele>6.1999998092651</ele>
        <time>2021-04-04T07:51:47.000Z</time>
      </trkpt>
      <trkpt lat="47.28698" lon="-2.36859">
        <ele>6.1999998092651</ele>
        <time>2021-04-04T07:51:53.000Z</time>
      </trkpt>
      <trkpt lat="47.287" lon="-2.36866">
        <ele>6.1999998092651</ele>
        <time>2021-04-04T07:51:54.000Z</time>
      </trkpt>
      <trkpt lat="47.28711" lon="-2.36892">
        <ele>6.1999998092651</ele>
        <time>2021-04-04T07:51:58.000Z</time>
      </trkpt>
      <trkpt lat="47.28716" lon="-2.36902">
        <ele>5.5999999046326</ele>
        <time>2021-04-04T07:52:00.000Z</time>
      </trkpt>
      <trkpt lat="47.28718" lon="-2.36907">
        <ele>5.1999998092651</ele>
        <time>2021-04-04T07:52:01.000Z</time>
      </trkpt>
      <trkpt lat="47.2872" lon="-2.3691">
        <ele>4.8000001907349</ele>
        <time>2021-04-04T07:52:02.000Z</time>
      </trkpt>
      <trkpt lat="47.28723" lon="-2.36913">
        <ele>4.1999998092651</ele>
        <time>2021-04-04T07:52:03.000Z</time>
      </trkpt>
      <trkpt lat="47.28726" lon="-2.36916">
        <ele>3.4000000953674</ele>
        <time>2021-04-04T07:52:04.000Z</time>
      </trkpt>
      <trkpt lat="47.28729" lon="-2.36918">
        <ele>2.7999999523163</ele>
        <time>2021-04-04T07:52:05.000Z</time>
      </trkpt>
      <trkpt lat="47.28732" lon="-2.36921">
        <ele>2.2000000476837</ele>
        <time>2021-04-04T07:52:06.000Z</time>
      </trkpt>
      <trkpt lat="47.28734" lon="-2.36924">
        <ele>1.3999999761581</ele>
        <time>2021-04-04T07:52:07.000Z</time>
      </trkpt>
      <trkpt lat="47.2874" lon="-2.3693">
        <ele>1.3999999761581</ele>
        <time>2021-04-04T07:52:10.000Z</time>
      </trkpt>
      <trkpt lat="47.2875" lon="-2.36943">
        <ele>1.3999999761581</ele>
        <time>2021-04-04T07:52:17.000Z</time>
      </trkpt>
      <trkpt lat="47.28751" lon="-2.36947">
        <ele>1.3999999761581</ele>
        <time>2021-04-04T07:52:20.000Z</time>
      </trkpt>
      <trkpt lat="47.28752" lon="-2.36949">
        <ele>2.5999999046326</ele>
        <time>2021-04-04T07:52:27.000Z</time>
      </trkpt>
      <trkpt lat="47.28753" lon="-2.36951">
        <ele>3</ele>
        <time>2021-04-04T07:52:28.000Z</time>
      </trkpt>
      <trkpt lat="47.28753" lon="-2.36953">
        <ele>3.4000000953674</ele>
        <time>2021-04-04T07:52:29.000Z</time>
      </trkpt>
      <trkpt lat="47.28753" lon="-2.3696">
        <ele>4</ele>
        <time>2021-04-04T07:52:33.000Z</time>
      </trkpt>
      <trkpt lat="47.28753" lon="-2.36961">
        <ele>4.4000000953674</ele>
        <time>2021-04-04T07:52:34.000Z</time>
      </trkpt>
      <trkpt lat="47.28753" lon="-2.36962">
        <ele>4.8000001907349</ele>
        <time>2021-04-04T07:52:35.000Z</time>
      </trkpt>
      <trkpt lat="47.28753" lon="-2.36963">
        <ele>5.4000000953674</ele>
        <time>2021-04-04T07:52:36.000Z</time>
      </trkpt>
      <trkpt lat="47.28753" lon="-2.36965">
        <ele>5.8000001907349</ele>
        <time>2021-04-04T07:52:37.000Z</time>
      </trkpt>
      <trkpt lat="47.28755" lon="-2.36971">
        <ele>5.8000001907349</ele>
        <time>2021-04-04T07:52:40.000Z</time>
      </trkpt>
      <trkpt lat="47.28757" lon="-2.36977">
        <ele>5.8000001907349</ele>
        <time>2021-04-04T07:52:42.000Z</time>
      </trkpt>
      <trkpt lat="47.28761" lon="-2.36984">
        <ele>5.8000001907349</ele>
        <time>2021-04-04T07:52:45.000Z</time>
      </trkpt>
      <trkpt lat="47.28769" lon="-2.36992">
        <ele>5.8000001907349</ele>
        <time>2021-04-04T07:52:49.000Z</time>
      </trkpt>
      <trkpt lat="47.28777" lon="-2.37012">
        <ele>5.8000001907349</ele>
        <time>2021-04-04T07:52:54.000Z</time>
      </trkpt>
      <trkpt lat="47.28786" lon="-2.37049">
        <ele>5.8000001907349</ele>
        <time>2021-04-04T07:53:00.000Z</time>
      </trkpt>
      <trkpt lat="47.28793" lon="-2.37079">
        <ele>5.1999998092651</ele>
        <time>2021-04-04T07:53:04.000Z</time>
      </trkpt>
      <trkpt lat="47.28794" lon="-2.37087">
        <ele>4.8000001907349</ele>
        <time>2021-04-04T07:53:05.000Z</time>
      </trkpt>
      <trkpt lat="47.28796" lon="-2.37095">
        <ele>4.4000000953674</ele>
        <time>2021-04-04T07:53:06.000Z</time>
      </trkpt>
      <trkpt lat="47.28797" lon="-2.37101">
        <ele>3.7999999523163</ele>
        <time>2021-04-04T07:53:07.000Z</time>
      </trkpt>
      <trkpt lat="47.28799" lon="-2.37107">
        <ele>3.4000000953674</ele>
        <time>2021-04-04T07:53:08.000Z</time>
      </trkpt>
      <trkpt lat="47.28801" lon="-2.37111">
        <ele>3</ele>
        <time>2021-04-04T07:53:09.000Z</time>
      </trkpt>
      <trkpt lat="47.28804" lon="-2.37113">
        <ele>2.4000000953674</ele>
        <time>2021-04-04T07:53:10.000Z</time>
      </trkpt>
      <trkpt lat="47.28807" lon="-2.37113">
        <ele>2</ele>
        <time>2021-04-04T07:53:11.000Z</time>
      </trkpt>
      <trkpt lat="47.2881" lon="-2.37114">
        <ele>1.6000000238419</ele>
        <time>2021-04-04T07:53:12.000Z</time>
      </trkpt>
      <trkpt lat="47.28813" lon="-2.37113">
        <ele>1.2000000476837</ele>
        <time>2021-04-04T07:53:13.000Z</time>
      </trkpt>
      <trkpt lat="47.28816" lon="-2.37112">
        <ele>0.60000002384186</ele>
        <time>2021-04-04T07:53:14.000Z</time>
      </trkpt>
      <trkpt lat="47.28819" lon="-2.3711">
        <ele>0.20000000298023</ele>
        <time>2021-04-04T07:53:15.000Z</time>
      </trkpt>
      <trkpt lat="47.28821" lon="-2.37108">
        <ele>-0.20000000298023</ele>
        <time>2021-04-04T07:53:16.000Z</time>
      </trkpt>
      <trkpt lat="47.28823" lon="-2.37106">
        <ele>-0.60000002384186</ele>
        <time>2021-04-04T07:53:17.000Z</time>
      </trkpt>
      <trkpt lat="47.28825" lon="-2.37106">
        <ele>-1.2000000476837</ele>
        <time>2021-04-04T07:53:18.000Z</time>
      </trkpt>
      <trkpt lat="47.28826" lon="-2.37108">
        <ele>-1.7999999523163</ele>
        <time>2021-04-04T07:53:19.000Z</time>
      </trkpt>
      <trkpt lat="47.28827" lon="-2.37111">
        <ele>-2.4000000953674</ele>
        <time>2021-04-04T07:53:20.000Z</time>
      </trkpt>
      <trkpt lat="47.28827" lon="-2.37116">
        <ele>-3</ele>
        <time>2021-04-04T07:53:21.000Z</time>
      </trkpt>
      <trkpt lat="47.28826" lon="-2.37121">
        <ele>-3.5999999046326</ele>
        <time>2021-04-04T07:53:22.000Z</time>
      </trkpt>
      <trkpt lat="47.28825" lon="-2.37134">
        <ele>-3.5999999046326</ele>
        <time>2021-04-04T07:53:24.000Z</time>
      </trkpt>
      <trkpt lat="47.28826" lon="-2.37141">
        <ele>-3.5999999046326</ele>
        <time>2021-04-04T07:53:25.000Z</time>
      </trkpt>
      <trkpt lat="47.28829" lon="-2.37163">
        <ele>-3.5999999046326</ele>
        <time>2021-04-04T07:53:28.000Z</time>
      </trkpt>
      <trkpt lat="47.28832" lon="-2.37179">
        <ele>-3.5999999046326</ele>
        <time>2021-04-04T07:53:30.000Z</time>
      </trkpt>
      <trkpt lat="47.28841" lon="-2.37227">
        <ele>-4.4000000953674</ele>
        <time>2021-04-04T07:53:37.000Z</time>
      </trkpt>
      <trkpt lat="47.28843" lon="-2.37233">
        <ele>-4.8000001907349</ele>
        <time>2021-04-04T07:53:38.000Z</time>
      </trkpt>
      <trkpt lat="47.28845" lon="-2.37237">
        <ele>-5.1999998092651</ele>
        <time>2021-04-04T07:53:39.000Z</time>
      </trkpt>
      <trkpt lat="47.28848" lon="-2.37241">
        <ele>-5.8000001907349</ele>
        <time>2021-04-04T07:53:40.000Z</time>
      </trkpt>
      <trkpt lat="47.28851" lon="-2.37243">
        <ele>-5.8000001907349</ele>
        <time>2021-04-04T07:53:41.000Z</time>
      </trkpt>
      <trkpt lat="47.28865" lon="-2.37238">
        <ele>-5.8000001907349</ele>
        <time>2021-04-04T07:53:45.000Z</time>
      </trkpt>
      <trkpt lat="47.2889" lon="-2.37226">
        <ele>-5.8000001907349</ele>
        <time>2021-04-04T07:53:51.000Z</time>
      </trkpt>
      <trkpt lat="47.28916" lon="-2.37215">
        <ele>-5.8000001907349</ele>
        <time>2021-04-04T07:53:57.000Z</time>
      </trkpt>
      <trkpt lat="47.28936" lon="-2.37207">
        <ele>-5.8000001907349</ele>
        <time>2021-04-04T07:54:03.000Z</time>
      </trkpt>
      <trkpt lat="47.28947" lon="-2.37205">
        <ele>-5.8000001907349</ele>
        <time>2021-04-04T07:54:09.000Z</time>
      </trkpt>
      <trkpt lat="47.28947" lon="-2.37205">
        <ele>-5.8000001907349</ele>
        <time>2021-04-04T07:54:10.000Z</time>
      </trkpt>
      <trkpt lat="47.2895" lon="-2.37202">
        <ele>-3.5999999046326</ele>
        <time>2021-04-04T07:54:31.000Z</time>
      </trkpt>
      <trkpt lat="47.28952" lon="-2.37201">
        <ele>-3.5999999046326</ele>
        <time>2021-04-04T07:54:32.000Z</time>
      </trkpt>
      <trkpt lat="47.28967" lon="-2.37191">
        <ele>-3.5999999046326</ele>
        <time>2021-04-04T07:54:37.000Z</time>
      </trkpt>
      <trkpt lat="47.28984" lon="-2.37182">
        <ele>-3.2000000476837</ele>
        <time>2021-04-04T07:54:42.000Z</time>
      </trkpt>
      <trkpt lat="47.28987" lon="-2.3718">
        <ele>-2.7999999523163</ele>
        <time>2021-04-04T07:54:43.000Z</time>
      </trkpt>
      <trkpt lat="47.28991" lon="-2.37178">
        <ele>-2.4000000953674</ele>
        <time>2021-04-04T07:54:44.000Z</time>
      </trkpt>
      <trkpt lat="47.28995" lon="-2.37177">
        <ele>-2</ele>
        <time>2021-04-04T07:54:45.000Z</time>
      </trkpt>
      <trkpt lat="47.28998" lon="-2.37175">
        <ele>-1.6000000238419</ele>
        <time>2021-04-04T07:54:46.000Z</time>
      </trkpt>
      <trkpt lat="47.29004" lon="-2.37176">
        <ele>-1.6000000238419</ele>
        <time>2021-04-04T07:54:48.000Z</time>
      </trkpt>
      <trkpt lat="47.2901" lon="-2.37181">
        <ele>-0.60000002384186</ele>
        <time>2021-04-04T07:54:50.000Z</time>
      </trkpt>
      <trkpt lat="47.29013" lon="-2.37184">
        <ele>-0.20000000298023</ele>
        <time>2021-04-04T07:54:51.000Z</time>
      </trkpt>
      <trkpt lat="47.29016" lon="-2.37187">
        <ele>0.20000000298023</ele>
        <time>2021-04-04T07:54:52.000Z</time>
      </trkpt>
      <trkpt lat="47.29019" lon="-2.37191">
        <ele>0.60000002384186</ele>
        <time>2021-04-04T07:54:53.000Z</time>
      </trkpt>
      <trkpt lat="47.29026" lon="-2.37197">
        <ele>1.2000000476837</ele>
        <time>2021-04-04T07:54:55.000Z</time>
      </trkpt>
      <trkpt lat="47.29029" lon="-2.372">
        <ele>1.6000000238419</ele>
        <time>2021-04-04T07:54:56.000Z</time>
      </trkpt>
      <trkpt lat="47.29032" lon="-2.37203">
        <ele>2</ele>
        <time>2021-04-04T07:54:57.000Z</time>
      </trkpt>
      <trkpt lat="47.29035" lon="-2.37206">
        <ele>2.4000000953674</ele>
        <time>2021-04-04T07:54:58.000Z</time>
      </trkpt>
      <trkpt lat="47.29038" lon="-2.37209">
        <ele>2.7999999523163</ele>
        <time>2021-04-04T07:54:59.000Z</time>
      </trkpt>
      <trkpt lat="47.29055" lon="-2.37226">
        <ele>2.7999999523163</ele>
        <time>2021-04-04T07:55:05.000Z</time>
      </trkpt>
      <trkpt lat="47.29068" lon="-2.37239">
        <ele>3.2000000476837</ele>
        <time>2021-04-04T07:55:09.000Z</time>
      </trkpt>
      <trkpt lat="47.29071" lon="-2.37242">
        <ele>3.5999999046326</ele>
        <time>2021-04-04T07:55:10.000Z</time>
      </trkpt>
      <trkpt lat="47.29074" lon="-2.37244">
        <ele>4</ele>
        <time>2021-04-04T07:55:11.000Z</time>
      </trkpt>
      <trkpt lat="47.29077" lon="-2.37247">
        <ele>4.4000000953674</ele>
        <time>2021-04-04T07:55:12.000Z</time>
      </trkpt>
      <trkpt lat="47.2908" lon="-2.3725">
        <ele>4.8000001907349</ele>
        <time>2021-04-04T07:55:13.000Z</time>
      </trkpt>
      <trkpt lat="47.29102" lon="-2.37271">
        <ele>4.8000001907349</ele>
        <time>2021-04-04T07:55:20.000Z</time>
      </trkpt>
      <trkpt lat="47.29123" lon="-2.37291">
        <ele>4.8000001907349</ele>
        <time>2021-04-04T07:55:27.000Z</time>
      </trkpt>
      <trkpt lat="47.29132" lon="-2.37301">
        <ele>5.1999998092651</ele>
        <time>2021-04-04T07:55:30.000Z</time>
      </trkpt>
      <trkpt lat="47.29135" lon="-2.37305">
        <ele>5.5999999046326</ele>
        <time>2021-04-04T07:55:31.000Z</time>
      </trkpt>
      <trkpt lat="47.29138" lon="-2.37309">
        <ele>6</ele>
        <time>2021-04-04T07:55:32.000Z</time>
      </trkpt>
      <trkpt lat="47.29141" lon="-2.37313">
        <ele>6.4000000953674</ele>
        <time>2021-04-04T07:55:33.000Z</time>
      </trkpt>
      <trkpt lat="47.29144" lon="-2.37317">
        <ele>6.8000001907349</ele>
        <time>2021-04-04T07:55:34.000Z</time>
      </trkpt>
      <trkpt lat="47.29151" lon="-2.37325">
        <ele>6.8000001907349</ele>
        <time>2021-04-04T07:55:36.000Z</time>
      </trkpt>
      <trkpt lat="47.29158" lon="-2.3734">
        <ele>6.8000001907349</ele>
        <time>2021-04-04T07:55:39.000Z</time>
      </trkpt>
      <trkpt lat="47.29161" lon="-2.37346">
        <ele>6.8000001907349</ele>
        <time>2021-04-04T07:55:40.000Z</time>
      </trkpt>
      <trkpt lat="47.29172" lon="-2.37374">
        <ele>6.8000001907349</ele>
        <time>2021-04-04T07:55:45.000Z</time>
      </trkpt>
      <trkpt lat="47.29175" lon="-2.37379">
        <ele>6.8000001907349</ele>
        <time>2021-04-04T07:55:46.000Z</time>
      </trkpt>
      <trkpt lat="47.29202" lon="-2.37424">
        <ele>6.8000001907349</ele>
        <time>2021-04-04T07:55:54.000Z</time>
      </trkpt>
      <trkpt lat="47.29239" lon="-2.37481">
        <ele>6.4000000953674</ele>
        <time>2021-04-04T07:56:03.000Z</time>
      </trkpt>
      <trkpt lat="47.29243" lon="-2.37487">
        <ele>5.5999999046326</ele>
        <time>2021-04-04T07:56:04.000Z</time>
      </trkpt>
      <trkpt lat="47.29247" lon="-2.37493">
        <ele>5.1999998092651</ele>
        <time>2021-04-04T07:56:05.000Z</time>
      </trkpt>
      <trkpt lat="47.29251" lon="-2.37498">
        <ele>4.8000001907349</ele>
        <time>2021-04-04T07:56:06.000Z</time>
      </trkpt>
      <trkpt lat="47.2926" lon="-2.3751">
        <ele>4.1999998092651</ele>
        <time>2021-04-04T07:56:08.000Z</time>
      </trkpt>
      <trkpt lat="47.29265" lon="-2.37515">
        <ele>3.7999999523163</ele>
        <time>2021-04-04T07:56:09.000Z</time>
      </trkpt>
      <trkpt lat="47.29269" lon="-2.3752">
        <ele>3.4000000953674</ele>
        <time>2021-04-04T07:56:10.000Z</time>
      </trkpt>
      <trkpt lat="47.29273" lon="-2.37525">
        <ele>3</ele>
        <time>2021-04-04T07:56:11.000Z</time>
      </trkpt>
      <trkpt lat="47.29276" lon="-2.37532">
        <ele>2.5999999046326</ele>
        <time>2021-04-04T07:56:12.000Z</time>
      </trkpt>
      <trkpt lat="47.2928" lon="-2.37541">
        <ele>2.5999999046326</ele>
        <time>2021-04-04T07:56:13.000Z</time>
      </trkpt>
      <trkpt lat="47.2929" lon="-2.37565">
        <ele>2.5999999046326</ele>
        <time>2021-04-04T07:56:16.000Z</time>
      </trkpt>
      <trkpt lat="47.29298" lon="-2.37579">
        <ele>2.5999999046326</ele>
        <time>2021-04-04T07:56:18.000Z</time>
      </trkpt>
      <trkpt lat="47.29318" lon="-2.37615">
        <ele>2.5999999046326</ele>
        <time>2021-04-04T07:56:24.000Z</time>
      </trkpt>
      <trkpt lat="47.29335" lon="-2.3766">
        <ele>2.5999999046326</ele>
        <time>2021-04-04T07:56:31.000Z</time>
      </trkpt>
      <trkpt lat="47.29334" lon="-2.37693">
        <ele>2.5999999046326</ele>
        <time>2021-04-04T07:56:35.000Z</time>
      </trkpt>
      <trkpt lat="47.29333" lon="-2.37702">
        <ele>2.2000000476837</ele>
        <time>2021-04-04T07:56:36.000Z</time>
      </trkpt>
      <trkpt lat="47.29334" lon="-2.37713">
        <ele>1.7999999523163</ele>
        <time>2021-04-04T07:56:37.000Z</time>
      </trkpt>
      <trkpt lat="47.29334" lon="-2.37724">
        <ele>1.2000000476837</ele>
        <time>2021-04-04T07:56:38.000Z</time>
      </trkpt>
      <trkpt lat="47.29334" lon="-2.37735">
        <ele>0.80000001192093</ele>
        <time>2021-04-04T07:56:39.000Z</time>
      </trkpt>
      <trkpt lat="47.29334" lon="-2.37747">
        <ele>0.40000000596046</ele>
        <time>2021-04-04T07:56:40.000Z</time>
      </trkpt>
      <trkpt lat="47.29335" lon="-2.37797">
        <ele>10.5</ele>
        <time>2021-04-04T07:56:44.000Z</time>
      </trkpt>
      <trkpt lat="47.29336" lon="-2.3781">
        <ele>-0.40000000596046</ele>
        <time>2021-04-04T07:56:45.000Z</time>
      </trkpt>
      <trkpt lat="47.29337" lon="-2.37823">
        <ele>-1</ele>
        <time>2021-04-04T07:56:46.000Z</time>
      </trkpt>
      <trkpt lat="47.29338" lon="-2.37836">
        <ele>-1.3999999761581</ele>
        <time>2021-04-04T07:56:47.000Z</time>
      </trkpt>
      <trkpt lat="47.2934" lon="-2.37848">
        <ele>-2</ele>
        <time>2021-04-04T07:56:48.000Z</time>
      </trkpt>
      <trkpt lat="47.29343" lon="-2.37861">
        <ele>-2.4000000953674</ele>
        <time>2021-04-04T07:56:49.000Z</time>
      </trkpt>
      <trkpt lat="47.29348" lon="-2.37873">
        <ele>-3</ele>
        <time>2021-04-04T07:56:50.000Z</time>
      </trkpt>
      <trkpt lat="47.29352" lon="-2.37884">
        <ele>-3.4000000953674</ele>
        <time>2021-04-04T07:56:51.000Z</time>
      </trkpt>
      <trkpt lat="47.29356" lon="-2.37896">
        <ele>-4</ele>
        <time>2021-04-04T07:56:52.000Z</time>
      </trkpt>
      <trkpt lat="47.29369" lon="-2.3793">
        <ele>-4.4000000953674</ele>
        <time>2021-04-04T07:56:55.000Z</time>
      </trkpt>
      <trkpt lat="47.29373" lon="-2.37941">
        <ele>-4.8000001907349</ele>
        <time>2021-04-04T07:56:56.000Z</time>
      </trkpt>
      <trkpt lat="47.29377" lon="-2.37952">
        <ele>-5.1999998092651</ele>
        <time>2021-04-04T07:56:57.000Z</time>
      </trkpt>
      <trkpt lat="47.29381" lon="-2.37963">
        <ele>-5.5999999046326</ele>
        <time>2021-04-04T07:56:58.000Z</time>
      </trkpt>
      <trkpt lat="47.29385" lon="-2.37974">
        <ele>-6</ele>
        <time>2021-04-04T07:56:59.000Z</time>
      </trkpt>
      <trkpt lat="47.29397" lon="-2.38007">
        <ele>-6.4000000953674</ele>
        <time>2021-04-04T07:57:02.000Z</time>
      </trkpt>
      <trkpt lat="47.29401" lon="-2.38017">
        <ele>-7</ele>
        <time>2021-04-04T07:57:03.000Z</time>
      </trkpt>
      <trkpt lat="47.29405" lon="-2.38028">
        <ele>-7.4000000953674</ele>
        <time>2021-04-04T07:57:04.000Z</time>
      </trkpt>
      <trkpt lat="47.29409" lon="-2.38039">
        <ele>-8</ele>
        <time>2021-04-04T07:57:05.000Z</time>
      </trkpt>
      <trkpt lat="47.29412" lon="-2.38049">
        <ele>-8.3999996185303</ele>
        <time>2021-04-04T07:57:06.000Z</time>
      </trkpt>
      <trkpt lat="47.2943" lon="-2.38096">
        <ele>-8.8000001907349</ele>
        <time>2021-04-04T07:57:11.000Z</time>
      </trkpt>
      <trkpt lat="47.29433" lon="-2.38105">
        <ele>-9.1999998092651</ele>
        <time>2021-04-04T07:57:12.000Z</time>
      </trkpt>
      <trkpt lat="47.29436" lon="-2.38113">
        <ele>-9.6000003814697</ele>
        <time>2021-04-04T07:57:13.000Z</time>
      </trkpt>
      <trkpt lat="47.29439" lon="-2.38122">
        <ele>-10</ele>
        <time>2021-04-04T07:57:14.000Z</time>
      </trkpt>
      <trkpt lat="47.29441" lon="-2.3813">
        <ele>-10.39999961853</ele>
        <time>2021-04-04T07:57:15.000Z</time>
      </trkpt>
      <trkpt lat="47.29448" lon="-2.3815">
        <ele>-10.39999961853</ele>
        <time>2021-04-04T07:57:18.000Z</time>
      </trkpt>
      <trkpt lat="47.29459" lon="-2.38153">
        <ele>-10.39999961853</ele>
        <time>2021-04-04T07:57:21.000Z</time>
      </trkpt>
      <trkpt lat="47.29467" lon="-2.38143">
        <ele>-10.39999961853</ele>
        <time>2021-04-04T07:57:24.000Z</time>
      </trkpt>
      <trkpt lat="47.2947" lon="-2.38139">
        <ele>-10.39999961853</ele>
        <time>2021-04-04T07:57:25.000Z</time>
      </trkpt>
      <trkpt lat="47.29474" lon="-2.38136">
        <ele>-10.39999961853</ele>
        <time>2021-04-04T07:57:26.000Z</time>
      </trkpt>
      <trkpt lat="47.29491" lon="-2.38125">
        <ele>-10.39999961853</ele>
        <time>2021-04-04T07:57:30.000Z</time>
      </trkpt>
      <trkpt lat="47.295" lon="-2.38123">
        <ele>-10.39999961853</ele>
        <time>2021-04-04T07:57:32.000Z</time>
      </trkpt>
      <trkpt lat="47.29511" lon="-2.38126">
        <ele>-10.39999961853</ele>
        <time>2021-04-04T07:57:34.000Z</time>
      </trkpt>
      <trkpt lat="47.29516" lon="-2.38127">
        <ele>-10</ele>
        <time>2021-04-04T07:57:35.000Z</time>
      </trkpt>
      <trkpt lat="47.29521" lon="-2.38127">
        <ele>-9.6000003814697</ele>
        <time>2021-04-04T07:57:36.000Z</time>
      </trkpt>
      <trkpt lat="47.29525" lon="-2.38127">
        <ele>-9.1999998092651</ele>
        <time>2021-04-04T07:57:37.000Z</time>
      </trkpt>
      <trkpt lat="47.2953" lon="-2.38127">
        <ele>-8.8000001907349</ele>
        <time>2021-04-04T07:57:38.000Z</time>
      </trkpt>
      <trkpt lat="47.29534" lon="-2.38127">
        <ele>-8.3999996185303</ele>
        <time>2021-04-04T07:57:39.000Z</time>
      </trkpt>
      <trkpt lat="47.29565" lon="-2.38123">
        <ele>-8.3999996185303</ele>
        <time>2021-04-04T07:57:46.000Z</time>
      </trkpt>
      <trkpt lat="47.29569" lon="-2.38122">
        <ele>-8</ele>
        <time>2021-04-04T07:57:47.000Z</time>
      </trkpt>
      <trkpt lat="47.29573" lon="-2.38121">
        <ele>-7.5999999046326</ele>
        <time>2021-04-04T07:57:48.000Z</time>
      </trkpt>
      <trkpt lat="47.29577" lon="-2.38121">
        <ele>-7.1999998092651</ele>
        <time>2021-04-04T07:57:49.000Z</time>
      </trkpt>
      <trkpt lat="47.29582" lon="-2.3812">
        <ele>-6.5999999046326</ele>
        <time>2021-04-04T07:57:50.000Z</time>
      </trkpt>
      <trkpt lat="47.29586" lon="-2.38119">
        <ele>-6.1999998092651</ele>
        <time>2021-04-04T07:57:51.000Z</time>
      </trkpt>
      <trkpt lat="47.29598" lon="-2.38115">
        <ele>-6.1999998092651</ele>
        <time>2021-04-04T07:57:54.000Z</time>
      </trkpt>
      <trkpt lat="47.29618" lon="-2.38111">
        <ele>-5.8000001907349</ele>
        <time>2021-04-04T07:57:59.000Z</time>
      </trkpt>
      <trkpt lat="47.29621" lon="-2.3811">
        <ele>-5.4000000953674</ele>
        <time>2021-04-04T07:58:00.000Z</time>
      </trkpt>
      <trkpt lat="47.29625" lon="-2.38108">
        <ele>-5</ele>
        <time>2021-04-04T07:58:01.000Z</time>
      </trkpt>
      <trkpt lat="47.29629" lon="-2.38106">
        <ele>-4.5999999046326</ele>
        <time>2021-04-04T07:58:02.000Z</time>
      </trkpt>
      <trkpt lat="47.29633" lon="-2.38104">
        <ele>-4.1999998092651</ele>
        <time>2021-04-04T07:58:03.000Z</time>
      </trkpt>
      <trkpt lat="47.29658" lon="-2.38092">
        <ele>-3.7999999523163</ele>
        <time>2021-04-04T07:58:10.000Z</time>
      </trkpt>
      <trkpt lat="47.29661" lon="-2.3809">
        <ele>-3.4000000953674</ele>
        <time>2021-04-04T07:58:11.000Z</time>
      </trkpt>
      <trkpt lat="47.29664" lon="-2.38088">
        <ele>-3</ele>
        <time>2021-04-04T07:58:12.000Z</time>
      </trkpt>
      <trkpt lat="47.29667" lon="-2.38086">
        <ele>-2.5999999046326</ele>
        <time>2021-04-04T07:58:13.000Z</time>
      </trkpt>
      <trkpt lat="47.2967" lon="-2.38085">
        <ele>-2.2000000476837</ele>
        <time>2021-04-04T07:58:14.000Z</time>
      </trkpt>
      <trkpt lat="47.29682" lon="-2.38079">
        <ele>-2.2000000476837</ele>
        <time>2021-04-04T07:58:18.000Z</time>
      </trkpt>
      <trkpt lat="47.29692" lon="-2.38071">
        <ele>-1.6000000238419</ele>
        <time>2021-04-04T07:58:22.000Z</time>
      </trkpt>
      <trkpt lat="47.29694" lon="-2.38069">
        <ele>-1.2000000476837</ele>
        <time>2021-04-04T07:58:23.000Z</time>
      </trkpt>
      <trkpt lat="47.29696" lon="-2.38067">
        <ele>-0.80000001192093</ele>
        <time>2021-04-04T07:58:24.000Z</time>
      </trkpt>
      <trkpt lat="47.29698" lon="-2.38066">
        <ele>-0.40000000596046</ele>
        <time>2021-04-04T07:58:25.000Z</time>
      </trkpt>
      <trkpt lat="47.297" lon="-2.38064">
        <ele>18.4</ele>
        <time>2021-04-04T07:58:26.000Z</time>
      </trkpt>
      <trkpt lat="47.29707" lon="-2.38057">
        <ele>0.60000002384186</ele>
        <time>2021-04-04T07:58:30.000Z</time>
      </trkpt>
      <trkpt lat="47.29709" lon="-2.38056">
        <ele>1</ele>
        <time>2021-04-04T07:58:31.000Z</time>
      </trkpt>
      <trkpt lat="47.29711" lon="-2.38054">
        <ele>1.7999999523163</ele>
        <time>2021-04-04T07:58:32.000Z</time>
      </trkpt>
      <trkpt lat="47.29713" lon="-2.38053">
        <ele>2.2000000476837</ele>
        <time>2021-04-04T07:58:33.000Z</time>
      </trkpt>
      <trkpt lat="47.29716" lon="-2.38051">
        <ele>2.5999999046326</ele>
        <time>2021-04-04T07:58:35.000Z</time>
      </trkpt>
      <trkpt lat="47.29718" lon="-2.38049">
        <ele>3</ele>
        <time>2021-04-04T07:58:36.000Z</time>
      </trkpt>
      <trkpt lat="47.29719" lon="-2.38047">
        <ele>3.4000000953674</ele>
        <time>2021-04-04T07:58:37.000Z</time>
      </trkpt>
      <trkpt lat="47.2972" lon="-2.38046">
        <ele>3.7999999523163</ele>
        <time>2021-04-04T07:58:38.000Z</time>
      </trkpt>
      <trkpt lat="47.29722" lon="-2.38044">
        <ele>4.1999998092651</ele>
        <time>2021-04-04T07:58:39.000Z</time>
      </trkpt>
      <trkpt lat="47.29728" lon="-2.38039">
        <ele>4.5999999046326</ele>
        <time>2021-04-04T07:58:43.000Z</time>
      </trkpt>
      <trkpt lat="47.29729" lon="-2.38038">
        <ele>5.1999998092651</ele>
        <time>2021-04-04T07:58:44.000Z</time>
      </trkpt>
      <trkpt lat="47.2973" lon="-2.38037">
        <ele>5.5999999046326</ele>
        <time>2021-04-04T07:58:45.000Z</time>
      </trkpt>
      <trkpt lat="47.29731" lon="-2.38035">
        <ele>6</ele>
        <time>2021-04-04T07:58:46.000Z</time>
      </trkpt>
      <trkpt lat="47.29732" lon="-2.38034">
        <ele>6.4000000953674</ele>
        <time>2021-04-04T07:58:47.000Z</time>
      </trkpt>
      <trkpt lat="47.29733" lon="-2.38032">
        <ele>6.4000000953674</ele>
        <time>2021-04-04T07:58:49.000Z</time>
      </trkpt>
      <trkpt lat="47.29733" lon="-2.38027">
        <ele>6.8000001907349</ele>
        <time>2021-04-04T07:58:51.000Z</time>
      </trkpt>
      <trkpt lat="47.29733" lon="-2.38025">
        <ele>7.1999998092651</ele>
        <time>2021-04-04T07:58:52.000Z</time>
      </trkpt>
      <trkpt lat="47.29733" lon="-2.38023">
        <ele>7.5999999046326</ele>
        <time>2021-04-04T07:58:53.000Z</time>
      </trkpt>
      <trkpt lat="47.29733" lon="-2.38021">
        <ele>8</ele>
        <time>2021-04-04T07:58:54.000Z</time>
      </trkpt>
      <trkpt lat="47.29732" lon="-2.38019">
        <ele>8.3999996185303</ele>
        <time>2021-04-04T07:58:55.000Z</time>
      </trkpt>
      <trkpt lat="47.29732" lon="-2.38016">
        <ele>8.3999996185303</ele>
        <time>2021-04-04T07:58:56.000Z</time>
      </trkpt>
      <trkpt lat="47.29731" lon="-2.38014">
        <ele>8.8000001907349</ele>
        <time>2021-04-04T07:58:57.000Z</time>
      </trkpt>
      <trkpt lat="47.2973" lon="-2.38012">
        <ele>9.3999996185303</ele>
        <time>2021-04-04T07:58:58.000Z</time>
      </trkpt>
      <trkpt lat="47.2973" lon="-2.38009">
        <ele>9.8000001907349</ele>
        <time>2021-04-04T07:58:59.000Z</time>
      </trkpt>
      <trkpt lat="47.2973" lon="-2.38007">
        <ele>10.199999809265</ele>
        <time>2021-04-04T07:59:00.000Z</time>
      </trkpt>
      <trkpt lat="47.2973" lon="-2.38004">
        <ele>10.60000038147</ele>
        <time>2021-04-04T07:59:01.000Z</time>
      </trkpt>
      <trkpt lat="47.29729" lon="-2.37998">
        <ele>11</ele>
        <time>2021-04-04T07:59:03.000Z</time>
      </trkpt>
      <trkpt lat="47.29729" lon="-2.37996">
        <ele>11.39999961853</ele>
        <time>2021-04-04T07:59:04.000Z</time>
      </trkpt>
      <trkpt lat="47.29729" lon="-2.37993">
        <ele>11.800000190735</ele>
        <time>2021-04-04T07:59:05.000Z</time>
      </trkpt>
      <trkpt lat="47.2973" lon="-2.3799">
        <ele>12.199999809265</ele>
        <time>2021-04-04T07:59:06.000Z</time>
      </trkpt>
      <trkpt lat="47.29731" lon="-2.37987">
        <ele>12.800000190735</ele>
        <time>2021-04-04T07:59:07.000Z</time>
      </trkpt>
      <trkpt lat="47.29732" lon="-2.37985">
        <ele>12.800000190735</ele>
        <time>2021-04-04T07:59:08.000Z</time>
      </trkpt>
      <trkpt lat="47.29732" lon="-2.37982">
        <ele>13.199999809265</ele>
        <time>2021-04-04T07:59:09.000Z</time>
      </trkpt>
      <trkpt lat="47.29733" lon="-2.3798">
        <ele>13.60000038147</ele>
        <time>2021-04-04T07:59:10.000Z</time>
      </trkpt>
      <trkpt lat="47.29734" lon="-2.37977">
        <ele>14</ele>
        <time>2021-04-04T07:59:11.000Z</time>
      </trkpt>
      <trkpt lat="47.29735" lon="-2.37974">
        <ele>14.39999961853</ele>
        <time>2021-04-04T07:59:12.000Z</time>
      </trkpt>
      <trkpt lat="47.29736" lon="-2.37972">
        <ele>14.800000190735</ele>
        <time>2021-04-04T07:59:13.000Z</time>
      </trkpt>
      <trkpt lat="47.2974" lon="-2.37958">
        <ele>15.199999809265</ele>
        <time>2021-04-04T07:59:18.000Z</time>
      </trkpt>
      <trkpt lat="47.29741" lon="-2.37955">
        <ele>15.60000038147</ele>
        <time>2021-04-04T07:59:19.000Z</time>
      </trkpt>
      <trkpt lat="47.29742" lon="-2.37953">
        <ele>16.200000762939</ele>
        <time>2021-04-04T07:59:20.000Z</time>
      </trkpt>
      <trkpt lat="47.29744" lon="-2.37951">
        <ele>16.60000038147</ele>
        <time>2021-04-04T07:59:21.000Z</time>
      </trkpt>
      <trkpt lat="47.29745" lon="-2.37949">
        <ele>17</ele>
        <time>2021-04-04T07:59:22.000Z</time>
      </trkpt>
      <trkpt lat="47.29748" lon="-2.37945">
        <ele>17.39999961853</ele>
        <time>2021-04-04T07:59:24.000Z</time>
      </trkpt>
      <trkpt lat="47.2975" lon="-2.37943">
        <ele>17.799999237061</ele>
        <time>2021-04-04T07:59:25.000Z</time>
      </trkpt>
      <trkpt lat="47.29752" lon="-2.3794">
        <ele>18.200000762939</ele>
        <time>2021-04-04T07:59:26.000Z</time>
      </trkpt>
      <trkpt lat="47.29754" lon="-2.37938">
        <ele>18.60000038147</ele>
        <time>2021-04-04T07:59:27.000Z</time>
      </trkpt>
      <trkpt lat="47.29755" lon="-2.37936">
        <ele>19</ele>
        <time>2021-04-04T07:59:28.000Z</time>
      </trkpt>
      <trkpt lat="47.29766" lon="-2.37926">
        <ele>19</ele>
        <time>2021-04-04T07:59:34.000Z</time>
      </trkpt>
      <trkpt lat="47.29785" lon="-2.37912">
        <ele>19</ele>
        <time>2021-04-04T07:59:42.000Z</time>
      </trkpt>
      <trkpt lat="47.29799" lon="-2.37903">
        <ele>19.39999961853</ele>
        <time>2021-04-04T07:59:47.000Z</time>
      </trkpt>
      <trkpt lat="47.29802" lon="-2.37901">
        <ele>19.799999237061</ele>
        <time>2021-04-04T07:59:48.000Z</time>
      </trkpt>
      <trkpt lat="47.29805" lon="-2.37899">
        <ele>20.200000762939</ele>
        <time>2021-04-04T07:59:49.000Z</time>
      </trkpt>
      <trkpt lat="47.29809" lon="-2.37897">
        <ele>20.60000038147</ele>
        <time>2021-04-04T07:59:50.000Z</time>
      </trkpt>
      <trkpt lat="47.29813" lon="-2.37895">
        <ele>21</ele>
        <time>2021-04-04T07:59:51.000Z</time>
      </trkpt>
      <trkpt lat="47.29829" lon="-2.37886">
        <ele>21</ele>
        <time>2021-04-04T07:59:55.000Z</time>
      </trkpt>
      <trkpt lat="47.29834" lon="-2.37883">
        <ele>21</ele>
        <time>2021-04-04T07:59:56.000Z</time>
      </trkpt>
      <trkpt lat="47.2985" lon="-2.37865">
        <ele>21</ele>
        <time>2021-04-04T08:00:00.000Z</time>
      </trkpt>
      <trkpt lat="47.29859" lon="-2.37847">
        <ele>21</ele>
        <time>2021-04-04T08:00:03.000Z</time>
      </trkpt>
      <trkpt lat="47.29863" lon="-2.37834">
        <ele>21</ele>
        <time>2021-04-04T08:00:05.000Z</time>
      </trkpt>
      <trkpt lat="47.29871" lon="-2.37816">
        <ele>20.60000038147</ele>
        <time>2021-04-04T08:00:09.000Z</time>
      </trkpt>
      <trkpt lat="47.29872" lon="-2.37812">
        <ele>19.799999237061</ele>
        <time>2021-04-04T08:00:10.000Z</time>
      </trkpt>
      <trkpt lat="47.29873" lon="-2.37809">
        <ele>19.39999961853</ele>
        <time>2021-04-04T08:00:11.000Z</time>
      </trkpt>
      <trkpt lat="47.29874" lon="-2.37806">
        <ele>19</ele>
        <time>2021-04-04T08:00:12.000Z</time>
      </trkpt>
      <trkpt lat="47.29877" lon="-2.378">
        <ele>19</ele>
        <time>2021-04-04T08:00:15.000Z</time>
      </trkpt>
      <trkpt lat="47.29875" lon="-2.37792">
        <ele>19</ele>
        <time>2021-04-04T08:00:19.000Z</time>
      </trkpt>
      <trkpt lat="47.29874" lon="-2.378">
        <ele>19</ele>
        <time>2021-04-04T08:00:23.000Z</time>
      </trkpt>
      <trkpt lat="47.29877" lon="-2.37804">
        <ele>19</ele>
        <time>2021-04-04T08:00:27.000Z</time>
      </trkpt>
      <trkpt lat="47.29877" lon="-2.37804">
        <ele>19</ele>
        <time>2021-04-04T08:01:16.000Z</time>
      </trkpt>
      <trkpt lat="47.2988" lon="-2.37814">
        <ele>19</ele>
        <time>2021-04-04T08:01:19.000Z</time>
      </trkpt>
      <trkpt lat="47.2989" lon="-2.37829">
        <ele>19</ele>
        <time>2021-04-04T08:01:22.000Z</time>
      </trkpt>
      <trkpt lat="47.29901" lon="-2.37842">
        <ele>18.60000038147</ele>
        <time>2021-04-04T08:01:24.000Z</time>
      </trkpt>
      <trkpt lat="47.29907" lon="-2.37849">
        <ele>17.60000038147</ele>
        <time>2021-04-04T08:01:25.000Z</time>
      </trkpt>
      <trkpt lat="47.29914" lon="-2.37857">
        <ele>17.200000762939</ele>
        <time>2021-04-04T08:01:26.000Z</time>
      </trkpt>
      <trkpt lat="47.29921" lon="-2.37866">
        <ele>16.60000038147</ele>
        <time>2021-04-04T08:01:27.000Z</time>
      </trkpt>
      <trkpt lat="47.29928" lon="-2.37875">
        <ele>16.200000762939</ele>
        <time>2021-04-04T08:01:28.000Z</time>
      </trkpt>
      <trkpt lat="47.29935" lon="-2.37884">
        <ele>15.60000038147</ele>
        <time>2021-04-04T08:01:29.000Z</time>
      </trkpt>
      <trkpt lat="47.29942" lon="-2.37893">
        <ele>15</ele>
        <time>2021-04-04T08:01:30.000Z</time>
      </trkpt>
      <trkpt lat="47.29949" lon="-2.37901">
        <ele>14.60000038147</ele>
        <time>2021-04-04T08:01:31.000Z</time>
      </trkpt>
      <trkpt lat="47.29956" lon="-2.37909">
        <ele>14.60000038147</ele>
        <time>2021-04-04T08:01:32.000Z</time>
      </trkpt>
      <trkpt lat="47.29968" lon="-2.37923">
        <ele>14</ele>
        <time>2021-04-04T08:01:34.000Z</time>
      </trkpt>
      <trkpt lat="47.29974" lon="-2.37929">
        <ele>13.60000038147</ele>
        <time>2021-04-04T08:01:35.000Z</time>
      </trkpt>
      <trkpt lat="47.29979" lon="-2.37935">
        <ele>13.199999809265</ele>
        <time>2021-04-04T08:01:36.000Z</time>
      </trkpt>
      <trkpt lat="47.29983" lon="-2.37941">
        <ele>12.60000038147</ele>
        <time>2021-04-04T08:01:37.000Z</time>
      </trkpt>
      <trkpt lat="47.29987" lon="-2.37945">
        <ele>12.199999809265</ele>
        <time>2021-04-04T08:01:38.000Z</time>
      </trkpt>
      <trkpt lat="47.29991" lon="-2.37948">
        <ele>11.60000038147</ele>
        <time>2021-04-04T08:01:39.000Z</time>
      </trkpt>
      <trkpt lat="47.29995" lon="-2.3795">
        <ele>11</ele>
        <time>2021-04-04T08:01:40.000Z</time>
      </trkpt>
      <trkpt lat="47.29999" lon="-2.37954">
        <ele>10.60000038147</ele>
        <time>2021-04-04T08:01:41.000Z</time>
      </trkpt>
      <trkpt lat="47.30001" lon="-2.37958">
        <ele>10</ele>
        <time>2021-04-04T08:01:42.000Z</time>
      </trkpt>
      <trkpt lat="47.30001" lon="-2.37964">
        <ele>10</ele>
        <time>2021-04-04T08:01:43.000Z</time>
      </trkpt>
      <trkpt lat="47.29997" lon="-2.37976">
        <ele>10</ele>
        <time>2021-04-04T08:01:45.000Z</time>
      </trkpt>
      <trkpt lat="47.29994" lon="-2.37984">
        <ele>10</ele>
        <time>2021-04-04T08:01:46.000Z</time>
      </trkpt>
      <trkpt lat="47.29993" lon="-2.37993">
        <ele>10</ele>
        <time>2021-04-04T08:01:47.000Z</time>
      </trkpt>
      <trkpt lat="47.2999" lon="-2.38023">
        <ele>10</ele>
        <time>2021-04-04T08:01:50.000Z</time>
      </trkpt>
      <trkpt lat="47.29988" lon="-2.38089">
        <ele>10</ele>
        <time>2021-04-04T08:01:57.000Z</time>
      </trkpt>
      <trkpt lat="47.29988" lon="-2.38122">
        <ele>10.39999961853</ele>
        <time>2021-04-04T08:02:01.000Z</time>
      </trkpt>
      <trkpt lat="47.29988" lon="-2.3813">
        <ele>10.800000190735</ele>
        <time>2021-04-04T08:02:02.000Z</time>
      </trkpt>
      <trkpt lat="47.29989" lon="-2.38137">
        <ele>11.199999809265</ele>
        <time>2021-04-04T08:02:03.000Z</time>
      </trkpt>
      <trkpt lat="47.29989" lon="-2.38145">
        <ele>11.60000038147</ele>
        <time>2021-04-04T08:02:04.000Z</time>
      </trkpt>
      <trkpt lat="47.2999" lon="-2.38152">
        <ele>12</ele>
        <time>2021-04-04T08:02:05.000Z</time>
      </trkpt>
      <trkpt lat="47.29993" lon="-2.38204">
        <ele>12.60000038147</ele>
        <time>2021-04-04T08:02:12.000Z</time>
      </trkpt>
      <trkpt lat="47.29994" lon="-2.38212">
        <ele>13</ele>
        <time>2021-04-04T08:02:13.000Z</time>
      </trkpt>
      <trkpt lat="47.29994" lon="-2.38219">
        <ele>13.800000190735</ele>
        <time>2021-04-04T08:02:14.000Z</time>
      </trkpt>
      <trkpt lat="47.29995" lon="-2.38226">
        <ele>14.199999809265</ele>
        <time>2021-04-04T08:02:15.000Z</time>
      </trkpt>
      <trkpt lat="47.29995" lon="-2.38241">
        <ele>14.199999809265</ele>
        <time>2021-04-04T08:02:17.000Z</time>
      </trkpt>
      <trkpt lat="47.29996" lon="-2.38286">
        <ele>14.199999809265</ele>
        <time>2021-04-04T08:02:23.000Z</time>
      </trkpt>
      <trkpt lat="47.29998" lon="-2.38335">
        <ele>14.199999809265</ele>
        <time>2021-04-04T08:02:29.000Z</time>
      </trkpt>
      <trkpt lat="47.29998" lon="-2.38352">
        <ele>14.199999809265</ele>
        <time>2021-04-04T08:02:31.000Z</time>
      </trkpt>
      <trkpt lat="47.29998" lon="-2.3836">
        <ele>14.60000038147</ele>
        <time>2021-04-04T08:02:32.000Z</time>
      </trkpt>
      <trkpt lat="47.29998" lon="-2.38369">
        <ele>15</ele>
        <time>2021-04-04T08:02:33.000Z</time>
      </trkpt>
      <trkpt lat="47.29999" lon="-2.38377">
        <ele>15.39999961853</ele>
        <time>2021-04-04T08:02:34.000Z</time>
      </trkpt>
      <trkpt lat="47.29999" lon="-2.38385">
        <ele>16</ele>
        <time>2021-04-04T08:02:35.000Z</time>
      </trkpt>
      <trkpt lat="47.3" lon="-2.38394">
        <ele>16.39999961853</ele>
        <time>2021-04-04T08:02:36.000Z</time>
      </trkpt>
      <trkpt lat="47.30001" lon="-2.38409">
        <ele>16.39999961853</ele>
        <time>2021-04-04T08:02:38.000Z</time>
      </trkpt>
      <trkpt lat="47.30007" lon="-2.38459">
        <ele>16.39999961853</ele>
        <time>2021-04-04T08:02:45.000Z</time>
      </trkpt>
      <trkpt lat="47.30015" lon="-2.3851">
        <ele>16.39999961853</ele>
        <time>2021-04-04T08:02:52.000Z</time>
      </trkpt>
      <trkpt lat="47.30021" lon="-2.38555">
        <ele>16.39999961853</ele>
        <time>2021-04-04T08:02:57.000Z</time>
      </trkpt>
      <trkpt lat="47.30023" lon="-2.38573">
        <ele>15.800000190735</ele>
        <time>2021-04-04T08:02:59.000Z</time>
      </trkpt>
      <trkpt lat="47.30024" lon="-2.38581">
        <ele>15.39999961853</ele>
        <time>2021-04-04T08:03:00.000Z</time>
      </trkpt>
      <trkpt lat="47.30025" lon="-2.38587">
        <ele>15</ele>
        <time>2021-04-04T08:03:01.000Z</time>
      </trkpt>
      <trkpt lat="47.30026" lon="-2.38594">
        <ele>14.39999961853</ele>
        <time>2021-04-04T08:03:02.000Z</time>
      </trkpt>
      <trkpt lat="47.30027" lon="-2.386">
        <ele>14</ele>
        <time>2021-04-04T08:03:03.000Z</time>
      </trkpt>
      <trkpt lat="47.30027" lon="-2.38606">
        <ele>13</ele>
        <time>2021-04-04T08:03:04.000Z</time>
      </trkpt>
      <trkpt lat="47.30027" lon="-2.38612">
        <ele>12.39999961853</ele>
        <time>2021-04-04T08:03:05.000Z</time>
      </trkpt>
      <trkpt lat="47.30026" lon="-2.3862">
        <ele>12</ele>
        <time>2021-04-04T08:03:06.000Z</time>
      </trkpt>
      <trkpt lat="47.30025" lon="-2.38628">
        <ele>12</ele>
        <time>2021-04-04T08:03:07.000Z</time>
      </trkpt>
      <trkpt lat="47.30027" lon="-2.38644">
        <ele>11.60000038147</ele>
        <time>2021-04-04T08:03:09.000Z</time>
      </trkpt>
      <trkpt lat="47.30027" lon="-2.38653">
        <ele>11.199999809265</ele>
        <time>2021-04-04T08:03:10.000Z</time>
      </trkpt>
      <trkpt lat="47.30028" lon="-2.38662">
        <ele>10.800000190735</ele>
        <time>2021-04-04T08:03:11.000Z</time>
      </trkpt>
      <trkpt lat="47.30029" lon="-2.38671">
        <ele>10.39999961853</ele>
        <time>2021-04-04T08:03:12.000Z</time>
      </trkpt>
      <trkpt lat="47.30029" lon="-2.38681">
        <ele>10</ele>
        <time>2021-04-04T08:03:13.000Z</time>
      </trkpt>
      <trkpt lat="47.30028" lon="-2.38691">
        <ele>10</ele>
        <time>2021-04-04T08:03:14.000Z</time>
      </trkpt>
      <trkpt lat="47.30026" lon="-2.38711">
        <ele>10</ele>
        <time>2021-04-04T08:03:16.000Z</time>
      </trkpt>
      <trkpt lat="47.3002" lon="-2.38744">
        <ele>9.6000003814697</ele>
        <time>2021-04-04T08:03:19.000Z</time>
      </trkpt>
      <trkpt lat="47.30019" lon="-2.38756">
        <ele>9</ele>
        <time>2021-04-04T08:03:20.000Z</time>
      </trkpt>
      <trkpt lat="47.30017" lon="-2.38768">
        <ele>8.6000003814697</ele>
        <time>2021-04-04T08:03:21.000Z</time>
      </trkpt>
      <trkpt lat="47.30016" lon="-2.38781">
        <ele>8.1999998092651</ele>
        <time>2021-04-04T08:03:22.000Z</time>
      </trkpt>
      <trkpt lat="47.30014" lon="-2.38793">
        <ele>7.8000001907349</ele>
        <time>2021-04-04T08:03:23.000Z</time>
      </trkpt>
      <trkpt lat="47.3001" lon="-2.38832">
        <ele>7.4000000953674</ele>
        <time>2021-04-04T08:03:26.000Z</time>
      </trkpt>
      <trkpt lat="47.30009" lon="-2.38844">
        <ele>7</ele>
        <time>2021-04-04T08:03:27.000Z</time>
      </trkpt>
      <trkpt lat="47.30009" lon="-2.38857">
        <ele>6.5999999046326</ele>
        <time>2021-04-04T08:03:28.000Z</time>
      </trkpt>
      <trkpt lat="47.30008" lon="-2.3887">
        <ele>5.5999999046326</ele>
        <time>2021-04-04T08:03:29.000Z</time>
      </trkpt>
      <trkpt lat="47.30008" lon="-2.38882">
        <ele>5</ele>
        <time>2021-04-04T08:03:30.000Z</time>
      </trkpt>
      <trkpt lat="47.30008" lon="-2.38894">
        <ele>4.5999999046326</ele>
        <time>2021-04-04T08:03:31.000Z</time>
      </trkpt>
      <trkpt lat="47.30008" lon="-2.38905">
        <ele>4</ele>
        <time>2021-04-04T08:03:32.000Z</time>
      </trkpt>
      <trkpt lat="47.30008" lon="-2.38917">
        <ele>3.4000000953674</ele>
        <time>2021-04-04T08:03:33.000Z</time>
      </trkpt>
      <trkpt lat="47.30008" lon="-2.38928">
        <ele>3</ele>
        <time>2021-04-04T08:03:34.000Z</time>
      </trkpt>
      <trkpt lat="47.30007" lon="-2.3894">
        <ele>2.5999999046326</ele>
        <time>2021-04-04T08:03:35.000Z</time>
      </trkpt>
      <trkpt lat="47.30007" lon="-2.3895">
        <ele>2</ele>
        <time>2021-04-04T08:03:36.000Z</time>
      </trkpt>
      <trkpt lat="47.30008" lon="-2.38961">
        <ele>1.3999999761581</ele>
        <time>2021-04-04T08:03:37.000Z</time>
      </trkpt>
      <trkpt lat="47.30011" lon="-2.38968">
        <ele>0.60000002384186</ele>
        <time>2021-04-04T08:03:38.000Z</time>
      </trkpt>
      <trkpt lat="47.30015" lon="-2.38973">
        <ele>-0.20000000298023</ele>
        <time>2021-04-04T08:03:39.000Z</time>
      </trkpt>
      <trkpt lat="47.30021" lon="-2.38975">
        <ele>-1</ele>
        <time>2021-04-04T08:03:40.000Z</time>
      </trkpt>
      <trkpt lat="47.30027" lon="-2.38976">
        <ele>-1.7999999523163</ele>
        <time>2021-04-04T08:03:41.000Z</time>
      </trkpt>
      <trkpt lat="47.30039" lon="-2.38971">
        <ele>-1.7999999523163</ele>
        <time>2021-04-04T08:03:43.000Z</time>
      </trkpt>
      <trkpt lat="47.3005" lon="-2.38962">
        <ele>-1.7999999523163</ele>
        <time>2021-04-04T08:03:45.000Z</time>
      </trkpt>
      <trkpt lat="47.30071" lon="-2.38943">
        <ele>-1.7999999523163</ele>
        <time>2021-04-04T08:03:49.000Z</time>
      </trkpt>
      <trkpt lat="47.30099" lon="-2.3892">
        <ele>-1.7999999523163</ele>
        <time>2021-04-04T08:03:55.000Z</time>
      </trkpt>
      <trkpt lat="47.30107" lon="-2.38912">
        <ele>-1.2000000476837</ele>
        <time>2021-04-04T08:03:57.000Z</time>
      </trkpt>
      <trkpt lat="47.30111" lon="-2.38909">
        <ele>-0.80000001192093</ele>
        <time>2021-04-04T08:03:58.000Z</time>
      </trkpt>
      <trkpt lat="47.30114" lon="-2.38904">
        <ele>-0.40000000596046</ele>
        <time>2021-04-04T08:03:59.000Z</time>
      </trkpt>
      <trkpt lat="47.30117" lon="-2.389">
        <ele>0.20000000298023</ele>
        <time>2021-04-04T08:04:00.000Z</time>
      </trkpt>
      <trkpt lat="47.30121" lon="-2.38896">
        <ele>0.60000002384186</ele>
        <time>2021-04-04T08:04:01.000Z</time>
      </trkpt>
      <trkpt lat="47.30123" lon="-2.38891">
        <ele>0.60000002384186</ele>
        <time>2021-04-04T08:04:02.000Z</time>
      </trkpt>
      <trkpt lat="47.30132" lon="-2.38877">
        <ele>1</ele>
        <time>2021-04-04T08:04:05.000Z</time>
      </trkpt>
      <trkpt lat="47.30134" lon="-2.38873">
        <ele>1.3999999761581</ele>
        <time>2021-04-04T08:04:06.000Z</time>
      </trkpt>
      <trkpt lat="47.30137" lon="-2.38868">
        <ele>1.7999999523163</ele>
        <time>2021-04-04T08:04:07.000Z</time>
      </trkpt>
      <trkpt lat="47.3014" lon="-2.38864">
        <ele>2.2000000476837</ele>
        <time>2021-04-04T08:04:08.000Z</time>
      </trkpt>
      <trkpt lat="47.30142" lon="-2.38859">
        <ele>2.7999999523163</ele>
        <time>2021-04-04T08:04:09.000Z</time>
      </trkpt>
      <trkpt lat="47.30154" lon="-2.38837">
        <ele>2.7999999523163</ele>
        <time>2021-04-04T08:04:14.000Z</time>
      </trkpt>
      <trkpt lat="47.30159" lon="-2.38827">
        <ele>3.2000000476837</ele>
        <time>2021-04-04T08:04:16.000Z</time>
      </trkpt>
      <trkpt lat="47.30162" lon="-2.38822">
        <ele>3.5999999046326</ele>
        <time>2021-04-04T08:04:17.000Z</time>
      </trkpt>
      <trkpt lat="47.30165" lon="-2.38819">
        <ele>4.5999999046326</ele>
        <time>2021-04-04T08:04:18.000Z</time>
      </trkpt>
      <trkpt lat="47.30168" lon="-2.38815">
        <ele>5</ele>
        <time>2021-04-04T08:04:19.000Z</time>
      </trkpt>
      <trkpt lat="47.30171" lon="-2.38811">
        <ele>5</ele>
        <time>2021-04-04T08:04:20.000Z</time>
      </trkpt>
      <trkpt lat="47.30179" lon="-2.388">
        <ele>5.4000000953674</ele>
        <time>2021-04-04T08:04:23.000Z</time>
      </trkpt>
      <trkpt lat="47.30182" lon="-2.38797">
        <ele>5.8000001907349</ele>
        <time>2021-04-04T08:04:24.000Z</time>
      </trkpt>
      <trkpt lat="47.30184" lon="-2.38794">
        <ele>6.1999998092651</ele>
        <time>2021-04-04T08:04:25.000Z</time>
      </trkpt>
      <trkpt lat="47.30186" lon="-2.38791">
        <ele>6.5999999046326</ele>
        <time>2021-04-04T08:04:26.000Z</time>
      </trkpt>
      <trkpt lat="47.30188" lon="-2.38788">
        <ele>7</ele>
        <time>2021-04-04T08:04:27.000Z</time>
      </trkpt>
      <trkpt lat="47.30207" lon="-2.38775">
        <ele>7</ele>
        <time>2021-04-04T08:04:34.000Z</time>
      </trkpt>
      <trkpt lat="47.30212" lon="-2.38774">
        <ele>7.4000000953674</ele>
        <time>2021-04-04T08:04:36.000Z</time>
      </trkpt>
      <trkpt lat="47.30215" lon="-2.38775">
        <ele>7.8000001907349</ele>
        <time>2021-04-04T08:04:37.000Z</time>
      </trkpt>
      <trkpt lat="47.30217" lon="-2.38777">
        <ele>8.3999996185303</ele>
        <time>2021-04-04T08:04:38.000Z</time>
      </trkpt>
      <trkpt lat="47.3022" lon="-2.38779">
        <ele>8.8000001907349</ele>
        <time>2021-04-04T08:04:39.000Z</time>
      </trkpt>
      <trkpt lat="47.30223" lon="-2.38781">
        <ele>9.1999998092651</ele>
        <time>2021-04-04T08:04:40.000Z</time>
      </trkpt>
      <trkpt lat="47.30225" lon="-2.38784">
        <ele>9.6000003814697</ele>
        <time>2021-04-04T08:04:41.000Z</time>
      </trkpt>
      <trkpt lat="47.30228" lon="-2.38786">
        <ele>10</ele>
        <time>2021-04-04T08:04:42.000Z</time>
      </trkpt>
      <trkpt lat="47.30232" lon="-2.38788">
        <ele>10.800000190735</ele>
        <time>2021-04-04T08:04:43.000Z</time>
      </trkpt>
      <trkpt lat="47.30234" lon="-2.38791">
        <ele>11.199999809265</ele>
        <time>2021-04-04T08:04:44.000Z</time>
      </trkpt>
      <trkpt lat="47.30237" lon="-2.38794">
        <ele>11.800000190735</ele>
        <time>2021-04-04T08:04:45.000Z</time>
      </trkpt>
      <trkpt lat="47.3024" lon="-2.38796">
        <ele>12.199999809265</ele>
        <time>2021-04-04T08:04:46.000Z</time>
      </trkpt>
      <trkpt lat="47.30243" lon="-2.38799">
        <ele>12.60000038147</ele>
        <time>2021-04-04T08:04:47.000Z</time>
      </trkpt>
      <trkpt lat="47.30245" lon="-2.38803">
        <ele>13</ele>
        <time>2021-04-04T08:04:48.000Z</time>
      </trkpt>
      <trkpt lat="47.30248" lon="-2.38806">
        <ele>13.39999961853</ele>
        <time>2021-04-04T08:04:49.000Z</time>
      </trkpt>
      <trkpt lat="47.30255" lon="-2.38818">
        <ele>13.800000190735</ele>
        <time>2021-04-04T08:04:52.000Z</time>
      </trkpt>
      <trkpt lat="47.30258" lon="-2.38822">
        <ele>14.39999961853</ele>
        <time>2021-04-04T08:04:53.000Z</time>
      </trkpt>
      <trkpt lat="47.3026" lon="-2.38827">
        <ele>14.800000190735</ele>
        <time>2021-04-04T08:04:54.000Z</time>
      </trkpt>
      <trkpt lat="47.30262" lon="-2.38831">
        <ele>15.199999809265</ele>
        <time>2021-04-04T08:04:55.000Z</time>
      </trkpt>
      <trkpt lat="47.30264" lon="-2.38835">
        <ele>15.60000038147</ele>
        <time>2021-04-04T08:04:56.000Z</time>
      </trkpt>
      <trkpt lat="47.30274" lon="-2.38855">
        <ele>15.60000038147</ele>
        <time>2021-04-04T08:05:00.000Z</time>
      </trkpt>
      <trkpt lat="47.30276" lon="-2.3886">
        <ele>16</ele>
        <time>2021-04-04T08:05:01.000Z</time>
      </trkpt>
      <trkpt lat="47.30278" lon="-2.38866">
        <ele>16.39999961853</ele>
        <time>2021-04-04T08:05:02.000Z</time>
      </trkpt>
      <trkpt lat="47.3028" lon="-2.38871">
        <ele>16.799999237061</ele>
        <time>2021-04-04T08:05:03.000Z</time>
      </trkpt>
      <trkpt lat="47.30281" lon="-2.38877">
        <ele>17.200000762939</ele>
        <time>2021-04-04T08:05:04.000Z</time>
      </trkpt>
      <trkpt lat="47.30283" lon="-2.38882">
        <ele>17.799999237061</ele>
        <time>2021-04-04T08:05:05.000Z</time>
      </trkpt>
      <trkpt lat="47.30287" lon="-2.38893">
        <ele>17.799999237061</ele>
        <time>2021-04-04T08:05:07.000Z</time>
      </trkpt>
      <trkpt lat="47.30307" lon="-2.38943">
        <ele>17.799999237061</ele>
        <time>2021-04-04T08:05:16.000Z</time>
      </trkpt>
      <trkpt lat="47.30318" lon="-2.38963">
        <ele>17.799999237061</ele>
        <time>2021-04-04T08:05:20.000Z</time>
      </trkpt>
      <trkpt lat="47.30323" lon="-2.38971">
        <ele>17.799999237061</ele>
        <time>2021-04-04T08:05:22.000Z</time>
      </trkpt>
      <trkpt lat="47.30325" lon="-2.38975">
        <ele>18.200000762939</ele>
        <time>2021-04-04T08:05:23.000Z</time>
      </trkpt>
      <trkpt lat="47.30327" lon="-2.38977">
        <ele>18.60000038147</ele>
        <time>2021-04-04T08:05:24.000Z</time>
      </trkpt>
      <trkpt lat="47.30328" lon="-2.38978">
        <ele>19</ele>
        <time>2021-04-04T08:05:25.000Z</time>
      </trkpt>
      <trkpt lat="47.30328" lon="-2.3898">
        <ele>19.39999961853</ele>
        <time>2021-04-04T08:05:26.000Z</time>
      </trkpt>
      <trkpt lat="47.30329" lon="-2.38981">
        <ele>19.799999237061</ele>
        <time>2021-04-04T08:05:27.000Z</time>
      </trkpt>
      <trkpt lat="47.30338" lon="-2.38993">
        <ele>19.799999237061</ele>
        <time>2021-04-04T08:05:31.000Z</time>
      </trkpt>
      <trkpt lat="47.30342" lon="-2.39004">
        <ele>19.799999237061</ele>
        <time>2021-04-04T08:05:33.000Z</time>
      </trkpt>
      <trkpt lat="47.30344" lon="-2.3901">
        <ele>20.200000762939</ele>
        <time>2021-04-04T08:05:34.000Z</time>
      </trkpt>
      <trkpt lat="47.30346" lon="-2.39016">
        <ele>20.60000038147</ele>
        <time>2021-04-04T08:05:35.000Z</time>
      </trkpt>
      <trkpt lat="47.30347" lon="-2.39022">
        <ele>21.200000762939</ele>
        <time>2021-04-04T08:05:36.000Z</time>
      </trkpt>
      <trkpt lat="47.30349" lon="-2.39028">
        <ele>21.60000038147</ele>
        <time>2021-04-04T08:05:37.000Z</time>
      </trkpt>
      <trkpt lat="47.30351" lon="-2.39034">
        <ele>22</ele>
        <time>2021-04-04T08:05:38.000Z</time>
      </trkpt>
      <trkpt lat="47.30359" lon="-2.39074">
        <ele>22</ele>
        <time>2021-04-04T08:05:44.000Z</time>
      </trkpt>
      <trkpt lat="47.30372" lon="-2.39125">
        <ele>22</ele>
        <time>2021-04-04T08:05:50.000Z</time>
      </trkpt>
      <trkpt lat="47.30383" lon="-2.3915">
        <ele>22</ele>
        <time>2021-04-04T08:05:53.000Z</time>
      </trkpt>
      <trkpt lat="47.30393" lon="-2.39164">
        <ele>22</ele>
        <time>2021-04-04T08:05:55.000Z</time>
      </trkpt>
      <trkpt lat="47.30412" lon="-2.39172">
        <ele>22</ele>
        <time>2021-04-04T08:05:58.000Z</time>
      </trkpt>
      <trkpt lat="47.30435" lon="-2.39166">
        <ele>22</ele>
        <time>2021-04-04T08:06:02.000Z</time>
      </trkpt>
      <trkpt lat="47.30449" lon="-2.39155">
        <ele>22</ele>
        <time>2021-04-04T08:06:05.000Z</time>
      </trkpt>
      <trkpt lat="47.30453" lon="-2.39151">
        <ele>22</ele>
        <time>2021-04-04T08:06:06.000Z</time>
      </trkpt>
      <trkpt lat="47.30457" lon="-2.39146">
        <ele>22</ele>
        <time>2021-04-04T08:06:07.000Z</time>
      </trkpt>
      <trkpt lat="47.30488" lon="-2.39109">
        <ele>22</ele>
        <time>2021-04-04T08:06:15.000Z</time>
      </trkpt>
      <trkpt lat="47.305" lon="-2.39095">
        <ele>22.39999961853</ele>
        <time>2021-04-04T08:06:18.000Z</time>
      </trkpt>
      <trkpt lat="47.30503" lon="-2.3909">
        <ele>22.799999237061</ele>
        <time>2021-04-04T08:06:19.000Z</time>
      </trkpt>
      <trkpt lat="47.30508" lon="-2.39086">
        <ele>23.200000762939</ele>
        <time>2021-04-04T08:06:20.000Z</time>
      </trkpt>
      <trkpt lat="47.30512" lon="-2.39082">
        <ele>23.799999237061</ele>
        <time>2021-04-04T08:06:21.000Z</time>
      </trkpt>
      <trkpt lat="47.30517" lon="-2.39078">
        <ele>24.200000762939</ele>
        <time>2021-04-04T08:06:22.000Z</time>
      </trkpt>
      <trkpt lat="47.30546" lon="-2.39049">
        <ele>24.200000762939</ele>
        <time>2021-04-04T08:06:29.000Z</time>
      </trkpt>
      <trkpt lat="47.30573" lon="-2.39018">
        <ele>24.200000762939</ele>
        <time>2021-04-04T08:06:36.000Z</time>
      </trkpt>
      <trkpt lat="47.30581" lon="-2.39006">
        <ele>24.60000038147</ele>
        <time>2021-04-04T08:06:38.000Z</time>
      </trkpt>
      <trkpt lat="47.30584" lon="-2.39001">
        <ele>25</ele>
        <time>2021-04-04T08:06:39.000Z</time>
      </trkpt>
      <trkpt lat="47.30589" lon="-2.38996">
        <ele>25.39999961853</ele>
        <time>2021-04-04T08:06:40.000Z</time>
      </trkpt>
      <trkpt lat="47.30593" lon="-2.38991">
        <ele>25.799999237061</ele>
        <time>2021-04-04T08:06:41.000Z</time>
      </trkpt>
      <trkpt lat="47.30596" lon="-2.38987">
        <ele>26.200000762939</ele>
        <time>2021-04-04T08:06:42.000Z</time>
      </trkpt>
      <trkpt lat="47.30619" lon="-2.38963">
        <ele>26.200000762939</ele>
        <time>2021-04-04T08:06:48.000Z</time>
      </trkpt>
      <trkpt lat="47.30631" lon="-2.38951">
        <ele>26.60000038147</ele>
        <time>2021-04-04T08:06:51.000Z</time>
      </trkpt>
      <trkpt lat="47.30635" lon="-2.38949">
        <ele>27</ele>
        <time>2021-04-04T08:06:52.000Z</time>
      </trkpt>
      <trkpt lat="47.3064" lon="-2.38945">
        <ele>27.39999961853</ele>
        <time>2021-04-04T08:06:53.000Z</time>
      </trkpt>
      <trkpt lat="47.30644" lon="-2.38942">
        <ele>27.799999237061</ele>
        <time>2021-04-04T08:06:54.000Z</time>
      </trkpt>
      <trkpt lat="47.30648" lon="-2.38938">
        <ele>28.200000762939</ele>
        <time>2021-04-04T08:06:55.000Z</time>
      </trkpt>
      <trkpt lat="47.30677" lon="-2.38914">
        <ele>28.200000762939</ele>
        <time>2021-04-04T08:07:03.000Z</time>
      </trkpt>
      <trkpt lat="47.30686" lon="-2.38908">
        <ele>28.200000762939</ele>
        <time>2021-04-04T08:07:07.000Z</time>
      </trkpt>
      <trkpt lat="47.30687" lon="-2.38906">
        <ele>28.200000762939</ele>
        <time>2021-04-04T08:07:08.000Z</time>
      </trkpt>
      <trkpt lat="47.3069" lon="-2.38902">
        <ele>28.200000762939</ele>
        <time>2021-04-04T08:07:12.000Z</time>
      </trkpt>
      <trkpt lat="47.30693" lon="-2.38905">
        <ele>28.200000762939</ele>
        <time>2021-04-04T08:08:23.000Z</time>
      </trkpt>
      <trkpt lat="47.30699" lon="-2.38912">
        <ele>28.200000762939</ele>
        <time>2021-04-04T08:08:28.000Z</time>
      </trkpt>
      <trkpt lat="47.307" lon="-2.38917">
        <ele>28.200000762939</ele>
        <time>2021-04-04T08:08:35.000Z</time>
      </trkpt>
      <trkpt lat="47.307" lon="-2.38924">
        <ele>28.200000762939</ele>
        <time>2021-04-04T08:08:37.000Z</time>
      </trkpt>
      <trkpt lat="47.30701" lon="-2.38951">
        <ele>28.200000762939</ele>
        <time>2021-04-04T08:08:42.000Z</time>
      </trkpt>
      <trkpt lat="47.3071" lon="-2.38963">
        <ele>28.200000762939</ele>
        <time>2021-04-04T08:08:46.000Z</time>
      </trkpt>
      <trkpt lat="47.30722" lon="-2.38961">
        <ele>28.200000762939</ele>
        <time>2021-04-04T08:08:51.000Z</time>
      </trkpt>
      <trkpt lat="47.30729" lon="-2.38957">
        <ele>28.200000762939</ele>
        <time>2021-04-04T08:08:53.000Z</time>
      </trkpt>
      <trkpt lat="47.30734" lon="-2.38956">
        <ele>28.200000762939</ele>
        <time>2021-04-04T08:08:54.000Z</time>
      </trkpt>
      <trkpt lat="47.30739" lon="-2.38955">
        <ele>28.200000762939</ele>
        <time>2021-04-04T08:08:55.000Z</time>
      </trkpt>
      <trkpt lat="47.30754" lon="-2.38955">
        <ele>28.200000762939</ele>
        <time>2021-04-04T08:08:58.000Z</time>
      </trkpt>
      <trkpt lat="47.3076" lon="-2.38953">
        <ele>28.200000762939</ele>
        <time>2021-04-04T08:08:59.000Z</time>
      </trkpt>
      <trkpt lat="47.30779" lon="-2.38941">
        <ele>28.200000762939</ele>
        <time>2021-04-04T08:09:02.000Z</time>
      </trkpt>
      <trkpt lat="47.30785" lon="-2.38936">
        <ele>28.200000762939</ele>
        <time>2021-04-04T08:09:03.000Z</time>
      </trkpt>
      <trkpt lat="47.30814" lon="-2.38914">
        <ele>27.799999237061</ele>
        <time>2021-04-04T08:09:07.000Z</time>
      </trkpt>
      <trkpt lat="47.30821" lon="-2.38908">
        <ele>27.39999961853</ele>
        <time>2021-04-04T08:09:08.000Z</time>
      </trkpt>
      <trkpt lat="47.30828" lon="-2.38905">
        <ele>27</ele>
        <time>2021-04-04T08:09:09.000Z</time>
      </trkpt>
      <trkpt lat="47.30834" lon="-2.389">
        <ele>26.60000038147</ele>
        <time>2021-04-04T08:09:10.000Z</time>
      </trkpt>
      <trkpt lat="47.30839" lon="-2.38897">
        <ele>26.200000762939</ele>
        <time>2021-04-04T08:09:11.000Z</time>
      </trkpt>
      <trkpt lat="47.30864" lon="-2.38875">
        <ele>26.200000762939</ele>
        <time>2021-04-04T08:09:17.000Z</time>
      </trkpt>
      <trkpt lat="47.30871" lon="-2.38865">
        <ele>26.200000762939</ele>
        <time>2021-04-04T08:09:19.000Z</time>
      </trkpt>
      <trkpt lat="47.30874" lon="-2.3886">
        <ele>26.60000038147</ele>
        <time>2021-04-04T08:09:20.000Z</time>
      </trkpt>
      <trkpt lat="47.30877" lon="-2.38854">
        <ele>27.200000762939</ele>
        <time>2021-04-04T08:09:21.000Z</time>
      </trkpt>
      <trkpt lat="47.3088" lon="-2.38849">
        <ele>27.60000038147</ele>
        <time>2021-04-04T08:09:22.000Z</time>
      </trkpt>
      <trkpt lat="47.30883" lon="-2.38845">
        <ele>28</ele>
        <time>2021-04-04T08:09:23.000Z</time>
      </trkpt>
      <trkpt lat="47.30887" lon="-2.38843">
        <ele>28.39999961853</ele>
        <time>2021-04-04T08:09:24.000Z</time>
      </trkpt>
      <trkpt lat="47.30892" lon="-2.38843">
        <ele>28.39999961853</ele>
        <time>2021-04-04T08:09:25.000Z</time>
      </trkpt>
      <trkpt lat="47.30902" lon="-2.38854">
        <ele>28.39999961853</ele>
        <time>2021-04-04T08:09:28.000Z</time>
      </trkpt>
      <trkpt lat="47.3091" lon="-2.38874">
        <ele>28.39999961853</ele>
        <time>2021-04-04T08:09:31.000Z</time>
      </trkpt>
      <trkpt lat="47.30913" lon="-2.38881">
        <ele>28.39999961853</ele>
        <time>2021-04-04T08:09:32.000Z</time>
      </trkpt>
      <trkpt lat="47.30917" lon="-2.38887">
        <ele>28.39999961853</ele>
        <time>2021-04-04T08:09:33.000Z</time>
      </trkpt>
      <trkpt lat="47.30928" lon="-2.38906">
        <ele>28.39999961853</ele>
        <time>2021-04-04T08:09:36.000Z</time>
      </trkpt>
      <trkpt lat="47.30931" lon="-2.3893">
        <ele>28.39999961853</ele>
        <time>2021-04-04T08:09:39.000Z</time>
      </trkpt>
      <trkpt lat="47.30923" lon="-2.38952">
        <ele>28.39999961853</ele>
        <time>2021-04-04T08:09:42.000Z</time>
      </trkpt>
      <trkpt lat="47.3092" lon="-2.38959">
        <ele>28.39999961853</ele>
        <time>2021-04-04T08:09:43.000Z</time>
      </trkpt>
      <trkpt lat="47.30908" lon="-2.38987">
        <ele>28.39999961853</ele>
        <time>2021-04-04T08:09:47.000Z</time>
      </trkpt>
      <trkpt lat="47.30906" lon="-2.38995">
        <ele>28.39999961853</ele>
        <time>2021-04-04T08:09:48.000Z</time>
      </trkpt>
      <trkpt lat="47.30902" lon="-2.39048">
        <ele>28.39999961853</ele>
        <time>2021-04-04T08:09:54.000Z</time>
      </trkpt>
      <trkpt lat="47.30903" lon="-2.39084">
        <ele>28.39999961853</ele>
        <time>2021-04-04T08:09:58.000Z</time>
      </trkpt>
      <trkpt lat="47.30905" lon="-2.39092">
        <ele>28.39999961853</ele>
        <time>2021-04-04T08:09:59.000Z</time>
      </trkpt>
      <trkpt lat="47.30913" lon="-2.39115">
        <ele>28.39999961853</ele>
        <time>2021-04-04T08:10:02.000Z</time>
      </trkpt>
      <trkpt lat="47.30922" lon="-2.39138">
        <ele>28.39999961853</ele>
        <time>2021-04-04T08:10:05.000Z</time>
      </trkpt>
      <trkpt lat="47.30925" lon="-2.39145">
        <ele>28.799999237061</ele>
        <time>2021-04-04T08:10:06.000Z</time>
      </trkpt>
      <trkpt lat="47.30927" lon="-2.39153">
        <ele>29.200000762939</ele>
        <time>2021-04-04T08:10:07.000Z</time>
      </trkpt>
      <trkpt lat="47.3093" lon="-2.3916">
        <ele>29.60000038147</ele>
        <time>2021-04-04T08:10:08.000Z</time>
      </trkpt>
      <trkpt lat="47.30933" lon="-2.39168">
        <ele>30</ele>
        <time>2021-04-04T08:10:09.000Z</time>
      </trkpt>
      <trkpt lat="47.30936" lon="-2.39175">
        <ele>30.39999961853</ele>
        <time>2021-04-04T08:10:10.000Z</time>
      </trkpt>
      <trkpt lat="47.30949" lon="-2.39204">
        <ele>30.39999961853</ele>
        <time>2021-04-04T08:10:14.000Z</time>
      </trkpt>
      <trkpt lat="47.30978" lon="-2.39272">
        <ele>30</ele>
        <time>2021-04-04T08:10:23.000Z</time>
      </trkpt>
      <trkpt lat="47.30981" lon="-2.39281">
        <ele>29.60000038147</ele>
        <time>2021-04-04T08:10:24.000Z</time>
      </trkpt>
      <trkpt lat="47.30984" lon="-2.39289">
        <ele>29.200000762939</ele>
        <time>2021-04-04T08:10:25.000Z</time>
      </trkpt>
      <trkpt lat="47.30987" lon="-2.39299">
        <ele>28.799999237061</ele>
        <time>2021-04-04T08:10:26.000Z</time>
      </trkpt>
      <trkpt lat="47.3099" lon="-2.39307">
        <ele>28.39999961853</ele>
        <time>2021-04-04T08:10:27.000Z</time>
      </trkpt>
      <trkpt lat="47.30999" lon="-2.39334">
        <ele>28.39999961853</ele>
        <time>2021-04-04T08:10:30.000Z</time>
      </trkpt>
      <trkpt lat="47.31023" lon="-2.39408">
        <ele>28.39999961853</ele>
        <time>2021-04-04T08:10:38.000Z</time>
      </trkpt>
      <trkpt lat="47.31047" lon="-2.39482">
        <ele>28.39999961853</ele>
        <time>2021-04-04T08:10:46.000Z</time>
      </trkpt>
      <trkpt lat="47.31063" lon="-2.3953">
        <ele>28.39999961853</ele>
        <time>2021-04-04T08:10:52.000Z</time>
      </trkpt>
      <trkpt lat="47.31077" lon="-2.39575">
        <ele>28.39999961853</ele>
        <time>2021-04-04T08:10:59.000Z</time>
      </trkpt>
      <trkpt lat="47.31093" lon="-2.39619">
        <ele>28.39999961853</ele>
        <time>2021-04-04T08:11:06.000Z</time>
      </trkpt>
      <trkpt lat="47.31095" lon="-2.39625">
        <ele>28.39999961853</ele>
        <time>2021-04-04T08:11:07.000Z</time>
      </trkpt>
      <trkpt lat="47.31116" lon="-2.39682">
        <ele>28.39999961853</ele>
        <time>2021-04-04T08:11:15.000Z</time>
      </trkpt>
      <trkpt lat="47.31141" lon="-2.39752">
        <ele>28.39999961853</ele>
        <time>2021-04-04T08:11:24.000Z</time>
      </trkpt>
      <trkpt lat="47.31161" lon="-2.39814">
        <ele>28.39999961853</ele>
        <time>2021-04-04T08:11:32.000Z</time>
      </trkpt>
      <trkpt lat="47.31167" lon="-2.39828">
        <ele>28.39999961853</ele>
        <time>2021-04-04T08:11:34.000Z</time>
      </trkpt>
      <trkpt lat="47.31177" lon="-2.39845">
        <ele>28.39999961853</ele>
        <time>2021-04-04T08:11:37.000Z</time>
      </trkpt>
      <trkpt lat="47.31179" lon="-2.39851">
        <ele>28</ele>
        <time>2021-04-04T08:11:38.000Z</time>
      </trkpt>
      <trkpt lat="47.31181" lon="-2.39857">
        <ele>27.60000038147</ele>
        <time>2021-04-04T08:11:39.000Z</time>
      </trkpt>
      <trkpt lat="47.31183" lon="-2.39864">
        <ele>27.200000762939</ele>
        <time>2021-04-04T08:11:40.000Z</time>
      </trkpt>
      <trkpt lat="47.31184" lon="-2.3987">
        <ele>26.39999961853</ele>
        <time>2021-04-04T08:11:41.000Z</time>
      </trkpt>
      <trkpt lat="47.31185" lon="-2.39876">
        <ele>26.39999961853</ele>
        <time>2021-04-04T08:11:42.000Z</time>
      </trkpt>
      <trkpt lat="47.31189" lon="-2.39889">
        <ele>26.39999961853</ele>
        <time>2021-04-04T08:11:46.000Z</time>
      </trkpt>
      <trkpt lat="47.31195" lon="-2.39904">
        <ele>26.39999961853</ele>
        <time>2021-04-04T08:11:50.000Z</time>
      </trkpt>
      <trkpt lat="47.312" lon="-2.39918">
        <ele>26</ele>
        <time>2021-04-04T08:11:54.000Z</time>
      </trkpt>
      <trkpt lat="47.31201" lon="-2.39921">
        <ele>25.60000038147</ele>
        <time>2021-04-04T08:11:55.000Z</time>
      </trkpt>
      <trkpt lat="47.31202" lon="-2.39925">
        <ele>25.200000762939</ele>
        <time>2021-04-04T08:11:56.000Z</time>
      </trkpt>
      <trkpt lat="47.31204" lon="-2.39928">
        <ele>24.799999237061</ele>
        <time>2021-04-04T08:11:57.000Z</time>
      </trkpt>
      <trkpt lat="47.31206" lon="-2.39932">
        <ele>24.39999961853</ele>
        <time>2021-04-04T08:11:58.000Z</time>
      </trkpt>
      <trkpt lat="47.31211" lon="-2.39945">
        <ele>24.39999961853</ele>
        <time>2021-04-04T08:12:01.000Z</time>
      </trkpt>
      <trkpt lat="47.31222" lon="-2.39971">
        <ele>24.39999961853</ele>
        <time>2021-04-04T08:12:08.000Z</time>
      </trkpt>
      <trkpt lat="47.31223" lon="-2.39974">
        <ele>24</ele>
        <time>2021-04-04T08:12:09.000Z</time>
      </trkpt>
      <trkpt lat="47.31224" lon="-2.39978">
        <ele>23.60000038147</ele>
        <time>2021-04-04T08:12:10.000Z</time>
      </trkpt>
      <trkpt lat="47.31225" lon="-2.39981">
        <ele>23</ele>
        <time>2021-04-04T08:12:11.000Z</time>
      </trkpt>
      <trkpt lat="47.31226" lon="-2.39984">
        <ele>22.60000038147</ele>
        <time>2021-04-04T08:12:12.000Z</time>
      </trkpt>
      <trkpt lat="47.31227" lon="-2.39987">
        <ele>22.200000762939</ele>
        <time>2021-04-04T08:12:13.000Z</time>
      </trkpt>
      <trkpt lat="47.31229" lon="-2.3999">
        <ele>22.200000762939</ele>
        <time>2021-04-04T08:12:14.000Z</time>
      </trkpt>
      <trkpt lat="47.31234" lon="-2.40013">
        <ele>22.200000762939</ele>
        <time>2021-04-04T08:12:19.000Z</time>
      </trkpt>
      <trkpt lat="47.31235" lon="-2.40017">
        <ele>21.799999237061</ele>
        <time>2021-04-04T08:12:20.000Z</time>
      </trkpt>
      <trkpt lat="47.31235" lon="-2.4002">
        <ele>21.39999961853</ele>
        <time>2021-04-04T08:12:21.000Z</time>
      </trkpt>
      <trkpt lat="47.31236" lon="-2.40024">
        <ele>21</ele>
        <time>2021-04-04T08:12:22.000Z</time>
      </trkpt>
      <trkpt lat="47.31237" lon="-2.40028">
        <ele>20.39999961853</ele>
        <time>2021-04-04T08:12:23.000Z</time>
      </trkpt>
      <trkpt lat="47.31238" lon="-2.40033">
        <ele>20</ele>
        <time>2021-04-04T08:12:24.000Z</time>
      </trkpt>
      <trkpt lat="47.31241" lon="-2.40037">
        <ele>20</ele>
        <time>2021-04-04T08:12:25.000Z</time>
      </trkpt>
      <trkpt lat="47.31246" lon="-2.40039">
        <ele>20</ele>
        <time>2021-04-04T08:12:27.000Z</time>
      </trkpt>
      <trkpt lat="47.31255" lon="-2.40047">
        <ele>20</ele>
        <time>2021-04-04T08:12:32.000Z</time>
      </trkpt>
      <trkpt lat="47.31268" lon="-2.40053">
        <ele>20</ele>
        <time>2021-04-04T08:12:35.000Z</time>
      </trkpt>
      <trkpt lat="47.31273" lon="-2.40054">
        <ele>20</ele>
        <time>2021-04-04T08:12:36.000Z</time>
      </trkpt>
      <trkpt lat="47.31291" lon="-2.40062">
        <ele>20</ele>
        <time>2021-04-04T08:12:40.000Z</time>
      </trkpt>
      <trkpt lat="47.31325" lon="-2.40076">
        <ele>20</ele>
        <time>2021-04-04T08:12:47.000Z</time>
      </trkpt>
      <trkpt lat="47.31354" lon="-2.40093">
        <ele>20</ele>
        <time>2021-04-04T08:12:54.000Z</time>
      </trkpt>
      <trkpt lat="47.31374" lon="-2.40104">
        <ele>20</ele>
        <time>2021-04-04T08:13:00.000Z</time>
      </trkpt>
      <trkpt lat="47.31394" lon="-2.40115">
        <ele>20</ele>
        <time>2021-04-04T08:13:07.000Z</time>
      </trkpt>
      <trkpt lat="47.31412" lon="-2.40125">
        <ele>20</ele>
        <time>2021-04-04T08:13:14.000Z</time>
      </trkpt>
      <trkpt lat="47.31432" lon="-2.40136">
        <ele>20</ele>
        <time>2021-04-04T08:13:20.000Z</time>
      </trkpt>
      <trkpt lat="47.31436" lon="-2.40139">
        <ele>20</ele>
        <time>2021-04-04T08:13:21.000Z</time>
      </trkpt>
      <trkpt lat="47.31444" lon="-2.40146">
        <ele>20.39999961853</ele>
        <time>2021-04-04T08:13:23.000Z</time>
      </trkpt>
      <trkpt lat="47.31449" lon="-2.4015">
        <ele>20.799999237061</ele>
        <time>2021-04-04T08:13:24.000Z</time>
      </trkpt>
      <trkpt lat="47.31453" lon="-2.40153">
        <ele>21.200000762939</ele>
        <time>2021-04-04T08:13:25.000Z</time>
      </trkpt>
      <trkpt lat="47.31456" lon="-2.40156">
        <ele>21.60000038147</ele>
        <time>2021-04-04T08:13:26.000Z</time>
      </trkpt>
      <trkpt lat="47.3146" lon="-2.40159">
        <ele>22</ele>
        <time>2021-04-04T08:13:27.000Z</time>
      </trkpt>
      <trkpt lat="47.31479" lon="-2.40173">
        <ele>22</ele>
        <time>2021-04-04T08:13:32.000Z</time>
      </trkpt>
      <trkpt lat="47.31482" lon="-2.40176">
        <ele>22</ele>
        <time>2021-04-04T08:13:33.000Z</time>
      </trkpt>
      <trkpt lat="47.31504" lon="-2.40193">
        <ele>22</ele>
        <time>2021-04-04T08:13:39.000Z</time>
      </trkpt>
      <trkpt lat="47.31528" lon="-2.40211">
        <ele>22</ele>
        <time>2021-04-04T08:13:45.000Z</time>
      </trkpt>
      <trkpt lat="47.31532" lon="-2.40215">
        <ele>22.39999961853</ele>
        <time>2021-04-04T08:13:46.000Z</time>
      </trkpt>
      <trkpt lat="47.31536" lon="-2.40218">
        <ele>22.799999237061</ele>
        <time>2021-04-04T08:13:47.000Z</time>
      </trkpt>
      <trkpt lat="47.3154" lon="-2.40221">
        <ele>23.200000762939</ele>
        <time>2021-04-04T08:13:48.000Z</time>
      </trkpt>
      <trkpt lat="47.31545" lon="-2.40224">
        <ele>23.799999237061</ele>
        <time>2021-04-04T08:13:49.000Z</time>
      </trkpt>
      <trkpt lat="47.31549" lon="-2.40227">
        <ele>24.200000762939</ele>
        <time>2021-04-04T08:13:50.000Z</time>
      </trkpt>
      <trkpt lat="47.31559" lon="-2.40233">
        <ele>24.200000762939</ele>
        <time>2021-04-04T08:13:52.000Z</time>
      </trkpt>
      <trkpt lat="47.3159" lon="-2.40259">
        <ele>24.200000762939</ele>
        <time>2021-04-04T08:13:58.000Z</time>
      </trkpt>
      <trkpt lat="47.31608" lon="-2.40271">
        <ele>24.60000038147</ele>
        <time>2021-04-04T08:14:02.000Z</time>
      </trkpt>
      <trkpt lat="47.31612" lon="-2.40274">
        <ele>25</ele>
        <time>2021-04-04T08:14:03.000Z</time>
      </trkpt>
      <trkpt lat="47.31617" lon="-2.40277">
        <ele>25.39999961853</ele>
        <time>2021-04-04T08:14:04.000Z</time>
      </trkpt>
      <trkpt lat="47.31621" lon="-2.4028">
        <ele>25.799999237061</ele>
        <time>2021-04-04T08:14:05.000Z</time>
      </trkpt>
      <trkpt lat="47.31625" lon="-2.40283">
        <ele>26.200000762939</ele>
        <time>2021-04-04T08:14:06.000Z</time>
      </trkpt>
      <trkpt lat="47.31658" lon="-2.40307">
        <ele>26.200000762939</ele>
        <time>2021-04-04T08:14:14.000Z</time>
      </trkpt>
      <trkpt lat="47.31672" lon="-2.40322">
        <ele>26.200000762939</ele>
        <time>2021-04-04T08:14:19.000Z</time>
      </trkpt>
      <trkpt lat="47.31683" lon="-2.40328">
        <ele>26.200000762939</ele>
        <time>2021-04-04T08:14:24.000Z</time>
      </trkpt>
      <trkpt lat="47.31686" lon="-2.4033">
        <ele>26.200000762939</ele>
        <time>2021-04-04T08:14:28.000Z</time>
      </trkpt>
      <trkpt lat="47.31687" lon="-2.40332">
        <ele>26.200000762939</ele>
        <time>2021-04-04T08:14:45.000Z</time>
      </trkpt>
      <trkpt lat="47.31699" lon="-2.40341">
        <ele>26.200000762939</ele>
        <time>2021-04-04T08:14:50.000Z</time>
      </trkpt>
      <trkpt lat="47.31708" lon="-2.40348">
        <ele>26.60000038147</ele>
        <time>2021-04-04T08:14:53.000Z</time>
      </trkpt>
      <trkpt lat="47.31712" lon="-2.4035">
        <ele>27</ele>
        <time>2021-04-04T08:14:54.000Z</time>
      </trkpt>
      <trkpt lat="47.31715" lon="-2.40352">
        <ele>27.39999961853</ele>
        <time>2021-04-04T08:14:55.000Z</time>
      </trkpt>
      <trkpt lat="47.31718" lon="-2.40355">
        <ele>27.799999237061</ele>
        <time>2021-04-04T08:14:56.000Z</time>
      </trkpt>
      <trkpt lat="47.31722" lon="-2.40357">
        <ele>28.200000762939</ele>
        <time>2021-04-04T08:14:57.000Z</time>
      </trkpt>
      <trkpt lat="47.31726" lon="-2.4036">
        <ele>28.200000762939</ele>
        <time>2021-04-04T08:14:58.000Z</time>
      </trkpt>
      <trkpt lat="47.31752" lon="-2.40377">
        <ele>28.200000762939</ele>
        <time>2021-04-04T08:15:06.000Z</time>
      </trkpt>
      <trkpt lat="47.31784" lon="-2.40402">
        <ele>28.200000762939</ele>
        <time>2021-04-04T08:15:15.000Z</time>
      </trkpt>
      <trkpt lat="47.31816" lon="-2.4043">
        <ele>28.200000762939</ele>
        <time>2021-04-04T08:15:23.000Z</time>
      </trkpt>
      <trkpt lat="47.31831" lon="-2.40441">
        <ele>28.60000038147</ele>
        <time>2021-04-04T08:15:27.000Z</time>
      </trkpt>
      <trkpt lat="47.31835" lon="-2.40444">
        <ele>29</ele>
        <time>2021-04-04T08:15:28.000Z</time>
      </trkpt>
      <trkpt lat="47.31838" lon="-2.40448">
        <ele>29.39999961853</ele>
        <time>2021-04-04T08:15:29.000Z</time>
      </trkpt>
      <trkpt lat="47.31842" lon="-2.40451">
        <ele>29.799999237061</ele>
        <time>2021-04-04T08:15:30.000Z</time>
      </trkpt>
      <trkpt lat="47.31847" lon="-2.40454">
        <ele>30.200000762939</ele>
        <time>2021-04-04T08:15:31.000Z</time>
      </trkpt>
      <trkpt lat="47.31864" lon="-2.40468">
        <ele>30.200000762939</ele>
        <time>2021-04-04T08:15:35.000Z</time>
      </trkpt>
      <trkpt lat="47.31896" lon="-2.40491">
        <ele>30.200000762939</ele>
        <time>2021-04-04T08:15:43.000Z</time>
      </trkpt>
      <trkpt lat="47.31913" lon="-2.40501">
        <ele>30.60000038147</ele>
        <time>2021-04-04T08:15:47.000Z</time>
      </trkpt>
      <trkpt lat="47.31917" lon="-2.40504">
        <ele>31.39999961853</ele>
        <time>2021-04-04T08:15:48.000Z</time>
      </trkpt>
      <trkpt lat="47.31921" lon="-2.40508">
        <ele>31.799999237061</ele>
        <time>2021-04-04T08:15:49.000Z</time>
      </trkpt>
      <trkpt lat="47.31926" lon="-2.40511">
        <ele>32.200000762939</ele>
        <time>2021-04-04T08:15:50.000Z</time>
      </trkpt>
      <trkpt lat="47.31947" lon="-2.40527">
        <ele>32.200000762939</ele>
        <time>2021-04-04T08:15:55.000Z</time>
      </trkpt>
      <trkpt lat="47.31983" lon="-2.40554">
        <ele>32.200000762939</ele>
        <time>2021-04-04T08:16:03.000Z</time>
      </trkpt>
      <trkpt lat="47.32011" lon="-2.40579">
        <ele>32.599998474121</ele>
        <time>2021-04-04T08:16:09.000Z</time>
      </trkpt>
      <trkpt lat="47.32016" lon="-2.40583">
        <ele>33</ele>
        <time>2021-04-04T08:16:10.000Z</time>
      </trkpt>
      <trkpt lat="47.32021" lon="-2.40586">
        <ele>33.400001525879</ele>
        <time>2021-04-04T08:16:11.000Z</time>
      </trkpt>
      <trkpt lat="47.32025" lon="-2.4059">
        <ele>33.799999237061</ele>
        <time>2021-04-04T08:16:12.000Z</time>
      </trkpt>
      <trkpt lat="47.3203" lon="-2.40593">
        <ele>34.200000762939</ele>
        <time>2021-04-04T08:16:13.000Z</time>
      </trkpt>
      <trkpt lat="47.32043" lon="-2.40605">
        <ele>34.200000762939</ele>
        <time>2021-04-04T08:16:16.000Z</time>
      </trkpt>
      <trkpt lat="47.32079" lon="-2.40639">
        <ele>34.200000762939</ele>
        <time>2021-04-04T08:16:24.000Z</time>
      </trkpt>
      <trkpt lat="47.32111" lon="-2.40673">
        <ele>34.200000762939</ele>
        <time>2021-04-04T08:16:31.000Z</time>
      </trkpt>
      <trkpt lat="47.32115" lon="-2.40678">
        <ele>34.200000762939</ele>
        <time>2021-04-04T08:16:32.000Z</time>
      </trkpt>
      <trkpt lat="47.32144" lon="-2.40711">
        <ele>34.200000762939</ele>
        <time>2021-04-04T08:16:39.000Z</time>
      </trkpt>
      <trkpt lat="47.32156" lon="-2.40725">
        <ele>34.599998474121</ele>
        <time>2021-04-04T08:16:42.000Z</time>
      </trkpt>
      <trkpt lat="47.32159" lon="-2.4073">
        <ele>35</ele>
        <time>2021-04-04T08:16:43.000Z</time>
      </trkpt>
      <trkpt lat="47.32163" lon="-2.40735">
        <ele>35.400001525879</ele>
        <time>2021-04-04T08:16:44.000Z</time>
      </trkpt>
      <trkpt lat="47.32167" lon="-2.4074">
        <ele>36</ele>
        <time>2021-04-04T08:16:45.000Z</time>
      </trkpt>
      <trkpt lat="47.32171" lon="-2.40744">
        <ele>36.400001525879</ele>
        <time>2021-04-04T08:16:46.000Z</time>
      </trkpt>
      <trkpt lat="47.32174" lon="-2.40749">
        <ele>36.400001525879</ele>
        <time>2021-04-04T08:16:47.000Z</time>
      </trkpt>
      <trkpt lat="47.32198" lon="-2.4078">
        <ele>36.400001525879</ele>
        <time>2021-04-04T08:16:55.000Z</time>
      </trkpt>
      <trkpt lat="47.32208" lon="-2.40794">
        <ele>36.400001525879</ele>
        <time>2021-04-04T08:17:00.000Z</time>
      </trkpt>
      <trkpt lat="47.32223" lon="-2.40817">
        <ele>36.400001525879</ele>
        <time>2021-04-04T08:17:06.000Z</time>
      </trkpt>
      <trkpt lat="47.32234" lon="-2.40835">
        <ele>36.400001525879</ele>
        <time>2021-04-04T08:17:10.000Z</time>
      </trkpt>
      <trkpt lat="47.32257" lon="-2.40874">
        <ele>36.400001525879</ele>
        <time>2021-04-04T08:17:17.000Z</time>
      </trkpt>
      <trkpt lat="47.32285" lon="-2.40923">
        <ele>36.400001525879</ele>
        <time>2021-04-04T08:17:26.000Z</time>
      </trkpt>
      <trkpt lat="47.32307" lon="-2.40966">
        <ele>36.400001525879</ele>
        <time>2021-04-04T08:17:33.000Z</time>
      </trkpt>
      <trkpt lat="47.32332" lon="-2.41014">
        <ele>36.799999237061</ele>
        <time>2021-04-04T08:17:41.000Z</time>
      </trkpt>
      <trkpt lat="47.32334" lon="-2.4102">
        <ele>37.200000762939</ele>
        <time>2021-04-04T08:17:42.000Z</time>
      </trkpt>
      <trkpt lat="47.32337" lon="-2.41026">
        <ele>37.599998474121</ele>
        <time>2021-04-04T08:17:43.000Z</time>
      </trkpt>
      <trkpt lat="47.3234" lon="-2.41031">
        <ele>38</ele>
        <time>2021-04-04T08:17:44.000Z</time>
      </trkpt>
      <trkpt lat="47.32343" lon="-2.41037">
        <ele>38.400001525879</ele>
        <time>2021-04-04T08:17:45.000Z</time>
      </trkpt>
      <trkpt lat="47.32356" lon="-2.41061">
        <ele>38.400001525879</ele>
        <time>2021-04-04T08:17:50.000Z</time>
      </trkpt>
      <trkpt lat="47.3237" lon="-2.41085">
        <ele>38.400001525879</ele>
        <time>2021-04-04T08:17:57.000Z</time>
      </trkpt>
      <trkpt lat="47.32378" lon="-2.41104">
        <ele>38.400001525879</ele>
        <time>2021-04-04T08:18:01.000Z</time>
      </trkpt>
      <trkpt lat="47.324" lon="-2.41148">
        <ele>38.400001525879</ele>
        <time>2021-04-04T08:18:11.000Z</time>
      </trkpt>
      <trkpt lat="47.32412" lon="-2.4117">
        <ele>38.400001525879</ele>
        <time>2021-04-04T08:18:17.000Z</time>
      </trkpt>
      <trkpt lat="47.32425" lon="-2.41194">
        <ele>38.400001525879</ele>
        <time>2021-04-04T08:18:23.000Z</time>
      </trkpt>
      <trkpt lat="47.32433" lon="-2.41206">
        <ele>38.400001525879</ele>
        <time>2021-04-04T08:18:26.000Z</time>
      </trkpt>
      <trkpt lat="47.32435" lon="-2.41213">
        <ele>38.400001525879</ele>
        <time>2021-04-04T08:18:27.000Z</time>
      </trkpt>
      <trkpt lat="47.32448" lon="-2.4124">
        <ele>38.400001525879</ele>
        <time>2021-04-04T08:18:31.000Z</time>
      </trkpt>
      <trkpt lat="47.32452" lon="-2.41248">
        <ele>38.400001525879</ele>
        <time>2021-04-04T08:18:32.000Z</time>
      </trkpt>
      <trkpt lat="47.32474" lon="-2.41289">
        <ele>38.400001525879</ele>
        <time>2021-04-04T08:18:38.000Z</time>
      </trkpt>
      <trkpt lat="47.32478" lon="-2.41294">
        <ele>38.400001525879</ele>
        <time>2021-04-04T08:18:39.000Z</time>
      </trkpt>
      <trkpt lat="47.32494" lon="-2.41325">
        <ele>38.400001525879</ele>
        <time>2021-04-04T08:18:44.000Z</time>
      </trkpt>
      <trkpt lat="47.32515" lon="-2.4137">
        <ele>38.400001525879</ele>
        <time>2021-04-04T08:18:50.000Z</time>
      </trkpt>
      <trkpt lat="47.32545" lon="-2.41424">
        <ele>38.400001525879</ele>
        <time>2021-04-04T08:18:57.000Z</time>
      </trkpt>
      <trkpt lat="47.32564" lon="-2.41461">
        <ele>38.400001525879</ele>
        <time>2021-04-04T08:19:03.000Z</time>
      </trkpt>
      <trkpt lat="47.32568" lon="-2.41468">
        <ele>38.400001525879</ele>
        <time>2021-04-04T08:19:05.000Z</time>
      </trkpt>
      <trkpt lat="47.32572" lon="-2.41465">
        <ele>38.400001525879</ele>
        <time>2021-04-04T08:19:07.000Z</time>
      </trkpt>
      <trkpt lat="47.32575" lon="-2.41448">
        <ele>38.400001525879</ele>
        <time>2021-04-04T08:19:10.000Z</time>
      </trkpt>
      <trkpt lat="47.32577" lon="-2.41433">
        <ele>38.400001525879</ele>
        <time>2021-04-04T08:19:12.000Z</time>
      </trkpt>
      <trkpt lat="47.32582" lon="-2.41405">
        <ele>38.400001525879</ele>
        <time>2021-04-04T08:19:16.000Z</time>
      </trkpt>
      <trkpt lat="47.32597" lon="-2.41385">
        <ele>38.400001525879</ele>
        <time>2021-04-04T08:19:20.000Z</time>
      </trkpt>
      <trkpt lat="47.32606" lon="-2.41377">
        <ele>38.400001525879</ele>
        <time>2021-04-04T08:19:22.000Z</time>
      </trkpt>
      <trkpt lat="47.32611" lon="-2.41374">
        <ele>38.400001525879</ele>
        <time>2021-04-04T08:19:23.000Z</time>
      </trkpt>
      <trkpt lat="47.32617" lon="-2.41371">
        <ele>38</ele>
        <time>2021-04-04T08:19:24.000Z</time>
      </trkpt>
      <trkpt lat="47.32623" lon="-2.41367">
        <ele>37.599998474121</ele>
        <time>2021-04-04T08:19:25.000Z</time>
      </trkpt>
      <trkpt lat="47.32628" lon="-2.41364">
        <ele>37.200000762939</ele>
        <time>2021-04-04T08:19:26.000Z</time>
      </trkpt>
      <trkpt lat="47.32633" lon="-2.4136">
        <ele>36.799999237061</ele>
        <time>2021-04-04T08:19:27.000Z</time>
      </trkpt>
      <trkpt lat="47.32638" lon="-2.41357">
        <ele>36.400001525879</ele>
        <time>2021-04-04T08:19:28.000Z</time>
      </trkpt>
      <trkpt lat="47.32665" lon="-2.41341">
        <ele>36.400001525879</ele>
        <time>2021-04-04T08:19:33.000Z</time>
      </trkpt>
      <trkpt lat="47.32699" lon="-2.41316">
        <ele>36</ele>
        <time>2021-04-04T08:19:39.000Z</time>
      </trkpt>
      <trkpt lat="47.32705" lon="-2.41311">
        <ele>35.400001525879</ele>
        <time>2021-04-04T08:19:40.000Z</time>
      </trkpt>
      <trkpt lat="47.3271" lon="-2.41305">
        <ele>35</ele>
        <time>2021-04-04T08:19:41.000Z</time>
      </trkpt>
      <trkpt lat="47.32715" lon="-2.41299">
        <ele>34.599998474121</ele>
        <time>2021-04-04T08:19:42.000Z</time>
      </trkpt>
      <trkpt lat="47.32719" lon="-2.41294">
        <ele>34</ele>
        <time>2021-04-04T08:19:43.000Z</time>
      </trkpt>
      <trkpt lat="47.32724" lon="-2.4129">
        <ele>34</ele>
        <time>2021-04-04T08:19:44.000Z</time>
      </trkpt>
      <trkpt lat="47.32729" lon="-2.41287">
        <ele>34</ele>
        <time>2021-04-04T08:19:45.000Z</time>
      </trkpt>
      <trkpt lat="47.32747" lon="-2.41285">
        <ele>34</ele>
        <time>2021-04-04T08:19:48.000Z</time>
      </trkpt>
      <trkpt lat="47.32753" lon="-2.41283">
        <ele>34</ele>
        <time>2021-04-04T08:19:49.000Z</time>
      </trkpt>
      <trkpt lat="47.32795" lon="-2.41273">
        <ele>34</ele>
        <time>2021-04-04T08:19:56.000Z</time>
      </trkpt>
      <trkpt lat="47.32832" lon="-2.41269">
        <ele>34</ele>
        <time>2021-04-04T08:20:02.000Z</time>
      </trkpt>
      <trkpt lat="47.32844" lon="-2.41266">
        <ele>34</ele>
        <time>2021-04-04T08:20:04.000Z</time>
      </trkpt>
      <trkpt lat="47.32863" lon="-2.41264">
        <ele>34</ele>
        <time>2021-04-04T08:20:07.000Z</time>
      </trkpt>
      <trkpt lat="47.3292" lon="-2.41259">
        <ele>34</ele>
        <time>2021-04-04T08:20:16.000Z</time>
      </trkpt>
      <trkpt lat="47.32926" lon="-2.41259">
        <ele>34</ele>
        <time>2021-04-04T08:20:17.000Z</time>
      </trkpt>
      <trkpt lat="47.32943" lon="-2.41262">
        <ele>34</ele>
        <time>2021-04-04T08:20:20.000Z</time>
      </trkpt>
      <trkpt lat="47.32954" lon="-2.41259">
        <ele>34</ele>
        <time>2021-04-04T08:20:22.000Z</time>
      </trkpt>
      <trkpt lat="47.32975" lon="-2.41249">
        <ele>33.599998474121</ele>
        <time>2021-04-04T08:20:26.000Z</time>
      </trkpt>
      <trkpt lat="47.3298" lon="-2.41245">
        <ele>33.200000762939</ele>
        <time>2021-04-04T08:20:27.000Z</time>
      </trkpt>
      <trkpt lat="47.32984" lon="-2.4124">
        <ele>32.799999237061</ele>
        <time>2021-04-04T08:20:28.000Z</time>
      </trkpt>
      <trkpt lat="47.32988" lon="-2.41236">
        <ele>32.400001525879</ele>
        <time>2021-04-04T08:20:29.000Z</time>
      </trkpt>
      <trkpt lat="47.32993" lon="-2.41232">
        <ele>32</ele>
        <time>2021-04-04T08:20:30.000Z</time>
      </trkpt>
      <trkpt lat="47.33008" lon="-2.41228">
        <ele>32</ele>
        <time>2021-04-04T08:20:33.000Z</time>
      </trkpt>
      <trkpt lat="47.33013" lon="-2.41224">
        <ele>32</ele>
        <time>2021-04-04T08:20:34.000Z</time>
      </trkpt>
      <trkpt lat="47.33022" lon="-2.41211">
        <ele>32</ele>
        <time>2021-04-04T08:20:36.000Z</time>
      </trkpt>
      <trkpt lat="47.33044" lon="-2.41167">
        <ele>32</ele>
        <time>2021-04-04T08:20:42.000Z</time>
      </trkpt>
      <trkpt lat="47.33051" lon="-2.41154">
        <ele>32</ele>
        <time>2021-04-04T08:20:44.000Z</time>
      </trkpt>
      <trkpt lat="47.33062" lon="-2.41131">
        <ele>32</ele>
        <time>2021-04-04T08:20:47.000Z</time>
      </trkpt>
      <trkpt lat="47.33085" lon="-2.41077">
        <ele>32</ele>
        <time>2021-04-04T08:20:54.000Z</time>
      </trkpt>
      <trkpt lat="47.33092" lon="-2.41052">
        <ele>32</ele>
        <time>2021-04-04T08:20:57.000Z</time>
      </trkpt>
      <trkpt lat="47.33099" lon="-2.41028">
        <ele>32</ele>
        <time>2021-04-04T08:21:00.000Z</time>
      </trkpt>
      <trkpt lat="47.33105" lon="-2.41012">
        <ele>32</ele>
        <time>2021-04-04T08:21:02.000Z</time>
      </trkpt>
      <trkpt lat="47.33116" lon="-2.40979">
        <ele>32</ele>
        <time>2021-04-04T08:21:06.000Z</time>
      </trkpt>
      <trkpt lat="47.33123" lon="-2.40963">
        <ele>31.60000038147</ele>
        <time>2021-04-04T08:21:08.000Z</time>
      </trkpt>
      <trkpt lat="47.33127" lon="-2.40955">
        <ele>31.200000762939</ele>
        <time>2021-04-04T08:21:09.000Z</time>
      </trkpt>
      <trkpt lat="47.3313" lon="-2.40946">
        <ele>30.39999961853</ele>
        <time>2021-04-04T08:21:10.000Z</time>
      </trkpt>
      <trkpt lat="47.33134" lon="-2.40938">
        <ele>30</ele>
        <time>2021-04-04T08:21:11.000Z</time>
      </trkpt>
      <trkpt lat="47.33147" lon="-2.40917">
        <ele>30</ele>
        <time>2021-04-04T08:21:14.000Z</time>
      </trkpt>
      <trkpt lat="47.33181" lon="-2.40861">
        <ele>30</ele>
        <time>2021-04-04T08:21:22.000Z</time>
      </trkpt>
      <trkpt lat="47.3321" lon="-2.40819">
        <ele>29.60000038147</ele>
        <time>2021-04-04T08:21:29.000Z</time>
      </trkpt>
      <trkpt lat="47.33214" lon="-2.40813">
        <ele>29.200000762939</ele>
        <time>2021-04-04T08:21:30.000Z</time>
      </trkpt>
      <trkpt lat="47.33217" lon="-2.40808">
        <ele>28.799999237061</ele>
        <time>2021-04-04T08:21:31.000Z</time>
      </trkpt>
      <trkpt lat="47.3322" lon="-2.40804">
        <ele>28.39999961853</ele>
        <time>2021-04-04T08:21:32.000Z</time>
      </trkpt>
      <trkpt lat="47.33223" lon="-2.408">
        <ele>27.799999237061</ele>
        <time>2021-04-04T08:21:33.000Z</time>
      </trkpt>
      <trkpt lat="47.33225" lon="-2.40795">
        <ele>27</ele>
        <time>2021-04-04T08:21:34.000Z</time>
      </trkpt>
      <trkpt lat="47.33226" lon="-2.40789">
        <ele>26.60000038147</ele>
        <time>2021-04-04T08:21:35.000Z</time>
      </trkpt>
      <trkpt lat="47.33228" lon="-2.40782">
        <ele>26.200000762939</ele>
        <time>2021-04-04T08:21:36.000Z</time>
      </trkpt>
      <trkpt lat="47.33229" lon="-2.40773">
        <ele>25.60000038147</ele>
        <time>2021-04-04T08:21:37.000Z</time>
      </trkpt>
      <trkpt lat="47.33232" lon="-2.40756">
        <ele>25.60000038147</ele>
        <time>2021-04-04T08:21:39.000Z</time>
      </trkpt>
      <trkpt lat="47.33238" lon="-2.40699">
        <ele>25.200000762939</ele>
        <time>2021-04-04T08:21:45.000Z</time>
      </trkpt>
      <trkpt lat="47.33239" lon="-2.4069">
        <ele>24.799999237061</ele>
        <time>2021-04-04T08:21:46.000Z</time>
      </trkpt>
      <trkpt lat="47.33241" lon="-2.40682">
        <ele>24.39999961853</ele>
        <time>2021-04-04T08:21:47.000Z</time>
      </trkpt>
      <trkpt lat="47.33244" lon="-2.40673">
        <ele>24</ele>
        <time>2021-04-04T08:21:48.000Z</time>
      </trkpt>
      <trkpt lat="47.33247" lon="-2.40664">
        <ele>23.60000038147</ele>
        <time>2021-04-04T08:21:49.000Z</time>
      </trkpt>
      <trkpt lat="47.33249" lon="-2.40656">
        <ele>23.60000038147</ele>
        <time>2021-04-04T08:21:50.000Z</time>
      </trkpt>
      <trkpt lat="47.33271" lon="-2.40579">
        <ele>23.60000038147</ele>
        <time>2021-04-04T08:21:58.000Z</time>
      </trkpt>
      <trkpt lat="47.33282" lon="-2.40543">
        <ele>23.200000762939</ele>
        <time>2021-04-04T08:22:02.000Z</time>
      </trkpt>
      <trkpt lat="47.33285" lon="-2.40534">
        <ele>22.60000038147</ele>
        <time>2021-04-04T08:22:03.000Z</time>
      </trkpt>
      <trkpt lat="47.33289" lon="-2.40526">
        <ele>22.200000762939</ele>
        <time>2021-04-04T08:22:04.000Z</time>
      </trkpt>
      <trkpt lat="47.33293" lon="-2.40519">
        <ele>21.60000038147</ele>
        <time>2021-04-04T08:22:05.000Z</time>
      </trkpt>
      <trkpt lat="47.33297" lon="-2.40512">
        <ele>21.200000762939</ele>
        <time>2021-04-04T08:22:06.000Z</time>
      </trkpt>
      <trkpt lat="47.33305" lon="-2.40487">
        <ele>21.200000762939</ele>
        <time>2021-04-04T08:22:09.000Z</time>
      </trkpt>
      <trkpt lat="47.33307" lon="-2.40478">
        <ele>21.200000762939</ele>
        <time>2021-04-04T08:22:10.000Z</time>
      </trkpt>
      <trkpt lat="47.33311" lon="-2.40435">
        <ele>21.200000762939</ele>
        <time>2021-04-04T08:22:15.000Z</time>
      </trkpt>
      <trkpt lat="47.33313" lon="-2.40403">
        <ele>21.200000762939</ele>
        <time>2021-04-04T08:22:19.000Z</time>
      </trkpt>
      <trkpt lat="47.33312" lon="-2.40389">
        <ele>21.200000762939</ele>
        <time>2021-04-04T08:22:21.000Z</time>
      </trkpt>
      <trkpt lat="47.33315" lon="-2.40356">
        <ele>21.200000762939</ele>
        <time>2021-04-04T08:22:26.000Z</time>
      </trkpt>
      <trkpt lat="47.33317" lon="-2.4035">
        <ele>21.60000038147</ele>
        <time>2021-04-04T08:22:27.000Z</time>
      </trkpt>
      <trkpt lat="47.33319" lon="-2.40344">
        <ele>22</ele>
        <time>2021-04-04T08:22:28.000Z</time>
      </trkpt>
      <trkpt lat="47.3332" lon="-2.40338">
        <ele>22.39999961853</ele>
        <time>2021-04-04T08:22:29.000Z</time>
      </trkpt>
      <trkpt lat="47.33322" lon="-2.40332">
        <ele>22.799999237061</ele>
        <time>2021-04-04T08:22:30.000Z</time>
      </trkpt>
      <trkpt lat="47.33324" lon="-2.40325">
        <ele>23.200000762939</ele>
        <time>2021-04-04T08:22:31.000Z</time>
      </trkpt>
      <trkpt lat="47.33328" lon="-2.40312">
        <ele>23.200000762939</ele>
        <time>2021-04-04T08:22:33.000Z</time>
      </trkpt>
      <trkpt lat="47.33329" lon="-2.40305">
        <ele>23.60000038147</ele>
        <time>2021-04-04T08:22:34.000Z</time>
      </trkpt>
      <trkpt lat="47.3333" lon="-2.40297">
        <ele>24</ele>
        <time>2021-04-04T08:22:35.000Z</time>
      </trkpt>
      <trkpt lat="47.33331" lon="-2.40289">
        <ele>24.39999961853</ele>
        <time>2021-04-04T08:22:36.000Z</time>
      </trkpt>
      <trkpt lat="47.33332" lon="-2.40281">
        <ele>24.799999237061</ele>
        <time>2021-04-04T08:22:37.000Z</time>
      </trkpt>
      <trkpt lat="47.33333" lon="-2.40273">
        <ele>25.39999961853</ele>
        <time>2021-04-04T08:22:38.000Z</time>
      </trkpt>
      <trkpt lat="47.33334" lon="-2.40265">
        <ele>25.39999961853</ele>
        <time>2021-04-04T08:22:39.000Z</time>
      </trkpt>
      <trkpt lat="47.33341" lon="-2.4021">
        <ele>25.39999961853</ele>
        <time>2021-04-04T08:22:46.000Z</time>
      </trkpt>
      <trkpt lat="47.33342" lon="-2.40202">
        <ele>25.799999237061</ele>
        <time>2021-04-04T08:22:47.000Z</time>
      </trkpt>
      <trkpt lat="47.33342" lon="-2.40195">
        <ele>26.60000038147</ele>
        <time>2021-04-04T08:22:48.000Z</time>
      </trkpt>
      <trkpt lat="47.33345" lon="-2.40188">
        <ele>27</ele>
        <time>2021-04-04T08:22:49.000Z</time>
      </trkpt>
      <trkpt lat="47.33346" lon="-2.40179">
        <ele>27.39999961853</ele>
        <time>2021-04-04T08:22:50.000Z</time>
      </trkpt>
      <trkpt lat="47.33347" lon="-2.40172">
        <ele>27.39999961853</ele>
        <time>2021-04-04T08:22:51.000Z</time>
      </trkpt>
      <trkpt lat="47.3335" lon="-2.40116">
        <ele>27.39999961853</ele>
        <time>2021-04-04T08:22:58.000Z</time>
      </trkpt>
      <trkpt lat="47.33356" lon="-2.40056">
        <ele>27.39999961853</ele>
        <time>2021-04-04T08:23:05.000Z</time>
      </trkpt>
      <trkpt lat="47.33358" lon="-2.40047">
        <ele>27.39999961853</ele>
        <time>2021-04-04T08:23:06.000Z</time>
      </trkpt>
      <trkpt lat="47.33364" lon="-2.40032">
        <ele>27.39999961853</ele>
        <time>2021-04-04T08:23:08.000Z</time>
      </trkpt>
      <trkpt lat="47.33367" lon="-2.40025">
        <ele>27.39999961853</ele>
        <time>2021-04-04T08:23:09.000Z</time>
      </trkpt>
      <trkpt lat="47.33381" lon="-2.40003">
        <ele>27.39999961853</ele>
        <time>2021-04-04T08:23:12.000Z</time>
      </trkpt>
      <trkpt lat="47.33395" lon="-2.39981">
        <ele>27.39999961853</ele>
        <time>2021-04-04T08:23:15.000Z</time>
      </trkpt>
      <trkpt lat="47.33408" lon="-2.39959">
        <ele>27</ele>
        <time>2021-04-04T08:23:18.000Z</time>
      </trkpt>
      <trkpt lat="47.33414" lon="-2.39952">
        <ele>26.39999961853</ele>
        <time>2021-04-04T08:23:19.000Z</time>
      </trkpt>
      <trkpt lat="47.33418" lon="-2.39945">
        <ele>26</ele>
        <time>2021-04-04T08:23:20.000Z</time>
      </trkpt>
      <trkpt lat="47.33423" lon="-2.39938">
        <ele>25.60000038147</ele>
        <time>2021-04-04T08:23:21.000Z</time>
      </trkpt>
      <trkpt lat="47.33428" lon="-2.3993">
        <ele>25.200000762939</ele>
        <time>2021-04-04T08:23:22.000Z</time>
      </trkpt>
      <trkpt lat="47.33454" lon="-2.39894">
        <ele>25.200000762939</ele>
        <time>2021-04-04T08:23:27.000Z</time>
      </trkpt>
      <trkpt lat="47.33487" lon="-2.3985">
        <ele>24.799999237061</ele>
        <time>2021-04-04T08:23:33.000Z</time>
      </trkpt>
      <trkpt lat="47.33493" lon="-2.39842">
        <ele>24.200000762939</ele>
        <time>2021-04-04T08:23:34.000Z</time>
      </trkpt>
      <trkpt lat="47.33498" lon="-2.39834">
        <ele>23.799999237061</ele>
        <time>2021-04-04T08:23:35.000Z</time>
      </trkpt>
      <trkpt lat="47.33504" lon="-2.39826">
        <ele>23.200000762939</ele>
        <time>2021-04-04T08:23:36.000Z</time>
      </trkpt>
      <trkpt lat="47.33509" lon="-2.39818">
        <ele>22.799999237061</ele>
        <time>2021-04-04T08:23:37.000Z</time>
      </trkpt>
      <trkpt lat="47.33541" lon="-2.39773">
        <ele>22.200000762939</ele>
        <time>2021-04-04T08:23:43.000Z</time>
      </trkpt>
      <trkpt lat="47.33546" lon="-2.39766">
        <ele>21.799999237061</ele>
        <time>2021-04-04T08:23:44.000Z</time>
      </trkpt>
      <trkpt lat="47.33551" lon="-2.3976">
        <ele>21.39999961853</ele>
        <time>2021-04-04T08:23:45.000Z</time>
      </trkpt>
      <trkpt lat="47.33556" lon="-2.39755">
        <ele>20.799999237061</ele>
        <time>2021-04-04T08:23:46.000Z</time>
      </trkpt>
      <trkpt lat="47.33561" lon="-2.3975">
        <ele>20.39999961853</ele>
        <time>2021-04-04T08:23:47.000Z</time>
      </trkpt>
      <trkpt lat="47.33571" lon="-2.39741">
        <ele>20.39999961853</ele>
        <time>2021-04-04T08:23:49.000Z</time>
      </trkpt>
      <trkpt lat="47.33576" lon="-2.39736">
        <ele>20.39999961853</ele>
        <time>2021-04-04T08:23:50.000Z</time>
      </trkpt>
      <trkpt lat="47.33588" lon="-2.39717">
        <ele>20.39999961853</ele>
        <time>2021-04-04T08:23:53.000Z</time>
      </trkpt>
      <trkpt lat="47.33604" lon="-2.39688">
        <ele>20.39999961853</ele>
        <time>2021-04-04T08:23:57.000Z</time>
      </trkpt>
      <trkpt lat="47.33613" lon="-2.39675">
        <ele>20.39999961853</ele>
        <time>2021-04-04T08:23:59.000Z</time>
      </trkpt>
      <trkpt lat="47.33633" lon="-2.39642">
        <ele>20.39999961853</ele>
        <time>2021-04-04T08:24:04.000Z</time>
      </trkpt>
      <trkpt lat="47.3364" lon="-2.39628">
        <ele>20.39999961853</ele>
        <time>2021-04-04T08:24:06.000Z</time>
      </trkpt>
      <trkpt lat="47.33643" lon="-2.39621">
        <ele>20.39999961853</ele>
        <time>2021-04-04T08:24:07.000Z</time>
      </trkpt>
      <trkpt lat="47.33655" lon="-2.39585">
        <ele>20.39999961853</ele>
        <time>2021-04-04T08:24:12.000Z</time>
      </trkpt>
      <trkpt lat="47.33679" lon="-2.39515">
        <ele>20.39999961853</ele>
        <time>2021-04-04T08:24:22.000Z</time>
      </trkpt>
      <trkpt lat="47.33688" lon="-2.39489">
        <ele>20.39999961853</ele>
        <time>2021-04-04T08:24:26.000Z</time>
      </trkpt>
      <trkpt lat="47.33692" lon="-2.39475">
        <ele>20.799999237061</ele>
        <time>2021-04-04T08:24:28.000Z</time>
      </trkpt>
      <trkpt lat="47.33694" lon="-2.39468">
        <ele>21.200000762939</ele>
        <time>2021-04-04T08:24:29.000Z</time>
      </trkpt>
      <trkpt lat="47.33696" lon="-2.39462">
        <ele>21.60000038147</ele>
        <time>2021-04-04T08:24:30.000Z</time>
      </trkpt>
      <trkpt lat="47.33698" lon="-2.39455">
        <ele>22</ele>
        <time>2021-04-04T08:24:31.000Z</time>
      </trkpt>
      <trkpt lat="47.33699" lon="-2.39448">
        <ele>22.39999961853</ele>
        <time>2021-04-04T08:24:32.000Z</time>
      </trkpt>
      <trkpt lat="47.33704" lon="-2.39419">
        <ele>22.39999961853</ele>
        <time>2021-04-04T08:24:36.000Z</time>
      </trkpt>
      <trkpt lat="47.33708" lon="-2.39374">
        <ele>22.39999961853</ele>
        <time>2021-04-04T08:24:42.000Z</time>
      </trkpt>
      <trkpt lat="47.33709" lon="-2.39358">
        <ele>22.39999961853</ele>
        <time>2021-04-04T08:24:44.000Z</time>
      </trkpt>
      <trkpt lat="47.3371" lon="-2.39329">
        <ele>22.39999961853</ele>
        <time>2021-04-04T08:24:48.000Z</time>
      </trkpt>
      <trkpt lat="47.33708" lon="-2.39315">
        <ele>22</ele>
        <time>2021-04-04T08:24:51.000Z</time>
      </trkpt>
      <trkpt lat="47.33708" lon="-2.39313">
        <ele>21</ele>
        <time>2021-04-04T08:24:52.000Z</time>
      </trkpt>
      <trkpt lat="47.33707" lon="-2.3931">
        <ele>20.60000038147</ele>
        <time>2021-04-04T08:24:53.000Z</time>
      </trkpt>
      <trkpt lat="47.33707" lon="-2.39307">
        <ele>20</ele>
        <time>2021-04-04T08:24:54.000Z</time>
      </trkpt>
      <trkpt lat="47.33709" lon="-2.39306">
        <ele>20</ele>
        <time>2021-04-04T08:24:56.000Z</time>
      </trkpt>
      <trkpt lat="47.33712" lon="-2.39306">
        <ele>20</ele>
        <time>2021-04-04T08:24:58.000Z</time>
      </trkpt>
      <trkpt lat="47.33715" lon="-2.39307">
        <ele>19.60000038147</ele>
        <time>2021-04-04T08:25:00.000Z</time>
      </trkpt>
      <trkpt lat="47.33717" lon="-2.39307">
        <ele>19.200000762939</ele>
        <time>2021-04-04T08:25:01.000Z</time>
      </trkpt>
      <trkpt lat="47.33718" lon="-2.39307">
        <ele>18.799999237061</ele>
        <time>2021-04-04T08:25:02.000Z</time>
      </trkpt>
      <trkpt lat="47.3372" lon="-2.39307">
        <ele>18.39999961853</ele>
        <time>2021-04-04T08:25:03.000Z</time>
      </trkpt>
      <trkpt lat="47.33721" lon="-2.39307">
        <ele>18</ele>
        <time>2021-04-04T08:25:04.000Z</time>
      </trkpt>
      <trkpt lat="47.3373" lon="-2.39306">
        <ele>18</ele>
        <time>2021-04-04T08:25:10.000Z</time>
      </trkpt>
      <trkpt lat="47.33737" lon="-2.39305">
        <ele>18</ele>
        <time>2021-04-04T08:25:16.000Z</time>
      </trkpt>
      <trkpt lat="47.33739" lon="-2.39305">
        <ele>18</ele>
        <time>2021-04-04T08:25:24.000Z</time>
      </trkpt>
      <trkpt lat="47.33753" lon="-2.39305">
        <ele>18</ele>
        <time>2021-04-04T08:25:30.000Z</time>
      </trkpt>
      <trkpt lat="47.33773" lon="-2.39303">
        <ele>18</ele>
        <time>2021-04-04T08:25:35.000Z</time>
      </trkpt>
      <trkpt lat="47.338" lon="-2.39295">
        <ele>18</ele>
        <time>2021-04-04T08:25:41.000Z</time>
      </trkpt>
      <trkpt lat="47.3384" lon="-2.3929">
        <ele>18</ele>
        <time>2021-04-04T08:25:49.000Z</time>
      </trkpt>
      <trkpt lat="47.3386" lon="-2.39287">
        <ele>17.60000038147</ele>
        <time>2021-04-04T08:25:53.000Z</time>
      </trkpt>
      <trkpt lat="47.33865" lon="-2.39286">
        <ele>17.200000762939</ele>
        <time>2021-04-04T08:25:54.000Z</time>
      </trkpt>
      <trkpt lat="47.3387" lon="-2.39286">
        <ele>16.799999237061</ele>
        <time>2021-04-04T08:25:55.000Z</time>
      </trkpt>
      <trkpt lat="47.33875" lon="-2.39285">
        <ele>16.39999961853</ele>
        <time>2021-04-04T08:25:56.000Z</time>
      </trkpt>
      <trkpt lat="47.33881" lon="-2.39285">
        <ele>16</ele>
        <time>2021-04-04T08:25:57.000Z</time>
      </trkpt>
      <trkpt lat="47.33898" lon="-2.39281">
        <ele>16</ele>
        <time>2021-04-04T08:26:00.000Z</time>
      </trkpt>
      <trkpt lat="47.33943" lon="-2.39269">
        <ele>16</ele>
        <time>2021-04-04T08:26:07.000Z</time>
      </trkpt>
      <trkpt lat="47.33992" lon="-2.39261">
        <ele>16</ele>
        <time>2021-04-04T08:26:14.000Z</time>
      </trkpt>
      <trkpt lat="47.34028" lon="-2.39255">
        <ele>16</ele>
        <time>2021-04-04T08:26:19.000Z</time>
      </trkpt>
      <trkpt lat="47.3404" lon="-2.39254">
        <ele>15.60000038147</ele>
        <time>2021-04-04T08:26:21.000Z</time>
      </trkpt>
      <trkpt lat="47.34046" lon="-2.39256">
        <ele>15.199999809265</ele>
        <time>2021-04-04T08:26:22.000Z</time>
      </trkpt>
      <trkpt lat="47.34052" lon="-2.39257">
        <ele>14.800000190735</ele>
        <time>2021-04-04T08:26:23.000Z</time>
      </trkpt>
      <trkpt lat="47.34057" lon="-2.39259">
        <ele>14.39999961853</ele>
        <time>2021-04-04T08:26:24.000Z</time>
      </trkpt>
      <trkpt lat="47.34061" lon="-2.39264">
        <ele>14</ele>
        <time>2021-04-04T08:26:25.000Z</time>
      </trkpt>
      <trkpt lat="47.34064" lon="-2.3927">
        <ele>14</ele>
        <time>2021-04-04T08:26:26.000Z</time>
      </trkpt>
      <trkpt lat="47.34068" lon="-2.39295">
        <ele>14</ele>
        <time>2021-04-04T08:26:29.000Z</time>
      </trkpt>
      <trkpt lat="47.34069" lon="-2.39304">
        <ele>14</ele>
        <time>2021-04-04T08:26:30.000Z</time>
      </trkpt>
      <trkpt lat="47.34077" lon="-2.39358">
        <ele>14</ele>
        <time>2021-04-04T08:26:36.000Z</time>
      </trkpt>
      <trkpt lat="47.34078" lon="-2.39366">
        <ele>14</ele>
        <time>2021-04-04T08:26:37.000Z</time>
      </trkpt>
      <trkpt lat="47.34079" lon="-2.39383">
        <ele>14</ele>
        <time>2021-04-04T08:26:39.000Z</time>
      </trkpt>
      <trkpt lat="47.34085" lon="-2.39416">
        <ele>14</ele>
        <time>2021-04-04T08:26:43.000Z</time>
      </trkpt>
      <trkpt lat="47.34087" lon="-2.39424">
        <ele>14</ele>
        <time>2021-04-04T08:26:44.000Z</time>
      </trkpt>
      <trkpt lat="47.34095" lon="-2.39433">
        <ele>14</ele>
        <time>2021-04-04T08:26:46.000Z</time>
      </trkpt>
      <trkpt lat="47.34111" lon="-2.39428">
        <ele>14</ele>
        <time>2021-04-04T08:26:49.000Z</time>
      </trkpt>
      <trkpt lat="47.34122" lon="-2.39422">
        <ele>14</ele>
        <time>2021-04-04T08:26:51.000Z</time>
      </trkpt>
      <trkpt lat="47.34127" lon="-2.39419">
        <ele>14</ele>
        <time>2021-04-04T08:26:52.000Z</time>
      </trkpt>
      <trkpt lat="47.34138" lon="-2.39412">
        <ele>14</ele>
        <time>2021-04-04T08:26:54.000Z</time>
      </trkpt>
      <trkpt lat="47.34175" lon="-2.39386">
        <ele>14</ele>
        <time>2021-04-04T08:27:01.000Z</time>
      </trkpt>
      <trkpt lat="47.34212" lon="-2.39362">
        <ele>14</ele>
        <time>2021-04-04T08:27:08.000Z</time>
      </trkpt>
      <trkpt lat="47.34262" lon="-2.39328">
        <ele>14</ele>
        <time>2021-04-04T08:27:16.000Z</time>
      </trkpt>
      <trkpt lat="47.34293" lon="-2.39312">
        <ele>14</ele>
        <time>2021-04-04T08:27:21.000Z</time>
      </trkpt>
      <trkpt lat="47.34337" lon="-2.39288">
        <ele>14</ele>
        <time>2021-04-04T08:27:28.000Z</time>
      </trkpt>
      <trkpt lat="47.3435" lon="-2.3928">
        <ele>13.39999961853</ele>
        <time>2021-04-04T08:27:30.000Z</time>
      </trkpt>
      <trkpt lat="47.34357" lon="-2.39276">
        <ele>13</ele>
        <time>2021-04-04T08:27:31.000Z</time>
      </trkpt>
      <trkpt lat="47.34364" lon="-2.39273">
        <ele>12.60000038147</ele>
        <time>2021-04-04T08:27:32.000Z</time>
      </trkpt>
      <trkpt lat="47.34371" lon="-2.3927">
        <ele>12.199999809265</ele>
        <time>2021-04-04T08:27:33.000Z</time>
      </trkpt>
      <trkpt lat="47.34379" lon="-2.39267">
        <ele>11.800000190735</ele>
        <time>2021-04-04T08:27:34.000Z</time>
      </trkpt>
      <trkpt lat="47.34394" lon="-2.3926">
        <ele>11.39999961853</ele>
        <time>2021-04-04T08:27:36.000Z</time>
      </trkpt>
      <trkpt lat="47.34401" lon="-2.39257">
        <ele>11</ele>
        <time>2021-04-04T08:27:37.000Z</time>
      </trkpt>
      <trkpt lat="47.34409" lon="-2.39254">
        <ele>10.60000038147</ele>
        <time>2021-04-04T08:27:38.000Z</time>
      </trkpt>
      <trkpt lat="47.34416" lon="-2.39252">
        <ele>10.199999809265</ele>
        <time>2021-04-04T08:27:39.000Z</time>
      </trkpt>
      <trkpt lat="47.34424" lon="-2.3925">
        <ele>9.8000001907349</ele>
        <time>2021-04-04T08:27:40.000Z</time>
      </trkpt>
      <trkpt lat="47.34431" lon="-2.39248">
        <ele>9.3999996185303</ele>
        <time>2021-04-04T08:27:41.000Z</time>
      </trkpt>
      <trkpt lat="47.34439" lon="-2.39246">
        <ele>9</ele>
        <time>2021-04-04T08:27:42.000Z</time>
      </trkpt>
      <trkpt lat="47.34447" lon="-2.39244">
        <ele>8.6000003814697</ele>
        <time>2021-04-04T08:27:43.000Z</time>
      </trkpt>
      <trkpt lat="47.34455" lon="-2.39242">
        <ele>8.1999998092651</ele>
        <time>2021-04-04T08:27:44.000Z</time>
      </trkpt>
      <trkpt lat="47.34463" lon="-2.3924">
        <ele>7.8000001907349</ele>
        <time>2021-04-04T08:27:45.000Z</time>
      </trkpt>
      <trkpt lat="47.34487" lon="-2.39233">
        <ele>7.4000000953674</ele>
        <time>2021-04-04T08:27:48.000Z</time>
      </trkpt>
      <trkpt lat="47.34496" lon="-2.39231">
        <ele>6.8000001907349</ele>
        <time>2021-04-04T08:27:49.000Z</time>
      </trkpt>
      <trkpt lat="47.34505" lon="-2.39229">
        <ele>6.4000000953674</ele>
        <time>2021-04-04T08:27:50.000Z</time>
      </trkpt>
      <trkpt lat="47.34513" lon="-2.39227">
        <ele>6</ele>
        <time>2021-04-04T08:27:51.000Z</time>
      </trkpt>
      <trkpt lat="47.34523" lon="-2.39226">
        <ele>5.5999999046326</ele>
        <time>2021-04-04T08:27:52.000Z</time>
      </trkpt>
      <trkpt lat="47.34542" lon="-2.39226">
        <ele>5.5999999046326</ele>
        <time>2021-04-04T08:27:54.000Z</time>
      </trkpt>
      <trkpt lat="47.34551" lon="-2.39228">
        <ele>5</ele>
        <time>2021-04-04T08:27:55.000Z</time>
      </trkpt>
      <trkpt lat="47.3456" lon="-2.3923">
        <ele>4.5999999046326</ele>
        <time>2021-04-04T08:27:56.000Z</time>
      </trkpt>
      <trkpt lat="47.34569" lon="-2.39234">
        <ele>4.1999998092651</ele>
        <time>2021-04-04T08:27:57.000Z</time>
      </trkpt>
      <trkpt lat="47.34578" lon="-2.39238">
        <ele>3.5999999046326</ele>
        <time>2021-04-04T08:27:58.000Z</time>
      </trkpt>
      <trkpt lat="47.34586" lon="-2.39242">
        <ele>3.2000000476837</ele>
        <time>2021-04-04T08:27:59.000Z</time>
      </trkpt>
      <trkpt lat="47.34615" lon="-2.39262">
        <ele>2.7999999523163</ele>
        <time>2021-04-04T08:28:03.000Z</time>
      </trkpt>
      <trkpt lat="47.34621" lon="-2.39267">
        <ele>2.4000000953674</ele>
        <time>2021-04-04T08:28:04.000Z</time>
      </trkpt>
      <trkpt lat="47.34627" lon="-2.39271">
        <ele>2</ele>
        <time>2021-04-04T08:28:05.000Z</time>
      </trkpt>
      <trkpt lat="47.34632" lon="-2.39276">
        <ele>1.6000000238419</ele>
        <time>2021-04-04T08:28:06.000Z</time>
      </trkpt>
      <trkpt lat="47.34637" lon="-2.3928">
        <ele>1.2000000476837</ele>
        <time>2021-04-04T08:28:07.000Z</time>
      </trkpt>
      <trkpt lat="47.34642" lon="-2.39284">
        <ele>1.2000000476837</ele>
        <time>2021-04-04T08:28:08.000Z</time>
      </trkpt>
      <trkpt lat="47.34659" lon="-2.393">
        <ele>1.2000000476837</ele>
        <time>2021-04-04T08:28:13.000Z</time>
      </trkpt>
      <trkpt lat="47.34662" lon="-2.39301">
        <ele>1.2000000476837</ele>
        <time>2021-04-04T08:28:14.000Z</time>
      </trkpt>
      <trkpt lat="47.34667" lon="-2.39297">
        <ele>1.2000000476837</ele>
        <time>2021-04-04T08:28:16.000Z</time>
      </trkpt>
      <trkpt lat="47.34671" lon="-2.39291">
        <ele>1.2000000476837</ele>
        <time>2021-04-04T08:28:19.000Z</time>
      </trkpt>
      <trkpt lat="47.34673" lon="-2.39287">
        <ele>1.2000000476837</ele>
        <time>2021-04-04T08:28:21.000Z</time>
      </trkpt>
      <trkpt lat="47.34681" lon="-2.39272">
        <ele>1.2000000476837</ele>
        <time>2021-04-04T08:28:28.000Z</time>
      </trkpt>
      <trkpt lat="47.3469" lon="-2.39254">
        <ele>1.2000000476837</ele>
        <time>2021-04-04T08:28:33.000Z</time>
      </trkpt>
      <trkpt lat="47.34693" lon="-2.39249">
        <ele>1.2000000476837</ele>
        <time>2021-04-04T08:28:34.000Z</time>
      </trkpt>
      <trkpt lat="47.34695" lon="-2.39244">
        <ele>0.80000001192093</ele>
        <time>2021-04-04T08:28:35.000Z</time>
      </trkpt>
      <trkpt lat="47.34698" lon="-2.39239">
        <ele>0.40000000596046</ele>
        <time>2021-04-04T08:28:36.000Z</time>
      </trkpt>
      <trkpt lat="47.34701" lon="-2.39233">
        <ele>17.8</ele>
        <time>2021-04-04T08:28:37.000Z</time>
      </trkpt>
      <trkpt lat="47.34704" lon="-2.39226">
        <ele>-0.40000000596046</ele>
        <time>2021-04-04T08:28:38.000Z</time>
      </trkpt>
      <trkpt lat="47.34708" lon="-2.39221">
        <ele>-0.80000001192093</ele>
        <time>2021-04-04T08:28:39.000Z</time>
      </trkpt>
      <trkpt lat="47.34724" lon="-2.392">
        <ele>-0.80000001192093</ele>
        <time>2021-04-04T08:28:43.000Z</time>
      </trkpt>
      <trkpt lat="47.34728" lon="-2.39195">
        <ele>-0.80000001192093</ele>
        <time>2021-04-04T08:28:44.000Z</time>
      </trkpt>
      <trkpt lat="47.34751" lon="-2.39167">
        <ele>-0.80000001192093</ele>
        <time>2021-04-04T08:28:49.000Z</time>
      </trkpt>
      <trkpt lat="47.3478" lon="-2.39128">
        <ele>-0.80000001192093</ele>
        <time>2021-04-04T08:28:55.000Z</time>
      </trkpt>
      <trkpt lat="47.34815" lon="-2.39077">
        <ele>-0.80000001192093</ele>
        <time>2021-04-04T08:29:02.000Z</time>
      </trkpt>
      <trkpt lat="47.34842" lon="-2.39029">
        <ele>-0.80000001192093</ele>
        <time>2021-04-04T08:29:08.000Z</time>
      </trkpt>
      <trkpt lat="47.34873" lon="-2.38974">
        <ele>-0.80000001192093</ele>
        <time>2021-04-04T08:29:15.000Z</time>
      </trkpt>
      <trkpt lat="47.34882" lon="-2.38958">
        <ele>-1.2000000476837</ele>
        <time>2021-04-04T08:29:17.000Z</time>
      </trkpt>
      <trkpt lat="47.34886" lon="-2.38951">
        <ele>-1.6000000238419</ele>
        <time>2021-04-04T08:29:18.000Z</time>
      </trkpt>
      <trkpt lat="47.3489" lon="-2.38944">
        <ele>-2</ele>
        <time>2021-04-04T08:29:19.000Z</time>
      </trkpt>
      <trkpt lat="47.34894" lon="-2.38937">
        <ele>-2.4000000953674</ele>
        <time>2021-04-04T08:29:20.000Z</time>
      </trkpt>
      <trkpt lat="47.34898" lon="-2.3893">
        <ele>-2.7999999523163</ele>
        <time>2021-04-04T08:29:21.000Z</time>
      </trkpt>
      <trkpt lat="47.34903" lon="-2.38924">
        <ele>-2.7999999523163</ele>
        <time>2021-04-04T08:29:22.000Z</time>
      </trkpt>
      <trkpt lat="47.34916" lon="-2.38903">
        <ele>-2.7999999523163</ele>
        <time>2021-04-04T08:29:25.000Z</time>
      </trkpt>
      <trkpt lat="47.34934" lon="-2.38873">
        <ele>-2.7999999523163</ele>
        <time>2021-04-04T08:29:29.000Z</time>
      </trkpt>
      <trkpt lat="47.34959" lon="-2.38833">
        <ele>-2.7999999523163</ele>
        <time>2021-04-04T08:29:35.000Z</time>
      </trkpt>
      <trkpt lat="47.34983" lon="-2.38794">
        <ele>-2.7999999523163</ele>
        <time>2021-04-04T08:29:41.000Z</time>
      </trkpt>
      <trkpt lat="47.34996" lon="-2.38778">
        <ele>-2.7999999523163</ele>
        <time>2021-04-04T08:29:44.000Z</time>
      </trkpt>
      <trkpt lat="47.35006" lon="-2.3877">
        <ele>-3.2000000476837</ele>
        <time>2021-04-04T08:29:46.000Z</time>
      </trkpt>
      <trkpt lat="47.35011" lon="-2.38766">
        <ele>-3.5999999046326</ele>
        <time>2021-04-04T08:29:47.000Z</time>
      </trkpt>
      <trkpt lat="47.35016" lon="-2.38762">
        <ele>-4.1999998092651</ele>
        <time>2021-04-04T08:29:48.000Z</time>
      </trkpt>
      <trkpt lat="47.3502" lon="-2.38757">
        <ele>-4.5999999046326</ele>
        <time>2021-04-04T08:29:49.000Z</time>
      </trkpt>
      <trkpt lat="47.35025" lon="-2.38753">
        <ele>-5</ele>
        <time>2021-04-04T08:29:50.000Z</time>
      </trkpt>
      <trkpt lat="47.35033" lon="-2.38741">
        <ele>-5</ele>
        <time>2021-04-04T08:29:52.000Z</time>
      </trkpt>
      <trkpt lat="47.35041" lon="-2.38725">
        <ele>-5</ele>
        <time>2021-04-04T08:29:54.000Z</time>
      </trkpt>
      <trkpt lat="47.35056" lon="-2.38693">
        <ele>-5</ele>
        <time>2021-04-04T08:29:58.000Z</time>
      </trkpt>
      <trkpt lat="47.35087" lon="-2.38632">
        <ele>-5</ele>
        <time>2021-04-04T08:30:05.000Z</time>
      </trkpt>
      <trkpt lat="47.3512" lon="-2.38564">
        <ele>-5</ele>
        <time>2021-04-04T08:30:13.000Z</time>
      </trkpt>
      <trkpt lat="47.3514" lon="-2.38517">
        <ele>-5</ele>
        <time>2021-04-04T08:30:19.000Z</time>
      </trkpt>
      <trkpt lat="47.35144" lon="-2.3851">
        <ele>-5</ele>
        <time>2021-04-04T08:30:20.000Z</time>
      </trkpt>
      <trkpt lat="47.35156" lon="-2.3849">
        <ele>-5</ele>
        <time>2021-04-04T08:30:23.000Z</time>
      </trkpt>
      <trkpt lat="47.35169" lon="-2.38471">
        <ele>-5</ele>
        <time>2021-04-04T08:30:26.000Z</time>
      </trkpt>
      <trkpt lat="47.35182" lon="-2.38452">
        <ele>-5</ele>
        <time>2021-04-04T08:30:29.000Z</time>
      </trkpt>
      <trkpt lat="47.35191" lon="-2.38439">
        <ele>-4.5999999046326</ele>
        <time>2021-04-04T08:30:31.000Z</time>
      </trkpt>
      <trkpt lat="47.35195" lon="-2.38432">
        <ele>-4.1999998092651</ele>
        <time>2021-04-04T08:30:32.000Z</time>
      </trkpt>
      <trkpt lat="47.352" lon="-2.38426">
        <ele>-3.5999999046326</ele>
        <time>2021-04-04T08:30:33.000Z</time>
      </trkpt>
      <trkpt lat="47.35205" lon="-2.38419">
        <ele>-3.2000000476837</ele>
        <time>2021-04-04T08:30:34.000Z</time>
      </trkpt>
      <trkpt lat="47.35209" lon="-2.38413">
        <ele>-2.7999999523163</ele>
        <time>2021-04-04T08:30:35.000Z</time>
      </trkpt>
      <trkpt lat="47.35223" lon="-2.38393">
        <ele>-2.7999999523163</ele>
        <time>2021-04-04T08:30:38.000Z</time>
      </trkpt>
      <trkpt lat="47.35255" lon="-2.38349">
        <ele>-2.7999999523163</ele>
        <time>2021-04-04T08:30:45.000Z</time>
      </trkpt>
      <trkpt lat="47.35283" lon="-2.38311">
        <ele>-2.7999999523163</ele>
        <time>2021-04-04T08:30:51.000Z</time>
      </trkpt>
      <trkpt lat="47.3531" lon="-2.38274">
        <ele>-2.7999999523163</ele>
        <time>2021-04-04T08:30:57.000Z</time>
      </trkpt>
      <trkpt lat="47.35344" lon="-2.38228">
        <ele>-2.7999999523163</ele>
        <time>2021-04-04T08:31:05.000Z</time>
      </trkpt>
      <trkpt lat="47.35368" lon="-2.38191">
        <ele>-2.7999999523163</ele>
        <time>2021-04-04T08:31:11.000Z</time>
      </trkpt>
      <trkpt lat="47.35397" lon="-2.3815">
        <ele>-2.7999999523163</ele>
        <time>2021-04-04T08:31:18.000Z</time>
      </trkpt>
      <trkpt lat="47.35417" lon="-2.38121">
        <ele>-2.4000000953674</ele>
        <time>2021-04-04T08:31:23.000Z</time>
      </trkpt>
      <trkpt lat="47.35421" lon="-2.38115">
        <ele>-2</ele>
        <time>2021-04-04T08:31:24.000Z</time>
      </trkpt>
      <trkpt lat="47.35425" lon="-2.3811">
        <ele>-1.6000000238419</ele>
        <time>2021-04-04T08:31:25.000Z</time>
      </trkpt>
      <trkpt lat="47.35429" lon="-2.38104">
        <ele>-1.2000000476837</ele>
        <time>2021-04-04T08:31:26.000Z</time>
      </trkpt>
      <trkpt lat="47.35433" lon="-2.38099">
        <ele>-0.80000001192093</ele>
        <time>2021-04-04T08:31:27.000Z</time>
      </trkpt>
      <trkpt lat="47.35446" lon="-2.38078">
        <ele>-0.80000001192093</ele>
        <time>2021-04-04T08:31:32.000Z</time>
      </trkpt>
      <trkpt lat="47.35447" lon="-2.38074">
        <ele>-0.80000001192093</ele>
        <time>2021-04-04T08:31:33.000Z</time>
      </trkpt>
      <trkpt lat="47.35445" lon="-2.38066">
        <ele>-0.80000001192093</ele>
        <time>2021-04-04T08:31:35.000Z</time>
      </trkpt>
      <trkpt lat="47.35439" lon="-2.38047">
        <ele>-0.80000001192093</ele>
        <time>2021-04-04T08:31:39.000Z</time>
      </trkpt>
      <trkpt lat="47.35437" lon="-2.38041">
        <ele>-0.80000001192093</ele>
        <time>2021-04-04T08:31:40.000Z</time>
      </trkpt>
      <trkpt lat="47.35425" lon="-2.38004">
        <ele>-0.20000000298023</ele>
        <time>2021-04-04T08:31:46.000Z</time>
      </trkpt>
      <trkpt lat="47.35423" lon="-2.37997">
        <ele>0.20000000298023</ele>
        <time>2021-04-04T08:31:47.000Z</time>
      </trkpt>
      <trkpt lat="47.35421" lon="-2.3799">
        <ele>0.60000002384186</ele>
        <time>2021-04-04T08:31:48.000Z</time>
      </trkpt>
      <trkpt lat="47.35419" lon="-2.37983">
        <ele>1</ele>
        <time>2021-04-04T08:31:49.000Z</time>
      </trkpt>
      <trkpt lat="47.35417" lon="-2.37976">
        <ele>1.3999999761581</ele>
        <time>2021-04-04T08:31:50.000Z</time>
      </trkpt>
      <trkpt lat="47.35407" lon="-2.37941">
        <ele>1.3999999761581</ele>
        <time>2021-04-04T08:31:55.000Z</time>
      </trkpt>
      <trkpt lat="47.35393" lon="-2.37895">
        <ele>1.3999999761581</ele>
        <time>2021-04-04T08:32:02.000Z</time>
      </trkpt>
      <trkpt lat="47.35383" lon="-2.3786">
        <ele>1</ele>
        <time>2021-04-04T08:32:07.000Z</time>
      </trkpt>
      <trkpt lat="47.35381" lon="-2.37853">
        <ele>0.60000002384186</ele>
        <time>2021-04-04T08:32:08.000Z</time>
      </trkpt>
      <trkpt lat="47.35379" lon="-2.37845">
        <ele>0.20000000298023</ele>
        <time>2021-04-04T08:32:09.000Z</time>
      </trkpt>
      <trkpt lat="47.35377" lon="-2.37838">
        <ele>-0.20000000298023</ele>
        <time>2021-04-04T08:32:10.000Z</time>
      </trkpt>
      <trkpt lat="47.35375" lon="-2.3783">
        <ele>-0.60000002384186</ele>
        <time>2021-04-04T08:32:11.000Z</time>
      </trkpt>
      <trkpt lat="47.35369" lon="-2.37808">
        <ele>-0.60000002384186</ele>
        <time>2021-04-04T08:32:14.000Z</time>
      </trkpt>
      <trkpt lat="47.35356" lon="-2.37755">
        <ele>-0.60000002384186</ele>
        <time>2021-04-04T08:32:21.000Z</time>
      </trkpt>
      <trkpt lat="47.35342" lon="-2.37702">
        <ele>-0.60000002384186</ele>
        <time>2021-04-04T08:32:28.000Z</time>
      </trkpt>
      <trkpt lat="47.35336" lon="-2.3768">
        <ele>-0.60000002384186</ele>
        <time>2021-04-04T08:32:31.000Z</time>
      </trkpt>
      <trkpt lat="47.35333" lon="-2.37666">
        <ele>-0.60000002384186</ele>
        <time>2021-04-04T08:32:33.000Z</time>
      </trkpt>
      <trkpt lat="47.35317" lon="-2.37605">
        <ele>-0.60000002384186</ele>
        <time>2021-04-04T08:32:41.000Z</time>
      </trkpt>
      <trkpt lat="47.35304" lon="-2.37552">
        <ele>-0.60000002384186</ele>
        <time>2021-04-04T08:32:48.000Z</time>
      </trkpt>
      <trkpt lat="47.35289" lon="-2.37472">
        <ele>-0.60000002384186</ele>
        <time>2021-04-04T08:32:59.000Z</time>
      </trkpt>
      <trkpt lat="47.35288" lon="-2.3746">
        <ele>-0.20000000298023</ele>
        <time>2021-04-04T08:33:01.000Z</time>
      </trkpt>
      <trkpt lat="47.35287" lon="-2.37455">
        <ele>0.20000000298023</ele>
        <time>2021-04-04T08:33:02.000Z</time>
      </trkpt>
      <trkpt lat="47.35285" lon="-2.3745">
        <ele>0.60000002384186</ele>
        <time>2021-04-04T08:33:03.000Z</time>
      </trkpt>
      <trkpt lat="47.35283" lon="-2.37444">
        <ele>1</ele>
        <time>2021-04-04T08:33:04.000Z</time>
      </trkpt>
      <trkpt lat="47.35282" lon="-2.37439">
        <ele>1.3999999761581</ele>
        <time>2021-04-04T08:33:05.000Z</time>
      </trkpt>
      <trkpt lat="47.35281" lon="-2.37433">
        <ele>1.3999999761581</ele>
        <time>2021-04-04T08:33:06.000Z</time>
      </trkpt>
      <trkpt lat="47.35282" lon="-2.37414">
        <ele>1.3999999761581</ele>
        <time>2021-04-04T08:33:09.000Z</time>
      </trkpt>
      <trkpt lat="47.35282" lon="-2.37392">
        <ele>1.7999999523163</ele>
        <time>2021-04-04T08:33:12.000Z</time>
      </trkpt>
      <trkpt lat="47.35282" lon="-2.37385">
        <ele>2.2000000476837</ele>
        <time>2021-04-04T08:33:13.000Z</time>
      </trkpt>
      <trkpt lat="47.35281" lon="-2.37377">
        <ele>2.5999999046326</ele>
        <time>2021-04-04T08:33:14.000Z</time>
      </trkpt>
      <trkpt lat="47.35281" lon="-2.3737">
        <ele>3.2000000476837</ele>
        <time>2021-04-04T08:33:15.000Z</time>
      </trkpt>
      <trkpt lat="47.35281" lon="-2.37363">
        <ele>3.5999999046326</ele>
        <time>2021-04-04T08:33:16.000Z</time>
      </trkpt>
      <trkpt lat="47.3528" lon="-2.37326">
        <ele>3.5999999046326</ele>
        <time>2021-04-04T08:33:21.000Z</time>
      </trkpt>
      <trkpt lat="47.3528" lon="-2.37275">
        <ele>3.5999999046326</ele>
        <time>2021-04-04T08:33:28.000Z</time>
      </trkpt>
      <trkpt lat="47.3528" lon="-2.37261">
        <ele>3.5999999046326</ele>
        <time>2021-04-04T08:33:30.000Z</time>
      </trkpt>
      <trkpt lat="47.35279" lon="-2.37221">
        <ele>3.5999999046326</ele>
        <time>2021-04-04T08:33:37.000Z</time>
      </trkpt>
      <trkpt lat="47.35278" lon="-2.37215">
        <ele>3.5999999046326</ele>
        <time>2021-04-04T08:33:40.000Z</time>
      </trkpt>
      <trkpt lat="47.35275" lon="-2.37212">
        <ele>3.5999999046326</ele>
        <time>2021-04-04T08:33:55.000Z</time>
      </trkpt>
      <trkpt lat="47.35263" lon="-2.37199">
        <ele>3.5999999046326</ele>
        <time>2021-04-04T08:34:00.000Z</time>
      </trkpt>
      <trkpt lat="47.35251" lon="-2.37178">
        <ele>3.5999999046326</ele>
        <time>2021-04-04T08:34:06.000Z</time>
      </trkpt>
      <trkpt lat="47.3524" lon="-2.37154">
        <ele>3.5999999046326</ele>
        <time>2021-04-04T08:34:10.000Z</time>
      </trkpt>
      <trkpt lat="47.35238" lon="-2.37147">
        <ele>3.5999999046326</ele>
        <time>2021-04-04T08:34:11.000Z</time>
      </trkpt>
      <trkpt lat="47.35225" lon="-2.3709">
        <ele>3.5999999046326</ele>
        <time>2021-04-04T08:34:18.000Z</time>
      </trkpt>
      <trkpt lat="47.35212" lon="-2.37032">
        <ele>3.5999999046326</ele>
        <time>2021-04-04T08:34:25.000Z</time>
      </trkpt>
      <trkpt lat="47.35201" lon="-2.37001">
        <ele>3.5999999046326</ele>
        <time>2021-04-04T08:34:29.000Z</time>
      </trkpt>
      <trkpt lat="47.35195" lon="-2.36987">
        <ele>3.5999999046326</ele>
        <time>2021-04-04T08:34:31.000Z</time>
      </trkpt>
      <trkpt lat="47.35192" lon="-2.36979">
        <ele>4</ele>
        <time>2021-04-04T08:34:32.000Z</time>
      </trkpt>
      <trkpt lat="47.35189" lon="-2.36971">
        <ele>4.5999999046326</ele>
        <time>2021-04-04T08:34:33.000Z</time>
      </trkpt>
      <trkpt lat="47.35185" lon="-2.36964">
        <ele>5</ele>
        <time>2021-04-04T08:34:34.000Z</time>
      </trkpt>
      <trkpt lat="47.35182" lon="-2.36958">
        <ele>5.4000000953674</ele>
        <time>2021-04-04T08:34:35.000Z</time>
      </trkpt>
      <trkpt lat="47.35178" lon="-2.36951">
        <ele>6</ele>
        <time>2021-04-04T08:34:36.000Z</time>
      </trkpt>
      <trkpt lat="47.35171" lon="-2.36938">
        <ele>6</ele>
        <time>2021-04-04T08:34:38.000Z</time>
      </trkpt>
      <trkpt lat="47.35165" lon="-2.36927">
        <ele>5.5999999046326</ele>
        <time>2021-04-04T08:34:40.000Z</time>
      </trkpt>
      <trkpt lat="47.35162" lon="-2.36921">
        <ele>5.1999998092651</ele>
        <time>2021-04-04T08:34:41.000Z</time>
      </trkpt>
      <trkpt lat="47.3516" lon="-2.36916">
        <ele>4.5999999046326</ele>
        <time>2021-04-04T08:34:42.000Z</time>
      </trkpt>
      <trkpt lat="47.35158" lon="-2.36909">
        <ele>4.1999998092651</ele>
        <time>2021-04-04T08:34:43.000Z</time>
      </trkpt>
      <trkpt lat="47.35156" lon="-2.36903">
        <ele>3.7999999523163</ele>
        <time>2021-04-04T08:34:44.000Z</time>
      </trkpt>
      <trkpt lat="47.35148" lon="-2.36873">
        <ele>3.7999999523163</ele>
        <time>2021-04-04T08:34:48.000Z</time>
      </trkpt>
      <trkpt lat="47.35138" lon="-2.36825">
        <ele>3.7999999523163</ele>
        <time>2021-04-04T08:34:54.000Z</time>
      </trkpt>
      <trkpt lat="47.35125" lon="-2.36772">
        <ele>3.7999999523163</ele>
        <time>2021-04-04T08:35:01.000Z</time>
      </trkpt>
      <trkpt lat="47.35112" lon="-2.36716">
        <ele>3.7999999523163</ele>
        <time>2021-04-04T08:35:08.000Z</time>
      </trkpt>
      <trkpt lat="47.35099" lon="-2.36674">
        <ele>3.7999999523163</ele>
        <time>2021-04-04T08:35:13.000Z</time>
      </trkpt>
      <trkpt lat="47.35093" lon="-2.36658">
        <ele>3.7999999523163</ele>
        <time>2021-04-04T08:35:15.000Z</time>
      </trkpt>
      <trkpt lat="47.35069" lon="-2.36588">
        <ele>3.7999999523163</ele>
        <time>2021-04-04T08:35:24.000Z</time>
      </trkpt>
      <trkpt lat="47.3506" lon="-2.36563">
        <ele>3.4000000953674</ele>
        <time>2021-04-04T08:35:27.000Z</time>
      </trkpt>
      <trkpt lat="47.35056" lon="-2.36555">
        <ele>3</ele>
        <time>2021-04-04T08:35:28.000Z</time>
      </trkpt>
      <trkpt lat="47.35053" lon="-2.36547">
        <ele>2.5999999046326</ele>
        <time>2021-04-04T08:35:29.000Z</time>
      </trkpt>
      <trkpt lat="47.3505" lon="-2.36539">
        <ele>2.2000000476837</ele>
        <time>2021-04-04T08:35:30.000Z</time>
      </trkpt>
      <trkpt lat="47.35046" lon="-2.3653">
        <ele>1.7999999523163</ele>
        <time>2021-04-04T08:35:31.000Z</time>
      </trkpt>
      <trkpt lat="47.35019" lon="-2.36484">
        <ele>1.7999999523163</ele>
        <time>2021-04-04T08:35:37.000Z</time>
      </trkpt>
      <trkpt lat="47.35012" lon="-2.36468">
        <ele>1.3999999761581</ele>
        <time>2021-04-04T08:35:39.000Z</time>
      </trkpt>
      <trkpt lat="47.3501" lon="-2.3646">
        <ele>1</ele>
        <time>2021-04-04T08:35:40.000Z</time>
      </trkpt>
      <trkpt lat="47.35007" lon="-2.36451">
        <ele>0.60000002384186</ele>
        <time>2021-04-04T08:35:41.000Z</time>
      </trkpt>
      <trkpt lat="47.35004" lon="-2.36443">
        <ele>16.7</ele>
        <time>2021-04-04T08:35:42.000Z</time>
      </trkpt>
      <trkpt lat="47.35002" lon="-2.36436">
        <ele>-0.40000000596046</ele>
        <time>2021-04-04T08:35:43.000Z</time>
      </trkpt>
      <trkpt lat="47.34999" lon="-2.36429">
        <ele>-0.40000000596046</ele>
        <time>2021-04-04T08:35:44.000Z</time>
      </trkpt>
      <trkpt lat="47.3499" lon="-2.36418">
        <ele>-0.40000000596046</ele>
        <time>2021-04-04T08:35:46.000Z</time>
      </trkpt>
      <trkpt lat="47.34979" lon="-2.3641">
        <ele>-0.40000000596046</ele>
        <time>2021-04-04T08:35:48.000Z</time>
      </trkpt>
      <trkpt lat="47.34958" lon="-2.36395">
        <ele>-0.40000000596046</ele>
        <time>2021-04-04T08:35:52.000Z</time>
      </trkpt>
      <trkpt lat="47.34939" lon="-2.3638">
        <ele>-0.40000000596046</ele>
        <time>2021-04-04T08:35:56.000Z</time>
      </trkpt>
      <trkpt lat="47.34934" lon="-2.36378">
        <ele>-0.40000000596046</ele>
        <time>2021-04-04T08:35:57.000Z</time>
      </trkpt>
      <trkpt lat="47.34929" lon="-2.36375">
        <ele>21.3</ele>
        <time>2021-04-04T08:35:58.000Z</time>
      </trkpt>
      <trkpt lat="47.34925" lon="-2.36373">
        <ele>0.60000002384186</ele>
        <time>2021-04-04T08:35:59.000Z</time>
      </trkpt>
      <trkpt lat="47.3492" lon="-2.36371">
        <ele>1</ele>
        <time>2021-04-04T08:36:00.000Z</time>
      </trkpt>
      <trkpt lat="47.34915" lon="-2.36368">
        <ele>1.7999999523163</ele>
        <time>2021-04-04T08:36:01.000Z</time>
      </trkpt>
      <trkpt lat="47.34911" lon="-2.36366">
        <ele>1.7999999523163</ele>
        <time>2021-04-04T08:36:02.000Z</time>
      </trkpt>
      <trkpt lat="47.34897" lon="-2.36357">
        <ele>2.2000000476837</ele>
        <time>2021-04-04T08:36:05.000Z</time>
      </trkpt>
      <trkpt lat="47.34893" lon="-2.36354">
        <ele>2.5999999046326</ele>
        <time>2021-04-04T08:36:06.000Z</time>
      </trkpt>
      <trkpt lat="47.34889" lon="-2.36352">
        <ele>3</ele>
        <time>2021-04-04T08:36:07.000Z</time>
      </trkpt>
      <trkpt lat="47.34885" lon="-2.36349">
        <ele>3.5999999046326</ele>
        <time>2021-04-04T08:36:08.000Z</time>
      </trkpt>
      <trkpt lat="47.34881" lon="-2.36347">
        <ele>4</ele>
        <time>2021-04-04T08:36:09.000Z</time>
      </trkpt>
      <trkpt lat="47.34877" lon="-2.36345">
        <ele>4</ele>
        <time>2021-04-04T08:36:10.000Z</time>
      </trkpt>
      <trkpt lat="47.34851" lon="-2.3633">
        <ele>4</ele>
        <time>2021-04-04T08:36:16.000Z</time>
      </trkpt>
      <trkpt lat="47.34833" lon="-2.36318">
        <ele>4</ele>
        <time>2021-04-04T08:36:20.000Z</time>
      </trkpt>
      <trkpt lat="47.34829" lon="-2.36319">
        <ele>4</ele>
        <time>2021-04-04T08:36:21.000Z</time>
      </trkpt>
      <trkpt lat="47.34809" lon="-2.36331">
        <ele>4</ele>
        <time>2021-04-04T08:36:25.000Z</time>
      </trkpt>
      <trkpt lat="47.34804" lon="-2.36334">
        <ele>4</ele>
        <time>2021-04-04T08:36:26.000Z</time>
      </trkpt>
      <trkpt lat="47.34766" lon="-2.36361">
        <ele>4</ele>
        <time>2021-04-04T08:36:34.000Z</time>
      </trkpt>
      <trkpt lat="47.34736" lon="-2.3638">
        <ele>4</ele>
        <time>2021-04-04T08:36:40.000Z</time>
      </trkpt>
      <trkpt lat="47.34705" lon="-2.36395">
        <ele>4</ele>
        <time>2021-04-04T08:36:46.000Z</time>
      </trkpt>
      <trkpt lat="47.34683" lon="-2.36403">
        <ele>4</ele>
        <time>2021-04-04T08:36:50.000Z</time>
      </trkpt>
      <trkpt lat="47.34665" lon="-2.36411">
        <ele>4</ele>
        <time>2021-04-04T08:36:53.000Z</time>
      </trkpt>
      <trkpt lat="47.34659" lon="-2.36414">
        <ele>4</ele>
        <time>2021-04-04T08:36:54.000Z</time>
      </trkpt>
      <trkpt lat="47.34638" lon="-2.36426">
        <ele>4</ele>
        <time>2021-04-04T08:36:57.000Z</time>
      </trkpt>
      <trkpt lat="47.34596" lon="-2.36448">
        <ele>4</ele>
        <time>2021-04-04T08:37:03.000Z</time>
      </trkpt>
      <trkpt lat="47.3459" lon="-2.36455">
        <ele>3.4000000953674</ele>
        <time>2021-04-04T08:37:04.000Z</time>
      </trkpt>
      <trkpt lat="47.34585" lon="-2.36463">
        <ele>3</ele>
        <time>2021-04-04T08:37:05.000Z</time>
      </trkpt>
      <trkpt lat="47.34581" lon="-2.36471">
        <ele>2.4000000953674</ele>
        <time>2021-04-04T08:37:06.000Z</time>
      </trkpt>
      <trkpt lat="47.34578" lon="-2.3648">
        <ele>2</ele>
        <time>2021-04-04T08:37:07.000Z</time>
      </trkpt>
      <trkpt lat="47.34575" lon="-2.36489">
        <ele>1.3999999761581</ele>
        <time>2021-04-04T08:37:08.000Z</time>
      </trkpt>
      <trkpt lat="47.34572" lon="-2.36498">
        <ele>1.3999999761581</ele>
        <time>2021-04-04T08:37:09.000Z</time>
      </trkpt>
      <trkpt lat="47.34556" lon="-2.36541">
        <ele>1.3999999761581</ele>
        <time>2021-04-04T08:37:14.000Z</time>
      </trkpt>
      <trkpt lat="47.3455" lon="-2.36557">
        <ele>1.3999999761581</ele>
        <time>2021-04-04T08:37:16.000Z</time>
      </trkpt>
      <trkpt lat="47.3454" lon="-2.36581">
        <ele>1.3999999761581</ele>
        <time>2021-04-04T08:37:19.000Z</time>
      </trkpt>
      <trkpt lat="47.34521" lon="-2.36632">
        <ele>1.3999999761581</ele>
        <time>2021-04-04T08:37:25.000Z</time>
      </trkpt>
      <trkpt lat="47.34504" lon="-2.36675">
        <ele>1.3999999761581</ele>
        <time>2021-04-04T08:37:30.000Z</time>
      </trkpt>
      <trkpt lat="47.34497" lon="-2.36691">
        <ele>1.7999999523163</ele>
        <time>2021-04-04T08:37:32.000Z</time>
      </trkpt>
      <trkpt lat="47.34494" lon="-2.36698">
        <ele>2.4000000953674</ele>
        <time>2021-04-04T08:37:33.000Z</time>
      </trkpt>
      <trkpt lat="47.3449" lon="-2.36705">
        <ele>2.7999999523163</ele>
        <time>2021-04-04T08:37:34.000Z</time>
      </trkpt>
      <trkpt lat="47.34487" lon="-2.36712">
        <ele>3.2000000476837</ele>
        <time>2021-04-04T08:37:35.000Z</time>
      </trkpt>
      <trkpt lat="47.34483" lon="-2.36719">
        <ele>3.5999999046326</ele>
        <time>2021-04-04T08:37:36.000Z</time>
      </trkpt>
      <trkpt lat="47.34476" lon="-2.36732">
        <ele>3.5999999046326</ele>
        <time>2021-04-04T08:37:38.000Z</time>
      </trkpt>
      <trkpt lat="47.34466" lon="-2.36751">
        <ele>4</ele>
        <time>2021-04-04T08:37:41.000Z</time>
      </trkpt>
      <trkpt lat="47.34462" lon="-2.36757">
        <ele>4.4000000953674</ele>
        <time>2021-04-04T08:37:42.000Z</time>
      </trkpt>
      <trkpt lat="47.34458" lon="-2.36762">
        <ele>4.8000001907349</ele>
        <time>2021-04-04T08:37:43.000Z</time>
      </trkpt>
      <trkpt lat="47.34455" lon="-2.36768">
        <ele>5.1999998092651</ele>
        <time>2021-04-04T08:37:44.000Z</time>
      </trkpt>
      <trkpt lat="47.34451" lon="-2.36774">
        <ele>5.5999999046326</ele>
        <time>2021-04-04T08:37:45.000Z</time>
      </trkpt>
      <trkpt lat="47.3443" lon="-2.36807">
        <ele>5.5999999046326</ele>
        <time>2021-04-04T08:37:51.000Z</time>
      </trkpt>
      <trkpt lat="47.34406" lon="-2.36844">
        <ele>5.5999999046326</ele>
        <time>2021-04-04T08:37:58.000Z</time>
      </trkpt>
      <trkpt lat="47.34392" lon="-2.36866">
        <ele>6.1999998092651</ele>
        <time>2021-04-04T08:38:02.000Z</time>
      </trkpt>
      <trkpt lat="47.34389" lon="-2.36872">
        <ele>6.5999999046326</ele>
        <time>2021-04-04T08:38:03.000Z</time>
      </trkpt>
      <trkpt lat="47.34385" lon="-2.36877">
        <ele>7.4000000953674</ele>
        <time>2021-04-04T08:38:04.000Z</time>
      </trkpt>
      <trkpt lat="47.34382" lon="-2.36883">
        <ele>7.8000001907349</ele>
        <time>2021-04-04T08:38:05.000Z</time>
      </trkpt>
      <trkpt lat="47.34378" lon="-2.36889">
        <ele>7.8000001907349</ele>
        <time>2021-04-04T08:38:06.000Z</time>
      </trkpt>
      <trkpt lat="47.34355" lon="-2.36929">
        <ele>7.8000001907349</ele>
        <time>2021-04-04T08:38:13.000Z</time>
      </trkpt>
      <trkpt lat="47.34323" lon="-2.36974">
        <ele>7.8000001907349</ele>
        <time>2021-04-04T08:38:21.000Z</time>
      </trkpt>
      <trkpt lat="47.34296" lon="-2.37011">
        <ele>7.8000001907349</ele>
        <time>2021-04-04T08:38:28.000Z</time>
      </trkpt>
      <trkpt lat="47.34262" lon="-2.37047">
        <ele>7.8000001907349</ele>
        <time>2021-04-04T08:38:36.000Z</time>
      </trkpt>
      <trkpt lat="47.34244" lon="-2.37064">
        <ele>7.8000001907349</ele>
        <time>2021-04-04T08:38:41.000Z</time>
      </trkpt>
      <trkpt lat="47.34241" lon="-2.37065">
        <ele>7.8000001907349</ele>
        <time>2021-04-04T08:38:42.000Z</time>
      </trkpt>
      <trkpt lat="47.34233" lon="-2.37059">
        <ele>7.8000001907349</ele>
        <time>2021-04-04T08:38:44.000Z</time>
      </trkpt>
      <trkpt lat="47.34221" lon="-2.37037">
        <ele>7.8000001907349</ele>
        <time>2021-04-04T08:38:47.000Z</time>
      </trkpt>
      <trkpt lat="47.34217" lon="-2.3703">
        <ele>7.8000001907349</ele>
        <time>2021-04-04T08:38:48.000Z</time>
      </trkpt>
      <trkpt lat="47.34185" lon="-2.36982">
        <ele>7.8000001907349</ele>
        <time>2021-04-04T08:38:54.000Z</time>
      </trkpt>
      <trkpt lat="47.34153" lon="-2.36936">
        <ele>7.8000001907349</ele>
        <time>2021-04-04T08:39:00.000Z</time>
      </trkpt>
      <trkpt lat="47.34143" lon="-2.3692">
        <ele>7.4000000953674</ele>
        <time>2021-04-04T08:39:02.000Z</time>
      </trkpt>
      <trkpt lat="47.34139" lon="-2.36911">
        <ele>7</ele>
        <time>2021-04-04T08:39:03.000Z</time>
      </trkpt>
      <trkpt lat="47.34135" lon="-2.36901">
        <ele>6.5999999046326</ele>
        <time>2021-04-04T08:39:04.000Z</time>
      </trkpt>
      <trkpt lat="47.34131" lon="-2.36893">
        <ele>6.1999998092651</ele>
        <time>2021-04-04T08:39:05.000Z</time>
      </trkpt>
      <trkpt lat="47.34126" lon="-2.36885">
        <ele>5.8000001907349</ele>
        <time>2021-04-04T08:39:06.000Z</time>
      </trkpt>
      <trkpt lat="47.34111" lon="-2.36853">
        <ele>5.8000001907349</ele>
        <time>2021-04-04T08:39:10.000Z</time>
      </trkpt>
      <trkpt lat="47.34109" lon="-2.36845">
        <ele>5.8000001907349</ele>
        <time>2021-04-04T08:39:11.000Z</time>
      </trkpt>
      <trkpt lat="47.34101" lon="-2.36802">
        <ele>5.8000001907349</ele>
        <time>2021-04-04T08:39:16.000Z</time>
      </trkpt>
      <trkpt lat="47.34092" lon="-2.36753">
        <ele>5.8000001907349</ele>
        <time>2021-04-04T08:39:22.000Z</time>
      </trkpt>
      <trkpt lat="47.3409" lon="-2.36745">
        <ele>5.8000001907349</ele>
        <time>2021-04-04T08:39:23.000Z</time>
      </trkpt>
      <trkpt lat="47.34085" lon="-2.36717">
        <ele>5.8000001907349</ele>
        <time>2021-04-04T08:39:27.000Z</time>
      </trkpt>
      <trkpt lat="47.34083" lon="-2.36711">
        <ele>5.8000001907349</ele>
        <time>2021-04-04T08:39:28.000Z</time>
      </trkpt>
      <trkpt lat="47.34072" lon="-2.36707">
        <ele>5.8000001907349</ele>
        <time>2021-04-04T08:39:31.000Z</time>
      </trkpt>
      <trkpt lat="47.34058" lon="-2.36713">
        <ele>5.8000001907349</ele>
        <time>2021-04-04T08:39:34.000Z</time>
      </trkpt>
      <trkpt lat="47.34053" lon="-2.36715">
        <ele>5.8000001907349</ele>
        <time>2021-04-04T08:39:35.000Z</time>
      </trkpt>
      <trkpt lat="47.34028" lon="-2.3673">
        <ele>5.8000001907349</ele>
        <time>2021-04-04T08:39:40.000Z</time>
      </trkpt>
      <trkpt lat="47.34013" lon="-2.36738">
        <ele>5.8000001907349</ele>
        <time>2021-04-04T08:39:43.000Z</time>
      </trkpt>
      <trkpt lat="47.33997" lon="-2.36743">
        <ele>5.8000001907349</ele>
        <time>2021-04-04T08:39:46.000Z</time>
      </trkpt>
      <trkpt lat="47.3396" lon="-2.36754">
        <ele>5.8000001907349</ele>
        <time>2021-04-04T08:39:53.000Z</time>
      </trkpt>
      <trkpt lat="47.33955" lon="-2.36756">
        <ele>6.1999998092651</ele>
        <time>2021-04-04T08:39:54.000Z</time>
      </trkpt>
      <trkpt lat="47.3395" lon="-2.36757">
        <ele>6.5999999046326</ele>
        <time>2021-04-04T08:39:55.000Z</time>
      </trkpt>
      <trkpt lat="47.33946" lon="-2.36758">
        <ele>7</ele>
        <time>2021-04-04T08:39:56.000Z</time>
      </trkpt>
      <trkpt lat="47.33941" lon="-2.36759">
        <ele>7.4000000953674</ele>
        <time>2021-04-04T08:39:57.000Z</time>
      </trkpt>
      <trkpt lat="47.33937" lon="-2.3676">
        <ele>7.8000001907349</ele>
        <time>2021-04-04T08:39:58.000Z</time>
      </trkpt>
      <trkpt lat="47.33934" lon="-2.36761">
        <ele>7.8000001907349</ele>
        <time>2021-04-04T08:39:59.000Z</time>
      </trkpt>
      <trkpt lat="47.33917" lon="-2.36762">
        <ele>7.8000001907349</ele>
        <time>2021-04-04T08:40:05.000Z</time>
      </trkpt>
      <trkpt lat="47.33905" lon="-2.3676">
        <ele>7.8000001907349</ele>
        <time>2021-04-04T08:40:08.000Z</time>
      </trkpt>
      <trkpt lat="47.33896" lon="-2.36761">
        <ele>7.8000001907349</ele>
        <time>2021-04-04T08:40:10.000Z</time>
      </trkpt>
      <trkpt lat="47.33888" lon="-2.36763">
        <ele>7.8000001907349</ele>
        <time>2021-04-04T08:40:12.000Z</time>
      </trkpt>
      <trkpt lat="47.33872" lon="-2.36769">
        <ele>7.8000001907349</ele>
        <time>2021-04-04T08:40:16.000Z</time>
      </trkpt>
      <trkpt lat="47.33854" lon="-2.36774">
        <ele>7.8000001907349</ele>
        <time>2021-04-04T08:40:20.000Z</time>
      </trkpt>
      <trkpt lat="47.33848" lon="-2.36775">
        <ele>7.8000001907349</ele>
        <time>2021-04-04T08:40:21.000Z</time>
      </trkpt>
      <trkpt lat="47.33837" lon="-2.36777">
        <ele>8.1999998092651</ele>
        <time>2021-04-04T08:40:23.000Z</time>
      </trkpt>
      <trkpt lat="47.33832" lon="-2.36778">
        <ele>8.8000001907349</ele>
        <time>2021-04-04T08:40:24.000Z</time>
      </trkpt>
      <trkpt lat="47.33826" lon="-2.36779">
        <ele>9.1999998092651</ele>
        <time>2021-04-04T08:40:25.000Z</time>
      </trkpt>
      <trkpt lat="47.3382" lon="-2.36781">
        <ele>9.6000003814697</ele>
        <time>2021-04-04T08:40:26.000Z</time>
      </trkpt>
      <trkpt lat="47.33815" lon="-2.36782">
        <ele>10</ele>
        <time>2021-04-04T08:40:27.000Z</time>
      </trkpt>
      <trkpt lat="47.33779" lon="-2.36793">
        <ele>10</ele>
        <time>2021-04-04T08:40:34.000Z</time>
      </trkpt>
      <trkpt lat="47.3375" lon="-2.36805">
        <ele>10</ele>
        <time>2021-04-04T08:40:40.000Z</time>
      </trkpt>
      <trkpt lat="47.33737" lon="-2.3681">
        <ele>10</ele>
        <time>2021-04-04T08:40:43.000Z</time>
      </trkpt>
      <trkpt lat="47.33733" lon="-2.36813">
        <ele>10.39999961853</ele>
        <time>2021-04-04T08:40:44.000Z</time>
      </trkpt>
      <trkpt lat="47.33728" lon="-2.36816">
        <ele>10.800000190735</ele>
        <time>2021-04-04T08:40:45.000Z</time>
      </trkpt>
      <trkpt lat="47.33724" lon="-2.36819">
        <ele>11.199999809265</ele>
        <time>2021-04-04T08:40:46.000Z</time>
      </trkpt>
      <trkpt lat="47.3372" lon="-2.36821">
        <ele>11.60000038147</ele>
        <time>2021-04-04T08:40:47.000Z</time>
      </trkpt>
      <trkpt lat="47.33715" lon="-2.36824">
        <ele>12</ele>
        <time>2021-04-04T08:40:48.000Z</time>
      </trkpt>
      <trkpt lat="47.33705" lon="-2.36831">
        <ele>12</ele>
        <time>2021-04-04T08:40:50.000Z</time>
      </trkpt>
      <trkpt lat="47.33675" lon="-2.36861">
        <ele>12</ele>
        <time>2021-04-04T08:40:56.000Z</time>
      </trkpt>
      <trkpt lat="47.33643" lon="-2.36899">
        <ele>12</ele>
        <time>2021-04-04T08:41:03.000Z</time>
      </trkpt>
      <trkpt lat="47.33612" lon="-2.36942">
        <ele>12</ele>
        <time>2021-04-04T08:41:10.000Z</time>
      </trkpt>
      <trkpt lat="47.33607" lon="-2.36956">
        <ele>12</ele>
        <time>2021-04-04T08:41:12.000Z</time>
      </trkpt>
      <trkpt lat="47.33603" lon="-2.36972">
        <ele>12</ele>
        <time>2021-04-04T08:41:15.000Z</time>
      </trkpt>
      <trkpt lat="47.33602" lon="-2.3698">
        <ele>11.60000038147</ele>
        <time>2021-04-04T08:41:16.000Z</time>
      </trkpt>
      <trkpt lat="47.33601" lon="-2.36988">
        <ele>11.199999809265</ele>
        <time>2021-04-04T08:41:17.000Z</time>
      </trkpt>
      <trkpt lat="47.33601" lon="-2.36996">
        <ele>10.800000190735</ele>
        <time>2021-04-04T08:41:18.000Z</time>
      </trkpt>
      <trkpt lat="47.33602" lon="-2.37004">
        <ele>10.39999961853</ele>
        <time>2021-04-04T08:41:19.000Z</time>
      </trkpt>
      <trkpt lat="47.33602" lon="-2.37012">
        <ele>10</ele>
        <time>2021-04-04T08:41:20.000Z</time>
      </trkpt>
      <trkpt lat="47.33603" lon="-2.37075">
        <ele>10</ele>
        <time>2021-04-04T08:41:28.000Z</time>
      </trkpt>
      <trkpt lat="47.33603" lon="-2.37092">
        <ele>10</ele>
        <time>2021-04-04T08:41:30.000Z</time>
      </trkpt>
      <trkpt lat="47.33603" lon="-2.37116">
        <ele>10</ele>
        <time>2021-04-04T08:41:33.000Z</time>
      </trkpt>
      <trkpt lat="47.336" lon="-2.37169">
        <ele>10</ele>
        <time>2021-04-04T08:41:40.000Z</time>
      </trkpt>
      <trkpt lat="47.33599" lon="-2.37175">
        <ele>10</ele>
        <time>2021-04-04T08:41:41.000Z</time>
      </trkpt>
      <trkpt lat="47.33596" lon="-2.37187">
        <ele>10</ele>
        <time>2021-04-04T08:41:44.000Z</time>
      </trkpt>
      <trkpt lat="47.33594" lon="-2.37189">
        <ele>10</ele>
        <time>2021-04-04T08:41:45.000Z</time>
      </trkpt>
      <trkpt lat="47.33588" lon="-2.37195">
        <ele>10</ele>
        <time>2021-04-04T08:41:48.000Z</time>
      </trkpt>
      <trkpt lat="47.3357" lon="-2.37205">
        <ele>10</ele>
        <time>2021-04-04T08:41:53.000Z</time>
      </trkpt>
      <trkpt lat="47.33562" lon="-2.37214">
        <ele>10</ele>
        <time>2021-04-04T08:41:56.000Z</time>
      </trkpt>
      <trkpt lat="47.33546" lon="-2.3722">
        <ele>10</ele>
        <time>2021-04-04T08:42:01.000Z</time>
      </trkpt>
      <trkpt lat="47.33528" lon="-2.37233">
        <ele>10</ele>
        <time>2021-04-04T08:42:07.000Z</time>
      </trkpt>
      <trkpt lat="47.33517" lon="-2.37233">
        <ele>9.6000003814697</ele>
        <time>2021-04-04T08:42:10.000Z</time>
      </trkpt>
      <trkpt lat="47.33514" lon="-2.37232">
        <ele>9.1999998092651</ele>
        <time>2021-04-04T08:42:11.000Z</time>
      </trkpt>
      <trkpt lat="47.3351" lon="-2.37232">
        <ele>8.8000001907349</ele>
        <time>2021-04-04T08:42:12.000Z</time>
      </trkpt>
      <trkpt lat="47.33506" lon="-2.37232">
        <ele>7.8000001907349</ele>
        <time>2021-04-04T08:42:13.000Z</time>
      </trkpt>
      <trkpt lat="47.33502" lon="-2.3723">
        <ele>7.8000001907349</ele>
        <time>2021-04-04T08:42:14.000Z</time>
      </trkpt>
      <trkpt lat="47.33494" lon="-2.37224">
        <ele>7.8000001907349</ele>
        <time>2021-04-04T08:42:16.000Z</time>
      </trkpt>
      <trkpt lat="47.33487" lon="-2.37203">
        <ele>7.8000001907349</ele>
        <time>2021-04-04T08:42:20.000Z</time>
      </trkpt>
      <trkpt lat="47.33485" lon="-2.37185">
        <ele>7.8000001907349</ele>
        <time>2021-04-04T08:42:23.000Z</time>
      </trkpt>
      <trkpt lat="47.33482" lon="-2.37173">
        <ele>7.8000001907349</ele>
        <time>2021-04-04T08:42:25.000Z</time>
      </trkpt>
      <trkpt lat="47.33479" lon="-2.37145">
        <ele>7.4000000953674</ele>
        <time>2021-04-04T08:42:29.000Z</time>
      </trkpt>
      <trkpt lat="47.33478" lon="-2.37137">
        <ele>7</ele>
        <time>2021-04-04T08:42:30.000Z</time>
      </trkpt>
      <trkpt lat="47.33477" lon="-2.37129">
        <ele>6.5999999046326</ele>
        <time>2021-04-04T08:42:31.000Z</time>
      </trkpt>
      <trkpt lat="47.33476" lon="-2.37121">
        <ele>6.1999998092651</ele>
        <time>2021-04-04T08:42:32.000Z</time>
      </trkpt>
      <trkpt lat="47.33475" lon="-2.37113">
        <ele>5.8000001907349</ele>
        <time>2021-04-04T08:42:33.000Z</time>
      </trkpt>
      <trkpt lat="47.33471" lon="-2.37083">
        <ele>5.8000001907349</ele>
        <time>2021-04-04T08:42:37.000Z</time>
      </trkpt>
      <trkpt lat="47.33471" lon="-2.37074">
        <ele>5.8000001907349</ele>
        <time>2021-04-04T08:42:38.000Z</time>
      </trkpt>
      <trkpt lat="47.33471" lon="-2.37057">
        <ele>5.4000000953674</ele>
        <time>2021-04-04T08:42:40.000Z</time>
      </trkpt>
      <trkpt lat="47.33472" lon="-2.37049">
        <ele>5</ele>
        <time>2021-04-04T08:42:41.000Z</time>
      </trkpt>
      <trkpt lat="47.33472" lon="-2.37041">
        <ele>4.4000000953674</ele>
        <time>2021-04-04T08:42:42.000Z</time>
      </trkpt>
      <trkpt lat="47.33472" lon="-2.37035">
        <ele>4</ele>
        <time>2021-04-04T08:42:43.000Z</time>
      </trkpt>
      <trkpt lat="47.33472" lon="-2.37028">
        <ele>3.5999999046326</ele>
        <time>2021-04-04T08:42:44.000Z</time>
      </trkpt>
      <trkpt lat="47.33474" lon="-2.37006">
        <ele>3.5999999046326</ele>
        <time>2021-04-04T08:42:48.000Z</time>
      </trkpt>
      <trkpt lat="47.33474" lon="-2.37003">
        <ele>3.2000000476837</ele>
        <time>2021-04-04T08:42:49.000Z</time>
      </trkpt>
      <trkpt lat="47.33474" lon="-2.37">
        <ele>2.7999999523163</ele>
        <time>2021-04-04T08:42:50.000Z</time>
      </trkpt>
      <trkpt lat="47.33475" lon="-2.36998">
        <ele>2.2000000476837</ele>
        <time>2021-04-04T08:42:51.000Z</time>
      </trkpt>
      <trkpt lat="47.33476" lon="-2.36996">
        <ele>1.7999999523163</ele>
        <time>2021-04-04T08:42:52.000Z</time>
      </trkpt>
      <trkpt lat="47.33476" lon="-2.36995">
        <ele>1.3999999761581</ele>
        <time>2021-04-04T08:42:53.000Z</time>
      </trkpt>
      <trkpt lat="47.33477" lon="-2.36995">
        <ele>1.3999999761581</ele>
        <time>2021-04-04T08:42:55.000Z</time>
      </trkpt>
      <trkpt lat="47.33473" lon="-2.36993">
        <ele>1.3999999761581</ele>
        <time>2021-04-04T08:43:15.000Z</time>
      </trkpt>
      <trkpt lat="47.3347" lon="-2.36991">
        <ele>1.3999999761581</ele>
        <time>2021-04-04T08:43:17.000Z</time>
      </trkpt>
      <trkpt lat="47.33465" lon="-2.36986">
        <ele>1.3999999761581</ele>
        <time>2021-04-04T08:43:19.000Z</time>
      </trkpt>
      <trkpt lat="47.3346" lon="-2.36978">
        <ele>1.3999999761581</ele>
        <time>2021-04-04T08:43:22.000Z</time>
      </trkpt>
      <trkpt lat="47.33453" lon="-2.36963">
        <ele>1.3999999761581</ele>
        <time>2021-04-04T08:43:27.000Z</time>
      </trkpt>
      <trkpt lat="47.33453" lon="-2.36946">
        <ele>1.3999999761581</ele>
        <time>2021-04-04T08:43:32.000Z</time>
      </trkpt>
      <trkpt lat="47.33452" lon="-2.36923">
        <ele>1.3999999761581</ele>
        <time>2021-04-04T08:43:39.000Z</time>
      </trkpt>
      <trkpt lat="47.33449" lon="-2.369">
        <ele>1.3999999761581</ele>
        <time>2021-04-04T08:43:45.000Z</time>
      </trkpt>
      <trkpt lat="47.33449" lon="-2.36884">
        <ele>1.3999999761581</ele>
        <time>2021-04-04T08:43:49.000Z</time>
      </trkpt>
      <trkpt lat="47.33453" lon="-2.36867">
        <ele>1.3999999761581</ele>
        <time>2021-04-04T08:43:52.000Z</time>
      </trkpt>
      <trkpt lat="47.33464" lon="-2.36846">
        <ele>1.3999999761581</ele>
        <time>2021-04-04T08:43:56.000Z</time>
      </trkpt>
      <trkpt lat="47.33467" lon="-2.36826">
        <ele>1.3999999761581</ele>
        <time>2021-04-04T08:43:59.000Z</time>
      </trkpt>
      <trkpt lat="47.33469" lon="-2.36813">
        <ele>1.3999999761581</ele>
        <time>2021-04-04T08:44:01.000Z</time>
      </trkpt>
      <trkpt lat="47.33469" lon="-2.36806">
        <ele>1</ele>
        <time>2021-04-04T08:44:02.000Z</time>
      </trkpt>
      <trkpt lat="47.3347" lon="-2.368">
        <ele>0.60000002384186</ele>
        <time>2021-04-04T08:44:03.000Z</time>
      </trkpt>
      <trkpt lat="47.3347" lon="-2.36794">
        <ele>0.20000000298023</ele>
        <time>2021-04-04T08:44:04.000Z</time>
      </trkpt>
      <trkpt lat="47.33471" lon="-2.36788">
        <ele>-0.20000000298023</ele>
        <time>2021-04-04T08:44:05.000Z</time>
      </trkpt>
      <trkpt lat="47.33472" lon="-2.36783">
        <ele>-0.80000001192093</ele>
        <time>2021-04-04T08:44:06.000Z</time>
      </trkpt>
      <trkpt lat="47.33474" lon="-2.36778">
        <ele>-0.80000001192093</ele>
        <time>2021-04-04T08:44:07.000Z</time>
      </trkpt>
      <trkpt lat="47.33483" lon="-2.36746">
        <ele>-0.80000001192093</ele>
        <time>2021-04-04T08:44:13.000Z</time>
      </trkpt>
      <trkpt lat="47.33491" lon="-2.36723">
        <ele>-0.80000001192093</ele>
        <time>2021-04-04T08:44:18.000Z</time>
      </trkpt>
      <trkpt lat="47.33503" lon="-2.36702">
        <ele>-0.80000001192093</ele>
        <time>2021-04-04T08:44:24.000Z</time>
      </trkpt>
      <trkpt lat="47.33511" lon="-2.36689">
        <ele>-0.80000001192093</ele>
        <time>2021-04-04T08:44:28.000Z</time>
      </trkpt>
      <trkpt lat="47.33514" lon="-2.36685">
        <ele>-1.2000000476837</ele>
        <time>2021-04-04T08:44:29.000Z</time>
      </trkpt>
      <trkpt lat="47.33517" lon="-2.36681">
        <ele>-1.6000000238419</ele>
        <time>2021-04-04T08:44:30.000Z</time>
      </trkpt>
      <trkpt lat="47.33519" lon="-2.36677">
        <ele>-2</ele>
        <time>2021-04-04T08:44:31.000Z</time>
      </trkpt>
      <trkpt lat="47.3352" lon="-2.36674">
        <ele>-2.4000000953674</ele>
        <time>2021-04-04T08:44:32.000Z</time>
      </trkpt>
      <trkpt lat="47.33521" lon="-2.36672">
        <ele>-2.7999999523163</ele>
        <time>2021-04-04T08:44:33.000Z</time>
      </trkpt>
      <trkpt lat="47.33522" lon="-2.3667">
        <ele>-2.7999999523163</ele>
        <time>2021-04-04T08:44:35.000Z</time>
      </trkpt>
      <trkpt lat="47.33525" lon="-2.36667">
        <ele>-2.7999999523163</ele>
        <time>2021-04-04T08:44:49.000Z</time>
      </trkpt>
      <trkpt lat="47.33526" lon="-2.36664">
        <ele>-2.7999999523163</ele>
        <time>2021-04-04T08:44:50.000Z</time>
      </trkpt>
      <trkpt lat="47.33532" lon="-2.36658">
        <ele>-2.7999999523163</ele>
        <time>2021-04-04T08:44:55.000Z</time>
      </trkpt>
      <trkpt lat="47.33532" lon="-2.36657">
        <ele>-2.7999999523163</ele>
        <time>2021-04-04T08:44:56.000Z</time>
      </trkpt>
      <trkpt lat="47.33534" lon="-2.36655">
        <ele>-2.7999999523163</ele>
        <time>2021-04-04T08:45:08.000Z</time>
      </trkpt>
      <trkpt lat="47.33537" lon="-2.36649">
        <ele>-2.7999999523163</ele>
        <time>2021-04-04T08:45:10.000Z</time>
      </trkpt>
      <trkpt lat="47.3354" lon="-2.36638">
        <ele>-2.7999999523163</ele>
        <time>2021-04-04T08:45:13.000Z</time>
      </trkpt>
      <trkpt lat="47.33538" lon="-2.36635">
        <ele>-2.7999999523163</ele>
        <time>2021-04-04T08:45:14.000Z</time>
      </trkpt>
      <trkpt lat="47.33534" lon="-2.36628">
        <ele>-2.4000000953674</ele>
        <time>2021-04-04T08:45:17.000Z</time>
      </trkpt>
      <trkpt lat="47.33532" lon="-2.36626">
        <ele>-2</ele>
        <time>2021-04-04T08:45:18.000Z</time>
      </trkpt>
      <trkpt lat="47.33531" lon="-2.36625">
        <ele>-1.6000000238419</ele>
        <time>2021-04-04T08:45:19.000Z</time>
      </trkpt>
      <trkpt lat="47.3353" lon="-2.36624">
        <ele>-1.2000000476837</ele>
        <time>2021-04-04T08:45:20.000Z</time>
      </trkpt>
      <trkpt lat="47.33529" lon="-2.36622">
        <ele>-0.60000002384186</ele>
        <time>2021-04-04T08:45:21.000Z</time>
      </trkpt>
      <trkpt lat="47.33527" lon="-2.36619">
        <ele>22.2</ele>
        <time>2021-04-04T08:45:22.000Z</time>
      </trkpt>
      <trkpt lat="47.33525" lon="-2.36617">
        <ele>0.60000002384186</ele>
        <time>2021-04-04T08:45:23.000Z</time>
      </trkpt>
      <trkpt lat="47.33522" lon="-2.36614">
        <ele>1</ele>
        <time>2021-04-04T08:45:24.000Z</time>
      </trkpt>
      <trkpt lat="47.3352" lon="-2.36612">
        <ele>1.6000000238419</ele>
        <time>2021-04-04T08:45:25.000Z</time>
      </trkpt>
      <trkpt lat="47.33509" lon="-2.36606">
        <ele>2</ele>
        <time>2021-04-04T08:45:29.000Z</time>
      </trkpt>
      <trkpt lat="47.33506" lon="-2.36604">
        <ele>3</ele>
        <time>2021-04-04T08:45:30.000Z</time>
      </trkpt>
      <trkpt lat="47.33503" lon="-2.36603">
        <ele>3.4000000953674</ele>
        <time>2021-04-04T08:45:31.000Z</time>
      </trkpt>
      <trkpt lat="47.33501" lon="-2.36601">
        <ele>3.7999999523163</ele>
        <time>2021-04-04T08:45:32.000Z</time>
      </trkpt>
      <trkpt lat="47.33488" lon="-2.36596">
        <ele>3.7999999523163</ele>
        <time>2021-04-04T08:45:37.000Z</time>
      </trkpt>
      <trkpt lat="47.33471" lon="-2.3659">
        <ele>3.7999999523163</ele>
        <time>2021-04-04T08:45:45.000Z</time>
      </trkpt>
      <trkpt lat="47.33472" lon="-2.36577">
        <ele>3.7999999523163</ele>
        <time>2021-04-04T08:45:50.000Z</time>
      </trkpt>
      <trkpt lat="47.33472" lon="-2.36555">
        <ele>3.7999999523163</ele>
        <time>2021-04-04T08:45:57.000Z</time>
      </trkpt>
      <trkpt lat="47.33473" lon="-2.36544">
        <ele>3.7999999523163</ele>
        <time>2021-04-04T08:46:01.000Z</time>
      </trkpt>
      <trkpt lat="47.33473" lon="-2.36539">
        <ele>3.7999999523163</ele>
        <time>2021-04-04T08:46:03.000Z</time>
      </trkpt>
      <trkpt lat="47.33473" lon="-2.36516">
        <ele>3.7999999523163</ele>
        <time>2021-04-04T08:46:09.000Z</time>
      </trkpt>
      <trkpt lat="47.33475" lon="-2.36486">
        <ele>3.7999999523163</ele>
        <time>2021-04-04T08:46:17.000Z</time>
      </trkpt>
      <trkpt lat="47.33475" lon="-2.36482">
        <ele>4.4000000953674</ele>
        <time>2021-04-04T08:46:18.000Z</time>
      </trkpt>
      <trkpt lat="47.33475" lon="-2.36479">
        <ele>5.1999998092651</ele>
        <time>2021-04-04T08:46:19.000Z</time>
      </trkpt>
      <trkpt lat="47.33475" lon="-2.36475">
        <ele>5.5999999046326</ele>
        <time>2021-04-04T08:46:20.000Z</time>
      </trkpt>
      <trkpt lat="47.33475" lon="-2.36472">
        <ele>6</ele>
        <time>2021-04-04T08:46:21.000Z</time>
      </trkpt>
      <trkpt lat="47.33475" lon="-2.36466">
        <ele>6</ele>
        <time>2021-04-04T08:46:23.000Z</time>
      </trkpt>
      <trkpt lat="47.33476" lon="-2.36449">
        <ele>6</ele>
        <time>2021-04-04T08:46:30.000Z</time>
      </trkpt>
      <trkpt lat="47.33477" lon="-2.36439">
        <ele>6</ele>
        <time>2021-04-04T08:46:36.000Z</time>
      </trkpt>
      <trkpt lat="47.33476" lon="-2.36437">
        <ele>6</ele>
        <time>2021-04-04T08:46:37.000Z</time>
      </trkpt>
      <trkpt lat="47.33475" lon="-2.3643">
        <ele>6</ele>
        <time>2021-04-04T08:46:41.000Z</time>
      </trkpt>
      <trkpt lat="47.33475" lon="-2.3643">
        <ele>6</ele>
        <time>2021-04-04T08:46:42.000Z</time>
      </trkpt>
      <trkpt lat="47.33468" lon="-2.36423">
        <ele>6</ele>
        <time>2021-04-04T08:46:55.000Z</time>
      </trkpt>
      <trkpt lat="47.33464" lon="-2.3642">
        <ele>6</ele>
        <time>2021-04-04T08:46:58.000Z</time>
      </trkpt>
      <trkpt lat="47.33454" lon="-2.36411">
        <ele>6</ele>
        <time>2021-04-04T08:47:03.000Z</time>
      </trkpt>
      <trkpt lat="47.33447" lon="-2.36401">
        <ele>6</ele>
        <time>2021-04-04T08:47:10.000Z</time>
      </trkpt>
      <trkpt lat="47.33446" lon="-2.36399">
        <ele>6</ele>
        <time>2021-04-04T08:47:11.000Z</time>
      </trkpt>
      <trkpt lat="47.33444" lon="-2.3639">
        <ele>6.4000000953674</ele>
        <time>2021-04-04T08:47:16.000Z</time>
      </trkpt>
      <trkpt lat="47.33444" lon="-2.36387">
        <ele>6.8000001907349</ele>
        <time>2021-04-04T08:47:17.000Z</time>
      </trkpt>
      <trkpt lat="47.33443" lon="-2.36384">
        <ele>7.1999998092651</ele>
        <time>2021-04-04T08:47:18.000Z</time>
      </trkpt>
      <trkpt lat="47.33442" lon="-2.36381">
        <ele>7.5999999046326</ele>
        <time>2021-04-04T08:47:19.000Z</time>
      </trkpt>
      <trkpt lat="47.33441" lon="-2.36378">
        <ele>8</ele>
        <time>2021-04-04T08:47:20.000Z</time>
      </trkpt>
      <trkpt lat="47.33438" lon="-2.36368">
        <ele>8</ele>
        <time>2021-04-04T08:47:23.000Z</time>
      </trkpt>
      <trkpt lat="47.3343" lon="-2.36347">
        <ele>8</ele>
        <time>2021-04-04T08:47:30.000Z</time>
      </trkpt>
      <trkpt lat="47.33425" lon="-2.36331">
        <ele>8</ele>
        <time>2021-04-04T08:47:36.000Z</time>
      </trkpt>
      <trkpt lat="47.33424" lon="-2.36325">
        <ele>8.3999996185303</ele>
        <time>2021-04-04T08:47:38.000Z</time>
      </trkpt>
      <trkpt lat="47.33424" lon="-2.36322">
        <ele>8.8000001907349</ele>
        <time>2021-04-04T08:47:39.000Z</time>
      </trkpt>
      <trkpt lat="47.33422" lon="-2.36319">
        <ele>9.1999998092651</ele>
        <time>2021-04-04T08:47:40.000Z</time>
      </trkpt>
      <trkpt lat="47.33422" lon="-2.36317">
        <ele>9.6000003814697</ele>
        <time>2021-04-04T08:47:41.000Z</time>
      </trkpt>
      <trkpt lat="47.33421" lon="-2.36313">
        <ele>10.199999809265</ele>
        <time>2021-04-04T08:47:42.000Z</time>
      </trkpt>
      <trkpt lat="47.33417" lon="-2.36297">
        <ele>10.199999809265</ele>
        <time>2021-04-04T08:47:47.000Z</time>
      </trkpt>
      <trkpt lat="47.33414" lon="-2.3628">
        <ele>10.199999809265</ele>
        <time>2021-04-04T08:47:53.000Z</time>
      </trkpt>
      <trkpt lat="47.33413" lon="-2.36273">
        <ele>10.199999809265</ele>
        <time>2021-04-04T08:47:59.000Z</time>
      </trkpt>
      <trkpt lat="47.33412" lon="-2.36267">
        <ele>10.199999809265</ele>
        <time>2021-04-04T08:48:13.000Z</time>
      </trkpt>
      <trkpt lat="47.33411" lon="-2.36247">
        <ele>10.199999809265</ele>
        <time>2021-04-04T08:48:19.000Z</time>
      </trkpt>
      <trkpt lat="47.33414" lon="-2.36214">
        <ele>10.199999809265</ele>
        <time>2021-04-04T08:48:26.000Z</time>
      </trkpt>
      <trkpt lat="47.33415" lon="-2.36204">
        <ele>10.60000038147</ele>
        <time>2021-04-04T08:48:28.000Z</time>
      </trkpt>
      <trkpt lat="47.33415" lon="-2.36199">
        <ele>11</ele>
        <time>2021-04-04T08:48:29.000Z</time>
      </trkpt>
      <trkpt lat="47.33415" lon="-2.36193">
        <ele>11.39999961853</ele>
        <time>2021-04-04T08:48:30.000Z</time>
      </trkpt>
      <trkpt lat="47.33414" lon="-2.36188">
        <ele>11.800000190735</ele>
        <time>2021-04-04T08:48:31.000Z</time>
      </trkpt>
      <trkpt lat="47.33413" lon="-2.36184">
        <ele>12.199999809265</ele>
        <time>2021-04-04T08:48:32.000Z</time>
      </trkpt>
      <trkpt lat="47.33406" lon="-2.36164">
        <ele>12.199999809265</ele>
        <time>2021-04-04T08:48:37.000Z</time>
      </trkpt>
      <trkpt lat="47.33403" lon="-2.36163">
        <ele>12.199999809265</ele>
        <time>2021-04-04T08:48:38.000Z</time>
      </trkpt>
      <trkpt lat="47.33396" lon="-2.36168">
        <ele>12.199999809265</ele>
        <time>2021-04-04T08:48:40.000Z</time>
      </trkpt>
      <trkpt lat="47.33371" lon="-2.36182">
        <ele>12.199999809265</ele>
        <time>2021-04-04T08:48:47.000Z</time>
      </trkpt>
      <trkpt lat="47.3336" lon="-2.3619">
        <ele>12.199999809265</ele>
        <time>2021-04-04T08:48:50.000Z</time>
      </trkpt>
      <trkpt lat="47.33349" lon="-2.36199">
        <ele>12.199999809265</ele>
        <time>2021-04-04T08:48:53.000Z</time>
      </trkpt>
      <trkpt lat="47.33317" lon="-2.36221">
        <ele>12.199999809265</ele>
        <time>2021-04-04T08:49:00.000Z</time>
      </trkpt>
      <trkpt lat="47.33308" lon="-2.36209">
        <ele>12.199999809265</ele>
        <time>2021-04-04T08:49:03.000Z</time>
      </trkpt>
      <trkpt lat="47.33308" lon="-2.36188">
        <ele>12.199999809265</ele>
        <time>2021-04-04T08:49:06.000Z</time>
      </trkpt>
      <trkpt lat="47.33308" lon="-2.36181">
        <ele>12.199999809265</ele>
        <time>2021-04-04T08:49:07.000Z</time>
      </trkpt>
      <trkpt lat="47.33308" lon="-2.36127">
        <ele>12.199999809265</ele>
        <time>2021-04-04T08:49:14.000Z</time>
      </trkpt>
      <trkpt lat="47.33308" lon="-2.3611">
        <ele>12.60000038147</ele>
        <time>2021-04-04T08:49:16.000Z</time>
      </trkpt>
      <trkpt lat="47.33308" lon="-2.36102">
        <ele>13</ele>
        <time>2021-04-04T08:49:17.000Z</time>
      </trkpt>
      <trkpt lat="47.33308" lon="-2.36094">
        <ele>13.39999961853</ele>
        <time>2021-04-04T08:49:18.000Z</time>
      </trkpt>
      <trkpt lat="47.33308" lon="-2.36086">
        <ele>13.800000190735</ele>
        <time>2021-04-04T08:49:19.000Z</time>
      </trkpt>
      <trkpt lat="47.33308" lon="-2.36078">
        <ele>14.199999809265</ele>
        <time>2021-04-04T08:49:20.000Z</time>
      </trkpt>
      <trkpt lat="47.33309" lon="-2.36054">
        <ele>14.199999809265</ele>
        <time>2021-04-04T08:49:23.000Z</time>
      </trkpt>
      <trkpt lat="47.33315" lon="-2.35991">
        <ele>14.199999809265</ele>
        <time>2021-04-04T08:49:31.000Z</time>
      </trkpt>
      <trkpt lat="47.33321" lon="-2.35952">
        <ele>14.199999809265</ele>
        <time>2021-04-04T08:49:36.000Z</time>
      </trkpt>
      <trkpt lat="47.3332" lon="-2.35936">
        <ele>14.199999809265</ele>
        <time>2021-04-04T08:49:38.000Z</time>
      </trkpt>
      <trkpt lat="47.33312" lon="-2.35913">
        <ele>14.199999809265</ele>
        <time>2021-04-04T08:49:41.000Z</time>
      </trkpt>
      <trkpt lat="47.33309" lon="-2.35906">
        <ele>14.199999809265</ele>
        <time>2021-04-04T08:49:42.000Z</time>
      </trkpt>
      <trkpt lat="47.33303" lon="-2.35892">
        <ele>14.199999809265</ele>
        <time>2021-04-04T08:49:44.000Z</time>
      </trkpt>
      <trkpt lat="47.33293" lon="-2.35883">
        <ele>13.800000190735</ele>
        <time>2021-04-04T08:49:46.000Z</time>
      </trkpt>
      <trkpt lat="47.33287" lon="-2.35881">
        <ele>13.39999961853</ele>
        <time>2021-04-04T08:49:47.000Z</time>
      </trkpt>
      <trkpt lat="47.33282" lon="-2.35877">
        <ele>13</ele>
        <time>2021-04-04T08:49:48.000Z</time>
      </trkpt>
      <trkpt lat="47.33276" lon="-2.35872">
        <ele>12.60000038147</ele>
        <time>2021-04-04T08:49:49.000Z</time>
      </trkpt>
      <trkpt lat="47.33271" lon="-2.35867">
        <ele>12.199999809265</ele>
        <time>2021-04-04T08:49:50.000Z</time>
      </trkpt>
      <trkpt lat="47.33243" lon="-2.35837">
        <ele>12.199999809265</ele>
        <time>2021-04-04T08:49:55.000Z</time>
      </trkpt>
      <trkpt lat="47.33236" lon="-2.35833">
        <ele>12.199999809265</ele>
        <time>2021-04-04T08:49:56.000Z</time>
      </trkpt>
      <trkpt lat="47.33212" lon="-2.35822">
        <ele>11.800000190735</ele>
        <time>2021-04-04T08:49:59.000Z</time>
      </trkpt>
      <trkpt lat="47.33204" lon="-2.3582">
        <ele>11.39999961853</ele>
        <time>2021-04-04T08:50:00.000Z</time>
      </trkpt>
      <trkpt lat="47.33196" lon="-2.35818">
        <ele>11</ele>
        <time>2021-04-04T08:50:01.000Z</time>
      </trkpt>
      <trkpt lat="47.33188" lon="-2.35816">
        <ele>10</ele>
        <time>2021-04-04T08:50:02.000Z</time>
      </trkpt>
      <trkpt lat="47.3318" lon="-2.35815">
        <ele>9.6000003814697</ele>
        <time>2021-04-04T08:50:03.000Z</time>
      </trkpt>
      <trkpt lat="47.33172" lon="-2.35814">
        <ele>9.1999998092651</ele>
        <time>2021-04-04T08:50:04.000Z</time>
      </trkpt>
      <trkpt lat="47.33165" lon="-2.35813">
        <ele>8.8000001907349</ele>
        <time>2021-04-04T08:50:05.000Z</time>
      </trkpt>
      <trkpt lat="47.33158" lon="-2.35811">
        <ele>8.3999996185303</ele>
        <time>2021-04-04T08:50:06.000Z</time>
      </trkpt>
      <trkpt lat="47.33152" lon="-2.35809">
        <ele>8</ele>
        <time>2021-04-04T08:50:07.000Z</time>
      </trkpt>
      <trkpt lat="47.33146" lon="-2.35808">
        <ele>8</ele>
        <time>2021-04-04T08:50:08.000Z</time>
      </trkpt>
      <trkpt lat="47.33139" lon="-2.35808">
        <ele>7.5999999046326</ele>
        <time>2021-04-04T08:50:09.000Z</time>
      </trkpt>
      <trkpt lat="47.33132" lon="-2.35808">
        <ele>7.1999998092651</ele>
        <time>2021-04-04T08:50:10.000Z</time>
      </trkpt>
      <trkpt lat="47.33126" lon="-2.35808">
        <ele>6.8000001907349</ele>
        <time>2021-04-04T08:50:11.000Z</time>
      </trkpt>
      <trkpt lat="47.33119" lon="-2.35809">
        <ele>6.4000000953674</ele>
        <time>2021-04-04T08:50:12.000Z</time>
      </trkpt>
      <trkpt lat="47.33112" lon="-2.35809">
        <ele>6</ele>
        <time>2021-04-04T08:50:13.000Z</time>
      </trkpt>
      <trkpt lat="47.33078" lon="-2.3581">
        <ele>6</ele>
        <time>2021-04-04T08:50:18.000Z</time>
      </trkpt>
      <trkpt lat="47.33057" lon="-2.35811">
        <ele>5.5999999046326</ele>
        <time>2021-04-04T08:50:21.000Z</time>
      </trkpt>
      <trkpt lat="47.3305" lon="-2.35811">
        <ele>5.1999998092651</ele>
        <time>2021-04-04T08:50:22.000Z</time>
      </trkpt>
      <trkpt lat="47.33043" lon="-2.35809">
        <ele>4.8000001907349</ele>
        <time>2021-04-04T08:50:23.000Z</time>
      </trkpt>
      <trkpt lat="47.33036" lon="-2.35807">
        <ele>4.4000000953674</ele>
        <time>2021-04-04T08:50:24.000Z</time>
      </trkpt>
      <trkpt lat="47.3303" lon="-2.35803">
        <ele>4</ele>
        <time>2021-04-04T08:50:25.000Z</time>
      </trkpt>
      <trkpt lat="47.33018" lon="-2.35789">
        <ele>4</ele>
        <time>2021-04-04T08:50:27.000Z</time>
      </trkpt>
      <trkpt lat="47.33007" lon="-2.35762">
        <ele>4</ele>
        <time>2021-04-04T08:50:30.000Z</time>
      </trkpt>
      <trkpt lat="47.33007" lon="-2.35729">
        <ele>4</ele>
        <time>2021-04-04T08:50:33.000Z</time>
      </trkpt>
      <trkpt lat="47.33007" lon="-2.35719">
        <ele>3.4000000953674</ele>
        <time>2021-04-04T08:50:34.000Z</time>
      </trkpt>
      <trkpt lat="47.33008" lon="-2.35709">
        <ele>3</ele>
        <time>2021-04-04T08:50:35.000Z</time>
      </trkpt>
      <trkpt lat="47.33009" lon="-2.357">
        <ele>2.5999999046326</ele>
        <time>2021-04-04T08:50:36.000Z</time>
      </trkpt>
      <trkpt lat="47.3301" lon="-2.3569">
        <ele>2.2000000476837</ele>
        <time>2021-04-04T08:50:37.000Z</time>
      </trkpt>
      <trkpt lat="47.33012" lon="-2.35682">
        <ele>1.7999999523163</ele>
        <time>2021-04-04T08:50:38.000Z</time>
      </trkpt>
      <trkpt lat="47.33014" lon="-2.35674">
        <ele>1.7999999523163</ele>
        <time>2021-04-04T08:50:39.000Z</time>
      </trkpt>
      <trkpt lat="47.33017" lon="-2.35666">
        <ele>1.7999999523163</ele>
        <time>2021-04-04T08:50:40.000Z</time>
      </trkpt>
      <trkpt lat="47.33027" lon="-2.35658">
        <ele>1.7999999523163</ele>
        <time>2021-04-04T08:50:42.000Z</time>
      </trkpt>
      <trkpt lat="47.33038" lon="-2.35654">
        <ele>1.7999999523163</ele>
        <time>2021-04-04T08:50:44.000Z</time>
      </trkpt>
      <trkpt lat="47.33055" lon="-2.35651">
        <ele>1.7999999523163</ele>
        <time>2021-04-04T08:50:47.000Z</time>
      </trkpt>
      <trkpt lat="47.33078" lon="-2.3565">
        <ele>2.2000000476837</ele>
        <time>2021-04-04T08:50:51.000Z</time>
      </trkpt>
      <trkpt lat="47.33084" lon="-2.35648">
        <ele>3</ele>
        <time>2021-04-04T08:50:52.000Z</time>
      </trkpt>
      <trkpt lat="47.3309" lon="-2.35648">
        <ele>3.4000000953674</ele>
        <time>2021-04-04T08:50:53.000Z</time>
      </trkpt>
      <trkpt lat="47.33096" lon="-2.35647">
        <ele>3.7999999523163</ele>
        <time>2021-04-04T08:50:54.000Z</time>
      </trkpt>
      <trkpt lat="47.33142" lon="-2.35639">
        <ele>4.1999998092651</ele>
        <time>2021-04-04T08:51:02.000Z</time>
      </trkpt>
      <trkpt lat="47.33147" lon="-2.35638">
        <ele>4.5999999046326</ele>
        <time>2021-04-04T08:51:03.000Z</time>
      </trkpt>
      <trkpt lat="47.33153" lon="-2.35637">
        <ele>5.1999998092651</ele>
        <time>2021-04-04T08:51:04.000Z</time>
      </trkpt>
      <trkpt lat="47.33158" lon="-2.35636">
        <ele>5.5999999046326</ele>
        <time>2021-04-04T08:51:05.000Z</time>
      </trkpt>
      <trkpt lat="47.33163" lon="-2.35634">
        <ele>6</ele>
        <time>2021-04-04T08:51:06.000Z</time>
      </trkpt>
      <trkpt lat="47.33178" lon="-2.3563">
        <ele>6.4000000953674</ele>
        <time>2021-04-04T08:51:09.000Z</time>
      </trkpt>
      <trkpt lat="47.33183" lon="-2.35628">
        <ele>6.8000001907349</ele>
        <time>2021-04-04T08:51:10.000Z</time>
      </trkpt>
      <trkpt lat="47.33188" lon="-2.35626">
        <ele>7.1999998092651</ele>
        <time>2021-04-04T08:51:11.000Z</time>
      </trkpt>
      <trkpt lat="47.33193" lon="-2.35622">
        <ele>7.8000001907349</ele>
        <time>2021-04-04T08:51:12.000Z</time>
      </trkpt>
      <trkpt lat="47.33199" lon="-2.35619">
        <ele>8.1999998092651</ele>
        <time>2021-04-04T08:51:13.000Z</time>
      </trkpt>
      <trkpt lat="47.33209" lon="-2.35612">
        <ele>8.1999998092651</ele>
        <time>2021-04-04T08:51:15.000Z</time>
      </trkpt>
      <trkpt lat="47.33238" lon="-2.35589">
        <ele>8.6000003814697</ele>
        <time>2021-04-04T08:51:21.000Z</time>
      </trkpt>
      <trkpt lat="47.33242" lon="-2.35586">
        <ele>9</ele>
        <time>2021-04-04T08:51:22.000Z</time>
      </trkpt>
      <trkpt lat="47.33247" lon="-2.35582">
        <ele>9.3999996185303</ele>
        <time>2021-04-04T08:51:23.000Z</time>
      </trkpt>
      <trkpt lat="47.33252" lon="-2.35578">
        <ele>10</ele>
        <time>2021-04-04T08:51:24.000Z</time>
      </trkpt>
      <trkpt lat="47.33256" lon="-2.35574">
        <ele>10.39999961853</ele>
        <time>2021-04-04T08:51:25.000Z</time>
      </trkpt>
      <trkpt lat="47.33285" lon="-2.35544">
        <ele>10.39999961853</ele>
        <time>2021-04-04T08:51:32.000Z</time>
      </trkpt>
      <trkpt lat="47.33311" lon="-2.35517">
        <ele>10.39999961853</ele>
        <time>2021-04-04T08:51:38.000Z</time>
      </trkpt>
      <trkpt lat="47.33339" lon="-2.35503">
        <ele>10.39999961853</ele>
        <time>2021-04-04T08:51:43.000Z</time>
      </trkpt>
      <trkpt lat="47.33374" lon="-2.35482">
        <ele>10.39999961853</ele>
        <time>2021-04-04T08:51:50.000Z</time>
      </trkpt>
      <trkpt lat="47.33405" lon="-2.35466">
        <ele>10.39999961853</ele>
        <time>2021-04-04T08:51:56.000Z</time>
      </trkpt>
      <trkpt lat="47.33422" lon="-2.35456">
        <ele>10</ele>
        <time>2021-04-04T08:51:59.000Z</time>
      </trkpt>
      <trkpt lat="47.33429" lon="-2.35453">
        <ele>9.6000003814697</ele>
        <time>2021-04-04T08:52:00.000Z</time>
      </trkpt>
      <trkpt lat="47.33436" lon="-2.35449">
        <ele>9.1999998092651</ele>
        <time>2021-04-04T08:52:01.000Z</time>
      </trkpt>
      <trkpt lat="47.33442" lon="-2.35446">
        <ele>8.6000003814697</ele>
        <time>2021-04-04T08:52:02.000Z</time>
      </trkpt>
      <trkpt lat="47.33448" lon="-2.35442">
        <ele>8.1999998092651</ele>
        <time>2021-04-04T08:52:03.000Z</time>
      </trkpt>
      <trkpt lat="47.33476" lon="-2.35427">
        <ele>8.1999998092651</ele>
        <time>2021-04-04T08:52:08.000Z</time>
      </trkpt>
      <trkpt lat="47.33492" lon="-2.35424">
        <ele>7.8000001907349</ele>
        <time>2021-04-04T08:52:11.000Z</time>
      </trkpt>
      <trkpt lat="47.33497" lon="-2.35422">
        <ele>7.4000000953674</ele>
        <time>2021-04-04T08:52:12.000Z</time>
      </trkpt>
      <trkpt lat="47.33502" lon="-2.35419">
        <ele>6.8000001907349</ele>
        <time>2021-04-04T08:52:13.000Z</time>
      </trkpt>
      <trkpt lat="47.33508" lon="-2.35417">
        <ele>6.4000000953674</ele>
        <time>2021-04-04T08:52:14.000Z</time>
      </trkpt>
      <trkpt lat="47.33513" lon="-2.35414">
        <ele>6</ele>
        <time>2021-04-04T08:52:15.000Z</time>
      </trkpt>
      <trkpt lat="47.33522" lon="-2.35409">
        <ele>6</ele>
        <time>2021-04-04T08:52:17.000Z</time>
      </trkpt>
      <trkpt lat="47.33547" lon="-2.35398">
        <ele>6</ele>
        <time>2021-04-04T08:52:23.000Z</time>
      </trkpt>
      <trkpt lat="47.33555" lon="-2.35394">
        <ele>6</ele>
        <time>2021-04-04T08:52:28.000Z</time>
      </trkpt>
      <trkpt lat="47.33572" lon="-2.35385">
        <ele>6</ele>
        <time>2021-04-04T08:52:33.000Z</time>
      </trkpt>
      <trkpt lat="47.33597" lon="-2.35374">
        <ele>6</ele>
        <time>2021-04-04T08:52:38.000Z</time>
      </trkpt>
      <trkpt lat="47.33648" lon="-2.35368">
        <ele>6</ele>
        <time>2021-04-04T08:52:46.000Z</time>
      </trkpt>
      <trkpt lat="47.33704" lon="-2.35364">
        <ele>6</ele>
        <time>2021-04-04T08:52:55.000Z</time>
      </trkpt>
      <trkpt lat="47.33735" lon="-2.35361">
        <ele>6.4000000953674</ele>
        <time>2021-04-04T08:53:00.000Z</time>
      </trkpt>
      <trkpt lat="47.33741" lon="-2.3536">
        <ele>6.8000001907349</ele>
        <time>2021-04-04T08:53:01.000Z</time>
      </trkpt>
      <trkpt lat="47.33747" lon="-2.3536">
        <ele>7.1999998092651</ele>
        <time>2021-04-04T08:53:02.000Z</time>
      </trkpt>
      <trkpt lat="47.33753" lon="-2.3536">
        <ele>7.5999999046326</ele>
        <time>2021-04-04T08:53:03.000Z</time>
      </trkpt>
      <trkpt lat="47.33759" lon="-2.35358">
        <ele>8</ele>
        <time>2021-04-04T08:53:04.000Z</time>
      </trkpt>
      <trkpt lat="47.33777" lon="-2.35355">
        <ele>8</ele>
        <time>2021-04-04T08:53:07.000Z</time>
      </trkpt>
      <trkpt lat="47.33824" lon="-2.35347">
        <ele>8</ele>
        <time>2021-04-04T08:53:14.000Z</time>
      </trkpt>
      <trkpt lat="47.3383" lon="-2.35344">
        <ele>8</ele>
        <time>2021-04-04T08:53:15.000Z</time>
      </trkpt>
      <trkpt lat="47.33856" lon="-2.35322">
        <ele>8</ele>
        <time>2021-04-04T08:53:20.000Z</time>
      </trkpt>
      <trkpt lat="47.33893" lon="-2.35302">
        <ele>7.5999999046326</ele>
        <time>2021-04-04T08:53:27.000Z</time>
      </trkpt>
      <trkpt lat="47.33899" lon="-2.353">
        <ele>7.1999998092651</ele>
        <time>2021-04-04T08:53:28.000Z</time>
      </trkpt>
      <trkpt lat="47.33905" lon="-2.35298">
        <ele>6.8000001907349</ele>
        <time>2021-04-04T08:53:29.000Z</time>
      </trkpt>
      <trkpt lat="47.3391" lon="-2.35295">
        <ele>6.4000000953674</ele>
        <time>2021-04-04T08:53:30.000Z</time>
      </trkpt>
      <trkpt lat="47.33916" lon="-2.35294">
        <ele>6</ele>
        <time>2021-04-04T08:53:31.000Z</time>
      </trkpt>
      <trkpt lat="47.33925" lon="-2.35287">
        <ele>6</ele>
        <time>2021-04-04T08:53:33.000Z</time>
      </trkpt>
      <trkpt lat="47.33934" lon="-2.35283">
        <ele>6</ele>
        <time>2021-04-04T08:53:35.000Z</time>
      </trkpt>
      <trkpt lat="47.3395" lon="-2.35272">
        <ele>6</ele>
        <time>2021-04-04T08:53:39.000Z</time>
      </trkpt>
      <trkpt lat="47.33968" lon="-2.35273">
        <ele>6</ele>
        <time>2021-04-04T08:53:44.000Z</time>
      </trkpt>
      <trkpt lat="47.33977" lon="-2.3528">
        <ele>6</ele>
        <time>2021-04-04T08:53:46.000Z</time>
      </trkpt>
      <trkpt lat="47.33986" lon="-2.35292">
        <ele>6</ele>
        <time>2021-04-04T08:53:48.000Z</time>
      </trkpt>
      <trkpt lat="47.34015" lon="-2.35322">
        <ele>5.5999999046326</ele>
        <time>2021-04-04T08:53:54.000Z</time>
      </trkpt>
      <trkpt lat="47.3402" lon="-2.35326">
        <ele>5</ele>
        <time>2021-04-04T08:53:55.000Z</time>
      </trkpt>
      <trkpt lat="47.34024" lon="-2.35331">
        <ele>4.5999999046326</ele>
        <time>2021-04-04T08:53:56.000Z</time>
      </trkpt>
      <trkpt lat="47.34029" lon="-2.35334">
        <ele>4.1999998092651</ele>
        <time>2021-04-04T08:53:57.000Z</time>
      </trkpt>
      <trkpt lat="47.34033" lon="-2.35337">
        <ele>3.7999999523163</ele>
        <time>2021-04-04T08:53:58.000Z</time>
      </trkpt>
      <trkpt lat="47.34039" lon="-2.35343">
        <ele>3.7999999523163</ele>
        <time>2021-04-04T08:54:00.000Z</time>
      </trkpt>
      <trkpt lat="47.34055" lon="-2.35361">
        <ele>3.7999999523163</ele>
        <time>2021-04-04T08:54:06.000Z</time>
      </trkpt>
      <trkpt lat="47.34065" lon="-2.35381">
        <ele>3.7999999523163</ele>
        <time>2021-04-04T08:54:10.000Z</time>
      </trkpt>
      <trkpt lat="47.34067" lon="-2.35387">
        <ele>3.4000000953674</ele>
        <time>2021-04-04T08:54:11.000Z</time>
      </trkpt>
      <trkpt lat="47.34069" lon="-2.35394">
        <ele>3</ele>
        <time>2021-04-04T08:54:12.000Z</time>
      </trkpt>
      <trkpt lat="47.34072" lon="-2.35399">
        <ele>2.5999999046326</ele>
        <time>2021-04-04T08:54:13.000Z</time>
      </trkpt>
      <trkpt lat="47.34075" lon="-2.35406">
        <ele>2.2000000476837</ele>
        <time>2021-04-04T08:54:14.000Z</time>
      </trkpt>
      <trkpt lat="47.34077" lon="-2.35413">
        <ele>1.7999999523163</ele>
        <time>2021-04-04T08:54:15.000Z</time>
      </trkpt>
      <trkpt lat="47.3408" lon="-2.3542">
        <ele>1.7999999523163</ele>
        <time>2021-04-04T08:54:16.000Z</time>
      </trkpt>
      <trkpt lat="47.34102" lon="-2.35477">
        <ele>1.7999999523163</ele>
        <time>2021-04-04T08:54:24.000Z</time>
      </trkpt>
      <trkpt lat="47.34122" lon="-2.35536">
        <ele>1.7999999523163</ele>
        <time>2021-04-04T08:54:32.000Z</time>
      </trkpt>
      <trkpt lat="47.34144" lon="-2.35601">
        <ele>1.7999999523163</ele>
        <time>2021-04-04T08:54:41.000Z</time>
      </trkpt>
      <trkpt lat="47.34164" lon="-2.35636">
        <ele>1.7999999523163</ele>
        <time>2021-04-04T08:54:47.000Z</time>
      </trkpt>
      <trkpt lat="47.34173" lon="-2.35653">
        <ele>1.7999999523163</ele>
        <time>2021-04-04T08:54:50.000Z</time>
      </trkpt>
      <trkpt lat="47.3418" lon="-2.35665">
        <ele>1.7999999523163</ele>
        <time>2021-04-04T08:54:52.000Z</time>
      </trkpt>
      <trkpt lat="47.34186" lon="-2.35678">
        <ele>1.7999999523163</ele>
        <time>2021-04-04T08:54:54.000Z</time>
      </trkpt>
      <trkpt lat="47.34196" lon="-2.35696">
        <ele>1.3999999761581</ele>
        <time>2021-04-04T08:54:57.000Z</time>
      </trkpt>
      <trkpt lat="47.342" lon="-2.357">
        <ele>0.80000001192093</ele>
        <time>2021-04-04T08:54:58.000Z</time>
      </trkpt>
      <trkpt lat="47.34204" lon="-2.35701">
        <ele>-0.20000000298023</ele>
        <time>2021-04-04T08:54:59.000Z</time>
      </trkpt>
      <trkpt lat="47.34206" lon="-2.35706">
        <ele>-0.80000001192093</ele>
        <time>2021-04-04T08:55:00.000Z</time>
      </trkpt>
      <trkpt lat="47.34208" lon="-2.35709">
        <ele>-1.2000000476837</ele>
        <time>2021-04-04T08:55:01.000Z</time>
      </trkpt>
      <trkpt lat="47.34209" lon="-2.35712">
        <ele>-1.7999999523163</ele>
        <time>2021-04-04T08:55:02.000Z</time>
      </trkpt>
      <trkpt lat="47.34209" lon="-2.35716">
        <ele>-2.4000000953674</ele>
        <time>2021-04-04T08:55:03.000Z</time>
      </trkpt>
      <trkpt lat="47.3421" lon="-2.3572">
        <ele>-3</ele>
        <time>2021-04-04T08:55:04.000Z</time>
      </trkpt>
      <trkpt lat="47.34211" lon="-2.35724">
        <ele>-3.4000000953674</ele>
        <time>2021-04-04T08:55:05.000Z</time>
      </trkpt>
      <trkpt lat="47.34213" lon="-2.35727">
        <ele>-3.7999999523163</ele>
        <time>2021-04-04T08:55:06.000Z</time>
      </trkpt>
      <trkpt lat="47.34216" lon="-2.35731">
        <ele>-4.4000000953674</ele>
        <time>2021-04-04T08:55:07.000Z</time>
      </trkpt>
      <trkpt lat="47.34219" lon="-2.35733">
        <ele>-4.8000001907349</ele>
        <time>2021-04-04T08:55:08.000Z</time>
      </trkpt>
      <trkpt lat="47.34222" lon="-2.35736">
        <ele>-5.4000000953674</ele>
        <time>2021-04-04T08:55:09.000Z</time>
      </trkpt>
      <trkpt lat="47.34224" lon="-2.35742">
        <ele>-5.8000001907349</ele>
        <time>2021-04-04T08:55:10.000Z</time>
      </trkpt>
      <trkpt lat="47.34226" lon="-2.35749">
        <ele>-6.1999998092651</ele>
        <time>2021-04-04T08:55:11.000Z</time>
      </trkpt>
      <trkpt lat="47.34227" lon="-2.35756">
        <ele>-6.5999999046326</ele>
        <time>2021-04-04T08:55:12.000Z</time>
      </trkpt>
      <trkpt lat="47.34229" lon="-2.35764">
        <ele>-7.1999998092651</ele>
        <time>2021-04-04T08:55:13.000Z</time>
      </trkpt>
      <trkpt lat="47.3423" lon="-2.35772">
        <ele>-7.5999999046326</ele>
        <time>2021-04-04T08:55:14.000Z</time>
      </trkpt>
      <trkpt lat="47.34232" lon="-2.3578">
        <ele>-7.5999999046326</ele>
        <time>2021-04-04T08:55:15.000Z</time>
      </trkpt>
      <trkpt lat="47.34236" lon="-2.35789">
        <ele>-7.5999999046326</ele>
        <time>2021-04-04T08:55:16.000Z</time>
      </trkpt>
      <trkpt lat="47.34253" lon="-2.3585">
        <ele>-7.5999999046326</ele>
        <time>2021-04-04T08:55:23.000Z</time>
      </trkpt>
      <trkpt lat="47.34251" lon="-2.35887">
        <ele>-7.5999999046326</ele>
        <time>2021-04-04T08:55:27.000Z</time>
      </trkpt>
      <trkpt lat="47.34242" lon="-2.35934">
        <ele>-7.5999999046326</ele>
        <time>2021-04-04T08:55:33.000Z</time>
      </trkpt>
      <trkpt lat="47.34243" lon="-2.35942">
        <ele>-7.5999999046326</ele>
        <time>2021-04-04T08:55:34.000Z</time>
      </trkpt>
      <trkpt lat="47.34249" lon="-2.3595">
        <ele>-7.5999999046326</ele>
        <time>2021-04-04T08:55:36.000Z</time>
      </trkpt>
      <trkpt lat="47.34263" lon="-2.35951">
        <ele>-7.5999999046326</ele>
        <time>2021-04-04T08:55:39.000Z</time>
      </trkpt>
      <trkpt lat="47.34273" lon="-2.3595">
        <ele>-7</ele>
        <time>2021-04-04T08:55:41.000Z</time>
      </trkpt>
      <trkpt lat="47.34278" lon="-2.3595">
        <ele>-6.5999999046326</ele>
        <time>2021-04-04T08:55:42.000Z</time>
      </trkpt>
      <trkpt lat="47.34282" lon="-2.3595">
        <ele>-6.1999998092651</ele>
        <time>2021-04-04T08:55:43.000Z</time>
      </trkpt>
      <trkpt lat="47.34286" lon="-2.3595">
        <ele>-5.5999999046326</ele>
        <time>2021-04-04T08:55:44.000Z</time>
      </trkpt>
      <trkpt lat="47.3429" lon="-2.35951">
        <ele>-5.1999998092651</ele>
        <time>2021-04-04T08:55:45.000Z</time>
      </trkpt>
      <trkpt lat="47.34304" lon="-2.35953">
        <ele>-4.8000001907349</ele>
        <time>2021-04-04T08:55:48.000Z</time>
      </trkpt>
      <trkpt lat="47.34308" lon="-2.35953">
        <ele>-4</ele>
        <time>2021-04-04T08:55:49.000Z</time>
      </trkpt>
      <trkpt lat="47.34314" lon="-2.35955">
        <ele>-3.5999999046326</ele>
        <time>2021-04-04T08:55:50.000Z</time>
      </trkpt>
      <trkpt lat="47.34318" lon="-2.35955">
        <ele>-3.2000000476837</ele>
        <time>2021-04-04T08:55:51.000Z</time>
      </trkpt>
      <trkpt lat="47.34327" lon="-2.35959">
        <ele>-2.5999999046326</ele>
        <time>2021-04-04T08:55:53.000Z</time>
      </trkpt>
      <trkpt lat="47.34331" lon="-2.3596">
        <ele>-2.2000000476837</ele>
        <time>2021-04-04T08:55:54.000Z</time>
      </trkpt>
      <trkpt lat="47.34336" lon="-2.35963">
        <ele>-1.7999999523163</ele>
        <time>2021-04-04T08:55:55.000Z</time>
      </trkpt>
      <trkpt lat="47.3434" lon="-2.35965">
        <ele>-1.2000000476837</ele>
        <time>2021-04-04T08:55:56.000Z</time>
      </trkpt>
      <trkpt lat="47.34344" lon="-2.35966">
        <ele>-0.80000001192093</ele>
        <time>2021-04-04T08:55:57.000Z</time>
      </trkpt>
      <trkpt lat="47.34372" lon="-2.35977">
        <ele>-0.80000001192093</ele>
        <time>2021-04-04T08:56:03.000Z</time>
      </trkpt>
      <trkpt lat="47.34391" lon="-2.35987">
        <ele>-0.80000001192093</ele>
        <time>2021-04-04T08:56:07.000Z</time>
      </trkpt>
      <trkpt lat="47.34404" lon="-2.35992">
        <ele>-0.80000001192093</ele>
        <time>2021-04-04T08:56:10.000Z</time>
      </trkpt>
      <trkpt lat="47.3441" lon="-2.35992">
        <ele>-0.80000001192093</ele>
        <time>2021-04-04T08:56:11.000Z</time>
      </trkpt>
      <trkpt lat="47.34418" lon="-2.35987">
        <ele>-0.80000001192093</ele>
        <time>2021-04-04T08:56:13.000Z</time>
      </trkpt>
      <trkpt lat="47.34445" lon="-2.35965">
        <ele>-0.80000001192093</ele>
        <time>2021-04-04T08:56:19.000Z</time>
      </trkpt>
      <trkpt lat="47.34485" lon="-2.35937">
        <ele>-0.80000001192093</ele>
        <time>2021-04-04T08:56:26.000Z</time>
      </trkpt>
      <trkpt lat="47.34491" lon="-2.35934">
        <ele>-1.2000000476837</ele>
        <time>2021-04-04T08:56:27.000Z</time>
      </trkpt>
      <trkpt lat="47.34498" lon="-2.35931">
        <ele>-1.6000000238419</ele>
        <time>2021-04-04T08:56:28.000Z</time>
      </trkpt>
      <trkpt lat="47.34505" lon="-2.35928">
        <ele>-2</ele>
        <time>2021-04-04T08:56:29.000Z</time>
      </trkpt>
      <trkpt lat="47.34512" lon="-2.35925">
        <ele>-2.4000000953674</ele>
        <time>2021-04-04T08:56:30.000Z</time>
      </trkpt>
      <trkpt lat="47.34518" lon="-2.35923">
        <ele>-2.7999999523163</ele>
        <time>2021-04-04T08:56:31.000Z</time>
      </trkpt>
      <trkpt lat="47.34526" lon="-2.3592">
        <ele>-2.7999999523163</ele>
        <time>2021-04-04T08:56:32.000Z</time>
      </trkpt>
      <trkpt lat="47.34564" lon="-2.35902">
        <ele>-3.4000000953674</ele>
        <time>2021-04-04T08:56:38.000Z</time>
      </trkpt>
      <trkpt lat="47.34571" lon="-2.35897">
        <ele>-3.7999999523163</ele>
        <time>2021-04-04T08:56:39.000Z</time>
      </trkpt>
      <trkpt lat="47.34577" lon="-2.35892">
        <ele>-4.1999998092651</ele>
        <time>2021-04-04T08:56:40.000Z</time>
      </trkpt>
      <trkpt lat="47.34583" lon="-2.35888">
        <ele>-4.5999999046326</ele>
        <time>2021-04-04T08:56:41.000Z</time>
      </trkpt>
      <trkpt lat="47.34589" lon="-2.35883">
        <ele>-5</ele>
        <time>2021-04-04T08:56:42.000Z</time>
      </trkpt>
      <trkpt lat="47.34606" lon="-2.35868">
        <ele>-5</ele>
        <time>2021-04-04T08:56:45.000Z</time>
      </trkpt>
      <trkpt lat="47.34636" lon="-2.35845">
        <ele>-5</ele>
        <time>2021-04-04T08:56:51.000Z</time>
      </trkpt>
      <trkpt lat="47.34642" lon="-2.3584">
        <ele>-5</ele>
        <time>2021-04-04T08:56:52.000Z</time>
      </trkpt>
      <trkpt lat="47.34682" lon="-2.35809">
        <ele>-5</ele>
        <time>2021-04-04T08:57:00.000Z</time>
      </trkpt>
      <trkpt lat="47.34718" lon="-2.3578">
        <ele>-5</ele>
        <time>2021-04-04T08:57:07.000Z</time>
      </trkpt>
      <trkpt lat="47.3474" lon="-2.35763">
        <ele>-5</ele>
        <time>2021-04-04T08:57:11.000Z</time>
      </trkpt>
      <trkpt lat="47.34755" lon="-2.35756">
        <ele>-5</ele>
        <time>2021-04-04T08:57:14.000Z</time>
      </trkpt>
      <trkpt lat="47.34765" lon="-2.35751">
        <ele>-5</ele>
        <time>2021-04-04T08:57:16.000Z</time>
      </trkpt>
      <trkpt lat="47.34769" lon="-2.35749">
        <ele>-5</ele>
        <time>2021-04-04T08:57:17.000Z</time>
      </trkpt>
      <trkpt lat="47.34788" lon="-2.35742">
        <ele>-5</ele>
        <time>2021-04-04T08:57:21.000Z</time>
      </trkpt>
      <trkpt lat="47.34797" lon="-2.35737">
        <ele>-5</ele>
        <time>2021-04-04T08:57:23.000Z</time>
      </trkpt>
      <trkpt lat="47.34814" lon="-2.35726">
        <ele>-5</ele>
        <time>2021-04-04T08:57:27.000Z</time>
      </trkpt>
      <trkpt lat="47.34823" lon="-2.35722">
        <ele>-5</ele>
        <time>2021-04-04T08:57:29.000Z</time>
      </trkpt>
      <trkpt lat="47.34838" lon="-2.35713">
        <ele>-5</ele>
        <time>2021-04-04T08:57:32.000Z</time>
      </trkpt>
      <trkpt lat="47.3485" lon="-2.35686">
        <ele>-5</ele>
        <time>2021-04-04T08:57:36.000Z</time>
      </trkpt>
      <trkpt lat="47.34852" lon="-2.3568">
        <ele>-5</ele>
        <time>2021-04-04T08:57:37.000Z</time>
      </trkpt>
      <trkpt lat="47.34856" lon="-2.35671">
        <ele>-5</ele>
        <time>2021-04-04T08:57:40.000Z</time>
      </trkpt>
      <trkpt lat="47.34856" lon="-2.35666">
        <ele>-5</ele>
        <time>2021-04-04T08:57:42.000Z</time>
      </trkpt>
      <trkpt lat="47.34852" lon="-2.35663">
        <ele>-5</ele>
        <time>2021-04-04T08:57:44.000Z</time>
      </trkpt>
      <trkpt lat="47.34846" lon="-2.3566">
        <ele>-5</ele>
        <time>2021-04-04T08:57:46.000Z</time>
      </trkpt>
      <trkpt lat="47.34837" lon="-2.35655">
        <ele>-5</ele>
        <time>2021-04-04T08:57:48.000Z</time>
      </trkpt>
      <trkpt lat="47.34828" lon="-2.3565">
        <ele>-5</ele>
        <time>2021-04-04T08:57:50.000Z</time>
      </trkpt>
      <trkpt lat="47.34814" lon="-2.35641">
        <ele>-5</ele>
        <time>2021-04-04T08:57:53.000Z</time>
      </trkpt>
      <trkpt lat="47.34787" lon="-2.35613">
        <ele>-5</ele>
        <time>2021-04-04T08:57:59.000Z</time>
      </trkpt>
      <trkpt lat="47.34783" lon="-2.35608">
        <ele>-5</ele>
        <time>2021-04-04T08:58:00.000Z</time>
      </trkpt>
      <trkpt lat="47.34754" lon="-2.35572">
        <ele>-5</ele>
        <time>2021-04-04T08:58:07.000Z</time>
      </trkpt>
      <trkpt lat="47.34728" lon="-2.35536">
        <ele>-5</ele>
        <time>2021-04-04T08:58:13.000Z</time>
      </trkpt>
      <trkpt lat="47.34706" lon="-2.35498">
        <ele>-5</ele>
        <time>2021-04-04T08:58:19.000Z</time>
      </trkpt>
      <trkpt lat="47.34699" lon="-2.35486">
        <ele>-5.4000000953674</ele>
        <time>2021-04-04T08:58:21.000Z</time>
      </trkpt>
      <trkpt lat="47.34696" lon="-2.3548">
        <ele>-5.8000001907349</ele>
        <time>2021-04-04T08:58:22.000Z</time>
      </trkpt>
      <trkpt lat="47.34692" lon="-2.35475">
        <ele>-6.1999998092651</ele>
        <time>2021-04-04T08:58:23.000Z</time>
      </trkpt>
      <trkpt lat="47.34689" lon="-2.35469">
        <ele>-6.8000001907349</ele>
        <time>2021-04-04T08:58:24.000Z</time>
      </trkpt>
      <trkpt lat="47.34686" lon="-2.35464">
        <ele>-7.1999998092651</ele>
        <time>2021-04-04T08:58:25.000Z</time>
      </trkpt>
      <trkpt lat="47.3468" lon="-2.35453">
        <ele>-7.1999998092651</ele>
        <time>2021-04-04T08:58:27.000Z</time>
      </trkpt>
      <trkpt lat="47.34661" lon="-2.35424">
        <ele>-7.1999998092651</ele>
        <time>2021-04-04T08:58:34.000Z</time>
      </trkpt>
      <trkpt lat="47.34656" lon="-2.3542">
        <ele>-7.1999998092651</ele>
        <time>2021-04-04T08:58:39.000Z</time>
      </trkpt>
      <trkpt lat="47.3465" lon="-2.35412">
        <ele>-7.1999998092651</ele>
        <time>2021-04-04T08:58:46.000Z</time>
      </trkpt>
      <trkpt lat="47.34649" lon="-2.35406">
        <ele>-7.1999998092651</ele>
        <time>2021-04-04T08:58:50.000Z</time>
      </trkpt>
      <trkpt lat="47.3465" lon="-2.35406">
        <ele>-7.1999998092651</ele>
        <time>2021-04-04T08:58:51.000Z</time>
      </trkpt>
      <trkpt lat="47.34657" lon="-2.35404">
        <ele>-7.1999998092651</ele>
        <time>2021-04-04T08:58:54.000Z</time>
      </trkpt>
      <trkpt lat="47.34659" lon="-2.35404">
        <ele>-7.1999998092651</ele>
        <time>2021-04-04T08:58:55.000Z</time>
      </trkpt>
      <trkpt lat="47.34669" lon="-2.35401">
        <ele>-7.1999998092651</ele>
        <time>2021-04-04T08:58:59.000Z</time>
      </trkpt>
      <trkpt lat="47.34672" lon="-2.354">
        <ele>-7.1999998092651</ele>
        <time>2021-04-04T08:59:00.000Z</time>
      </trkpt>
      <trkpt lat="47.34691" lon="-2.35399">
        <ele>-7.1999998092651</ele>
        <time>2021-04-04T08:59:06.000Z</time>
      </trkpt>
      <trkpt lat="47.34701" lon="-2.35391">
        <ele>-7.1999998092651</ele>
        <time>2021-04-04T08:59:10.000Z</time>
      </trkpt>
      <trkpt lat="47.34713" lon="-2.35377">
        <ele>-7.1999998092651</ele>
        <time>2021-04-04T08:59:15.000Z</time>
      </trkpt>
      <trkpt lat="47.34723" lon="-2.35358">
        <ele>-7.1999998092651</ele>
        <time>2021-04-04T08:59:20.000Z</time>
      </trkpt>
      <trkpt lat="47.34725" lon="-2.35347">
        <ele>-7.1999998092651</ele>
        <time>2021-04-04T08:59:23.000Z</time>
      </trkpt>
      <trkpt lat="47.34724" lon="-2.35337">
        <ele>-7.1999998092651</ele>
        <time>2021-04-04T08:59:25.000Z</time>
      </trkpt>
      <trkpt lat="47.34724" lon="-2.35332">
        <ele>-7.1999998092651</ele>
        <time>2021-04-04T08:59:27.000Z</time>
      </trkpt>
      <trkpt lat="47.34725" lon="-2.35321">
        <ele>-7.1999998092651</ele>
        <time>2021-04-04T08:59:30.000Z</time>
      </trkpt>
      <trkpt lat="47.34727" lon="-2.35317">
        <ele>-7.1999998092651</ele>
        <time>2021-04-04T08:59:31.000Z</time>
      </trkpt>
      <trkpt lat="47.34734" lon="-2.35301">
        <ele>-7.1999998092651</ele>
        <time>2021-04-04T08:59:34.000Z</time>
      </trkpt>
      <trkpt lat="47.34742" lon="-2.35277">
        <ele>-7.1999998092651</ele>
        <time>2021-04-04T08:59:39.000Z</time>
      </trkpt>
      <trkpt lat="47.34749" lon="-2.35244">
        <ele>-7.1999998092651</ele>
        <time>2021-04-04T08:59:44.000Z</time>
      </trkpt>
      <trkpt lat="47.34751" lon="-2.35238">
        <ele>-7.1999998092651</ele>
        <time>2021-04-04T08:59:45.000Z</time>
      </trkpt>
      <trkpt lat="47.34753" lon="-2.35217">
        <ele>-7.1999998092651</ele>
        <time>2021-04-04T08:59:48.000Z</time>
      </trkpt>
      <trkpt lat="47.34758" lon="-2.35178">
        <ele>-7.1999998092651</ele>
        <time>2021-04-04T08:59:54.000Z</time>
      </trkpt>
      <trkpt lat="47.34757" lon="-2.35157">
        <ele>-7.1999998092651</ele>
        <time>2021-04-04T08:59:58.000Z</time>
      </trkpt>
      <trkpt lat="47.34746" lon="-2.35137">
        <ele>-7.1999998092651</ele>
        <time>2021-04-04T09:00:03.000Z</time>
      </trkpt>
      <trkpt lat="47.34744" lon="-2.35134">
        <ele>-7.1999998092651</ele>
        <time>2021-04-04T09:00:04.000Z</time>
      </trkpt>
      <trkpt lat="47.34734" lon="-2.35109">
        <ele>-7.1999998092651</ele>
        <time>2021-04-04T09:00:09.000Z</time>
      </trkpt>
      <trkpt lat="47.34726" lon="-2.35096">
        <ele>-7.1999998092651</ele>
        <time>2021-04-04T09:00:12.000Z</time>
      </trkpt>
      <trkpt lat="47.34722" lon="-2.35091">
        <ele>-7.1999998092651</ele>
        <time>2021-04-04T09:00:13.000Z</time>
      </trkpt>
      <trkpt lat="47.34702" lon="-2.35069">
        <ele>-7.1999998092651</ele>
        <time>2021-04-04T09:00:18.000Z</time>
      </trkpt>
      <trkpt lat="47.34695" lon="-2.35059">
        <ele>-7.1999998092651</ele>
        <time>2021-04-04T09:00:20.000Z</time>
      </trkpt>
      <trkpt lat="47.34681" lon="-2.35047">
        <ele>-7.1999998092651</ele>
        <time>2021-04-04T09:00:24.000Z</time>
      </trkpt>
      <trkpt lat="47.34674" lon="-2.35046">
        <ele>-7.1999998092651</ele>
        <time>2021-04-04T09:00:26.000Z</time>
      </trkpt>
      <trkpt lat="47.34657" lon="-2.35045">
        <ele>-7.1999998092651</ele>
        <time>2021-04-04T09:00:32.000Z</time>
      </trkpt>
      <trkpt lat="47.34653" lon="-2.35041">
        <ele>-7.1999998092651</ele>
        <time>2021-04-04T09:00:33.000Z</time>
      </trkpt>
      <trkpt lat="47.34648" lon="-2.35035">
        <ele>-7.1999998092651</ele>
        <time>2021-04-04T09:00:35.000Z</time>
      </trkpt>
      <trkpt lat="47.34632" lon="-2.3501">
        <ele>-7.1999998092651</ele>
        <time>2021-04-04T09:00:41.000Z</time>
      </trkpt>
      <trkpt lat="47.34615" lon="-2.34985">
        <ele>-7.1999998092651</ele>
        <time>2021-04-04T09:00:46.000Z</time>
      </trkpt>
      <trkpt lat="47.34604" lon="-2.34963">
        <ele>-7.1999998092651</ele>
        <time>2021-04-04T09:00:50.000Z</time>
      </trkpt>
      <trkpt lat="47.34585" lon="-2.34931">
        <ele>-7.1999998092651</ele>
        <time>2021-04-04T09:00:57.000Z</time>
      </trkpt>
      <trkpt lat="47.34578" lon="-2.34917">
        <ele>-7.1999998092651</ele>
        <time>2021-04-04T09:01:01.000Z</time>
      </trkpt>
      <trkpt lat="47.34576" lon="-2.3491">
        <ele>-7.1999998092651</ele>
        <time>2021-04-04T09:01:03.000Z</time>
      </trkpt>
      <trkpt lat="47.34577" lon="-2.349">
        <ele>-7.1999998092651</ele>
        <time>2021-04-04T09:01:06.000Z</time>
      </trkpt>
      <trkpt lat="47.34582" lon="-2.34893">
        <ele>-7.1999998092651</ele>
        <time>2021-04-04T09:01:08.000Z</time>
      </trkpt>
      <trkpt lat="47.34587" lon="-2.34883">
        <ele>-7.1999998092651</ele>
        <time>2021-04-04T09:01:10.000Z</time>
      </trkpt>
      <trkpt lat="47.3459" lon="-2.34877">
        <ele>-7.1999998092651</ele>
        <time>2021-04-04T09:01:11.000Z</time>
      </trkpt>
      <trkpt lat="47.34601" lon="-2.34847">
        <ele>-7.1999998092651</ele>
        <time>2021-04-04T09:01:15.000Z</time>
      </trkpt>
      <trkpt lat="47.3462" lon="-2.348">
        <ele>-7.1999998092651</ele>
        <time>2021-04-04T09:01:22.000Z</time>
      </trkpt>
      <trkpt lat="47.34631" lon="-2.34771">
        <ele>-7.1999998092651</ele>
        <time>2021-04-04T09:01:26.000Z</time>
      </trkpt>
      <trkpt lat="47.34634" lon="-2.34754">
        <ele>-7.1999998092651</ele>
        <time>2021-04-04T09:01:28.000Z</time>
      </trkpt>
      <trkpt lat="47.34636" lon="-2.34713">
        <ele>-7.1999998092651</ele>
        <time>2021-04-04T09:01:33.000Z</time>
      </trkpt>
      <trkpt lat="47.34635" lon="-2.34697">
        <ele>-7.1999998092651</ele>
        <time>2021-04-04T09:01:35.000Z</time>
      </trkpt>
      <trkpt lat="47.34631" lon="-2.34675">
        <ele>-7.1999998092651</ele>
        <time>2021-04-04T09:01:38.000Z</time>
      </trkpt>
      <trkpt lat="47.34622" lon="-2.3463">
        <ele>-7.1999998092651</ele>
        <time>2021-04-04T09:01:44.000Z</time>
      </trkpt>
      <trkpt lat="47.34618" lon="-2.34608">
        <ele>-6.8000001907349</ele>
        <time>2021-04-04T09:01:47.000Z</time>
      </trkpt>
      <trkpt lat="47.34618" lon="-2.34601">
        <ele>-6.4000000953674</ele>
        <time>2021-04-04T09:01:48.000Z</time>
      </trkpt>
      <trkpt lat="47.34616" lon="-2.34594">
        <ele>-5.8000001907349</ele>
        <time>2021-04-04T09:01:49.000Z</time>
      </trkpt>
      <trkpt lat="47.34615" lon="-2.34586">
        <ele>-5.4000000953674</ele>
        <time>2021-04-04T09:01:50.000Z</time>
      </trkpt>
      <trkpt lat="47.34614" lon="-2.34579">
        <ele>-5</ele>
        <time>2021-04-04T09:01:51.000Z</time>
      </trkpt>
      <trkpt lat="47.34611" lon="-2.34565">
        <ele>-4.5999999046326</ele>
        <time>2021-04-04T09:01:53.000Z</time>
      </trkpt>
      <trkpt lat="47.3461" lon="-2.34559">
        <ele>-4.1999998092651</ele>
        <time>2021-04-04T09:01:54.000Z</time>
      </trkpt>
      <trkpt lat="47.34608" lon="-2.34554">
        <ele>-3.7999999523163</ele>
        <time>2021-04-04T09:01:55.000Z</time>
      </trkpt>
      <trkpt lat="47.34608" lon="-2.3455">
        <ele>-3.2000000476837</ele>
        <time>2021-04-04T09:01:56.000Z</time>
      </trkpt>
      <trkpt lat="47.34607" lon="-2.34546">
        <ele>-2.7999999523163</ele>
        <time>2021-04-04T09:01:57.000Z</time>
      </trkpt>
      <trkpt lat="47.3461" lon="-2.34533">
        <ele>-2.7999999523163</ele>
        <time>2021-04-04T09:02:01.000Z</time>
      </trkpt>
      <trkpt lat="47.34624" lon="-2.34527">
        <ele>-2.7999999523163</ele>
        <time>2021-04-04T09:02:05.000Z</time>
      </trkpt>
      <trkpt lat="47.34628" lon="-2.34525">
        <ele>-2.7999999523163</ele>
        <time>2021-04-04T09:02:06.000Z</time>
      </trkpt>
      <trkpt lat="47.34642" lon="-2.34521">
        <ele>-2.7999999523163</ele>
        <time>2021-04-04T09:02:09.000Z</time>
      </trkpt>
      <trkpt lat="47.34651" lon="-2.34518">
        <ele>-2.7999999523163</ele>
        <time>2021-04-04T09:02:11.000Z</time>
      </trkpt>
      <trkpt lat="47.34677" lon="-2.34511">
        <ele>-2.7999999523163</ele>
        <time>2021-04-04T09:02:17.000Z</time>
      </trkpt>
      <trkpt lat="47.34712" lon="-2.34496">
        <ele>-3.2000000476837</ele>
        <time>2021-04-04T09:02:25.000Z</time>
      </trkpt>
      <trkpt lat="47.34716" lon="-2.34494">
        <ele>-3.5999999046326</ele>
        <time>2021-04-04T09:02:26.000Z</time>
      </trkpt>
      <trkpt lat="47.3472" lon="-2.34492">
        <ele>-4</ele>
        <time>2021-04-04T09:02:27.000Z</time>
      </trkpt>
      <trkpt lat="47.34723" lon="-2.34491">
        <ele>-4.4000000953674</ele>
        <time>2021-04-04T09:02:28.000Z</time>
      </trkpt>
      <trkpt lat="47.34726" lon="-2.3449">
        <ele>-4.8000001907349</ele>
        <time>2021-04-04T09:02:29.000Z</time>
      </trkpt>
      <trkpt lat="47.34729" lon="-2.34489">
        <ele>-4.8000001907349</ele>
        <time>2021-04-04T09:02:30.000Z</time>
      </trkpt>
      <trkpt lat="47.34744" lon="-2.34482">
        <ele>-4.8000001907349</ele>
        <time>2021-04-04T09:02:35.000Z</time>
      </trkpt>
      <trkpt lat="47.34749" lon="-2.34468">
        <ele>-4.8000001907349</ele>
        <time>2021-04-04T09:02:39.000Z</time>
      </trkpt>
      <trkpt lat="47.34751" lon="-2.34464">
        <ele>-4.8000001907349</ele>
        <time>2021-04-04T09:02:40.000Z</time>
      </trkpt>
      <trkpt lat="47.34758" lon="-2.34441">
        <ele>-4.8000001907349</ele>
        <time>2021-04-04T09:02:45.000Z</time>
      </trkpt>
      <trkpt lat="47.34768" lon="-2.34418">
        <ele>-4.8000001907349</ele>
        <time>2021-04-04T09:02:51.000Z</time>
      </trkpt>
      <trkpt lat="47.3478" lon="-2.34395">
        <ele>-4.8000001907349</ele>
        <time>2021-04-04T09:02:57.000Z</time>
      </trkpt>
      <trkpt lat="47.3479" lon="-2.34385">
        <ele>-4.8000001907349</ele>
        <time>2021-04-04T09:03:02.000Z</time>
      </trkpt>
      <trkpt lat="47.34792" lon="-2.34384">
        <ele>-4.8000001907349</ele>
        <time>2021-04-04T09:03:04.000Z</time>
      </trkpt>
      <trkpt lat="47.34794" lon="-2.34383">
        <ele>-4.8000001907349</ele>
        <time>2021-04-04T09:03:40.000Z</time>
      </trkpt>
      <trkpt lat="47.34796" lon="-2.34383">
        <ele>-4.8000001907349</ele>
        <time>2021-04-04T09:03:41.000Z</time>
      </trkpt>
      <trkpt lat="47.34809" lon="-2.34382">
        <ele>-4.8000001907349</ele>
        <time>2021-04-04T09:03:47.000Z</time>
      </trkpt>
      <trkpt lat="47.34829" lon="-2.34379">
        <ele>-4.8000001907349</ele>
        <time>2021-04-04T09:03:53.000Z</time>
      </trkpt>
      <trkpt lat="47.34841" lon="-2.34378">
        <ele>-4.4000000953674</ele>
        <time>2021-04-04T09:03:56.000Z</time>
      </trkpt>
      <trkpt lat="47.34844" lon="-2.34378">
        <ele>-4</ele>
        <time>2021-04-04T09:03:57.000Z</time>
      </trkpt>
      <trkpt lat="47.34848" lon="-2.34377">
        <ele>-3.4000000953674</ele>
        <time>2021-04-04T09:03:58.000Z</time>
      </trkpt>
      <trkpt lat="47.34852" lon="-2.34376">
        <ele>-3</ele>
        <time>2021-04-04T09:03:59.000Z</time>
      </trkpt>
      <trkpt lat="47.34856" lon="-2.34375">
        <ele>-2.5999999046326</ele>
        <time>2021-04-04T09:04:00.000Z</time>
      </trkpt>
      <trkpt lat="47.34869" lon="-2.34373">
        <ele>-2.5999999046326</ele>
        <time>2021-04-04T09:04:03.000Z</time>
      </trkpt>
      <trkpt lat="47.34893" lon="-2.34372">
        <ele>-2.5999999046326</ele>
        <time>2021-04-04T09:04:08.000Z</time>
      </trkpt>
      <trkpt lat="47.34922" lon="-2.34367">
        <ele>-2.5999999046326</ele>
        <time>2021-04-04T09:04:13.000Z</time>
      </trkpt>
      <trkpt lat="47.34939" lon="-2.34369">
        <ele>-3</ele>
        <time>2021-04-04T09:04:16.000Z</time>
      </trkpt>
      <trkpt lat="47.34944" lon="-2.34369">
        <ele>-3.4000000953674</ele>
        <time>2021-04-04T09:04:17.000Z</time>
      </trkpt>
      <trkpt lat="47.34951" lon="-2.34369">
        <ele>-3.7999999523163</ele>
        <time>2021-04-04T09:04:18.000Z</time>
      </trkpt>
      <trkpt lat="47.34957" lon="-2.34368">
        <ele>-4.1999998092651</ele>
        <time>2021-04-04T09:04:19.000Z</time>
      </trkpt>
      <trkpt lat="47.34962" lon="-2.34368">
        <ele>-4.5999999046326</ele>
        <time>2021-04-04T09:04:20.000Z</time>
      </trkpt>
      <trkpt lat="47.34975" lon="-2.34368">
        <ele>-4.5999999046326</ele>
        <time>2021-04-04T09:04:22.000Z</time>
      </trkpt>
      <trkpt lat="47.34994" lon="-2.34366">
        <ele>-4.5999999046326</ele>
        <time>2021-04-04T09:04:25.000Z</time>
      </trkpt>
      <trkpt lat="47.35" lon="-2.34365">
        <ele>-5</ele>
        <time>2021-04-04T09:04:26.000Z</time>
      </trkpt>
      <trkpt lat="47.35005" lon="-2.34363">
        <ele>-6</ele>
        <time>2021-04-04T09:04:27.000Z</time>
      </trkpt>
      <trkpt lat="47.3501" lon="-2.34361">
        <ele>-6.4000000953674</ele>
        <time>2021-04-04T09:04:28.000Z</time>
      </trkpt>
      <trkpt lat="47.35014" lon="-2.34359">
        <ele>-6.8000001907349</ele>
        <time>2021-04-04T09:04:29.000Z</time>
      </trkpt>
      <trkpt lat="47.35022" lon="-2.34355">
        <ele>-6.8000001907349</ele>
        <time>2021-04-04T09:04:32.000Z</time>
      </trkpt>
      <trkpt lat="47.35022" lon="-2.34354">
        <ele>-7.1999998092651</ele>
        <time>2021-04-04T09:04:33.000Z</time>
      </trkpt>
      <trkpt lat="47.35021" lon="-2.34352">
        <ele>-7.5999999046326</ele>
        <time>2021-04-04T09:04:34.000Z</time>
      </trkpt>
      <trkpt lat="47.35021" lon="-2.34351">
        <ele>-8</ele>
        <time>2021-04-04T09:04:35.000Z</time>
      </trkpt>
      <trkpt lat="47.3502" lon="-2.34349">
        <ele>-8.3999996185303</ele>
        <time>2021-04-04T09:04:36.000Z</time>
      </trkpt>
      <trkpt lat="47.35019" lon="-2.34346">
        <ele>-9</ele>
        <time>2021-04-04T09:04:37.000Z</time>
      </trkpt>
      <trkpt lat="47.35017" lon="-2.34344">
        <ele>-9</ele>
        <time>2021-04-04T09:04:38.000Z</time>
      </trkpt>
      <trkpt lat="47.35009" lon="-2.34322">
        <ele>-9</ele>
        <time>2021-04-04T09:04:43.000Z</time>
      </trkpt>
      <trkpt lat="47.35007" lon="-2.34313">
        <ele>-8.6000003814697</ele>
        <time>2021-04-04T09:04:45.000Z</time>
      </trkpt>
      <trkpt lat="47.35005" lon="-2.34308">
        <ele>-8</ele>
        <time>2021-04-04T09:04:46.000Z</time>
      </trkpt>
      <trkpt lat="47.35003" lon="-2.34303">
        <ele>-7.5999999046326</ele>
        <time>2021-04-04T09:04:47.000Z</time>
      </trkpt>
      <trkpt lat="47.35001" lon="-2.34299">
        <ele>-7.1999998092651</ele>
        <time>2021-04-04T09:04:48.000Z</time>
      </trkpt>
      <trkpt lat="47.35" lon="-2.34294">
        <ele>-6.8000001907349</ele>
        <time>2021-04-04T09:04:49.000Z</time>
      </trkpt>
      <trkpt lat="47.34997" lon="-2.34283">
        <ele>-6.4000000953674</ele>
        <time>2021-04-04T09:04:51.000Z</time>
      </trkpt>
      <trkpt lat="47.34995" lon="-2.34278">
        <ele>-5.5999999046326</ele>
        <time>2021-04-04T09:04:52.000Z</time>
      </trkpt>
      <trkpt lat="47.34994" lon="-2.34272">
        <ele>-5.1999998092651</ele>
        <time>2021-04-04T09:04:53.000Z</time>
      </trkpt>
      <trkpt lat="47.34992" lon="-2.34266">
        <ele>-4.5999999046326</ele>
        <time>2021-04-04T09:04:54.000Z</time>
      </trkpt>
      <trkpt lat="47.3499" lon="-2.3426">
        <ele>-4.5999999046326</ele>
        <time>2021-04-04T09:04:55.000Z</time>
      </trkpt>
      <trkpt lat="47.34988" lon="-2.34249">
        <ele>-4.1999998092651</ele>
        <time>2021-04-04T09:04:57.000Z</time>
      </trkpt>
      <trkpt lat="47.34986" lon="-2.34243">
        <ele>-3.7999999523163</ele>
        <time>2021-04-04T09:04:58.000Z</time>
      </trkpt>
      <trkpt lat="47.34986" lon="-2.34238">
        <ele>-3.4000000953674</ele>
        <time>2021-04-04T09:04:59.000Z</time>
      </trkpt>
      <trkpt lat="47.34985" lon="-2.34233">
        <ele>-3</ele>
        <time>2021-04-04T09:05:00.000Z</time>
      </trkpt>
      <trkpt lat="47.34984" lon="-2.34227">
        <ele>-2.5999999046326</ele>
        <time>2021-04-04T09:05:01.000Z</time>
      </trkpt>
      <trkpt lat="47.34975" lon="-2.34209">
        <ele>-2.5999999046326</ele>
        <time>2021-04-04T09:05:05.000Z</time>
      </trkpt>
      <trkpt lat="47.34973" lon="-2.34206">
        <ele>-2.2000000476837</ele>
        <time>2021-04-04T09:05:06.000Z</time>
      </trkpt>
      <trkpt lat="47.3497" lon="-2.34203">
        <ele>-1.7999999523163</ele>
        <time>2021-04-04T09:05:07.000Z</time>
      </trkpt>
      <trkpt lat="47.34967" lon="-2.34201">
        <ele>-1.2000000476837</ele>
        <time>2021-04-04T09:05:08.000Z</time>
      </trkpt>
      <trkpt lat="47.34964" lon="-2.34201">
        <ele>-0.80000001192093</ele>
        <time>2021-04-04T09:05:09.000Z</time>
      </trkpt>
      <trkpt lat="47.34961" lon="-2.34201">
        <ele>-0.40000000596046</ele>
        <time>2021-04-04T09:05:10.000Z</time>
      </trkpt>
      <trkpt lat="47.34948" lon="-2.34204">
        <ele>-0.40000000596046</ele>
        <time>2021-04-04T09:05:14.000Z</time>
      </trkpt>
      <trkpt lat="47.34936" lon="-2.34209">
        <ele>21.9</ele>
        <time>2021-04-04T09:05:18.000Z</time>
      </trkpt>
      <trkpt lat="47.34934" lon="-2.3421">
        <ele>0.40000000596046</ele>
        <time>2021-04-04T09:05:19.000Z</time>
      </trkpt>
      <trkpt lat="47.34931" lon="-2.34211">
        <ele>0.80000001192093</ele>
        <time>2021-04-04T09:05:20.000Z</time>
      </trkpt>
      <trkpt lat="47.34928" lon="-2.34211">
        <ele>1.2000000476837</ele>
        <time>2021-04-04T09:05:21.000Z</time>
      </trkpt>
      <trkpt lat="47.34926" lon="-2.34212">
        <ele>1.6000000238419</ele>
        <time>2021-04-04T09:05:22.000Z</time>
      </trkpt>
      <trkpt lat="47.34918" lon="-2.34212">
        <ele>1.6000000238419</ele>
        <time>2021-04-04T09:05:25.000Z</time>
      </trkpt>
      <trkpt lat="47.3491" lon="-2.3421">
        <ele>2</ele>
        <time>2021-04-04T09:05:28.000Z</time>
      </trkpt>
      <trkpt lat="47.34908" lon="-2.3421">
        <ele>2.4000000953674</ele>
        <time>2021-04-04T09:05:29.000Z</time>
      </trkpt>
      <trkpt lat="47.34905" lon="-2.34209">
        <ele>2.7999999523163</ele>
        <time>2021-04-04T09:05:30.000Z</time>
      </trkpt>
      <trkpt lat="47.34903" lon="-2.34208">
        <ele>3.2000000476837</ele>
        <time>2021-04-04T09:05:31.000Z</time>
      </trkpt>
      <trkpt lat="47.34901" lon="-2.34207">
        <ele>3.5999999046326</ele>
        <time>2021-04-04T09:05:32.000Z</time>
      </trkpt>
      <trkpt lat="47.34895" lon="-2.34207">
        <ele>3.5999999046326</ele>
        <time>2021-04-04T09:05:36.000Z</time>
      </trkpt>
      <trkpt lat="47.34895" lon="-2.34206">
        <ele>3.5999999046326</ele>
        <time>2021-04-04T09:05:37.000Z</time>
      </trkpt>
      <trkpt lat="47.34887" lon="-2.3421">
        <ele>5.8000001907349</ele>
        <time>2021-04-04T09:19:29.000Z</time>
      </trkpt>
      <trkpt lat="47.34883" lon="-2.34211">
        <ele>5.8000001907349</ele>
        <time>2021-04-04T09:19:31.000Z</time>
      </trkpt>
      <trkpt lat="47.34879" lon="-2.34215">
        <ele>5.8000001907349</ele>
        <time>2021-04-04T09:19:34.000Z</time>
      </trkpt>
      <trkpt lat="47.34874" lon="-2.34222">
        <ele>5.8000001907349</ele>
        <time>2021-04-04T09:19:36.000Z</time>
      </trkpt>
      <trkpt lat="47.34862" lon="-2.34239">
        <ele>5.4000000953674</ele>
        <time>2021-04-04T09:19:41.000Z</time>
      </trkpt>
      <trkpt lat="47.3486" lon="-2.34239">
        <ele>4.8000001907349</ele>
        <time>2021-04-04T09:19:42.000Z</time>
      </trkpt>
      <trkpt lat="47.34857" lon="-2.3424">
        <ele>4.4000000953674</ele>
        <time>2021-04-04T09:19:43.000Z</time>
      </trkpt>
      <trkpt lat="47.34854" lon="-2.3424">
        <ele>4</ele>
        <time>2021-04-04T09:19:44.000Z</time>
      </trkpt>
      <trkpt lat="47.34849" lon="-2.3424">
        <ele>3.5999999046326</ele>
        <time>2021-04-04T09:19:45.000Z</time>
      </trkpt>
      <trkpt lat="47.34839" lon="-2.34243">
        <ele>3.2000000476837</ele>
        <time>2021-04-04T09:19:47.000Z</time>
      </trkpt>
      <trkpt lat="47.34833" lon="-2.34243">
        <ele>2.5999999046326</ele>
        <time>2021-04-04T09:19:48.000Z</time>
      </trkpt>
      <trkpt lat="47.34826" lon="-2.34243">
        <ele>2.2000000476837</ele>
        <time>2021-04-04T09:19:49.000Z</time>
      </trkpt>
      <trkpt lat="47.34818" lon="-2.34243">
        <ele>1.7999999523163</ele>
        <time>2021-04-04T09:19:50.000Z</time>
      </trkpt>
      <trkpt lat="47.34811" lon="-2.34243">
        <ele>1.2000000476837</ele>
        <time>2021-04-04T09:19:51.000Z</time>
      </trkpt>
      <trkpt lat="47.34803" lon="-2.34245">
        <ele>1.2000000476837</ele>
        <time>2021-04-04T09:19:52.000Z</time>
      </trkpt>
      <trkpt lat="47.34782" lon="-2.34249">
        <ele>1.2000000476837</ele>
        <time>2021-04-04T09:19:55.000Z</time>
      </trkpt>
      <trkpt lat="47.34768" lon="-2.34251">
        <ele>0.80000001192093</ele>
        <time>2021-04-04T09:19:57.000Z</time>
      </trkpt>
      <trkpt lat="47.34761" lon="-2.34252">
        <ele>0.40000000596046</ele>
        <time>2021-04-04T09:19:58.000Z</time>
      </trkpt>
      <trkpt lat="47.34755" lon="-2.34254">
        <ele>16.2</ele>
        <time>2021-04-04T09:19:59.000Z</time>
      </trkpt>
      <trkpt lat="47.34748" lon="-2.34255">
        <ele>-0.80000001192093</ele>
        <time>2021-04-04T09:20:00.000Z</time>
      </trkpt>
      <trkpt lat="47.34741" lon="-2.34257">
        <ele>-0.80000001192093</ele>
        <time>2021-04-04T09:20:01.000Z</time>
      </trkpt>
      <trkpt lat="47.34709" lon="-2.34263">
        <ele>-1.2000000476837</ele>
        <time>2021-04-04T09:20:06.000Z</time>
      </trkpt>
      <trkpt lat="47.34703" lon="-2.34263">
        <ele>-1.7999999523163</ele>
        <time>2021-04-04T09:20:07.000Z</time>
      </trkpt>
      <trkpt lat="47.34697" lon="-2.34264">
        <ele>-2.2000000476837</ele>
        <time>2021-04-04T09:20:08.000Z</time>
      </trkpt>
      <trkpt lat="47.3469" lon="-2.34264">
        <ele>-2.7999999523163</ele>
        <time>2021-04-04T09:20:09.000Z</time>
      </trkpt>
      <trkpt lat="47.34684" lon="-2.34264">
        <ele>-3.2000000476837</ele>
        <time>2021-04-04T09:20:10.000Z</time>
      </trkpt>
      <trkpt lat="47.34651" lon="-2.34272">
        <ele>-3.2000000476837</ele>
        <time>2021-04-04T09:20:16.000Z</time>
      </trkpt>
      <trkpt lat="47.34632" lon="-2.34293">
        <ele>-3.2000000476837</ele>
        <time>2021-04-04T09:20:21.000Z</time>
      </trkpt>
      <trkpt lat="47.34622" lon="-2.343">
        <ele>-3.2000000476837</ele>
        <time>2021-04-04T09:20:24.000Z</time>
      </trkpt>
      <trkpt lat="47.34618" lon="-2.343">
        <ele>-3.2000000476837</ele>
        <time>2021-04-04T09:20:25.000Z</time>
      </trkpt>
      <trkpt lat="47.34606" lon="-2.34299">
        <ele>-3.2000000476837</ele>
        <time>2021-04-04T09:20:28.000Z</time>
      </trkpt>
      <trkpt lat="47.34602" lon="-2.34299">
        <ele>-2.7999999523163</ele>
        <time>2021-04-04T09:20:29.000Z</time>
      </trkpt>
      <trkpt lat="47.34598" lon="-2.34299">
        <ele>-2.4000000953674</ele>
        <time>2021-04-04T09:20:30.000Z</time>
      </trkpt>
      <trkpt lat="47.34593" lon="-2.343">
        <ele>-2</ele>
        <time>2021-04-04T09:20:31.000Z</time>
      </trkpt>
      <trkpt lat="47.34588" lon="-2.343">
        <ele>-1.6000000238419</ele>
        <time>2021-04-04T09:20:32.000Z</time>
      </trkpt>
      <trkpt lat="47.34583" lon="-2.34302">
        <ele>-1.2000000476837</ele>
        <time>2021-04-04T09:20:33.000Z</time>
      </trkpt>
      <trkpt lat="47.34573" lon="-2.34307">
        <ele>-1.2000000476837</ele>
        <time>2021-04-04T09:20:35.000Z</time>
      </trkpt>
      <trkpt lat="47.34565" lon="-2.34312">
        <ele>-1.2000000476837</ele>
        <time>2021-04-04T09:20:37.000Z</time>
      </trkpt>
      <trkpt lat="47.34554" lon="-2.34321">
        <ele>-1.2000000476837</ele>
        <time>2021-04-04T09:20:40.000Z</time>
      </trkpt>
      <trkpt lat="47.3455" lon="-2.34324">
        <ele>-0.80000001192093</ele>
        <time>2021-04-04T09:20:41.000Z</time>
      </trkpt>
      <trkpt lat="47.34546" lon="-2.34327">
        <ele>-0.40000000596046</ele>
        <time>2021-04-04T09:20:42.000Z</time>
      </trkpt>
      <trkpt lat="47.34542" lon="-2.34331">
        <ele>0.20000000298023</ele>
        <time>2021-04-04T09:20:43.000Z</time>
      </trkpt>
      <trkpt lat="47.34537" lon="-2.34335">
        <ele>0.60000002384186</ele>
        <time>2021-04-04T09:20:44.000Z</time>
      </trkpt>
      <trkpt lat="47.34533" lon="-2.34339">
        <ele>1</ele>
        <time>2021-04-04T09:20:45.000Z</time>
      </trkpt>
      <trkpt lat="47.3452" lon="-2.34351">
        <ele>1</ele>
        <time>2021-04-04T09:20:48.000Z</time>
      </trkpt>
      <trkpt lat="47.34508" lon="-2.34362">
        <ele>1</ele>
        <time>2021-04-04T09:20:51.000Z</time>
      </trkpt>
      <trkpt lat="47.34505" lon="-2.34367">
        <ele>1</ele>
        <time>2021-04-04T09:20:52.000Z</time>
      </trkpt>
      <trkpt lat="47.34493" lon="-2.3438">
        <ele>1</ele>
        <time>2021-04-04T09:20:55.000Z</time>
      </trkpt>
      <trkpt lat="47.34484" lon="-2.34386">
        <ele>1</ele>
        <time>2021-04-04T09:20:57.000Z</time>
      </trkpt>
      <trkpt lat="47.3448" lon="-2.34388">
        <ele>1</ele>
        <time>2021-04-04T09:20:58.000Z</time>
      </trkpt>
      <trkpt lat="47.34463" lon="-2.34395">
        <ele>1</ele>
        <time>2021-04-04T09:21:02.000Z</time>
      </trkpt>
      <trkpt lat="47.34439" lon="-2.34404">
        <ele>1</ele>
        <time>2021-04-04T09:21:08.000Z</time>
      </trkpt>
      <trkpt lat="47.34427" lon="-2.34408">
        <ele>1</ele>
        <time>2021-04-04T09:21:11.000Z</time>
      </trkpt>
      <trkpt lat="47.34414" lon="-2.34412">
        <ele>1</ele>
        <time>2021-04-04T09:21:14.000Z</time>
      </trkpt>
      <trkpt lat="47.34406" lon="-2.34417">
        <ele>1</ele>
        <time>2021-04-04T09:21:16.000Z</time>
      </trkpt>
      <trkpt lat="47.34397" lon="-2.34422">
        <ele>1</ele>
        <time>2021-04-04T09:21:18.000Z</time>
      </trkpt>
      <trkpt lat="47.34393" lon="-2.34424">
        <ele>1</ele>
        <time>2021-04-04T09:21:19.000Z</time>
      </trkpt>
      <trkpt lat="47.34377" lon="-2.34433">
        <ele>1</ele>
        <time>2021-04-04T09:21:23.000Z</time>
      </trkpt>
      <trkpt lat="47.34365" lon="-2.34441">
        <ele>1</ele>
        <time>2021-04-04T09:21:26.000Z</time>
      </trkpt>
      <trkpt lat="47.34341" lon="-2.34459">
        <ele>1</ele>
        <time>2021-04-04T09:21:32.000Z</time>
      </trkpt>
      <trkpt lat="47.34336" lon="-2.34461">
        <ele>1</ele>
        <time>2021-04-04T09:21:33.000Z</time>
      </trkpt>
      <trkpt lat="47.34316" lon="-2.34466">
        <ele>1</ele>
        <time>2021-04-04T09:21:38.000Z</time>
      </trkpt>
      <trkpt lat="47.34309" lon="-2.34467">
        <ele>1</ele>
        <time>2021-04-04T09:21:42.000Z</time>
      </trkpt>
      <trkpt lat="47.34303" lon="-2.34465">
        <ele>1</ele>
        <time>2021-04-04T09:21:45.000Z</time>
      </trkpt>
      <trkpt lat="47.34297" lon="-2.34465">
        <ele>1</ele>
        <time>2021-04-04T09:21:47.000Z</time>
      </trkpt>
      <trkpt lat="47.34288" lon="-2.34465">
        <ele>1</ele>
        <time>2021-04-04T09:21:49.000Z</time>
      </trkpt>
      <trkpt lat="47.3427" lon="-2.34468">
        <ele>1</ele>
        <time>2021-04-04T09:21:53.000Z</time>
      </trkpt>
      <trkpt lat="47.34261" lon="-2.34472">
        <ele>1</ele>
        <time>2021-04-04T09:21:55.000Z</time>
      </trkpt>
      <trkpt lat="47.34241" lon="-2.34481">
        <ele>1.3999999761581</ele>
        <time>2021-04-04T09:21:59.000Z</time>
      </trkpt>
      <trkpt lat="47.34237" lon="-2.34484">
        <ele>1.7999999523163</ele>
        <time>2021-04-04T09:22:00.000Z</time>
      </trkpt>
      <trkpt lat="47.34232" lon="-2.34486">
        <ele>2.2000000476837</ele>
        <time>2021-04-04T09:22:01.000Z</time>
      </trkpt>
      <trkpt lat="47.34228" lon="-2.34488">
        <ele>2.5999999046326</ele>
        <time>2021-04-04T09:22:02.000Z</time>
      </trkpt>
      <trkpt lat="47.34223" lon="-2.34491">
        <ele>3</ele>
        <time>2021-04-04T09:22:03.000Z</time>
      </trkpt>
      <trkpt lat="47.34209" lon="-2.34499">
        <ele>3</ele>
        <time>2021-04-04T09:22:06.000Z</time>
      </trkpt>
      <trkpt lat="47.34175" lon="-2.34513">
        <ele>3</ele>
        <time>2021-04-04T09:22:13.000Z</time>
      </trkpt>
      <trkpt lat="47.34167" lon="-2.34516">
        <ele>3</ele>
        <time>2021-04-04T09:22:15.000Z</time>
      </trkpt>
      <trkpt lat="47.34151" lon="-2.34523">
        <ele>3</ele>
        <time>2021-04-04T09:22:19.000Z</time>
      </trkpt>
      <trkpt lat="47.34119" lon="-2.34539">
        <ele>3</ele>
        <time>2021-04-04T09:22:26.000Z</time>
      </trkpt>
      <trkpt lat="47.34104" lon="-2.34546">
        <ele>3</ele>
        <time>2021-04-04T09:22:29.000Z</time>
      </trkpt>
      <trkpt lat="47.3409" lon="-2.34554">
        <ele>3</ele>
        <time>2021-04-04T09:22:32.000Z</time>
      </trkpt>
      <trkpt lat="47.3407" lon="-2.34572">
        <ele>3</ele>
        <time>2021-04-04T09:22:38.000Z</time>
      </trkpt>
      <trkpt lat="47.34058" lon="-2.34584">
        <ele>3</ele>
        <time>2021-04-04T09:22:43.000Z</time>
      </trkpt>
      <trkpt lat="47.34044" lon="-2.34593">
        <ele>3</ele>
        <time>2021-04-04T09:22:47.000Z</time>
      </trkpt>
      <trkpt lat="47.34022" lon="-2.346">
        <ele>4</ele>
        <time>2021-04-04T09:22:53.000Z</time>
      </trkpt>
      <trkpt lat="47.34018" lon="-2.346">
        <ele>4.4000000953674</ele>
        <time>2021-04-04T09:22:54.000Z</time>
      </trkpt>
      <trkpt lat="47.34015" lon="-2.34601">
        <ele>5</ele>
        <time>2021-04-04T09:22:55.000Z</time>
      </trkpt>
      <trkpt lat="47.34011" lon="-2.34601">
        <ele>5.4000000953674</ele>
        <time>2021-04-04T09:22:56.000Z</time>
      </trkpt>
      <trkpt lat="47.33995" lon="-2.34598">
        <ele>5.4000000953674</ele>
        <time>2021-04-04T09:23:00.000Z</time>
      </trkpt>
      <trkpt lat="47.33963" lon="-2.34595">
        <ele>5.4000000953674</ele>
        <time>2021-04-04T09:23:07.000Z</time>
      </trkpt>
      <trkpt lat="47.33929" lon="-2.34594">
        <ele>5.4000000953674</ele>
        <time>2021-04-04T09:23:13.000Z</time>
      </trkpt>
      <trkpt lat="47.3391" lon="-2.34592">
        <ele>5.4000000953674</ele>
        <time>2021-04-04T09:23:17.000Z</time>
      </trkpt>
      <trkpt lat="47.33906" lon="-2.34589">
        <ele>5.4000000953674</ele>
        <time>2021-04-04T09:23:18.000Z</time>
      </trkpt>
      <trkpt lat="47.33902" lon="-2.34588">
        <ele>5.4000000953674</ele>
        <time>2021-04-04T09:23:22.000Z</time>
      </trkpt>
      <trkpt lat="47.339" lon="-2.34591">
        <ele>5.4000000953674</ele>
        <time>2021-04-04T09:23:24.000Z</time>
      </trkpt>
      <trkpt lat="47.33896" lon="-2.34603">
        <ele>5.4000000953674</ele>
        <time>2021-04-04T09:23:29.000Z</time>
      </trkpt>
      <trkpt lat="47.33892" lon="-2.34623">
        <ele>5.4000000953674</ele>
        <time>2021-04-04T09:23:36.000Z</time>
      </trkpt>
      <trkpt lat="47.33888" lon="-2.34638">
        <ele>5.4000000953674</ele>
        <time>2021-04-04T09:23:39.000Z</time>
      </trkpt>
      <trkpt lat="47.33885" lon="-2.34654">
        <ele>5.4000000953674</ele>
        <time>2021-04-04T09:23:41.000Z</time>
      </trkpt>
      <trkpt lat="47.33878" lon="-2.34703">
        <ele>5.4000000953674</ele>
        <time>2021-04-04T09:23:48.000Z</time>
      </trkpt>
      <trkpt lat="47.33877" lon="-2.3473">
        <ele>5.4000000953674</ele>
        <time>2021-04-04T09:23:53.000Z</time>
      </trkpt>
      <trkpt lat="47.33876" lon="-2.34748">
        <ele>5</ele>
        <time>2021-04-04T09:23:56.000Z</time>
      </trkpt>
      <trkpt lat="47.33875" lon="-2.34755">
        <ele>4.4000000953674</ele>
        <time>2021-04-04T09:23:57.000Z</time>
      </trkpt>
      <trkpt lat="47.33874" lon="-2.34762">
        <ele>4</ele>
        <time>2021-04-04T09:23:58.000Z</time>
      </trkpt>
      <trkpt lat="47.33874" lon="-2.34768">
        <ele>3.5999999046326</ele>
        <time>2021-04-04T09:23:59.000Z</time>
      </trkpt>
      <trkpt lat="47.33874" lon="-2.34775">
        <ele>3.2000000476837</ele>
        <time>2021-04-04T09:24:00.000Z</time>
      </trkpt>
      <trkpt lat="47.33873" lon="-2.34788">
        <ele>3.2000000476837</ele>
        <time>2021-04-04T09:24:02.000Z</time>
      </trkpt>
      <trkpt lat="47.3387" lon="-2.348">
        <ele>3.2000000476837</ele>
        <time>2021-04-04T09:24:04.000Z</time>
      </trkpt>
      <trkpt lat="47.33864" lon="-2.34822">
        <ele>3.2000000476837</ele>
        <time>2021-04-04T09:24:09.000Z</time>
      </trkpt>
      <trkpt lat="47.33863" lon="-2.34823">
        <ele>2.7999999523163</ele>
        <time>2021-04-04T09:24:10.000Z</time>
      </trkpt>
      <trkpt lat="47.33862" lon="-2.34825">
        <ele>2.4000000953674</ele>
        <time>2021-04-04T09:24:11.000Z</time>
      </trkpt>
      <trkpt lat="47.33862" lon="-2.34825">
        <ele>2</ele>
        <time>2021-04-04T09:24:12.000Z</time>
      </trkpt>
      <trkpt lat="47.33861" lon="-2.34826">
        <ele>1.6000000238419</ele>
        <time>2021-04-04T09:24:13.000Z</time>
      </trkpt>
      <trkpt lat="47.33861" lon="-2.34828">
        <ele>1.2000000476837</ele>
        <time>2021-04-04T09:24:14.000Z</time>
      </trkpt>
      <trkpt lat="47.33843" lon="-2.34846">
        <ele>1.2000000476837</ele>
        <time>2021-04-04T09:24:38.000Z</time>
      </trkpt>
      <trkpt lat="47.3384" lon="-2.3485">
        <ele>1.2000000476837</ele>
        <time>2021-04-04T09:24:41.000Z</time>
      </trkpt>
      <trkpt lat="47.33839" lon="-2.34851">
        <ele>1.2000000476837</ele>
        <time>2021-04-04T09:24:42.000Z</time>
      </trkpt>
      <trkpt lat="47.33832" lon="-2.3486">
        <ele>1.2000000476837</ele>
        <time>2021-04-04T09:24:46.000Z</time>
      </trkpt>
      <trkpt lat="47.33828" lon="-2.34863">
        <ele>1.2000000476837</ele>
        <time>2021-04-04T09:24:48.000Z</time>
      </trkpt>
      <trkpt lat="47.33821" lon="-2.34869">
        <ele>1.2000000476837</ele>
        <time>2021-04-04T09:24:53.000Z</time>
      </trkpt>
      <trkpt lat="47.33815" lon="-2.34881">
        <ele>1.2000000476837</ele>
        <time>2021-04-04T09:24:58.000Z</time>
      </trkpt>
      <trkpt lat="47.33803" lon="-2.34907">
        <ele>1.2000000476837</ele>
        <time>2021-04-04T09:25:05.000Z</time>
      </trkpt>
      <trkpt lat="47.3379" lon="-2.34925">
        <ele>1.2000000476837</ele>
        <time>2021-04-04T09:25:11.000Z</time>
      </trkpt>
      <trkpt lat="47.33767" lon="-2.34956">
        <ele>1.2000000476837</ele>
        <time>2021-04-04T09:25:19.000Z</time>
      </trkpt>
      <trkpt lat="47.33758" lon="-2.34966">
        <ele>1.6000000238419</ele>
        <time>2021-04-04T09:25:21.000Z</time>
      </trkpt>
      <trkpt lat="47.33753" lon="-2.34969">
        <ele>2</ele>
        <time>2021-04-04T09:25:22.000Z</time>
      </trkpt>
      <trkpt lat="47.33749" lon="-2.34972">
        <ele>2.4000000953674</ele>
        <time>2021-04-04T09:25:23.000Z</time>
      </trkpt>
      <trkpt lat="47.33745" lon="-2.34976">
        <ele>2.7999999523163</ele>
        <time>2021-04-04T09:25:24.000Z</time>
      </trkpt>
      <trkpt lat="47.33741" lon="-2.34979">
        <ele>3.2000000476837</ele>
        <time>2021-04-04T09:25:25.000Z</time>
      </trkpt>
      <trkpt lat="47.33727" lon="-2.34992">
        <ele>3.2000000476837</ele>
        <time>2021-04-04T09:25:29.000Z</time>
      </trkpt>
      <trkpt lat="47.33705" lon="-2.35002">
        <ele>3.2000000476837</ele>
        <time>2021-04-04T09:25:36.000Z</time>
      </trkpt>
      <trkpt lat="47.337" lon="-2.34997">
        <ele>3.2000000476837</ele>
        <time>2021-04-04T09:25:40.000Z</time>
      </trkpt>
      <trkpt lat="47.33698" lon="-2.34992">
        <ele>3.2000000476837</ele>
        <time>2021-04-04T09:25:42.000Z</time>
      </trkpt>
      <trkpt lat="47.33685" lon="-2.34973">
        <ele>3.2000000476837</ele>
        <time>2021-04-04T09:25:48.000Z</time>
      </trkpt>
      <trkpt lat="47.33675" lon="-2.34962">
        <ele>3.2000000476837</ele>
        <time>2021-04-04T09:25:52.000Z</time>
      </trkpt>
      <trkpt lat="47.33672" lon="-2.34961">
        <ele>3.2000000476837</ele>
        <time>2021-04-04T09:25:53.000Z</time>
      </trkpt>
      <trkpt lat="47.33669" lon="-2.34963">
        <ele>3.2000000476837</ele>
        <time>2021-04-04T09:25:54.000Z</time>
      </trkpt>
      <trkpt lat="47.3366" lon="-2.34965">
        <ele>3.2000000476837</ele>
        <time>2021-04-04T09:25:57.000Z</time>
      </trkpt>
      <trkpt lat="47.33648" lon="-2.34968">
        <ele>3.2000000476837</ele>
        <time>2021-04-04T09:26:01.000Z</time>
      </trkpt>
      <trkpt lat="47.33643" lon="-2.34964">
        <ele>3.5999999046326</ele>
        <time>2021-04-04T09:26:03.000Z</time>
      </trkpt>
      <trkpt lat="47.3364" lon="-2.34962">
        <ele>4</ele>
        <time>2021-04-04T09:26:04.000Z</time>
      </trkpt>
      <trkpt lat="47.33638" lon="-2.3496">
        <ele>4.5999999046326</ele>
        <time>2021-04-04T09:26:05.000Z</time>
      </trkpt>
      <trkpt lat="47.33636" lon="-2.34958">
        <ele>5</ele>
        <time>2021-04-04T09:26:06.000Z</time>
      </trkpt>
      <trkpt lat="47.33635" lon="-2.34958">
        <ele>5.4000000953674</ele>
        <time>2021-04-04T09:26:07.000Z</time>
      </trkpt>
      <trkpt lat="47.33633" lon="-2.34957">
        <ele>5.4000000953674</ele>
        <time>2021-04-04T09:26:10.000Z</time>
      </trkpt>
      <trkpt lat="47.33639" lon="-2.34962">
        <ele>5.4000000953674</ele>
        <time>2021-04-04T09:27:31.000Z</time>
      </trkpt>
      <trkpt lat="47.33641" lon="-2.34964">
        <ele>5.4000000953674</ele>
        <time>2021-04-04T09:27:32.000Z</time>
      </trkpt>
      <trkpt lat="47.33655" lon="-2.34962">
        <ele>5.4000000953674</ele>
        <time>2021-04-04T09:27:36.000Z</time>
      </trkpt>
      <trkpt lat="47.33666" lon="-2.34957">
        <ele>5.4000000953674</ele>
        <time>2021-04-04T09:27:40.000Z</time>
      </trkpt>
      <trkpt lat="47.33666" lon="-2.34949">
        <ele>5.4000000953674</ele>
        <time>2021-04-04T09:27:43.000Z</time>
      </trkpt>
      <trkpt lat="47.3366" lon="-2.34942">
        <ele>5.4000000953674</ele>
        <time>2021-04-04T09:27:46.000Z</time>
      </trkpt>
      <trkpt lat="47.33657" lon="-2.34939">
        <ele>5.4000000953674</ele>
        <time>2021-04-04T09:27:47.000Z</time>
      </trkpt>
      <trkpt lat="47.33636" lon="-2.34913">
        <ele>5.4000000953674</ele>
        <time>2021-04-04T09:27:54.000Z</time>
      </trkpt>
      <trkpt lat="47.33621" lon="-2.34893">
        <ele>5.4000000953674</ele>
        <time>2021-04-04T09:27:59.000Z</time>
      </trkpt>
      <trkpt lat="47.33617" lon="-2.34889">
        <ele>5.4000000953674</ele>
        <time>2021-04-04T09:28:00.000Z</time>
      </trkpt>
      <trkpt lat="47.33614" lon="-2.34884">
        <ele>5.4000000953674</ele>
        <time>2021-04-04T09:28:01.000Z</time>
      </trkpt>
      <trkpt lat="47.33604" lon="-2.3487">
        <ele>5.8000001907349</ele>
        <time>2021-04-04T09:28:04.000Z</time>
      </trkpt>
      <trkpt lat="47.336" lon="-2.34865">
        <ele>6.1999998092651</ele>
        <time>2021-04-04T09:28:05.000Z</time>
      </trkpt>
      <trkpt lat="47.33597" lon="-2.34861">
        <ele>6.5999999046326</ele>
        <time>2021-04-04T09:28:06.000Z</time>
      </trkpt>
      <trkpt lat="47.33593" lon="-2.34857">
        <ele>7</ele>
        <time>2021-04-04T09:28:07.000Z</time>
      </trkpt>
      <trkpt lat="47.33591" lon="-2.34852">
        <ele>7.4000000953674</ele>
        <time>2021-04-04T09:28:08.000Z</time>
      </trkpt>
      <trkpt lat="47.33575" lon="-2.34832">
        <ele>7.4000000953674</ele>
        <time>2021-04-04T09:28:13.000Z</time>
      </trkpt>
      <trkpt lat="47.33565" lon="-2.34819">
        <ele>7.4000000953674</ele>
        <time>2021-04-04T09:28:16.000Z</time>
      </trkpt>
      <trkpt lat="47.33555" lon="-2.34807">
        <ele>7.4000000953674</ele>
        <time>2021-04-04T09:28:19.000Z</time>
      </trkpt>
      <trkpt lat="47.33535" lon="-2.34775">
        <ele>7.4000000953674</ele>
        <time>2021-04-04T09:28:26.000Z</time>
      </trkpt>
      <trkpt lat="47.33516" lon="-2.34749">
        <ele>7.4000000953674</ele>
        <time>2021-04-04T09:28:30.000Z</time>
      </trkpt>
      <trkpt lat="47.33513" lon="-2.34742">
        <ele>7.4000000953674</ele>
        <time>2021-04-04T09:28:31.000Z</time>
      </trkpt>
      <trkpt lat="47.33505" lon="-2.3473">
        <ele>7.4000000953674</ele>
        <time>2021-04-04T09:28:33.000Z</time>
      </trkpt>
      <trkpt lat="47.33487" lon="-2.34705">
        <ele>7.4000000953674</ele>
        <time>2021-04-04T09:28:37.000Z</time>
      </trkpt>
      <trkpt lat="47.33455" lon="-2.34654">
        <ele>7.4000000953674</ele>
        <time>2021-04-04T09:28:44.000Z</time>
      </trkpt>
      <trkpt lat="47.33427" lon="-2.34604">
        <ele>7.4000000953674</ele>
        <time>2021-04-04T09:28:51.000Z</time>
      </trkpt>
      <trkpt lat="47.3341" lon="-2.34572">
        <ele>7</ele>
        <time>2021-04-04T09:28:55.000Z</time>
      </trkpt>
      <trkpt lat="47.33406" lon="-2.34565">
        <ele>6.4000000953674</ele>
        <time>2021-04-04T09:28:56.000Z</time>
      </trkpt>
      <trkpt lat="47.33401" lon="-2.34557">
        <ele>6</ele>
        <time>2021-04-04T09:28:57.000Z</time>
      </trkpt>
      <trkpt lat="47.33397" lon="-2.34549">
        <ele>5.5999999046326</ele>
        <time>2021-04-04T09:28:58.000Z</time>
      </trkpt>
      <trkpt lat="47.33393" lon="-2.34542">
        <ele>5</ele>
        <time>2021-04-04T09:28:59.000Z</time>
      </trkpt>
      <trkpt lat="47.33378" lon="-2.34511">
        <ele>4.5999999046326</ele>
        <time>2021-04-04T09:29:03.000Z</time>
      </trkpt>
      <trkpt lat="47.33374" lon="-2.34504">
        <ele>4.1999998092651</ele>
        <time>2021-04-04T09:29:04.000Z</time>
      </trkpt>
      <trkpt lat="47.3337" lon="-2.34496">
        <ele>3.7999999523163</ele>
        <time>2021-04-04T09:29:05.000Z</time>
      </trkpt>
      <trkpt lat="47.33366" lon="-2.34489">
        <ele>3.4000000953674</ele>
        <time>2021-04-04T09:29:06.000Z</time>
      </trkpt>
      <trkpt lat="47.33364" lon="-2.3448">
        <ele>3</ele>
        <time>2021-04-04T09:29:07.000Z</time>
      </trkpt>
      <trkpt lat="47.33363" lon="-2.3447">
        <ele>3</ele>
        <time>2021-04-04T09:29:08.000Z</time>
      </trkpt>
      <trkpt lat="47.33372" lon="-2.34436">
        <ele>3</ele>
        <time>2021-04-04T09:29:12.000Z</time>
      </trkpt>
      <trkpt lat="47.33396" lon="-2.34367">
        <ele>3</ele>
        <time>2021-04-04T09:29:20.000Z</time>
      </trkpt>
      <trkpt lat="47.33417" lon="-2.34302">
        <ele>3</ele>
        <time>2021-04-04T09:29:28.000Z</time>
      </trkpt>
      <trkpt lat="47.33435" lon="-2.34248">
        <ele>3</ele>
        <time>2021-04-04T09:29:35.000Z</time>
      </trkpt>
      <trkpt lat="47.33442" lon="-2.34233">
        <ele>3</ele>
        <time>2021-04-04T09:29:37.000Z</time>
      </trkpt>
      <trkpt lat="47.33456" lon="-2.34211">
        <ele>2.4000000953674</ele>
        <time>2021-04-04T09:29:40.000Z</time>
      </trkpt>
      <trkpt lat="47.3346" lon="-2.34204">
        <ele>2</ele>
        <time>2021-04-04T09:29:41.000Z</time>
      </trkpt>
      <trkpt lat="47.33465" lon="-2.34197">
        <ele>1.6000000238419</ele>
        <time>2021-04-04T09:29:42.000Z</time>
      </trkpt>
      <trkpt lat="47.33471" lon="-2.34191">
        <ele>1.2000000476837</ele>
        <time>2021-04-04T09:29:43.000Z</time>
      </trkpt>
      <trkpt lat="47.33476" lon="-2.34186">
        <ele>0.80000001192093</ele>
        <time>2021-04-04T09:29:44.000Z</time>
      </trkpt>
      <trkpt lat="47.33482" lon="-2.34182">
        <ele>0.80000001192093</ele>
        <time>2021-04-04T09:29:45.000Z</time>
      </trkpt>
      <trkpt lat="47.33522" lon="-2.34152">
        <ele>0.80000001192093</ele>
        <time>2021-04-04T09:29:52.000Z</time>
      </trkpt>
      <trkpt lat="47.3355" lon="-2.34132">
        <ele>0.80000001192093</ele>
        <time>2021-04-04T09:29:57.000Z</time>
      </trkpt>
      <trkpt lat="47.33572" lon="-2.34115">
        <ele>0.80000001192093</ele>
        <time>2021-04-04T09:30:01.000Z</time>
      </trkpt>
      <trkpt lat="47.33612" lon="-2.34085">
        <ele>0.80000001192093</ele>
        <time>2021-04-04T09:30:08.000Z</time>
      </trkpt>
      <trkpt lat="47.33649" lon="-2.34052">
        <ele>0.80000001192093</ele>
        <time>2021-04-04T09:30:15.000Z</time>
      </trkpt>
      <trkpt lat="47.33654" lon="-2.34047">
        <ele>-0.20000000298023</ele>
        <time>2021-04-04T09:30:16.000Z</time>
      </trkpt>
      <trkpt lat="47.33659" lon="-2.34042">
        <ele>-0.60000002384186</ele>
        <time>2021-04-04T09:30:17.000Z</time>
      </trkpt>
      <trkpt lat="47.33664" lon="-2.34037">
        <ele>-1</ele>
        <time>2021-04-04T09:30:18.000Z</time>
      </trkpt>
      <trkpt lat="47.3367" lon="-2.34032">
        <ele>-1.3999999761581</ele>
        <time>2021-04-04T09:30:19.000Z</time>
      </trkpt>
      <trkpt lat="47.33686" lon="-2.34019">
        <ele>-1.3999999761581</ele>
        <time>2021-04-04T09:30:22.000Z</time>
      </trkpt>
      <trkpt lat="47.33718" lon="-2.3399">
        <ele>-1.3999999761581</ele>
        <time>2021-04-04T09:30:28.000Z</time>
      </trkpt>
      <trkpt lat="47.33763" lon="-2.33953">
        <ele>-1.3999999761581</ele>
        <time>2021-04-04T09:30:36.000Z</time>
      </trkpt>
      <trkpt lat="47.33804" lon="-2.33923">
        <ele>-1.3999999761581</ele>
        <time>2021-04-04T09:30:43.000Z</time>
      </trkpt>
      <trkpt lat="47.33832" lon="-2.33902">
        <ele>-1.7999999523163</ele>
        <time>2021-04-04T09:30:48.000Z</time>
      </trkpt>
      <trkpt lat="47.33837" lon="-2.33899">
        <ele>-2.2000000476837</ele>
        <time>2021-04-04T09:30:49.000Z</time>
      </trkpt>
      <trkpt lat="47.33843" lon="-2.33895">
        <ele>-2.5999999046326</ele>
        <time>2021-04-04T09:30:50.000Z</time>
      </trkpt>
      <trkpt lat="47.33848" lon="-2.33891">
        <ele>-3</ele>
        <time>2021-04-04T09:30:51.000Z</time>
      </trkpt>
      <trkpt lat="47.33853" lon="-2.33888">
        <ele>-3.4000000953674</ele>
        <time>2021-04-04T09:30:52.000Z</time>
      </trkpt>
      <trkpt lat="47.33866" lon="-2.3388">
        <ele>-3.4000000953674</ele>
        <time>2021-04-04T09:30:55.000Z</time>
      </trkpt>
      <trkpt lat="47.3388" lon="-2.33863">
        <ele>-3.4000000953674</ele>
        <time>2021-04-04T09:31:01.000Z</time>
      </trkpt>
      <trkpt lat="47.33889" lon="-2.33849">
        <ele>-3.4000000953674</ele>
        <time>2021-04-04T09:31:04.000Z</time>
      </trkpt>
      <trkpt lat="47.33898" lon="-2.33831">
        <ele>-3.4000000953674</ele>
        <time>2021-04-04T09:31:07.000Z</time>
      </trkpt>
      <trkpt lat="47.33912" lon="-2.33801">
        <ele>-3.7999999523163</ele>
        <time>2021-04-04T09:31:11.000Z</time>
      </trkpt>
      <trkpt lat="47.33916" lon="-2.33794">
        <ele>-4.1999998092651</ele>
        <time>2021-04-04T09:31:12.000Z</time>
      </trkpt>
      <trkpt lat="47.3392" lon="-2.33786">
        <ele>-4.5999999046326</ele>
        <time>2021-04-04T09:31:13.000Z</time>
      </trkpt>
      <trkpt lat="47.33924" lon="-2.33778">
        <ele>-5</ele>
        <time>2021-04-04T09:31:14.000Z</time>
      </trkpt>
      <trkpt lat="47.33928" lon="-2.33769">
        <ele>-5.4000000953674</ele>
        <time>2021-04-04T09:31:15.000Z</time>
      </trkpt>
      <trkpt lat="47.33944" lon="-2.33738">
        <ele>-5.4000000953674</ele>
        <time>2021-04-04T09:31:19.000Z</time>
      </trkpt>
      <trkpt lat="47.33953" lon="-2.33724">
        <ele>-5.4000000953674</ele>
        <time>2021-04-04T09:31:21.000Z</time>
      </trkpt>
      <trkpt lat="47.33966" lon="-2.33701">
        <ele>-5.4000000953674</ele>
        <time>2021-04-04T09:31:24.000Z</time>
      </trkpt>
      <trkpt lat="47.33994" lon="-2.33653">
        <ele>-5.4000000953674</ele>
        <time>2021-04-04T09:31:30.000Z</time>
      </trkpt>
      <trkpt lat="47.34019" lon="-2.33609">
        <ele>-5.4000000953674</ele>
        <time>2021-04-04T09:31:36.000Z</time>
      </trkpt>
      <trkpt lat="47.34027" lon="-2.33594">
        <ele>-5.8000001907349</ele>
        <time>2021-04-04T09:31:38.000Z</time>
      </trkpt>
      <trkpt lat="47.34031" lon="-2.33586">
        <ele>-6.4000000953674</ele>
        <time>2021-04-04T09:31:39.000Z</time>
      </trkpt>
      <trkpt lat="47.34035" lon="-2.33579">
        <ele>-6.8000001907349</ele>
        <time>2021-04-04T09:31:40.000Z</time>
      </trkpt>
      <trkpt lat="47.34039" lon="-2.33571">
        <ele>-7.1999998092651</ele>
        <time>2021-04-04T09:31:41.000Z</time>
      </trkpt>
      <trkpt lat="47.34043" lon="-2.33564">
        <ele>-7.5999999046326</ele>
        <time>2021-04-04T09:31:42.000Z</time>
      </trkpt>
      <trkpt lat="47.34053" lon="-2.33548">
        <ele>-7.5999999046326</ele>
        <time>2021-04-04T09:31:44.000Z</time>
      </trkpt>
      <trkpt lat="47.34084" lon="-2.33499">
        <ele>-7.5999999046326</ele>
        <time>2021-04-04T09:31:51.000Z</time>
      </trkpt>
      <trkpt lat="47.34094" lon="-2.33485">
        <ele>-8.3999996185303</ele>
        <time>2021-04-04T09:31:54.000Z</time>
      </trkpt>
      <trkpt lat="47.34097" lon="-2.33481">
        <ele>-9</ele>
        <time>2021-04-04T09:31:55.000Z</time>
      </trkpt>
      <trkpt lat="47.34099" lon="-2.33477">
        <ele>-9.3999996185303</ele>
        <time>2021-04-04T09:31:56.000Z</time>
      </trkpt>
      <trkpt lat="47.34102" lon="-2.33474">
        <ele>-9.8000001907349</ele>
        <time>2021-04-04T09:31:57.000Z</time>
      </trkpt>
      <trkpt lat="47.34108" lon="-2.33465">
        <ele>-9.8000001907349</ele>
        <time>2021-04-04T09:32:00.000Z</time>
      </trkpt>
      <trkpt lat="47.34116" lon="-2.33455">
        <ele>-9.8000001907349</ele>
        <time>2021-04-04T09:32:06.000Z</time>
      </trkpt>
      <trkpt lat="47.34117" lon="-2.33454">
        <ele>-9.8000001907349</ele>
        <time>2021-04-04T09:32:07.000Z</time>
      </trkpt>
      <trkpt lat="47.34117" lon="-2.33459">
        <ele>-9.8000001907349</ele>
        <time>2021-04-04T09:34:33.000Z</time>
      </trkpt>
      <trkpt lat="47.34117" lon="-2.33457">
        <ele>-9.8000001907349</ele>
        <time>2021-04-04T09:34:34.000Z</time>
      </trkpt>
      <trkpt lat="47.34125" lon="-2.33442">
        <ele>-9.8000001907349</ele>
        <time>2021-04-04T09:34:38.000Z</time>
      </trkpt>
      <trkpt lat="47.34129" lon="-2.33436">
        <ele>-9.8000001907349</ele>
        <time>2021-04-04T09:34:39.000Z</time>
      </trkpt>
      <trkpt lat="47.34138" lon="-2.3342">
        <ele>-9.8000001907349</ele>
        <time>2021-04-04T09:34:42.000Z</time>
      </trkpt>
      <trkpt lat="47.34159" lon="-2.33381">
        <ele>-9.8000001907349</ele>
        <time>2021-04-04T09:34:48.000Z</time>
      </trkpt>
      <trkpt lat="47.34162" lon="-2.33373">
        <ele>-9.8000001907349</ele>
        <time>2021-04-04T09:34:49.000Z</time>
      </trkpt>
      <trkpt lat="47.34179" lon="-2.33322">
        <ele>-9.8000001907349</ele>
        <time>2021-04-04T09:34:55.000Z</time>
      </trkpt>
      <trkpt lat="47.34201" lon="-2.3325">
        <ele>-10.199999809265</ele>
        <time>2021-04-04T09:35:03.000Z</time>
      </trkpt>
      <trkpt lat="47.34204" lon="-2.33241">
        <ele>-10.60000038147</ele>
        <time>2021-04-04T09:35:04.000Z</time>
      </trkpt>
      <trkpt lat="47.34207" lon="-2.33231">
        <ele>-11</ele>
        <time>2021-04-04T09:35:05.000Z</time>
      </trkpt>
      <trkpt lat="47.3421" lon="-2.33222">
        <ele>-11.39999961853</ele>
        <time>2021-04-04T09:35:06.000Z</time>
      </trkpt>
      <trkpt lat="47.34212" lon="-2.33213">
        <ele>-11.800000190735</ele>
        <time>2021-04-04T09:35:07.000Z</time>
      </trkpt>
      <trkpt lat="47.34215" lon="-2.33204">
        <ele>-11.800000190735</ele>
        <time>2021-04-04T09:35:08.000Z</time>
      </trkpt>
      <trkpt lat="47.34233" lon="-2.3315">
        <ele>-11.800000190735</ele>
        <time>2021-04-04T09:35:14.000Z</time>
      </trkpt>
      <trkpt lat="47.34245" lon="-2.33105">
        <ele>-11.800000190735</ele>
        <time>2021-04-04T09:35:19.000Z</time>
      </trkpt>
      <trkpt lat="47.34253" lon="-2.33072">
        <ele>-11.800000190735</ele>
        <time>2021-04-04T09:35:23.000Z</time>
      </trkpt>
      <trkpt lat="47.34256" lon="-2.33067">
        <ele>-11.800000190735</ele>
        <time>2021-04-04T09:35:24.000Z</time>
      </trkpt>
      <trkpt lat="47.34262" lon="-2.33057">
        <ele>-12.199999809265</ele>
        <time>2021-04-04T09:35:26.000Z</time>
      </trkpt>
      <trkpt lat="47.34266" lon="-2.33054">
        <ele>-12.800000190735</ele>
        <time>2021-04-04T09:35:27.000Z</time>
      </trkpt>
      <trkpt lat="47.34271" lon="-2.33051">
        <ele>-13.199999809265</ele>
        <time>2021-04-04T09:35:28.000Z</time>
      </trkpt>
      <trkpt lat="47.34276" lon="-2.33047">
        <ele>-13.60000038147</ele>
        <time>2021-04-04T09:35:29.000Z</time>
      </trkpt>
      <trkpt lat="47.34281" lon="-2.33045">
        <ele>-14</ele>
        <time>2021-04-04T09:35:30.000Z</time>
      </trkpt>
      <trkpt lat="47.34302" lon="-2.33042">
        <ele>-14</ele>
        <time>2021-04-04T09:35:33.000Z</time>
      </trkpt>
      <trkpt lat="47.34308" lon="-2.33041">
        <ele>-14</ele>
        <time>2021-04-04T09:35:34.000Z</time>
      </trkpt>
      <trkpt lat="47.34323" lon="-2.33039">
        <ele>-14.39999961853</ele>
        <time>2021-04-04T09:35:38.000Z</time>
      </trkpt>
      <trkpt lat="47.34325" lon="-2.33038">
        <ele>-14.800000190735</ele>
        <time>2021-04-04T09:35:39.000Z</time>
      </trkpt>
      <trkpt lat="47.34327" lon="-2.33038">
        <ele>-15.39999961853</ele>
        <time>2021-04-04T09:35:40.000Z</time>
      </trkpt>
      <trkpt lat="47.34329" lon="-2.33037">
        <ele>-15.800000190735</ele>
        <time>2021-04-04T09:35:41.000Z</time>
      </trkpt>
      <trkpt lat="47.3433" lon="-2.33037">
        <ele>-16.200000762939</ele>
        <time>2021-04-04T09:35:42.000Z</time>
      </trkpt>
      <trkpt lat="47.34332" lon="-2.33036">
        <ele>-16.200000762939</ele>
        <time>2021-04-04T09:35:43.000Z</time>
      </trkpt>
      <trkpt lat="47.34343" lon="-2.33034">
        <ele>-16.200000762939</ele>
        <time>2021-04-04T09:35:49.000Z</time>
      </trkpt>
      <trkpt lat="47.34345" lon="-2.33034">
        <ele>-16.200000762939</ele>
        <time>2021-04-04T09:35:50.000Z</time>
      </trkpt>
      <trkpt lat="47.34348" lon="-2.33037">
        <ele>-16.200000762939</ele>
        <time>2021-04-04T09:36:34.000Z</time>
      </trkpt>
      <trkpt lat="47.34345" lon="-2.33039">
        <ele>-16.200000762939</ele>
        <time>2021-04-04T09:36:36.000Z</time>
      </trkpt>
      <trkpt lat="47.34341" lon="-2.33044">
        <ele>-16.200000762939</ele>
        <time>2021-04-04T09:36:39.000Z</time>
      </trkpt>
      <trkpt lat="47.34336" lon="-2.33048">
        <ele>-16.200000762939</ele>
        <time>2021-04-04T09:36:41.000Z</time>
      </trkpt>
      <trkpt lat="47.34325" lon="-2.33052">
        <ele>-16.200000762939</ele>
        <time>2021-04-04T09:36:45.000Z</time>
      </trkpt>
      <trkpt lat="47.34301" lon="-2.33059">
        <ele>-16.200000762939</ele>
        <time>2021-04-04T09:36:51.000Z</time>
      </trkpt>
      <trkpt lat="47.34286" lon="-2.33063">
        <ele>-16.200000762939</ele>
        <time>2021-04-04T09:36:56.000Z</time>
      </trkpt>
      <trkpt lat="47.3427" lon="-2.33064">
        <ele>-16.200000762939</ele>
        <time>2021-04-04T09:37:02.000Z</time>
      </trkpt>
      <trkpt lat="47.34269" lon="-2.33056">
        <ele>-16.200000762939</ele>
        <time>2021-04-04T09:37:05.000Z</time>
      </trkpt>
      <trkpt lat="47.3427" lon="-2.33052">
        <ele>-16.200000762939</ele>
        <time>2021-04-04T09:37:06.000Z</time>
      </trkpt>
      <trkpt lat="47.34274" lon="-2.33035">
        <ele>-16.200000762939</ele>
        <time>2021-04-04T09:37:10.000Z</time>
      </trkpt>
      <trkpt lat="47.34273" lon="-2.3302">
        <ele>-16.200000762939</ele>
        <time>2021-04-04T09:37:14.000Z</time>
      </trkpt>
      <trkpt lat="47.34268" lon="-2.32997">
        <ele>-16.200000762939</ele>
        <time>2021-04-04T09:37:21.000Z</time>
      </trkpt>
      <trkpt lat="47.34264" lon="-2.32991">
        <ele>-16.200000762939</ele>
        <time>2021-04-04T09:37:27.000Z</time>
      </trkpt>
      <trkpt lat="47.34247" lon="-2.32949">
        <ele>-16.200000762939</ele>
        <time>2021-04-04T09:38:14.000Z</time>
      </trkpt>
      <trkpt lat="47.34245" lon="-2.32943">
        <ele>-16.200000762939</ele>
        <time>2021-04-04T09:38:17.000Z</time>
      </trkpt>
      <trkpt lat="47.3424" lon="-2.32933">
        <ele>-16.200000762939</ele>
        <time>2021-04-04T09:38:23.000Z</time>
      </trkpt>
      <trkpt lat="47.34236" lon="-2.32923">
        <ele>-16.200000762939</ele>
        <time>2021-04-04T09:38:30.000Z</time>
      </trkpt>
      <trkpt lat="47.34236" lon="-2.32922">
        <ele>-15.800000190735</ele>
        <time>2021-04-04T09:38:31.000Z</time>
      </trkpt>
      <trkpt lat="47.34235" lon="-2.32921">
        <ele>-15.39999961853</ele>
        <time>2021-04-04T09:38:32.000Z</time>
      </trkpt>
      <trkpt lat="47.3423" lon="-2.32914">
        <ele>-14.199999809265</ele>
        <time>2021-04-04T09:38:37.000Z</time>
      </trkpt>
      <trkpt lat="47.34228" lon="-2.3291">
        <ele>-14.199999809265</ele>
        <time>2021-04-04T09:38:39.000Z</time>
      </trkpt>
      <trkpt lat="47.34222" lon="-2.329">
        <ele>-14.199999809265</ele>
        <time>2021-04-04T09:38:44.000Z</time>
      </trkpt>
      <trkpt lat="47.34218" lon="-2.32889">
        <ele>-14.199999809265</ele>
        <time>2021-04-04T09:38:47.000Z</time>
      </trkpt>
      <trkpt lat="47.34213" lon="-2.32881">
        <ele>-13.800000190735</ele>
        <time>2021-04-04T09:38:49.000Z</time>
      </trkpt>
      <trkpt lat="47.34211" lon="-2.32877">
        <ele>-13.39999961853</ele>
        <time>2021-04-04T09:38:50.000Z</time>
      </trkpt>
      <trkpt lat="47.3421" lon="-2.32874">
        <ele>-12.800000190735</ele>
        <time>2021-04-04T09:38:51.000Z</time>
      </trkpt>
      <trkpt lat="47.34207" lon="-2.3287">
        <ele>-12.39999961853</ele>
        <time>2021-04-04T09:38:52.000Z</time>
      </trkpt>
      <trkpt lat="47.34205" lon="-2.32866">
        <ele>-12</ele>
        <time>2021-04-04T09:38:53.000Z</time>
      </trkpt>
      <trkpt lat="47.342" lon="-2.32859">
        <ele>-12</ele>
        <time>2021-04-04T09:38:56.000Z</time>
      </trkpt>
      <trkpt lat="47.34189" lon="-2.32839">
        <ele>-12</ele>
        <time>2021-04-04T09:39:03.000Z</time>
      </trkpt>
      <trkpt lat="47.34188" lon="-2.32835">
        <ele>-11.60000038147</ele>
        <time>2021-04-04T09:39:04.000Z</time>
      </trkpt>
      <trkpt lat="47.34186" lon="-2.32831">
        <ele>-11.199999809265</ele>
        <time>2021-04-04T09:39:05.000Z</time>
      </trkpt>
      <trkpt lat="47.34184" lon="-2.32827">
        <ele>-10.800000190735</ele>
        <time>2021-04-04T09:39:06.000Z</time>
      </trkpt>
      <trkpt lat="47.34181" lon="-2.32823">
        <ele>-10.39999961853</ele>
        <time>2021-04-04T09:39:07.000Z</time>
      </trkpt>
      <trkpt lat="47.34179" lon="-2.32818">
        <ele>-10</ele>
        <time>2021-04-04T09:39:08.000Z</time>
      </trkpt>
      <trkpt lat="47.34178" lon="-2.32814">
        <ele>-10</ele>
        <time>2021-04-04T09:39:09.000Z</time>
      </trkpt>
      <trkpt lat="47.34172" lon="-2.32801">
        <ele>-10</ele>
        <time>2021-04-04T09:39:14.000Z</time>
      </trkpt>
      <trkpt lat="47.3417" lon="-2.32795">
        <ele>-10</ele>
        <time>2021-04-04T09:39:17.000Z</time>
      </trkpt>
      <trkpt lat="47.34169" lon="-2.32785">
        <ele>-10</ele>
        <time>2021-04-04T09:39:20.000Z</time>
      </trkpt>
      <trkpt lat="47.34165" lon="-2.3277">
        <ele>-10</ele>
        <time>2021-04-04T09:39:25.000Z</time>
      </trkpt>
      <trkpt lat="47.34164" lon="-2.32766">
        <ele>-10</ele>
        <time>2021-04-04T09:39:26.000Z</time>
      </trkpt>
      <trkpt lat="47.34162" lon="-2.3275">
        <ele>-10</ele>
        <time>2021-04-04T09:39:30.000Z</time>
      </trkpt>
      <trkpt lat="47.34161" lon="-2.32746">
        <ele>-9.6000003814697</ele>
        <time>2021-04-04T09:39:31.000Z</time>
      </trkpt>
      <trkpt lat="47.34161" lon="-2.32742">
        <ele>-9.1999998092651</ele>
        <time>2021-04-04T09:39:32.000Z</time>
      </trkpt>
      <trkpt lat="47.34161" lon="-2.32738">
        <ele>-8.8000001907349</ele>
        <time>2021-04-04T09:39:33.000Z</time>
      </trkpt>
      <trkpt lat="47.34161" lon="-2.32733">
        <ele>-8.3999996185303</ele>
        <time>2021-04-04T09:39:34.000Z</time>
      </trkpt>
      <trkpt lat="47.34162" lon="-2.32729">
        <ele>-8</ele>
        <time>2021-04-04T09:39:35.000Z</time>
      </trkpt>
      <trkpt lat="47.34162" lon="-2.32724">
        <ele>-8</ele>
        <time>2021-04-04T09:39:36.000Z</time>
      </trkpt>
      <trkpt lat="47.3416" lon="-2.32689">
        <ele>-8</ele>
        <time>2021-04-04T09:39:42.000Z</time>
      </trkpt>
      <trkpt lat="47.34155" lon="-2.32641">
        <ele>-8</ele>
        <time>2021-04-04T09:39:50.000Z</time>
      </trkpt>
      <trkpt lat="47.34152" lon="-2.32594">
        <ele>-8</ele>
        <time>2021-04-04T09:39:58.000Z</time>
      </trkpt>
      <trkpt lat="47.34152" lon="-2.32584">
        <ele>-8</ele>
        <time>2021-04-04T09:40:01.000Z</time>
      </trkpt>
      <trkpt lat="47.34153" lon="-2.32581">
        <ele>-8</ele>
        <time>2021-04-04T09:40:02.000Z</time>
      </trkpt>
      <trkpt lat="47.34157" lon="-2.32562">
        <ele>-8</ele>
        <time>2021-04-04T09:40:07.000Z</time>
      </trkpt>
      <trkpt lat="47.34157" lon="-2.32551">
        <ele>-8</ele>
        <time>2021-04-04T09:40:09.000Z</time>
      </trkpt>
      <trkpt lat="47.34155" lon="-2.32532">
        <ele>-8</ele>
        <time>2021-04-04T09:40:12.000Z</time>
      </trkpt>
      <trkpt lat="47.34148" lon="-2.32479">
        <ele>-8</ele>
        <time>2021-04-04T09:40:19.000Z</time>
      </trkpt>
      <trkpt lat="47.34138" lon="-2.32438">
        <ele>-8</ele>
        <time>2021-04-04T09:40:25.000Z</time>
      </trkpt>
      <trkpt lat="47.34125" lon="-2.32396">
        <ele>-8</ele>
        <time>2021-04-04T09:40:31.000Z</time>
      </trkpt>
      <trkpt lat="47.3411" lon="-2.32343">
        <ele>-8</ele>
        <time>2021-04-04T09:40:38.000Z</time>
      </trkpt>
      <trkpt lat="47.34094" lon="-2.32284">
        <ele>-8</ele>
        <time>2021-04-04T09:40:44.000Z</time>
      </trkpt>
      <trkpt lat="47.34081" lon="-2.32243">
        <ele>-8</ele>
        <time>2021-04-04T09:40:48.000Z</time>
      </trkpt>
      <trkpt lat="47.34076" lon="-2.32234">
        <ele>-8</ele>
        <time>2021-04-04T09:40:49.000Z</time>
      </trkpt>
      <trkpt lat="47.34063" lon="-2.32221">
        <ele>-8.3999996185303</ele>
        <time>2021-04-04T09:40:51.000Z</time>
      </trkpt>
      <trkpt lat="47.34056" lon="-2.32218">
        <ele>-8.8000001907349</ele>
        <time>2021-04-04T09:40:52.000Z</time>
      </trkpt>
      <trkpt lat="47.34046" lon="-2.32218">
        <ele>-9.3999996185303</ele>
        <time>2021-04-04T09:40:53.000Z</time>
      </trkpt>
      <trkpt lat="47.34038" lon="-2.32218">
        <ele>-9.8000001907349</ele>
        <time>2021-04-04T09:40:54.000Z</time>
      </trkpt>
      <trkpt lat="47.3403" lon="-2.32218">
        <ele>-10.199999809265</ele>
        <time>2021-04-04T09:40:55.000Z</time>
      </trkpt>
      <trkpt lat="47.33981" lon="-2.32218">
        <ele>-10.60000038147</ele>
        <time>2021-04-04T09:41:01.000Z</time>
      </trkpt>
      <trkpt lat="47.33973" lon="-2.32219">
        <ele>-11</ele>
        <time>2021-04-04T09:41:02.000Z</time>
      </trkpt>
      <trkpt lat="47.33965" lon="-2.32218">
        <ele>-11.39999961853</ele>
        <time>2021-04-04T09:41:03.000Z</time>
      </trkpt>
      <trkpt lat="47.33958" lon="-2.32216">
        <ele>-11.800000190735</ele>
        <time>2021-04-04T09:41:04.000Z</time>
      </trkpt>
      <trkpt lat="47.33951" lon="-2.32211">
        <ele>-12.199999809265</ele>
        <time>2021-04-04T09:41:05.000Z</time>
      </trkpt>
      <trkpt lat="47.33937" lon="-2.32202">
        <ele>-12.199999809265</ele>
        <time>2021-04-04T09:41:07.000Z</time>
      </trkpt>
      <trkpt lat="47.3393" lon="-2.32198">
        <ele>-12.199999809265</ele>
        <time>2021-04-04T09:41:08.000Z</time>
      </trkpt>
      <trkpt lat="47.33924" lon="-2.32196">
        <ele>-12.199999809265</ele>
        <time>2021-04-04T09:41:09.000Z</time>
      </trkpt>
      <trkpt lat="47.33897" lon="-2.32198">
        <ele>-12.199999809265</ele>
        <time>2021-04-04T09:41:13.000Z</time>
      </trkpt>
      <trkpt lat="47.33861" lon="-2.32194">
        <ele>-12.199999809265</ele>
        <time>2021-04-04T09:41:18.000Z</time>
      </trkpt>
      <trkpt lat="47.33828" lon="-2.32197">
        <ele>-12.199999809265</ele>
        <time>2021-04-04T09:41:23.000Z</time>
      </trkpt>
      <trkpt lat="47.33776" lon="-2.32205">
        <ele>-12.199999809265</ele>
        <time>2021-04-04T09:41:31.000Z</time>
      </trkpt>
      <trkpt lat="47.33757" lon="-2.32211">
        <ele>-12.199999809265</ele>
        <time>2021-04-04T09:41:34.000Z</time>
      </trkpt>
      <trkpt lat="47.33746" lon="-2.32217">
        <ele>-12.199999809265</ele>
        <time>2021-04-04T09:41:36.000Z</time>
      </trkpt>
      <trkpt lat="47.33711" lon="-2.32239">
        <ele>-12.199999809265</ele>
        <time>2021-04-04T09:41:42.000Z</time>
      </trkpt>
      <trkpt lat="47.337" lon="-2.32248">
        <ele>-12.199999809265</ele>
        <time>2021-04-04T09:41:44.000Z</time>
      </trkpt>
      <trkpt lat="47.33676" lon="-2.32265">
        <ele>-12.199999809265</ele>
        <time>2021-04-04T09:41:48.000Z</time>
      </trkpt>
      <trkpt lat="47.33644" lon="-2.32279">
        <ele>-12.199999809265</ele>
        <time>2021-04-04T09:41:53.000Z</time>
      </trkpt>
      <trkpt lat="47.33639" lon="-2.32281">
        <ele>-12.199999809265</ele>
        <time>2021-04-04T09:41:54.000Z</time>
      </trkpt>
      <trkpt lat="47.33633" lon="-2.32283">
        <ele>-12.199999809265</ele>
        <time>2021-04-04T09:41:55.000Z</time>
      </trkpt>
      <trkpt lat="47.33608" lon="-2.32287">
        <ele>-12.199999809265</ele>
        <time>2021-04-04T09:41:59.000Z</time>
      </trkpt>
      <trkpt lat="47.33569" lon="-2.32295">
        <ele>-12.199999809265</ele>
        <time>2021-04-04T09:42:05.000Z</time>
      </trkpt>
      <trkpt lat="47.3355" lon="-2.32302">
        <ele>-12.199999809265</ele>
        <time>2021-04-04T09:42:08.000Z</time>
      </trkpt>
      <trkpt lat="47.3353" lon="-2.32303">
        <ele>-12.199999809265</ele>
        <time>2021-04-04T09:42:11.000Z</time>
      </trkpt>
      <trkpt lat="47.33515" lon="-2.32306">
        <ele>-12.199999809265</ele>
        <time>2021-04-04T09:42:13.000Z</time>
      </trkpt>
      <trkpt lat="47.335" lon="-2.32313">
        <ele>-12.199999809265</ele>
        <time>2021-04-04T09:42:15.000Z</time>
      </trkpt>
      <trkpt lat="47.33492" lon="-2.32317">
        <ele>-12.60000038147</ele>
        <time>2021-04-04T09:42:16.000Z</time>
      </trkpt>
      <trkpt lat="47.33485" lon="-2.32322">
        <ele>-13</ele>
        <time>2021-04-04T09:42:17.000Z</time>
      </trkpt>
      <trkpt lat="47.33477" lon="-2.32326">
        <ele>-13.60000038147</ele>
        <time>2021-04-04T09:42:18.000Z</time>
      </trkpt>
      <trkpt lat="47.33469" lon="-2.3233">
        <ele>-14</ele>
        <time>2021-04-04T09:42:19.000Z</time>
      </trkpt>
      <trkpt lat="47.33462" lon="-2.32334">
        <ele>-14.39999961853</ele>
        <time>2021-04-04T09:42:20.000Z</time>
      </trkpt>
      <trkpt lat="47.33448" lon="-2.32341">
        <ele>-14.39999961853</ele>
        <time>2021-04-04T09:42:22.000Z</time>
      </trkpt>
      <trkpt lat="47.33436" lon="-2.32351">
        <ele>-14.39999961853</ele>
        <time>2021-04-04T09:42:24.000Z</time>
      </trkpt>
      <trkpt lat="47.33412" lon="-2.3237">
        <ele>-14.39999961853</ele>
        <time>2021-04-04T09:42:29.000Z</time>
      </trkpt>
      <trkpt lat="47.33371" lon="-2.32405">
        <ele>-14.39999961853</ele>
        <time>2021-04-04T09:42:36.000Z</time>
      </trkpt>
      <trkpt lat="47.3335" lon="-2.32426">
        <ele>-14.39999961853</ele>
        <time>2021-04-04T09:42:40.000Z</time>
      </trkpt>
      <trkpt lat="47.33342" lon="-2.3244">
        <ele>-14.39999961853</ele>
        <time>2021-04-04T09:42:42.000Z</time>
      </trkpt>
      <trkpt lat="47.33333" lon="-2.32451">
        <ele>-14.39999961853</ele>
        <time>2021-04-04T09:42:44.000Z</time>
      </trkpt>
      <trkpt lat="47.33323" lon="-2.32457">
        <ele>-14</ele>
        <time>2021-04-04T09:42:46.000Z</time>
      </trkpt>
      <trkpt lat="47.33318" lon="-2.32459">
        <ele>-13.60000038147</ele>
        <time>2021-04-04T09:42:47.000Z</time>
      </trkpt>
      <trkpt lat="47.33313" lon="-2.32462">
        <ele>-13.199999809265</ele>
        <time>2021-04-04T09:42:48.000Z</time>
      </trkpt>
      <trkpt lat="47.33307" lon="-2.32464">
        <ele>-12.800000190735</ele>
        <time>2021-04-04T09:42:49.000Z</time>
      </trkpt>
      <trkpt lat="47.33301" lon="-2.32466">
        <ele>-12.39999961853</ele>
        <time>2021-04-04T09:42:50.000Z</time>
      </trkpt>
      <trkpt lat="47.33289" lon="-2.32472">
        <ele>-12.39999961853</ele>
        <time>2021-04-04T09:42:52.000Z</time>
      </trkpt>
      <trkpt lat="47.33261" lon="-2.32485">
        <ele>-12.39999961853</ele>
        <time>2021-04-04T09:42:57.000Z</time>
      </trkpt>
      <trkpt lat="47.3325" lon="-2.32491">
        <ele>-12.39999961853</ele>
        <time>2021-04-04T09:42:59.000Z</time>
      </trkpt>
      <trkpt lat="47.33212" lon="-2.32507">
        <ele>-12.39999961853</ele>
        <time>2021-04-04T09:43:05.000Z</time>
      </trkpt>
      <trkpt lat="47.33167" lon="-2.32526">
        <ele>-12.39999961853</ele>
        <time>2021-04-04T09:43:12.000Z</time>
      </trkpt>
      <trkpt lat="47.3313" lon="-2.32555">
        <ele>-12.39999961853</ele>
        <time>2021-04-04T09:43:18.000Z</time>
      </trkpt>
      <trkpt lat="47.3308" lon="-2.32597">
        <ele>-12.39999961853</ele>
        <time>2021-04-04T09:43:26.000Z</time>
      </trkpt>
      <trkpt lat="47.33041" lon="-2.32628">
        <ele>-12.39999961853</ele>
        <time>2021-04-04T09:43:32.000Z</time>
      </trkpt>
      <trkpt lat="47.33033" lon="-2.32633">
        <ele>-12.800000190735</ele>
        <time>2021-04-04T09:43:33.000Z</time>
      </trkpt>
      <trkpt lat="47.33026" lon="-2.32636">
        <ele>-13.199999809265</ele>
        <time>2021-04-04T09:43:34.000Z</time>
      </trkpt>
      <trkpt lat="47.33019" lon="-2.32636">
        <ele>-13.800000190735</ele>
        <time>2021-04-04T09:43:35.000Z</time>
      </trkpt>
      <trkpt lat="47.33012" lon="-2.32634">
        <ele>-14.199999809265</ele>
        <time>2021-04-04T09:43:36.000Z</time>
      </trkpt>
      <trkpt lat="47.33005" lon="-2.32629">
        <ele>-14.60000038147</ele>
        <time>2021-04-04T09:43:37.000Z</time>
      </trkpt>
      <trkpt lat="47.32999" lon="-2.32625">
        <ele>-14.60000038147</ele>
        <time>2021-04-04T09:43:38.000Z</time>
      </trkpt>
      <trkpt lat="47.32991" lon="-2.32625">
        <ele>-14.60000038147</ele>
        <time>2021-04-04T09:43:39.000Z</time>
      </trkpt>
      <trkpt lat="47.32972" lon="-2.32635">
        <ele>-14.60000038147</ele>
        <time>2021-04-04T09:43:42.000Z</time>
      </trkpt>
      <trkpt lat="47.32967" lon="-2.32639">
        <ele>-14.60000038147</ele>
        <time>2021-04-04T09:43:43.000Z</time>
      </trkpt>
      <trkpt lat="47.32961" lon="-2.32641">
        <ele>-14.60000038147</ele>
        <time>2021-04-04T09:43:44.000Z</time>
      </trkpt>
      <trkpt lat="47.32949" lon="-2.32645">
        <ele>-14.60000038147</ele>
        <time>2021-04-04T09:43:46.000Z</time>
      </trkpt>
      <trkpt lat="47.3293" lon="-2.32645">
        <ele>-14.60000038147</ele>
        <time>2021-04-04T09:43:49.000Z</time>
      </trkpt>
      <trkpt lat="47.32919" lon="-2.32635">
        <ele>-14.60000038147</ele>
        <time>2021-04-04T09:43:51.000Z</time>
      </trkpt>
      <trkpt lat="47.32912" lon="-2.3261">
        <ele>-14.60000038147</ele>
        <time>2021-04-04T09:43:54.000Z</time>
      </trkpt>
      <trkpt lat="47.32913" lon="-2.32594">
        <ele>-14.60000038147</ele>
        <time>2021-04-04T09:43:56.000Z</time>
      </trkpt>
      <trkpt lat="47.32914" lon="-2.3257">
        <ele>-14.199999809265</ele>
        <time>2021-04-04T09:43:59.000Z</time>
      </trkpt>
      <trkpt lat="47.32915" lon="-2.32563">
        <ele>-13.800000190735</ele>
        <time>2021-04-04T09:44:00.000Z</time>
      </trkpt>
      <trkpt lat="47.32915" lon="-2.32557">
        <ele>-13.39999961853</ele>
        <time>2021-04-04T09:44:01.000Z</time>
      </trkpt>
      <trkpt lat="47.32915" lon="-2.3255">
        <ele>-13</ele>
        <time>2021-04-04T09:44:02.000Z</time>
      </trkpt>
      <trkpt lat="47.32914" lon="-2.32542">
        <ele>-12.39999961853</ele>
        <time>2021-04-04T09:44:03.000Z</time>
      </trkpt>
      <trkpt lat="47.32913" lon="-2.32527">
        <ele>-12.39999961853</ele>
        <time>2021-04-04T09:44:05.000Z</time>
      </trkpt>
      <trkpt lat="47.32902" lon="-2.32488">
        <ele>-12.39999961853</ele>
        <time>2021-04-04T09:44:10.000Z</time>
      </trkpt>
      <trkpt lat="47.3289" lon="-2.32458">
        <ele>-12.39999961853</ele>
        <time>2021-04-04T09:44:14.000Z</time>
      </trkpt>
      <trkpt lat="47.32886" lon="-2.32453">
        <ele>-12.39999961853</ele>
        <time>2021-04-04T09:44:15.000Z</time>
      </trkpt>
      <trkpt lat="47.32868" lon="-2.32442">
        <ele>-12.39999961853</ele>
        <time>2021-04-04T09:44:18.000Z</time>
      </trkpt>
      <trkpt lat="47.32826" lon="-2.32414">
        <ele>-12.39999961853</ele>
        <time>2021-04-04T09:44:25.000Z</time>
      </trkpt>
      <trkpt lat="47.32794" lon="-2.3238">
        <ele>-12.39999961853</ele>
        <time>2021-04-04T09:44:31.000Z</time>
      </trkpt>
      <trkpt lat="47.32788" lon="-2.32375">
        <ele>-12.39999961853</ele>
        <time>2021-04-04T09:44:32.000Z</time>
      </trkpt>
      <trkpt lat="47.32769" lon="-2.32364">
        <ele>-12.39999961853</ele>
        <time>2021-04-04T09:44:35.000Z</time>
      </trkpt>
      <trkpt lat="47.32728" lon="-2.3234">
        <ele>-12.39999961853</ele>
        <time>2021-04-04T09:44:42.000Z</time>
      </trkpt>
      <trkpt lat="47.32681" lon="-2.3232">
        <ele>-12.39999961853</ele>
        <time>2021-04-04T09:44:50.000Z</time>
      </trkpt>
      <trkpt lat="47.32669" lon="-2.32316">
        <ele>-12.39999961853</ele>
        <time>2021-04-04T09:44:52.000Z</time>
      </trkpt>
      <trkpt lat="47.32652" lon="-2.32313">
        <ele>-12.39999961853</ele>
        <time>2021-04-04T09:44:55.000Z</time>
      </trkpt>
      <trkpt lat="47.32646" lon="-2.32311">
        <ele>-12.39999961853</ele>
        <time>2021-04-04T09:44:56.000Z</time>
      </trkpt>
      <trkpt lat="47.32629" lon="-2.32309">
        <ele>-12</ele>
        <time>2021-04-04T09:44:59.000Z</time>
      </trkpt>
      <trkpt lat="47.32623" lon="-2.32309">
        <ele>-11.60000038147</ele>
        <time>2021-04-04T09:45:00.000Z</time>
      </trkpt>
      <trkpt lat="47.32617" lon="-2.32309">
        <ele>-11.199999809265</ele>
        <time>2021-04-04T09:45:01.000Z</time>
      </trkpt>
      <trkpt lat="47.32611" lon="-2.32309">
        <ele>-10.800000190735</ele>
        <time>2021-04-04T09:45:02.000Z</time>
      </trkpt>
      <trkpt lat="47.32605" lon="-2.32309">
        <ele>-10.39999961853</ele>
        <time>2021-04-04T09:45:03.000Z</time>
      </trkpt>
      <trkpt lat="47.32581" lon="-2.32311">
        <ele>-10.39999961853</ele>
        <time>2021-04-04T09:45:07.000Z</time>
      </trkpt>
      <trkpt lat="47.3255" lon="-2.32314">
        <ele>-10.39999961853</ele>
        <time>2021-04-04T09:45:13.000Z</time>
      </trkpt>
      <trkpt lat="47.32536" lon="-2.32316">
        <ele>-10.39999961853</ele>
        <time>2021-04-04T09:45:18.000Z</time>
      </trkpt>
      <trkpt lat="47.32529" lon="-2.3231">
        <ele>-10.39999961853</ele>
        <time>2021-04-04T09:45:22.000Z</time>
      </trkpt>
      <trkpt lat="47.32533" lon="-2.32296">
        <ele>-10.39999961853</ele>
        <time>2021-04-04T09:45:26.000Z</time>
      </trkpt>
      <trkpt lat="47.32534" lon="-2.3229">
        <ele>-10.39999961853</ele>
        <time>2021-04-04T09:45:27.000Z</time>
      </trkpt>
      <trkpt lat="47.32539" lon="-2.32266">
        <ele>-10.39999961853</ele>
        <time>2021-04-04T09:45:30.000Z</time>
      </trkpt>
      <trkpt lat="47.32542" lon="-2.32257">
        <ele>-10.39999961853</ele>
        <time>2021-04-04T09:45:31.000Z</time>
      </trkpt>
      <trkpt lat="47.32545" lon="-2.32247">
        <ele>-10.800000190735</ele>
        <time>2021-04-04T09:45:32.000Z</time>
      </trkpt>
      <trkpt lat="47.32548" lon="-2.32237">
        <ele>-11.39999961853</ele>
        <time>2021-04-04T09:45:33.000Z</time>
      </trkpt>
      <trkpt lat="47.32551" lon="-2.32227">
        <ele>-11.800000190735</ele>
        <time>2021-04-04T09:45:34.000Z</time>
      </trkpt>
      <trkpt lat="47.32554" lon="-2.32217">
        <ele>-12.199999809265</ele>
        <time>2021-04-04T09:45:35.000Z</time>
      </trkpt>
      <trkpt lat="47.32558" lon="-2.32207">
        <ele>-12.800000190735</ele>
        <time>2021-04-04T09:45:36.000Z</time>
      </trkpt>
      <trkpt lat="47.32571" lon="-2.32162">
        <ele>-12.800000190735</ele>
        <time>2021-04-04T09:45:41.000Z</time>
      </trkpt>
      <trkpt lat="47.32582" lon="-2.32119">
        <ele>-12.800000190735</ele>
        <time>2021-04-04T09:45:47.000Z</time>
      </trkpt>
      <trkpt lat="47.32584" lon="-2.32112">
        <ele>-12.800000190735</ele>
        <time>2021-04-04T09:45:48.000Z</time>
      </trkpt>
      <trkpt lat="47.32579" lon="-2.32095">
        <ele>-12.800000190735</ele>
        <time>2021-04-04T09:45:51.000Z</time>
      </trkpt>
      <trkpt lat="47.32566" lon="-2.32093">
        <ele>-12.800000190735</ele>
        <time>2021-04-04T09:45:54.000Z</time>
      </trkpt>
      <trkpt lat="47.32561" lon="-2.32093">
        <ele>-11.800000190735</ele>
        <time>2021-04-04T09:45:55.000Z</time>
      </trkpt>
      <trkpt lat="47.32556" lon="-2.32093">
        <ele>-11.39999961853</ele>
        <time>2021-04-04T09:45:56.000Z</time>
      </trkpt>
      <trkpt lat="47.32551" lon="-2.32093">
        <ele>-11</ele>
        <time>2021-04-04T09:45:57.000Z</time>
      </trkpt>
      <trkpt lat="47.32546" lon="-2.32093">
        <ele>-10.60000038147</ele>
        <time>2021-04-04T09:45:58.000Z</time>
      </trkpt>
      <trkpt lat="47.3254" lon="-2.32094">
        <ele>-10.60000038147</ele>
        <time>2021-04-04T09:45:59.000Z</time>
      </trkpt>
      <trkpt lat="47.325" lon="-2.32096">
        <ele>-10.60000038147</ele>
        <time>2021-04-04T09:46:06.000Z</time>
      </trkpt>
      <trkpt lat="47.32456" lon="-2.32098">
        <ele>-10.60000038147</ele>
        <time>2021-04-04T09:46:13.000Z</time>
      </trkpt>
      <trkpt lat="47.32406" lon="-2.32102">
        <ele>-10.60000038147</ele>
        <time>2021-04-04T09:46:21.000Z</time>
      </trkpt>
      <trkpt lat="47.32376" lon="-2.32103">
        <ele>-10.60000038147</ele>
        <time>2021-04-04T09:46:27.000Z</time>
      </trkpt>
      <trkpt lat="47.32352" lon="-2.32104">
        <ele>-10.60000038147</ele>
        <time>2021-04-04T09:46:34.000Z</time>
      </trkpt>
      <trkpt lat="47.32352" lon="-2.32104">
        <ele>-10.60000038147</ele>
        <time>2021-04-04T09:46:35.000Z</time>
      </trkpt>
      <trkpt lat="47.3235" lon="-2.32104">
        <ele>-10.60000038147</ele>
        <time>2021-04-04T09:46:38.000Z</time>
      </trkpt>
      <trkpt lat="47.32349" lon="-2.32104">
        <ele>-10.60000038147</ele>
        <time>2021-04-04T09:46:39.000Z</time>
      </trkpt>
      <trkpt lat="47.32335" lon="-2.32102">
        <ele>-10.60000038147</ele>
        <time>2021-04-04T09:46:45.000Z</time>
      </trkpt>
      <trkpt lat="47.32319" lon="-2.32102">
        <ele>-10.60000038147</ele>
        <time>2021-04-04T09:46:51.000Z</time>
      </trkpt>
      <trkpt lat="47.32302" lon="-2.32099">
        <ele>-10.60000038147</ele>
        <time>2021-04-04T09:46:56.000Z</time>
      </trkpt>
      <trkpt lat="47.32275" lon="-2.321">
        <ele>-10.60000038147</ele>
        <time>2021-04-04T09:47:02.000Z</time>
      </trkpt>
      <trkpt lat="47.32256" lon="-2.32102">
        <ele>-10.60000038147</ele>
        <time>2021-04-04T09:47:06.000Z</time>
      </trkpt>
      <trkpt lat="47.32241" lon="-2.32104">
        <ele>-10.60000038147</ele>
        <time>2021-04-04T09:47:09.000Z</time>
      </trkpt>
      <trkpt lat="47.32212" lon="-2.32112">
        <ele>-10.60000038147</ele>
        <time>2021-04-04T09:47:16.000Z</time>
      </trkpt>
      <trkpt lat="47.3221" lon="-2.32112">
        <ele>-10.60000038147</ele>
        <time>2021-04-04T09:47:19.000Z</time>
      </trkpt>
      <trkpt lat="47.32208" lon="-2.32113">
        <ele>-10.60000038147</ele>
        <time>2021-04-04T09:47:24.000Z</time>
      </trkpt>
      <trkpt lat="47.32197" lon="-2.32116">
        <ele>-10.60000038147</ele>
        <time>2021-04-04T09:47:28.000Z</time>
      </trkpt>
      <trkpt lat="47.32185" lon="-2.32126">
        <ele>-10.60000038147</ele>
        <time>2021-04-04T09:47:31.000Z</time>
      </trkpt>
      <trkpt lat="47.32181" lon="-2.3213">
        <ele>-10.60000038147</ele>
        <time>2021-04-04T09:47:32.000Z</time>
      </trkpt>
      <trkpt lat="47.32151" lon="-2.32156">
        <ele>-10.60000038147</ele>
        <time>2021-04-04T09:47:38.000Z</time>
      </trkpt>
      <trkpt lat="47.32125" lon="-2.32175">
        <ele>-10.60000038147</ele>
        <time>2021-04-04T09:47:43.000Z</time>
      </trkpt>
      <trkpt lat="47.32114" lon="-2.32179">
        <ele>-10.60000038147</ele>
        <time>2021-04-04T09:47:45.000Z</time>
      </trkpt>
      <trkpt lat="47.32097" lon="-2.32181">
        <ele>-10.60000038147</ele>
        <time>2021-04-04T09:47:48.000Z</time>
      </trkpt>
      <trkpt lat="47.32079" lon="-2.32182">
        <ele>-10.60000038147</ele>
        <time>2021-04-04T09:47:51.000Z</time>
      </trkpt>
      <trkpt lat="47.32039" lon="-2.32186">
        <ele>-10.60000038147</ele>
        <time>2021-04-04T09:47:58.000Z</time>
      </trkpt>
      <trkpt lat="47.32034" lon="-2.32187">
        <ele>-10.60000038147</ele>
        <time>2021-04-04T09:47:59.000Z</time>
      </trkpt>
      <trkpt lat="47.32024" lon="-2.32189">
        <ele>-10.60000038147</ele>
        <time>2021-04-04T09:48:01.000Z</time>
      </trkpt>
      <trkpt lat="47.32013" lon="-2.32194">
        <ele>-10.60000038147</ele>
        <time>2021-04-04T09:48:03.000Z</time>
      </trkpt>
      <trkpt lat="47.32003" lon="-2.32204">
        <ele>-10.60000038147</ele>
        <time>2021-04-04T09:48:05.000Z</time>
      </trkpt>
      <trkpt lat="47.31987" lon="-2.32217">
        <ele>-10.199999809265</ele>
        <time>2021-04-04T09:48:08.000Z</time>
      </trkpt>
      <trkpt lat="47.31972" lon="-2.32234">
        <ele>-8.3999996185303</ele>
        <time>2021-04-04T09:48:12.000Z</time>
      </trkpt>
      <trkpt lat="47.31966" lon="-2.32242">
        <ele>-8.3999996185303</ele>
        <time>2021-04-04T09:48:14.000Z</time>
      </trkpt>
      <trkpt lat="47.31956" lon="-2.3226">
        <ele>-8</ele>
        <time>2021-04-04T09:48:18.000Z</time>
      </trkpt>
      <trkpt lat="47.31953" lon="-2.32262">
        <ele>-7.5999999046326</ele>
        <time>2021-04-04T09:48:19.000Z</time>
      </trkpt>
      <trkpt lat="47.3195" lon="-2.3226">
        <ele>-7.1999998092651</ele>
        <time>2021-04-04T09:48:20.000Z</time>
      </trkpt>
      <trkpt lat="47.31949" lon="-2.32256">
        <ele>-6.5999999046326</ele>
        <time>2021-04-04T09:48:21.000Z</time>
      </trkpt>
      <trkpt lat="47.31949" lon="-2.32252">
        <ele>-6</ele>
        <time>2021-04-04T09:48:22.000Z</time>
      </trkpt>
      <trkpt lat="47.31949" lon="-2.32248">
        <ele>-5.4000000953674</ele>
        <time>2021-04-04T09:48:23.000Z</time>
      </trkpt>
      <trkpt lat="47.3195" lon="-2.32244">
        <ele>-4.4000000953674</ele>
        <time>2021-04-04T09:48:24.000Z</time>
      </trkpt>
      <trkpt lat="47.31951" lon="-2.32239">
        <ele>-3.7999999523163</ele>
        <time>2021-04-04T09:48:25.000Z</time>
      </trkpt>
      <trkpt lat="47.31955" lon="-2.32223">
        <ele>-3.7999999523163</ele>
        <time>2021-04-04T09:48:28.000Z</time>
      </trkpt>
      <trkpt lat="47.31953" lon="-2.32213">
        <ele>-3.7999999523163</ele>
        <time>2021-04-04T09:48:30.000Z</time>
      </trkpt>
      <trkpt lat="47.3195" lon="-2.32211">
        <ele>-3.7999999523163</ele>
        <time>2021-04-04T09:48:31.000Z</time>
      </trkpt>
      <trkpt lat="47.31939" lon="-2.32209">
        <ele>-3.7999999523163</ele>
        <time>2021-04-04T09:48:34.000Z</time>
      </trkpt>
      <trkpt lat="47.31935" lon="-2.32208">
        <ele>-3.4000000953674</ele>
        <time>2021-04-04T09:48:35.000Z</time>
      </trkpt>
      <trkpt lat="47.31932" lon="-2.32208">
        <ele>-3</ele>
        <time>2021-04-04T09:48:36.000Z</time>
      </trkpt>
      <trkpt lat="47.31929" lon="-2.32208">
        <ele>-2.5999999046326</ele>
        <time>2021-04-04T09:48:37.000Z</time>
      </trkpt>
      <trkpt lat="47.31926" lon="-2.32207">
        <ele>-2</ele>
        <time>2021-04-04T09:48:38.000Z</time>
      </trkpt>
      <trkpt lat="47.31922" lon="-2.32205">
        <ele>-1.6000000238419</ele>
        <time>2021-04-04T09:48:39.000Z</time>
      </trkpt>
      <trkpt lat="47.31919" lon="-2.32204">
        <ele>-1.6000000238419</ele>
        <time>2021-04-04T09:48:40.000Z</time>
      </trkpt>
      <trkpt lat="47.31908" lon="-2.32202">
        <ele>-1.2000000476837</ele>
        <time>2021-04-04T09:48:43.000Z</time>
      </trkpt>
      <trkpt lat="47.31905" lon="-2.32203">
        <ele>-0.80000001192093</ele>
        <time>2021-04-04T09:48:44.000Z</time>
      </trkpt>
      <trkpt lat="47.31902" lon="-2.32202">
        <ele>-0.40000000596046</ele>
        <time>2021-04-04T09:48:45.000Z</time>
      </trkpt>
      <trkpt lat="47.31899" lon="-2.32202">
        <ele>21.8</ele>
        <time>2021-04-04T09:48:46.000Z</time>
      </trkpt>
      <trkpt lat="47.31896" lon="-2.32202">
        <ele>0.40000000596046</ele>
        <time>2021-04-04T09:48:47.000Z</time>
      </trkpt>
      <trkpt lat="47.31876" lon="-2.32208">
        <ele>0.80000001192093</ele>
        <time>2021-04-04T09:48:53.000Z</time>
      </trkpt>
      <trkpt lat="47.31873" lon="-2.32209">
        <ele>1.2000000476837</ele>
        <time>2021-04-04T09:48:54.000Z</time>
      </trkpt>
      <trkpt lat="47.3187" lon="-2.3221">
        <ele>1.7999999523163</ele>
        <time>2021-04-04T09:48:55.000Z</time>
      </trkpt>
      <trkpt lat="47.31867" lon="-2.3221">
        <ele>2.2000000476837</ele>
        <time>2021-04-04T09:48:56.000Z</time>
      </trkpt>
      <trkpt lat="47.31864" lon="-2.32211">
        <ele>2.5999999046326</ele>
        <time>2021-04-04T09:48:57.000Z</time>
      </trkpt>
      <trkpt lat="47.31855" lon="-2.32213">
        <ele>2.5999999046326</ele>
        <time>2021-04-04T09:49:00.000Z</time>
      </trkpt>
      <trkpt lat="47.31844" lon="-2.32216">
        <ele>3</ele>
        <time>2021-04-04T09:49:04.000Z</time>
      </trkpt>
      <trkpt lat="47.31842" lon="-2.32217">
        <ele>3.4000000953674</ele>
        <time>2021-04-04T09:49:05.000Z</time>
      </trkpt>
      <trkpt lat="47.3184" lon="-2.32218">
        <ele>3.7999999523163</ele>
        <time>2021-04-04T09:49:06.000Z</time>
      </trkpt>
      <trkpt lat="47.31837" lon="-2.32219">
        <ele>4.4000000953674</ele>
        <time>2021-04-04T09:49:07.000Z</time>
      </trkpt>
      <trkpt lat="47.31835" lon="-2.32219">
        <ele>4.8000001907349</ele>
        <time>2021-04-04T09:49:08.000Z</time>
      </trkpt>
      <trkpt lat="47.31827" lon="-2.32222">
        <ele>4.8000001907349</ele>
        <time>2021-04-04T09:49:11.000Z</time>
      </trkpt>
      <trkpt lat="47.31823" lon="-2.32223">
        <ele>5.1999998092651</ele>
        <time>2021-04-04T09:49:12.000Z</time>
      </trkpt>
      <trkpt lat="47.3182" lon="-2.32223">
        <ele>6</ele>
        <time>2021-04-04T09:49:13.000Z</time>
      </trkpt>
      <trkpt lat="47.31817" lon="-2.32223">
        <ele>6.4000000953674</ele>
        <time>2021-04-04T09:49:14.000Z</time>
      </trkpt>
      <trkpt lat="47.31815" lon="-2.32224">
        <ele>6.8000001907349</ele>
        <time>2021-04-04T09:49:15.000Z</time>
      </trkpt>
      <trkpt lat="47.31807" lon="-2.32224">
        <ele>6.8000001907349</ele>
        <time>2021-04-04T09:49:18.000Z</time>
      </trkpt>
      <trkpt lat="47.31787" lon="-2.32228">
        <ele>6.8000001907349</ele>
        <time>2021-04-04T09:49:25.000Z</time>
      </trkpt>
      <trkpt lat="47.31781" lon="-2.32228">
        <ele>7.1999998092651</ele>
        <time>2021-04-04T09:49:27.000Z</time>
      </trkpt>
      <trkpt lat="47.31779" lon="-2.32229">
        <ele>7.8000001907349</ele>
        <time>2021-04-04T09:49:28.000Z</time>
      </trkpt>
      <trkpt lat="47.31776" lon="-2.32229">
        <ele>8.1999998092651</ele>
        <time>2021-04-04T09:49:29.000Z</time>
      </trkpt>
      <trkpt lat="47.31773" lon="-2.32229">
        <ele>8.6000003814697</ele>
        <time>2021-04-04T09:49:30.000Z</time>
      </trkpt>
      <trkpt lat="47.3177" lon="-2.32229">
        <ele>9</ele>
        <time>2021-04-04T09:49:31.000Z</time>
      </trkpt>
      <trkpt lat="47.31768" lon="-2.32229">
        <ele>9</ele>
        <time>2021-04-04T09:49:32.000Z</time>
      </trkpt>
      <trkpt lat="47.31765" lon="-2.32228">
        <ele>9</ele>
        <time>2021-04-04T09:49:36.000Z</time>
      </trkpt>
      <trkpt lat="47.31762" lon="-2.3223">
        <ele>9</ele>
        <time>2021-04-04T09:49:41.000Z</time>
      </trkpt>
      <trkpt lat="47.3176" lon="-2.32243">
        <ele>9</ele>
        <time>2021-04-04T09:49:45.000Z</time>
      </trkpt>
      <trkpt lat="47.31764" lon="-2.32268">
        <ele>9</ele>
        <time>2021-04-04T09:49:50.000Z</time>
      </trkpt>
      <trkpt lat="47.31767" lon="-2.323">
        <ele>9</ele>
        <time>2021-04-04T09:49:56.000Z</time>
      </trkpt>
      <trkpt lat="47.31774" lon="-2.32335">
        <ele>9</ele>
        <time>2021-04-04T09:50:01.000Z</time>
      </trkpt>
      <trkpt lat="47.31783" lon="-2.32389">
        <ele>9</ele>
        <time>2021-04-04T09:50:07.000Z</time>
      </trkpt>
      <trkpt lat="47.31791" lon="-2.32436">
        <ele>9</ele>
        <time>2021-04-04T09:50:12.000Z</time>
      </trkpt>
      <trkpt lat="47.31792" lon="-2.32454">
        <ele>9</ele>
        <time>2021-04-04T09:50:14.000Z</time>
      </trkpt>
      <trkpt lat="47.31794" lon="-2.32461">
        <ele>8.6000003814697</ele>
        <time>2021-04-04T09:50:15.000Z</time>
      </trkpt>
      <trkpt lat="47.31796" lon="-2.32469">
        <ele>8</ele>
        <time>2021-04-04T09:50:16.000Z</time>
      </trkpt>
      <trkpt lat="47.31798" lon="-2.32477">
        <ele>7.5999999046326</ele>
        <time>2021-04-04T09:50:17.000Z</time>
      </trkpt>
      <trkpt lat="47.318" lon="-2.32485">
        <ele>7.1999998092651</ele>
        <time>2021-04-04T09:50:18.000Z</time>
      </trkpt>
      <trkpt lat="47.31802" lon="-2.32493">
        <ele>6.5999999046326</ele>
        <time>2021-04-04T09:50:19.000Z</time>
      </trkpt>
      <trkpt lat="47.31804" lon="-2.325">
        <ele>6.1999998092651</ele>
        <time>2021-04-04T09:50:20.000Z</time>
      </trkpt>
      <trkpt lat="47.31806" lon="-2.32509">
        <ele>5.5999999046326</ele>
        <time>2021-04-04T09:50:21.000Z</time>
      </trkpt>
      <trkpt lat="47.31808" lon="-2.32517">
        <ele>5</ele>
        <time>2021-04-04T09:50:22.000Z</time>
      </trkpt>
      <trkpt lat="47.3181" lon="-2.32526">
        <ele>4.5999999046326</ele>
        <time>2021-04-04T09:50:23.000Z</time>
      </trkpt>
      <trkpt lat="47.31816" lon="-2.32543">
        <ele>3.5999999046326</ele>
        <time>2021-04-04T09:50:25.000Z</time>
      </trkpt>
      <trkpt lat="47.31819" lon="-2.32553">
        <ele>3.2000000476837</ele>
        <time>2021-04-04T09:50:26.000Z</time>
      </trkpt>
      <trkpt lat="47.31821" lon="-2.32562">
        <ele>2.7999999523163</ele>
        <time>2021-04-04T09:50:27.000Z</time>
      </trkpt>
      <trkpt lat="47.31823" lon="-2.32572">
        <ele>2.4000000953674</ele>
        <time>2021-04-04T09:50:28.000Z</time>
      </trkpt>
      <trkpt lat="47.3183" lon="-2.32602">
        <ele>2.4000000953674</ele>
        <time>2021-04-04T09:50:31.000Z</time>
      </trkpt>
      <trkpt lat="47.31838" lon="-2.32641">
        <ele>2</ele>
        <time>2021-04-04T09:50:35.000Z</time>
      </trkpt>
      <trkpt lat="47.3184" lon="-2.3265">
        <ele>1.6000000238419</ele>
        <time>2021-04-04T09:50:36.000Z</time>
      </trkpt>
      <trkpt lat="47.31843" lon="-2.32658">
        <ele>1.2000000476837</ele>
        <time>2021-04-04T09:50:37.000Z</time>
      </trkpt>
      <trkpt lat="47.31847" lon="-2.32667">
        <ele>0.80000001192093</ele>
        <time>2021-04-04T09:50:38.000Z</time>
      </trkpt>
      <trkpt lat="47.3185" lon="-2.32675">
        <ele>0.40000000596046</ele>
        <time>2021-04-04T09:50:39.000Z</time>
      </trkpt>
      <trkpt lat="47.31864" lon="-2.32711">
        <ele>0.40000000596046</ele>
        <time>2021-04-04T09:50:43.000Z</time>
      </trkpt>
      <trkpt lat="47.31876" lon="-2.32747">
        <ele>16.9</ele>
        <time>2021-04-04T09:50:47.000Z</time>
      </trkpt>
      <trkpt lat="47.31879" lon="-2.32757">
        <ele>-0.40000000596046</ele>
        <time>2021-04-04T09:50:48.000Z</time>
      </trkpt>
      <trkpt lat="47.31882" lon="-2.32767">
        <ele>-0.80000001192093</ele>
        <time>2021-04-04T09:50:49.000Z</time>
      </trkpt>
      <trkpt lat="47.31884" lon="-2.32776">
        <ele>-1.7999999523163</ele>
        <time>2021-04-04T09:50:50.000Z</time>
      </trkpt>
      <trkpt lat="47.31887" lon="-2.32796">
        <ele>-1.7999999523163</ele>
        <time>2021-04-04T09:50:52.000Z</time>
      </trkpt>
      <trkpt lat="47.31889" lon="-2.32805">
        <ele>-1.7999999523163</ele>
        <time>2021-04-04T09:50:53.000Z</time>
      </trkpt>
      <trkpt lat="47.31891" lon="-2.32856">
        <ele>-1.7999999523163</ele>
        <time>2021-04-04T09:50:58.000Z</time>
      </trkpt>
      <trkpt lat="47.3189" lon="-2.32893">
        <ele>-2.2000000476837</ele>
        <time>2021-04-04T09:51:02.000Z</time>
      </trkpt>
      <trkpt lat="47.31889" lon="-2.32902">
        <ele>-2.5999999046326</ele>
        <time>2021-04-04T09:51:03.000Z</time>
      </trkpt>
      <trkpt lat="47.31889" lon="-2.32911">
        <ele>-3</ele>
        <time>2021-04-04T09:51:04.000Z</time>
      </trkpt>
      <trkpt lat="47.31889" lon="-2.32921">
        <ele>-3.4000000953674</ele>
        <time>2021-04-04T09:51:05.000Z</time>
      </trkpt>
      <trkpt lat="47.31888" lon="-2.32929">
        <ele>-3.7999999523163</ele>
        <time>2021-04-04T09:51:06.000Z</time>
      </trkpt>
      <trkpt lat="47.31887" lon="-2.32949">
        <ele>-3.7999999523163</ele>
        <time>2021-04-04T09:51:08.000Z</time>
      </trkpt>
      <trkpt lat="47.31883" lon="-2.32978">
        <ele>-3.7999999523163</ele>
        <time>2021-04-04T09:51:11.000Z</time>
      </trkpt>
      <trkpt lat="47.31882" lon="-2.32998">
        <ele>-3.7999999523163</ele>
        <time>2021-04-04T09:51:13.000Z</time>
      </trkpt>
      <trkpt lat="47.31884" lon="-2.33028">
        <ele>-3.7999999523163</ele>
        <time>2021-04-04T09:51:16.000Z</time>
      </trkpt>
      <trkpt lat="47.31884" lon="-2.33037">
        <ele>-3.7999999523163</ele>
        <time>2021-04-04T09:51:17.000Z</time>
      </trkpt>
      <trkpt lat="47.31882" lon="-2.33065">
        <ele>-3.7999999523163</ele>
        <time>2021-04-04T09:51:20.000Z</time>
      </trkpt>
      <trkpt lat="47.31882" lon="-2.33083">
        <ele>-3.7999999523163</ele>
        <time>2021-04-04T09:51:22.000Z</time>
      </trkpt>
      <trkpt lat="47.31879" lon="-2.33131">
        <ele>-3.7999999523163</ele>
        <time>2021-04-04T09:51:28.000Z</time>
      </trkpt>
      <trkpt lat="47.31877" lon="-2.33138">
        <ele>-3.7999999523163</ele>
        <time>2021-04-04T09:51:29.000Z</time>
      </trkpt>
      <trkpt lat="47.31872" lon="-2.33164">
        <ele>-3.7999999523163</ele>
        <time>2021-04-04T09:51:33.000Z</time>
      </trkpt>
      <trkpt lat="47.3187" lon="-2.33195">
        <ele>-3.4000000953674</ele>
        <time>2021-04-04T09:51:38.000Z</time>
      </trkpt>
      <trkpt lat="47.3187" lon="-2.33201">
        <ele>-2.4000000953674</ele>
        <time>2021-04-04T09:51:39.000Z</time>
      </trkpt>
      <trkpt lat="47.31869" lon="-2.33208">
        <ele>-2</ele>
        <time>2021-04-04T09:51:40.000Z</time>
      </trkpt>
      <trkpt lat="47.31869" lon="-2.33215">
        <ele>-1.6000000238419</ele>
        <time>2021-04-04T09:51:41.000Z</time>
      </trkpt>
      <trkpt lat="47.31867" lon="-2.33233">
        <ele>-1.6000000238419</ele>
        <time>2021-04-04T09:51:44.000Z</time>
      </trkpt>
      <trkpt lat="47.3186" lon="-2.3325">
        <ele>-1.6000000238419</ele>
        <time>2021-04-04T09:51:47.000Z</time>
      </trkpt>
      <trkpt lat="47.31857" lon="-2.33261">
        <ele>-1.6000000238419</ele>
        <time>2021-04-04T09:51:49.000Z</time>
      </trkpt>
      <trkpt lat="47.31846" lon="-2.33281">
        <ele>-1.2000000476837</ele>
        <time>2021-04-04T09:51:53.000Z</time>
      </trkpt>
      <trkpt lat="47.31842" lon="-2.33285">
        <ele>-0.80000001192093</ele>
        <time>2021-04-04T09:51:54.000Z</time>
      </trkpt>
      <trkpt lat="47.31839" lon="-2.33289">
        <ele>-0.40000000596046</ele>
        <time>2021-04-04T09:51:55.000Z</time>
      </trkpt>
      <trkpt lat="47.31835" lon="-2.33292">
        <ele>21.5</ele>
        <time>2021-04-04T09:51:56.000Z</time>
      </trkpt>
      <trkpt lat="47.31832" lon="-2.33296">
        <ele>0.40000000596046</ele>
        <time>2021-04-04T09:51:57.000Z</time>
      </trkpt>
      <trkpt lat="47.31818" lon="-2.33305">
        <ele>0.40000000596046</ele>
        <time>2021-04-04T09:52:01.000Z</time>
      </trkpt>
      <trkpt lat="47.31811" lon="-2.3331">
        <ele>1</ele>
        <time>2021-04-04T09:52:03.000Z</time>
      </trkpt>
      <trkpt lat="47.31809" lon="-2.33313">
        <ele>1.7999999523163</ele>
        <time>2021-04-04T09:52:04.000Z</time>
      </trkpt>
      <trkpt lat="47.31805" lon="-2.33316">
        <ele>2.2000000476837</ele>
        <time>2021-04-04T09:52:05.000Z</time>
      </trkpt>
      <trkpt lat="47.31802" lon="-2.33318">
        <ele>2.5999999046326</ele>
        <time>2021-04-04T09:52:06.000Z</time>
      </trkpt>
      <trkpt lat="47.31799" lon="-2.3332">
        <ele>2.5999999046326</ele>
        <time>2021-04-04T09:52:07.000Z</time>
      </trkpt>
      <trkpt lat="47.31792" lon="-2.33325">
        <ele>3</ele>
        <time>2021-04-04T09:52:10.000Z</time>
      </trkpt>
      <trkpt lat="47.3179" lon="-2.33326">
        <ele>3.4000000953674</ele>
        <time>2021-04-04T09:52:11.000Z</time>
      </trkpt>
      <trkpt lat="47.31787" lon="-2.33327">
        <ele>3.7999999523163</ele>
        <time>2021-04-04T09:52:12.000Z</time>
      </trkpt>
      <trkpt lat="47.31784" lon="-2.33326">
        <ele>4.1999998092651</ele>
        <time>2021-04-04T09:52:13.000Z</time>
      </trkpt>
      <trkpt lat="47.3178" lon="-2.33325">
        <ele>4.5999999046326</ele>
        <time>2021-04-04T09:52:14.000Z</time>
      </trkpt>
      <trkpt lat="47.31769" lon="-2.33317">
        <ele>4.5999999046326</ele>
        <time>2021-04-04T09:52:18.000Z</time>
      </trkpt>
      <trkpt lat="47.31762" lon="-2.33309">
        <ele>5</ele>
        <time>2021-04-04T09:52:21.000Z</time>
      </trkpt>
      <trkpt lat="47.3176" lon="-2.33306">
        <ele>5.4000000953674</ele>
        <time>2021-04-04T09:52:22.000Z</time>
      </trkpt>
      <trkpt lat="47.31759" lon="-2.33304">
        <ele>5.8000001907349</ele>
        <time>2021-04-04T09:52:23.000Z</time>
      </trkpt>
      <trkpt lat="47.31757" lon="-2.33301">
        <ele>6.1999998092651</ele>
        <time>2021-04-04T09:52:24.000Z</time>
      </trkpt>
      <trkpt lat="47.31755" lon="-2.33297">
        <ele>6.8000001907349</ele>
        <time>2021-04-04T09:52:25.000Z</time>
      </trkpt>
      <trkpt lat="47.31747" lon="-2.33281">
        <ele>6.8000001907349</ele>
        <time>2021-04-04T09:52:30.000Z</time>
      </trkpt>
      <trkpt lat="47.31744" lon="-2.33254">
        <ele>6.8000001907349</ele>
        <time>2021-04-04T09:52:36.000Z</time>
      </trkpt>
      <trkpt lat="47.31742" lon="-2.33253">
        <ele>6.8000001907349</ele>
        <time>2021-04-04T09:52:37.000Z</time>
      </trkpt>
      <trkpt lat="47.31737" lon="-2.33254">
        <ele>6.8000001907349</ele>
        <time>2021-04-04T09:52:39.000Z</time>
      </trkpt>
      <trkpt lat="47.31722" lon="-2.33258">
        <ele>6.8000001907349</ele>
        <time>2021-04-04T09:52:44.000Z</time>
      </trkpt>
      <trkpt lat="47.31717" lon="-2.33259">
        <ele>7.1999998092651</ele>
        <time>2021-04-04T09:52:46.000Z</time>
      </trkpt>
      <trkpt lat="47.31714" lon="-2.3326">
        <ele>7.5999999046326</ele>
        <time>2021-04-04T09:52:47.000Z</time>
      </trkpt>
      <trkpt lat="47.31712" lon="-2.33262">
        <ele>8</ele>
        <time>2021-04-04T09:52:48.000Z</time>
      </trkpt>
      <trkpt lat="47.31709" lon="-2.33263">
        <ele>8.3999996185303</ele>
        <time>2021-04-04T09:52:49.000Z</time>
      </trkpt>
      <trkpt lat="47.31707" lon="-2.33265">
        <ele>8.8000001907349</ele>
        <time>2021-04-04T09:52:50.000Z</time>
      </trkpt>
      <trkpt lat="47.31695" lon="-2.33271">
        <ele>9.6000003814697</ele>
        <time>2021-04-04T09:52:54.000Z</time>
      </trkpt>
      <trkpt lat="47.31691" lon="-2.33273">
        <ele>10</ele>
        <time>2021-04-04T09:52:55.000Z</time>
      </trkpt>
      <trkpt lat="47.31687" lon="-2.33274">
        <ele>10.39999961853</ele>
        <time>2021-04-04T09:52:56.000Z</time>
      </trkpt>
      <trkpt lat="47.31683" lon="-2.33276">
        <ele>10.800000190735</ele>
        <time>2021-04-04T09:52:57.000Z</time>
      </trkpt>
      <trkpt lat="47.31665" lon="-2.33283">
        <ele>10.800000190735</ele>
        <time>2021-04-04T09:53:01.000Z</time>
      </trkpt>
      <trkpt lat="47.31637" lon="-2.33295">
        <ele>10.800000190735</ele>
        <time>2021-04-04T09:53:08.000Z</time>
      </trkpt>
      <trkpt lat="47.31616" lon="-2.33303">
        <ele>10.800000190735</ele>
        <time>2021-04-04T09:53:13.000Z</time>
      </trkpt>
      <trkpt lat="47.31608" lon="-2.33308">
        <ele>11.199999809265</ele>
        <time>2021-04-04T09:53:15.000Z</time>
      </trkpt>
      <trkpt lat="47.31603" lon="-2.33311">
        <ele>11.60000038147</ele>
        <time>2021-04-04T09:53:16.000Z</time>
      </trkpt>
      <trkpt lat="47.31599" lon="-2.33313">
        <ele>12</ele>
        <time>2021-04-04T09:53:17.000Z</time>
      </trkpt>
      <trkpt lat="47.31595" lon="-2.33316">
        <ele>12.800000190735</ele>
        <time>2021-04-04T09:53:18.000Z</time>
      </trkpt>
      <trkpt lat="47.31591" lon="-2.33319">
        <ele>12.800000190735</ele>
        <time>2021-04-04T09:53:19.000Z</time>
      </trkpt>
      <trkpt lat="47.31578" lon="-2.33325">
        <ele>12.800000190735</ele>
        <time>2021-04-04T09:53:22.000Z</time>
      </trkpt>
      <trkpt lat="47.31564" lon="-2.33331">
        <ele>12.800000190735</ele>
        <time>2021-04-04T09:53:25.000Z</time>
      </trkpt>
      <trkpt lat="47.31528" lon="-2.33344">
        <ele>12.800000190735</ele>
        <time>2021-04-04T09:53:32.000Z</time>
      </trkpt>
      <trkpt lat="47.31489" lon="-2.33365">
        <ele>12.800000190735</ele>
        <time>2021-04-04T09:53:41.000Z</time>
      </trkpt>
      <trkpt lat="47.31479" lon="-2.33365">
        <ele>12.800000190735</ele>
        <time>2021-04-04T09:53:45.000Z</time>
      </trkpt>
      <trkpt lat="47.31478" lon="-2.33364">
        <ele>12.800000190735</ele>
        <time>2021-04-04T09:53:47.000Z</time>
      </trkpt>
      <trkpt lat="47.31476" lon="-2.3336">
        <ele>12.800000190735</ele>
        <time>2021-04-04T09:54:10.000Z</time>
      </trkpt>
      <trkpt lat="47.31474" lon="-2.33357">
        <ele>12.800000190735</ele>
        <time>2021-04-04T09:54:11.000Z</time>
      </trkpt>
      <trkpt lat="47.31466" lon="-2.33339">
        <ele>12.800000190735</ele>
        <time>2021-04-04T09:54:16.000Z</time>
      </trkpt>
      <trkpt lat="47.31453" lon="-2.3331">
        <ele>12.800000190735</ele>
        <time>2021-04-04T09:54:22.000Z</time>
      </trkpt>
      <trkpt lat="47.31441" lon="-2.33284">
        <ele>12.800000190735</ele>
        <time>2021-04-04T09:54:27.000Z</time>
      </trkpt>
      <trkpt lat="47.31437" lon="-2.3328">
        <ele>12.800000190735</ele>
        <time>2021-04-04T09:54:28.000Z</time>
      </trkpt>
      <trkpt lat="47.31414" lon="-2.33262">
        <ele>12.800000190735</ele>
        <time>2021-04-04T09:54:34.000Z</time>
      </trkpt>
      <trkpt lat="47.31383" lon="-2.33243">
        <ele>12.800000190735</ele>
        <time>2021-04-04T09:54:41.000Z</time>
      </trkpt>
      <trkpt lat="47.31352" lon="-2.33221">
        <ele>12.39999961853</ele>
        <time>2021-04-04T09:54:48.000Z</time>
      </trkpt>
      <trkpt lat="47.31347" lon="-2.33217">
        <ele>12</ele>
        <time>2021-04-04T09:54:49.000Z</time>
      </trkpt>
      <trkpt lat="47.31343" lon="-2.33213">
        <ele>11.60000038147</ele>
        <time>2021-04-04T09:54:50.000Z</time>
      </trkpt>
      <trkpt lat="47.31338" lon="-2.3321">
        <ele>11.199999809265</ele>
        <time>2021-04-04T09:54:51.000Z</time>
      </trkpt>
      <trkpt lat="47.31334" lon="-2.33206">
        <ele>10.800000190735</ele>
        <time>2021-04-04T09:54:52.000Z</time>
      </trkpt>
      <trkpt lat="47.31311" lon="-2.33185">
        <ele>10.800000190735</ele>
        <time>2021-04-04T09:54:57.000Z</time>
      </trkpt>
      <trkpt lat="47.3128" lon="-2.33163">
        <ele>10.800000190735</ele>
        <time>2021-04-04T09:55:03.000Z</time>
      </trkpt>
      <trkpt lat="47.31252" lon="-2.33151">
        <ele>10.800000190735</ele>
        <time>2021-04-04T09:55:08.000Z</time>
      </trkpt>
      <trkpt lat="47.31246" lon="-2.3315">
        <ele>10.800000190735</ele>
        <time>2021-04-04T09:55:09.000Z</time>
      </trkpt>
      <trkpt lat="47.31217" lon="-2.3315">
        <ele>10.800000190735</ele>
        <time>2021-04-04T09:55:14.000Z</time>
      </trkpt>
      <trkpt lat="47.31205" lon="-2.33154">
        <ele>10.800000190735</ele>
        <time>2021-04-04T09:55:16.000Z</time>
      </trkpt>
      <trkpt lat="47.31188" lon="-2.33162">
        <ele>10.800000190735</ele>
        <time>2021-04-04T09:55:19.000Z</time>
      </trkpt>
      <trkpt lat="47.31165" lon="-2.33178">
        <ele>10.800000190735</ele>
        <time>2021-04-04T09:55:24.000Z</time>
      </trkpt>
      <trkpt lat="47.31132" lon="-2.33198">
        <ele>10.800000190735</ele>
        <time>2021-04-04T09:55:31.000Z</time>
      </trkpt>
      <trkpt lat="47.31113" lon="-2.33211">
        <ele>10.800000190735</ele>
        <time>2021-04-04T09:55:35.000Z</time>
      </trkpt>
      <trkpt lat="47.31107" lon="-2.33225">
        <ele>10.800000190735</ele>
        <time>2021-04-04T09:55:37.000Z</time>
      </trkpt>
      <trkpt lat="47.31105" lon="-2.33241">
        <ele>10.800000190735</ele>
        <time>2021-04-04T09:55:39.000Z</time>
      </trkpt>
      <trkpt lat="47.31105" lon="-2.33249">
        <ele>10.800000190735</ele>
        <time>2021-04-04T09:55:40.000Z</time>
      </trkpt>
      <trkpt lat="47.31102" lon="-2.33307">
        <ele>10.800000190735</ele>
        <time>2021-04-04T09:55:47.000Z</time>
      </trkpt>
      <trkpt lat="47.31101" lon="-2.33367">
        <ele>10.800000190735</ele>
        <time>2021-04-04T09:55:54.000Z</time>
      </trkpt>
      <trkpt lat="47.31102" lon="-2.334">
        <ele>11.199999809265</ele>
        <time>2021-04-04T09:55:58.000Z</time>
      </trkpt>
      <trkpt lat="47.31102" lon="-2.33408">
        <ele>11.60000038147</ele>
        <time>2021-04-04T09:55:59.000Z</time>
      </trkpt>
      <trkpt lat="47.31102" lon="-2.33416">
        <ele>12</ele>
        <time>2021-04-04T09:56:00.000Z</time>
      </trkpt>
      <trkpt lat="47.31102" lon="-2.33424">
        <ele>12.39999961853</ele>
        <time>2021-04-04T09:56:01.000Z</time>
      </trkpt>
      <trkpt lat="47.31102" lon="-2.33432">
        <ele>13</ele>
        <time>2021-04-04T09:56:02.000Z</time>
      </trkpt>
      <trkpt lat="47.31104" lon="-2.3349">
        <ele>13</ele>
        <time>2021-04-04T09:56:09.000Z</time>
      </trkpt>
      <trkpt lat="47.31106" lon="-2.33505">
        <ele>13.39999961853</ele>
        <time>2021-04-04T09:56:11.000Z</time>
      </trkpt>
      <trkpt lat="47.31107" lon="-2.33513">
        <ele>13.800000190735</ele>
        <time>2021-04-04T09:56:12.000Z</time>
      </trkpt>
      <trkpt lat="47.3111" lon="-2.33521">
        <ele>14.199999809265</ele>
        <time>2021-04-04T09:56:13.000Z</time>
      </trkpt>
      <trkpt lat="47.31111" lon="-2.33529">
        <ele>14.60000038147</ele>
        <time>2021-04-04T09:56:14.000Z</time>
      </trkpt>
      <trkpt lat="47.31113" lon="-2.33537">
        <ele>15</ele>
        <time>2021-04-04T09:56:15.000Z</time>
      </trkpt>
      <trkpt lat="47.31114" lon="-2.33546">
        <ele>15</ele>
        <time>2021-04-04T09:56:16.000Z</time>
      </trkpt>
      <trkpt lat="47.31117" lon="-2.33583">
        <ele>15</ele>
        <time>2021-04-04T09:56:20.000Z</time>
      </trkpt>
      <trkpt lat="47.31113" lon="-2.33641">
        <ele>15</ele>
        <time>2021-04-04T09:56:26.000Z</time>
      </trkpt>
      <trkpt lat="47.31105" lon="-2.33702">
        <ele>15</ele>
        <time>2021-04-04T09:56:32.000Z</time>
      </trkpt>
      <trkpt lat="47.31098" lon="-2.33747">
        <ele>15</ele>
        <time>2021-04-04T09:56:37.000Z</time>
      </trkpt>
      <trkpt lat="47.31084" lon="-2.33784">
        <ele>15</ele>
        <time>2021-04-04T09:56:42.000Z</time>
      </trkpt>
      <trkpt lat="47.31074" lon="-2.33808">
        <ele>15</ele>
        <time>2021-04-04T09:56:45.000Z</time>
      </trkpt>
      <trkpt lat="47.31069" lon="-2.33835">
        <ele>15</ele>
        <time>2021-04-04T09:56:48.000Z</time>
      </trkpt>
      <trkpt lat="47.31068" lon="-2.33853">
        <ele>15</ele>
        <time>2021-04-04T09:56:50.000Z</time>
      </trkpt>
      <trkpt lat="47.31066" lon="-2.33897">
        <ele>15</ele>
        <time>2021-04-04T09:56:55.000Z</time>
      </trkpt>
      <trkpt lat="47.31066" lon="-2.33925">
        <ele>15</ele>
        <time>2021-04-04T09:56:59.000Z</time>
      </trkpt>
      <trkpt lat="47.31064" lon="-2.33946">
        <ele>15</ele>
        <time>2021-04-04T09:57:03.000Z</time>
      </trkpt>
      <trkpt lat="47.31061" lon="-2.33948">
        <ele>15</ele>
        <time>2021-04-04T09:57:04.000Z</time>
      </trkpt>
      <trkpt lat="47.31045" lon="-2.33953">
        <ele>15</ele>
        <time>2021-04-04T09:57:07.000Z</time>
      </trkpt>
      <trkpt lat="47.31033" lon="-2.33954">
        <ele>15</ele>
        <time>2021-04-04T09:57:09.000Z</time>
      </trkpt>
      <trkpt lat="47.31015" lon="-2.33956">
        <ele>15.39999961853</ele>
        <time>2021-04-04T09:57:12.000Z</time>
      </trkpt>
      <trkpt lat="47.31009" lon="-2.33956">
        <ele>15.800000190735</ele>
        <time>2021-04-04T09:57:13.000Z</time>
      </trkpt>
      <trkpt lat="47.31004" lon="-2.33956">
        <ele>16.200000762939</ele>
        <time>2021-04-04T09:57:14.000Z</time>
      </trkpt>
      <trkpt lat="47.30998" lon="-2.33955">
        <ele>16.60000038147</ele>
        <time>2021-04-04T09:57:15.000Z</time>
      </trkpt>
      <trkpt lat="47.30992" lon="-2.33955">
        <ele>17</ele>
        <time>2021-04-04T09:57:16.000Z</time>
      </trkpt>
      <trkpt lat="47.30968" lon="-2.33954">
        <ele>17</ele>
        <time>2021-04-04T09:57:20.000Z</time>
      </trkpt>
      <trkpt lat="47.30962" lon="-2.33954">
        <ele>17</ele>
        <time>2021-04-04T09:57:21.000Z</time>
      </trkpt>
      <trkpt lat="47.30956" lon="-2.33953">
        <ele>17</ele>
        <time>2021-04-04T09:57:22.000Z</time>
      </trkpt>
      <trkpt lat="47.30932" lon="-2.33948">
        <ele>17</ele>
        <time>2021-04-04T09:57:26.000Z</time>
      </trkpt>
      <trkpt lat="47.30905" lon="-2.33944">
        <ele>17.39999961853</ele>
        <time>2021-04-04T09:57:30.000Z</time>
      </trkpt>
      <trkpt lat="47.30899" lon="-2.33944">
        <ele>17.799999237061</ele>
        <time>2021-04-04T09:57:31.000Z</time>
      </trkpt>
      <trkpt lat="47.30892" lon="-2.33945">
        <ele>18.200000762939</ele>
        <time>2021-04-04T09:57:32.000Z</time>
      </trkpt>
      <trkpt lat="47.30886" lon="-2.33945">
        <ele>18.60000038147</ele>
        <time>2021-04-04T09:57:33.000Z</time>
      </trkpt>
      <trkpt lat="47.30878" lon="-2.33947">
        <ele>19</ele>
        <time>2021-04-04T09:57:34.000Z</time>
      </trkpt>
      <trkpt lat="47.30846" lon="-2.33951">
        <ele>19</ele>
        <time>2021-04-04T09:57:39.000Z</time>
      </trkpt>
      <trkpt lat="47.30801" lon="-2.33962">
        <ele>19</ele>
        <time>2021-04-04T09:57:46.000Z</time>
      </trkpt>
      <trkpt lat="47.3078" lon="-2.33974">
        <ele>19</ele>
        <time>2021-04-04T09:57:50.000Z</time>
      </trkpt>
      <trkpt lat="47.30776" lon="-2.33996">
        <ele>19</ele>
        <time>2021-04-04T09:57:53.000Z</time>
      </trkpt>
      <trkpt lat="47.30776" lon="-2.3401">
        <ele>19</ele>
        <time>2021-04-04T09:57:55.000Z</time>
      </trkpt>
      <trkpt lat="47.30777" lon="-2.34025">
        <ele>19</ele>
        <time>2021-04-04T09:57:57.000Z</time>
      </trkpt>
      <trkpt lat="47.30777" lon="-2.34057">
        <ele>19</ele>
        <time>2021-04-04T09:58:01.000Z</time>
      </trkpt>
      <trkpt lat="47.30777" lon="-2.34064">
        <ele>19</ele>
        <time>2021-04-04T09:58:02.000Z</time>
      </trkpt>
      <trkpt lat="47.30776" lon="-2.34071">
        <ele>19</ele>
        <time>2021-04-04T09:58:03.000Z</time>
      </trkpt>
      <trkpt lat="47.30774" lon="-2.34094">
        <ele>19</ele>
        <time>2021-04-04T09:58:06.000Z</time>
      </trkpt>
      <trkpt lat="47.30769" lon="-2.34151">
        <ele>19</ele>
        <time>2021-04-04T09:58:13.000Z</time>
      </trkpt>
      <trkpt lat="47.30769" lon="-2.3416">
        <ele>19</ele>
        <time>2021-04-04T09:58:14.000Z</time>
      </trkpt>
      <trkpt lat="47.30769" lon="-2.34184">
        <ele>19</ele>
        <time>2021-04-04T09:58:17.000Z</time>
      </trkpt>
      <trkpt lat="47.30767" lon="-2.34206">
        <ele>19</ele>
        <time>2021-04-04T09:58:20.000Z</time>
      </trkpt>
      <trkpt lat="47.30758" lon="-2.34215">
        <ele>19</ele>
        <time>2021-04-04T09:58:22.000Z</time>
      </trkpt>
      <trkpt lat="47.30747" lon="-2.34215">
        <ele>19</ele>
        <time>2021-04-04T09:58:24.000Z</time>
      </trkpt>
      <trkpt lat="47.30743" lon="-2.34217">
        <ele>19</ele>
        <time>2021-04-04T09:58:25.000Z</time>
      </trkpt>
      <trkpt lat="47.30731" lon="-2.34224">
        <ele>19</ele>
        <time>2021-04-04T09:58:29.000Z</time>
      </trkpt>
      <trkpt lat="47.30733" lon="-2.34241">
        <ele>19</ele>
        <time>2021-04-04T09:58:33.000Z</time>
      </trkpt>
      <trkpt lat="47.30728" lon="-2.34266">
        <ele>19</ele>
        <time>2021-04-04T09:58:37.000Z</time>
      </trkpt>
      <trkpt lat="47.30714" lon="-2.34298">
        <ele>19</ele>
        <time>2021-04-04T09:58:42.000Z</time>
      </trkpt>
      <trkpt lat="47.30703" lon="-2.34326">
        <ele>19</ele>
        <time>2021-04-04T09:58:46.000Z</time>
      </trkpt>
      <trkpt lat="47.30699" lon="-2.34332">
        <ele>19</ele>
        <time>2021-04-04T09:58:47.000Z</time>
      </trkpt>
      <trkpt lat="47.3069" lon="-2.34352">
        <ele>19</ele>
        <time>2021-04-04T09:58:50.000Z</time>
      </trkpt>
      <trkpt lat="47.30679" lon="-2.34368">
        <ele>19</ele>
        <time>2021-04-04T09:58:53.000Z</time>
      </trkpt>
      <trkpt lat="47.30676" lon="-2.34374">
        <ele>19</ele>
        <time>2021-04-04T09:58:54.000Z</time>
      </trkpt>
      <trkpt lat="47.30666" lon="-2.34385">
        <ele>19</ele>
        <time>2021-04-04T09:58:56.000Z</time>
      </trkpt>
      <trkpt lat="47.30658" lon="-2.34398">
        <ele>19</ele>
        <time>2021-04-04T09:58:58.000Z</time>
      </trkpt>
      <trkpt lat="47.30638" lon="-2.34427">
        <ele>19.799999237061</ele>
        <time>2021-04-04T09:59:03.000Z</time>
      </trkpt>
      <trkpt lat="47.30634" lon="-2.34432">
        <ele>20.200000762939</ele>
        <time>2021-04-04T09:59:04.000Z</time>
      </trkpt>
      <trkpt lat="47.30629" lon="-2.34437">
        <ele>20.799999237061</ele>
        <time>2021-04-04T09:59:05.000Z</time>
      </trkpt>
      <trkpt lat="47.30625" lon="-2.34442">
        <ele>21.200000762939</ele>
        <time>2021-04-04T09:59:06.000Z</time>
      </trkpt>
      <trkpt lat="47.30612" lon="-2.34459">
        <ele>21.200000762939</ele>
        <time>2021-04-04T09:59:09.000Z</time>
      </trkpt>
      <trkpt lat="47.30604" lon="-2.34473">
        <ele>21.200000762939</ele>
        <time>2021-04-04T09:59:11.000Z</time>
      </trkpt>
      <trkpt lat="47.30593" lon="-2.34494">
        <ele>21.200000762939</ele>
        <time>2021-04-04T09:59:14.000Z</time>
      </trkpt>
      <trkpt lat="47.30588" lon="-2.34507">
        <ele>21.200000762939</ele>
        <time>2021-04-04T09:59:16.000Z</time>
      </trkpt>
      <trkpt lat="47.30585" lon="-2.34514">
        <ele>21.200000762939</ele>
        <time>2021-04-04T09:59:17.000Z</time>
      </trkpt>
      <trkpt lat="47.30578" lon="-2.3453">
        <ele>21.200000762939</ele>
        <time>2021-04-04T09:59:19.000Z</time>
      </trkpt>
      <trkpt lat="47.30573" lon="-2.34538">
        <ele>21.200000762939</ele>
        <time>2021-04-04T09:59:20.000Z</time>
      </trkpt>
      <trkpt lat="47.30548" lon="-2.34573">
        <ele>20.799999237061</ele>
        <time>2021-04-04T09:59:25.000Z</time>
      </trkpt>
      <trkpt lat="47.30543" lon="-2.3458">
        <ele>20.39999961853</ele>
        <time>2021-04-04T09:59:26.000Z</time>
      </trkpt>
      <trkpt lat="47.30539" lon="-2.34587">
        <ele>19.799999237061</ele>
        <time>2021-04-04T09:59:27.000Z</time>
      </trkpt>
      <trkpt lat="47.30534" lon="-2.34594">
        <ele>19</ele>
        <time>2021-04-04T09:59:28.000Z</time>
      </trkpt>
      <trkpt lat="47.30521" lon="-2.34613">
        <ele>19</ele>
        <time>2021-04-04T09:59:31.000Z</time>
      </trkpt>
      <trkpt lat="47.30514" lon="-2.34627">
        <ele>19</ele>
        <time>2021-04-04T09:59:33.000Z</time>
      </trkpt>
      <trkpt lat="47.30497" lon="-2.34655">
        <ele>19</ele>
        <time>2021-04-04T09:59:37.000Z</time>
      </trkpt>
      <trkpt lat="47.30488" lon="-2.34665">
        <ele>19</ele>
        <time>2021-04-04T09:59:39.000Z</time>
      </trkpt>
      <trkpt lat="47.30472" lon="-2.3468">
        <ele>19</ele>
        <time>2021-04-04T09:59:42.000Z</time>
      </trkpt>
      <trkpt lat="47.30461" lon="-2.34689">
        <ele>19</ele>
        <time>2021-04-04T09:59:44.000Z</time>
      </trkpt>
      <trkpt lat="47.30445" lon="-2.34702">
        <ele>19</ele>
        <time>2021-04-04T09:59:47.000Z</time>
      </trkpt>
      <trkpt lat="47.30435" lon="-2.34713">
        <ele>19</ele>
        <time>2021-04-04T09:59:49.000Z</time>
      </trkpt>
      <trkpt lat="47.30424" lon="-2.34722">
        <ele>19</ele>
        <time>2021-04-04T09:59:51.000Z</time>
      </trkpt>
      <trkpt lat="47.30414" lon="-2.34728">
        <ele>19</ele>
        <time>2021-04-04T09:59:53.000Z</time>
      </trkpt>
      <trkpt lat="47.30393" lon="-2.34742">
        <ele>19</ele>
        <time>2021-04-04T09:59:57.000Z</time>
      </trkpt>
      <trkpt lat="47.30382" lon="-2.34747">
        <ele>19</ele>
        <time>2021-04-04T09:59:59.000Z</time>
      </trkpt>
      <trkpt lat="47.30367" lon="-2.34756">
        <ele>19</ele>
        <time>2021-04-04T10:00:02.000Z</time>
      </trkpt>
      <trkpt lat="47.30352" lon="-2.34766">
        <ele>19</ele>
        <time>2021-04-04T10:00:05.000Z</time>
      </trkpt>
      <trkpt lat="47.30343" lon="-2.34778">
        <ele>19</ele>
        <time>2021-04-04T10:00:07.000Z</time>
      </trkpt>
      <trkpt lat="47.30332" lon="-2.348">
        <ele>19</ele>
        <time>2021-04-04T10:00:10.000Z</time>
      </trkpt>
      <trkpt lat="47.30325" lon="-2.34815">
        <ele>19</ele>
        <time>2021-04-04T10:00:12.000Z</time>
      </trkpt>
      <trkpt lat="47.30306" lon="-2.3484">
        <ele>19</ele>
        <time>2021-04-04T10:00:16.000Z</time>
      </trkpt>
      <trkpt lat="47.30289" lon="-2.34851">
        <ele>19</ele>
        <time>2021-04-04T10:00:19.000Z</time>
      </trkpt>
      <trkpt lat="47.30277" lon="-2.34858">
        <ele>19</ele>
        <time>2021-04-04T10:00:21.000Z</time>
      </trkpt>
      <trkpt lat="47.3027" lon="-2.34862">
        <ele>19</ele>
        <time>2021-04-04T10:00:22.000Z</time>
      </trkpt>
      <trkpt lat="47.30258" lon="-2.34869">
        <ele>19</ele>
        <time>2021-04-04T10:00:24.000Z</time>
      </trkpt>
      <trkpt lat="47.30235" lon="-2.34887">
        <ele>19</ele>
        <time>2021-04-04T10:00:28.000Z</time>
      </trkpt>
      <trkpt lat="47.3023" lon="-2.34892">
        <ele>19</ele>
        <time>2021-04-04T10:00:29.000Z</time>
      </trkpt>
      <trkpt lat="47.30223" lon="-2.34896">
        <ele>19</ele>
        <time>2021-04-04T10:00:30.000Z</time>
      </trkpt>
      <trkpt lat="47.30215" lon="-2.34909">
        <ele>19</ele>
        <time>2021-04-04T10:00:32.000Z</time>
      </trkpt>
      <trkpt lat="47.30215" lon="-2.34929">
        <ele>19</ele>
        <time>2021-04-04T10:00:34.000Z</time>
      </trkpt>
      <trkpt lat="47.30215" lon="-2.34949">
        <ele>19</ele>
        <time>2021-04-04T10:00:36.000Z</time>
      </trkpt>
      <trkpt lat="47.30213" lon="-2.34988">
        <ele>19</ele>
        <time>2021-04-04T10:00:40.000Z</time>
      </trkpt>
      <trkpt lat="47.30213" lon="-2.34998">
        <ele>18.60000038147</ele>
        <time>2021-04-04T10:00:41.000Z</time>
      </trkpt>
      <trkpt lat="47.30213" lon="-2.35009">
        <ele>18.200000762939</ele>
        <time>2021-04-04T10:00:42.000Z</time>
      </trkpt>
      <trkpt lat="47.30214" lon="-2.3502">
        <ele>17.60000038147</ele>
        <time>2021-04-04T10:00:43.000Z</time>
      </trkpt>
      <trkpt lat="47.30214" lon="-2.35031">
        <ele>17.200000762939</ele>
        <time>2021-04-04T10:00:44.000Z</time>
      </trkpt>
      <trkpt lat="47.30213" lon="-2.35042">
        <ele>16.799999237061</ele>
        <time>2021-04-04T10:00:45.000Z</time>
      </trkpt>
      <trkpt lat="47.30211" lon="-2.35114">
        <ele>16.799999237061</ele>
        <time>2021-04-04T10:00:52.000Z</time>
      </trkpt>
      <trkpt lat="47.30211" lon="-2.35146">
        <ele>16.39999961853</ele>
        <time>2021-04-04T10:00:55.000Z</time>
      </trkpt>
      <trkpt lat="47.3021" lon="-2.35156">
        <ele>15.800000190735</ele>
        <time>2021-04-04T10:00:56.000Z</time>
      </trkpt>
      <trkpt lat="47.30208" lon="-2.35166">
        <ele>15.39999961853</ele>
        <time>2021-04-04T10:00:57.000Z</time>
      </trkpt>
      <trkpt lat="47.30202" lon="-2.35169">
        <ele>15</ele>
        <time>2021-04-04T10:00:58.000Z</time>
      </trkpt>
      <trkpt lat="47.30197" lon="-2.35171">
        <ele>14.60000038147</ele>
        <time>2021-04-04T10:00:59.000Z</time>
      </trkpt>
      <trkpt lat="47.30191" lon="-2.35172">
        <ele>14.60000038147</ele>
        <time>2021-04-04T10:01:00.000Z</time>
      </trkpt>
      <trkpt lat="47.30173" lon="-2.35178">
        <ele>14.60000038147</ele>
        <time>2021-04-04T10:01:03.000Z</time>
      </trkpt>
      <trkpt lat="47.30169" lon="-2.35183">
        <ele>14.60000038147</ele>
        <time>2021-04-04T10:01:04.000Z</time>
      </trkpt>
      <trkpt lat="47.30164" lon="-2.3519">
        <ele>14.199999809265</ele>
        <time>2021-04-04T10:01:06.000Z</time>
      </trkpt>
      <trkpt lat="47.30163" lon="-2.35191">
        <ele>13.800000190735</ele>
        <time>2021-04-04T10:01:07.000Z</time>
      </trkpt>
      <trkpt lat="47.30161" lon="-2.35191">
        <ele>13.39999961853</ele>
        <time>2021-04-04T10:01:08.000Z</time>
      </trkpt>
      <trkpt lat="47.3016" lon="-2.35192">
        <ele>13</ele>
        <time>2021-04-04T10:01:09.000Z</time>
      </trkpt>
      <trkpt lat="47.30159" lon="-2.35193">
        <ele>12.60000038147</ele>
        <time>2021-04-04T10:01:10.000Z</time>
      </trkpt>
      <trkpt lat="47.30156" lon="-2.35194">
        <ele>12.60000038147</ele>
        <time>2021-04-04T10:01:12.000Z</time>
      </trkpt>
      <trkpt lat="47.30152" lon="-2.35195">
        <ele>12.60000038147</ele>
        <time>2021-04-04T10:01:15.000Z</time>
      </trkpt>
      <trkpt lat="47.30139" lon="-2.35194">
        <ele>12.60000038147</ele>
        <time>2021-04-04T10:01:21.000Z</time>
      </trkpt>
      <trkpt lat="47.30121" lon="-2.35203">
        <ele>12.60000038147</ele>
        <time>2021-04-04T10:01:25.000Z</time>
      </trkpt>
      <trkpt lat="47.30115" lon="-2.35204">
        <ele>12.60000038147</ele>
        <time>2021-04-04T10:01:26.000Z</time>
      </trkpt>
      <trkpt lat="47.30099" lon="-2.35209">
        <ele>12.60000038147</ele>
        <time>2021-04-04T10:01:30.000Z</time>
      </trkpt>
      <trkpt lat="47.30085" lon="-2.35214">
        <ele>12.60000038147</ele>
        <time>2021-04-04T10:01:34.000Z</time>
      </trkpt>
      <trkpt lat="47.30067" lon="-2.35225">
        <ele>12.60000038147</ele>
        <time>2021-04-04T10:01:39.000Z</time>
      </trkpt>
      <trkpt lat="47.30057" lon="-2.35229">
        <ele>12.60000038147</ele>
        <time>2021-04-04T10:01:41.000Z</time>
      </trkpt>
      <trkpt lat="47.30044" lon="-2.35235">
        <ele>12.60000038147</ele>
        <time>2021-04-04T10:01:44.000Z</time>
      </trkpt>
      <trkpt lat="47.30026" lon="-2.35245">
        <ele>12.60000038147</ele>
        <time>2021-04-04T10:01:49.000Z</time>
      </trkpt>
      <trkpt lat="47.30025" lon="-2.35244">
        <ele>12.60000038147</ele>
        <time>2021-04-04T10:01:50.000Z</time>
      </trkpt>
      <trkpt lat="47.30021" lon="-2.35246">
        <ele>12.60000038147</ele>
        <time>2021-04-04T10:01:52.000Z</time>
      </trkpt>
      <trkpt lat="47.30012" lon="-2.35253">
        <ele>12.60000038147</ele>
        <time>2021-04-04T10:01:55.000Z</time>
      </trkpt>
      <trkpt lat="47.30008" lon="-2.35256">
        <ele>12.60000038147</ele>
        <time>2021-04-04T10:01:57.000Z</time>
      </trkpt>
      <trkpt lat="47.29995" lon="-2.35261">
        <ele>12.60000038147</ele>
        <time>2021-04-04T10:02:03.000Z</time>
      </trkpt>
      <trkpt lat="47.29995" lon="-2.35261">
        <ele>12.60000038147</ele>
        <time>2021-04-04T10:02:04.000Z</time>
      </trkpt>
      <trkpt lat="47.29994" lon="-2.35263">
        <ele>12.60000038147</ele>
        <time>2021-04-04T10:03:02.000Z</time>
      </trkpt>
      <trkpt lat="47.29991" lon="-2.35267">
        <ele>12.60000038147</ele>
        <time>2021-04-04T10:03:04.000Z</time>
      </trkpt>
      <trkpt lat="47.29978" lon="-2.35283">
        <ele>12.60000038147</ele>
        <time>2021-04-04T10:03:09.000Z</time>
      </trkpt>
      <trkpt lat="47.29956" lon="-2.35313">
        <ele>12.60000038147</ele>
        <time>2021-04-04T10:03:16.000Z</time>
      </trkpt>
      <trkpt lat="47.29929" lon="-2.35347">
        <ele>12.60000038147</ele>
        <time>2021-04-04T10:03:23.000Z</time>
      </trkpt>
      <trkpt lat="47.29892" lon="-2.35389">
        <ele>12.60000038147</ele>
        <time>2021-04-04T10:03:32.000Z</time>
      </trkpt>
      <trkpt lat="47.2986" lon="-2.35422">
        <ele>12.60000038147</ele>
        <time>2021-04-04T10:03:40.000Z</time>
      </trkpt>
      <trkpt lat="47.29838" lon="-2.35449">
        <ele>12.60000038147</ele>
        <time>2021-04-04T10:03:46.000Z</time>
      </trkpt>
      <trkpt lat="47.29835" lon="-2.35454">
        <ele>12.60000038147</ele>
        <time>2021-04-04T10:03:47.000Z</time>
      </trkpt>
      <trkpt lat="47.29831" lon="-2.35474">
        <ele>12.60000038147</ele>
        <time>2021-04-04T10:03:50.000Z</time>
      </trkpt>
      <trkpt lat="47.29834" lon="-2.35487">
        <ele>12.60000038147</ele>
        <time>2021-04-04T10:03:52.000Z</time>
      </trkpt>
      <trkpt lat="47.29837" lon="-2.355">
        <ele>12.60000038147</ele>
        <time>2021-04-04T10:03:54.000Z</time>
      </trkpt>
      <trkpt lat="47.29841" lon="-2.35512">
        <ele>13</ele>
        <time>2021-04-04T10:03:56.000Z</time>
      </trkpt>
      <trkpt lat="47.29843" lon="-2.35519">
        <ele>13.39999961853</ele>
        <time>2021-04-04T10:03:57.000Z</time>
      </trkpt>
      <trkpt lat="47.29845" lon="-2.35525">
        <ele>14</ele>
        <time>2021-04-04T10:03:58.000Z</time>
      </trkpt>
      <trkpt lat="47.29847" lon="-2.35532">
        <ele>14.39999961853</ele>
        <time>2021-04-04T10:03:59.000Z</time>
      </trkpt>
      <trkpt lat="47.29849" lon="-2.35538">
        <ele>14.800000190735</ele>
        <time>2021-04-04T10:04:00.000Z</time>
      </trkpt>
      <trkpt lat="47.29851" lon="-2.35544">
        <ele>14.800000190735</ele>
        <time>2021-04-04T10:04:01.000Z</time>
      </trkpt>
      <trkpt lat="47.29854" lon="-2.35557">
        <ele>14.800000190735</ele>
        <time>2021-04-04T10:04:03.000Z</time>
      </trkpt>
      <trkpt lat="47.29861" lon="-2.35583">
        <ele>14.800000190735</ele>
        <time>2021-04-04T10:04:07.000Z</time>
      </trkpt>
      <trkpt lat="47.29863" lon="-2.35589">
        <ele>14.800000190735</ele>
        <time>2021-04-04T10:04:08.000Z</time>
      </trkpt>
      <trkpt lat="47.2987" lon="-2.35614">
        <ele>14.800000190735</ele>
        <time>2021-04-04T10:04:12.000Z</time>
      </trkpt>
      <trkpt lat="47.29872" lon="-2.35627">
        <ele>14.800000190735</ele>
        <time>2021-04-04T10:04:14.000Z</time>
      </trkpt>
      <trkpt lat="47.29873" lon="-2.35633">
        <ele>14.800000190735</ele>
        <time>2021-04-04T10:04:15.000Z</time>
      </trkpt>
      <trkpt lat="47.29877" lon="-2.35657">
        <ele>15.199999809265</ele>
        <time>2021-04-04T10:04:19.000Z</time>
      </trkpt>
      <trkpt lat="47.29878" lon="-2.35663">
        <ele>15.60000038147</ele>
        <time>2021-04-04T10:04:20.000Z</time>
      </trkpt>
      <trkpt lat="47.29879" lon="-2.3567">
        <ele>16</ele>
        <time>2021-04-04T10:04:21.000Z</time>
      </trkpt>
      <trkpt lat="47.2988" lon="-2.35676">
        <ele>16.39999961853</ele>
        <time>2021-04-04T10:04:22.000Z</time>
      </trkpt>
      <trkpt lat="47.29881" lon="-2.35682">
        <ele>17</ele>
        <time>2021-04-04T10:04:23.000Z</time>
      </trkpt>
      <trkpt lat="47.29884" lon="-2.35698">
        <ele>17</ele>
        <time>2021-04-04T10:04:26.000Z</time>
      </trkpt>
      <trkpt lat="47.29891" lon="-2.35727">
        <ele>17</ele>
        <time>2021-04-04T10:04:32.000Z</time>
      </trkpt>
      <trkpt lat="47.29896" lon="-2.35753">
        <ele>17</ele>
        <time>2021-04-04T10:04:38.000Z</time>
      </trkpt>
      <trkpt lat="47.29895" lon="-2.35756">
        <ele>17</ele>
        <time>2021-04-04T10:04:39.000Z</time>
      </trkpt>
      <trkpt lat="47.2989" lon="-2.35763">
        <ele>17</ele>
        <time>2021-04-04T10:04:41.000Z</time>
      </trkpt>
      <trkpt lat="47.29884" lon="-2.35771">
        <ele>17</ele>
        <time>2021-04-04T10:04:43.000Z</time>
      </trkpt>
      <trkpt lat="47.29875" lon="-2.35775">
        <ele>17</ele>
        <time>2021-04-04T10:04:45.000Z</time>
      </trkpt>
      <trkpt lat="47.29853" lon="-2.35782">
        <ele>17</ele>
        <time>2021-04-04T10:04:49.000Z</time>
      </trkpt>
      <trkpt lat="47.29843" lon="-2.35784">
        <ele>17</ele>
        <time>2021-04-04T10:04:51.000Z</time>
      </trkpt>
      <trkpt lat="47.29807" lon="-2.35793">
        <ele>17.39999961853</ele>
        <time>2021-04-04T10:04:59.000Z</time>
      </trkpt>
      <trkpt lat="47.29803" lon="-2.35794">
        <ele>17.799999237061</ele>
        <time>2021-04-04T10:05:00.000Z</time>
      </trkpt>
      <trkpt lat="47.29798" lon="-2.35796">
        <ele>18.200000762939</ele>
        <time>2021-04-04T10:05:01.000Z</time>
      </trkpt>
      <trkpt lat="47.29794" lon="-2.35797">
        <ele>18.60000038147</ele>
        <time>2021-04-04T10:05:02.000Z</time>
      </trkpt>
      <trkpt lat="47.29789" lon="-2.35799">
        <ele>19</ele>
        <time>2021-04-04T10:05:03.000Z</time>
      </trkpt>
      <trkpt lat="47.2977" lon="-2.35805">
        <ele>19</ele>
        <time>2021-04-04T10:05:07.000Z</time>
      </trkpt>
      <trkpt lat="47.29739" lon="-2.35818">
        <ele>19</ele>
        <time>2021-04-04T10:05:13.000Z</time>
      </trkpt>
      <trkpt lat="47.29699" lon="-2.35839">
        <ele>19</ele>
        <time>2021-04-04T10:05:19.000Z</time>
      </trkpt>
      <trkpt lat="47.29692" lon="-2.35842">
        <ele>19</ele>
        <time>2021-04-04T10:05:20.000Z</time>
      </trkpt>
      <trkpt lat="47.29678" lon="-2.35846">
        <ele>19</ele>
        <time>2021-04-04T10:05:22.000Z</time>
      </trkpt>
      <trkpt lat="47.29672" lon="-2.3585">
        <ele>19</ele>
        <time>2021-04-04T10:05:23.000Z</time>
      </trkpt>
      <trkpt lat="47.29663" lon="-2.3586">
        <ele>18.60000038147</ele>
        <time>2021-04-04T10:05:25.000Z</time>
      </trkpt>
      <trkpt lat="47.29658" lon="-2.35863">
        <ele>18</ele>
        <time>2021-04-04T10:05:26.000Z</time>
      </trkpt>
      <trkpt lat="47.29653" lon="-2.35866">
        <ele>17.60000038147</ele>
        <time>2021-04-04T10:05:27.000Z</time>
      </trkpt>
      <trkpt lat="47.29648" lon="-2.35869">
        <ele>17.200000762939</ele>
        <time>2021-04-04T10:05:28.000Z</time>
      </trkpt>
      <trkpt lat="47.29643" lon="-2.35872">
        <ele>16.799999237061</ele>
        <time>2021-04-04T10:05:29.000Z</time>
      </trkpt>
      <trkpt lat="47.29611" lon="-2.35888">
        <ele>16.799999237061</ele>
        <time>2021-04-04T10:05:35.000Z</time>
      </trkpt>
      <trkpt lat="47.2958" lon="-2.3591">
        <ele>16.799999237061</ele>
        <time>2021-04-04T10:05:42.000Z</time>
      </trkpt>
      <trkpt lat="47.29548" lon="-2.35927">
        <ele>16.799999237061</ele>
        <time>2021-04-04T10:05:48.000Z</time>
      </trkpt>
      <trkpt lat="47.29518" lon="-2.35942">
        <ele>16.799999237061</ele>
        <time>2021-04-04T10:05:54.000Z</time>
      </trkpt>
      <trkpt lat="47.29513" lon="-2.35943">
        <ele>16.799999237061</ele>
        <time>2021-04-04T10:05:55.000Z</time>
      </trkpt>
      <trkpt lat="47.29504" lon="-2.35932">
        <ele>16.799999237061</ele>
        <time>2021-04-04T10:05:58.000Z</time>
      </trkpt>
      <trkpt lat="47.29499" lon="-2.35912">
        <ele>16.799999237061</ele>
        <time>2021-04-04T10:06:02.000Z</time>
      </trkpt>
      <trkpt lat="47.29499" lon="-2.35906">
        <ele>16.799999237061</ele>
        <time>2021-04-04T10:06:03.000Z</time>
      </trkpt>
      <trkpt lat="47.29497" lon="-2.35902">
        <ele>16.799999237061</ele>
        <time>2021-04-04T10:06:04.000Z</time>
      </trkpt>
      <trkpt lat="47.29491" lon="-2.35899">
        <ele>16.799999237061</ele>
        <time>2021-04-04T10:06:06.000Z</time>
      </trkpt>
      <trkpt lat="47.29473" lon="-2.359">
        <ele>16.799999237061</ele>
        <time>2021-04-04T10:06:11.000Z</time>
      </trkpt>
      <trkpt lat="47.29465" lon="-2.35901">
        <ele>16.799999237061</ele>
        <time>2021-04-04T10:06:16.000Z</time>
      </trkpt>
      <trkpt lat="47.29455" lon="-2.35908">
        <ele>16.799999237061</ele>
        <time>2021-04-04T10:06:22.000Z</time>
      </trkpt>
      <trkpt lat="47.29441" lon="-2.35914">
        <ele>16.799999237061</ele>
        <time>2021-04-04T10:06:27.000Z</time>
      </trkpt>
      <trkpt lat="47.29432" lon="-2.359">
        <ele>16.799999237061</ele>
        <time>2021-04-04T10:06:31.000Z</time>
      </trkpt>
      <trkpt lat="47.29417" lon="-2.35878">
        <ele>16.799999237061</ele>
        <time>2021-04-04T10:06:36.000Z</time>
      </trkpt>
      <trkpt lat="47.29396" lon="-2.35854">
        <ele>16.799999237061</ele>
        <time>2021-04-04T10:06:42.000Z</time>
      </trkpt>
      <trkpt lat="47.29367" lon="-2.35825">
        <ele>16.799999237061</ele>
        <time>2021-04-04T10:06:49.000Z</time>
      </trkpt>
      <trkpt lat="47.29339" lon="-2.35801">
        <ele>16.799999237061</ele>
        <time>2021-04-04T10:06:55.000Z</time>
      </trkpt>
      <trkpt lat="47.2933" lon="-2.35793">
        <ele>16.799999237061</ele>
        <time>2021-04-04T10:06:57.000Z</time>
      </trkpt>
      <trkpt lat="47.29306" lon="-2.35773">
        <ele>16.799999237061</ele>
        <time>2021-04-04T10:07:02.000Z</time>
      </trkpt>
      <trkpt lat="47.29274" lon="-2.35742">
        <ele>16.799999237061</ele>
        <time>2021-04-04T10:07:09.000Z</time>
      </trkpt>
      <trkpt lat="47.29261" lon="-2.3573">
        <ele>16.799999237061</ele>
        <time>2021-04-04T10:07:12.000Z</time>
      </trkpt>
      <trkpt lat="47.29254" lon="-2.35731">
        <ele>16.799999237061</ele>
        <time>2021-04-04T10:07:14.000Z</time>
      </trkpt>
      <trkpt lat="47.29243" lon="-2.35753">
        <ele>16.799999237061</ele>
        <time>2021-04-04T10:07:18.000Z</time>
      </trkpt>
      <trkpt lat="47.29235" lon="-2.35763">
        <ele>16.799999237061</ele>
        <time>2021-04-04T10:07:20.000Z</time>
      </trkpt>
      <trkpt lat="47.29216" lon="-2.35781">
        <ele>16.799999237061</ele>
        <time>2021-04-04T10:07:24.000Z</time>
      </trkpt>
      <trkpt lat="47.29182" lon="-2.35806">
        <ele>16.799999237061</ele>
        <time>2021-04-04T10:07:31.000Z</time>
      </trkpt>
      <trkpt lat="47.29155" lon="-2.35823">
        <ele>16.799999237061</ele>
        <time>2021-04-04T10:07:37.000Z</time>
      </trkpt>
      <trkpt lat="47.29129" lon="-2.35849">
        <ele>16.799999237061</ele>
        <time>2021-04-04T10:07:43.000Z</time>
      </trkpt>
      <trkpt lat="47.29093" lon="-2.35893">
        <ele>16.799999237061</ele>
        <time>2021-04-04T10:07:51.000Z</time>
      </trkpt>
      <trkpt lat="47.29068" lon="-2.35924">
        <ele>16.799999237061</ele>
        <time>2021-04-04T10:07:57.000Z</time>
      </trkpt>
      <trkpt lat="47.29036" lon="-2.35958">
        <ele>16.799999237061</ele>
        <time>2021-04-04T10:08:04.000Z</time>
      </trkpt>
      <trkpt lat="47.29009" lon="-2.35988">
        <ele>16.799999237061</ele>
        <time>2021-04-04T10:08:10.000Z</time>
      </trkpt>
      <trkpt lat="47.28977" lon="-2.36018">
        <ele>16.799999237061</ele>
        <time>2021-04-04T10:08:17.000Z</time>
      </trkpt>
      <trkpt lat="47.28969" lon="-2.36028">
        <ele>16.799999237061</ele>
        <time>2021-04-04T10:08:19.000Z</time>
      </trkpt>
      <trkpt lat="47.2896" lon="-2.36039">
        <ele>16.799999237061</ele>
        <time>2021-04-04T10:08:21.000Z</time>
      </trkpt>
      <trkpt lat="47.28955" lon="-2.36044">
        <ele>16.799999237061</ele>
        <time>2021-04-04T10:08:22.000Z</time>
      </trkpt>
      <trkpt lat="47.28921" lon="-2.36067">
        <ele>16.799999237061</ele>
        <time>2021-04-04T10:08:28.000Z</time>
      </trkpt>
      <trkpt lat="47.28882" lon="-2.36102">
        <ele>16.799999237061</ele>
        <time>2021-04-04T10:08:36.000Z</time>
      </trkpt>
      <trkpt lat="47.28852" lon="-2.36131">
        <ele>16.799999237061</ele>
        <time>2021-04-04T10:08:42.000Z</time>
      </trkpt>
      <trkpt lat="47.28826" lon="-2.36166">
        <ele>16.799999237061</ele>
        <time>2021-04-04T10:08:48.000Z</time>
      </trkpt>
      <trkpt lat="47.28819" lon="-2.36176">
        <ele>16.799999237061</ele>
        <time>2021-04-04T10:08:50.000Z</time>
      </trkpt>
      <trkpt lat="47.28806" lon="-2.36186">
        <ele>16.799999237061</ele>
        <time>2021-04-04T10:08:53.000Z</time>
      </trkpt>
      <trkpt lat="47.28801" lon="-2.36189">
        <ele>16.799999237061</ele>
        <time>2021-04-04T10:08:54.000Z</time>
      </trkpt>
      <trkpt lat="47.28775" lon="-2.36207">
        <ele>16.799999237061</ele>
        <time>2021-04-04T10:09:00.000Z</time>
      </trkpt>
      <trkpt lat="47.28761" lon="-2.36215">
        <ele>16.799999237061</ele>
        <time>2021-04-04T10:09:03.000Z</time>
      </trkpt>
      <trkpt lat="47.28753" lon="-2.36212">
        <ele>16.799999237061</ele>
        <time>2021-04-04T10:09:05.000Z</time>
      </trkpt>
      <trkpt lat="47.28745" lon="-2.36204">
        <ele>16.799999237061</ele>
        <time>2021-04-04T10:09:08.000Z</time>
      </trkpt>
      <trkpt lat="47.28743" lon="-2.36203">
        <ele>16.799999237061</ele>
        <time>2021-04-04T10:09:09.000Z</time>
      </trkpt>
      <trkpt lat="47.28736" lon="-2.36206">
        <ele>16.799999237061</ele>
        <time>2021-04-04T10:09:11.000Z</time>
      </trkpt>
      <trkpt lat="47.28719" lon="-2.36219">
        <ele>16.799999237061</ele>
        <time>2021-04-04T10:09:17.000Z</time>
      </trkpt>
      <trkpt lat="47.28702" lon="-2.36228">
        <ele>16.799999237061</ele>
        <time>2021-04-04T10:09:22.000Z</time>
      </trkpt>
      <trkpt lat="47.28694" lon="-2.36223">
        <ele>16.799999237061</ele>
        <time>2021-04-04T10:09:26.000Z</time>
      </trkpt>
      <trkpt lat="47.28691" lon="-2.36221">
        <ele>17.200000762939</ele>
        <time>2021-04-04T10:09:29.000Z</time>
      </trkpt>
      <trkpt lat="47.2869" lon="-2.3622">
        <ele>17.60000038147</ele>
        <time>2021-04-04T10:09:30.000Z</time>
      </trkpt>
      <trkpt lat="47.28669" lon="-2.362">
        <ele>23</ele>
        <time>2021-04-04T10:10:17.000Z</time>
      </trkpt>
      <trkpt lat="47.28668" lon="-2.36197">
        <ele>23</ele>
        <time>2021-04-04T10:10:18.000Z</time>
      </trkpt>
      <trkpt lat="47.28659" lon="-2.3618">
        <ele>23</ele>
        <time>2021-04-04T10:10:24.000Z</time>
      </trkpt>
      <trkpt lat="47.28654" lon="-2.36177">
        <ele>23.39999961853</ele>
        <time>2021-04-04T10:10:26.000Z</time>
      </trkpt>
      <trkpt lat="47.28651" lon="-2.36175">
        <ele>23.799999237061</ele>
        <time>2021-04-04T10:10:27.000Z</time>
      </trkpt>
      <trkpt lat="47.28648" lon="-2.36173">
        <ele>24.39999961853</ele>
        <time>2021-04-04T10:10:28.000Z</time>
      </trkpt>
      <trkpt lat="47.28643" lon="-2.36168">
        <ele>24.799999237061</ele>
        <time>2021-04-04T10:10:29.000Z</time>
      </trkpt>
      <trkpt lat="47.28639" lon="-2.36163">
        <ele>25.200000762939</ele>
        <time>2021-04-04T10:10:30.000Z</time>
      </trkpt>
      <trkpt lat="47.2863" lon="-2.36151">
        <ele>25.200000762939</ele>
        <time>2021-04-04T10:10:33.000Z</time>
      </trkpt>
      <trkpt lat="47.28624" lon="-2.3615">
        <ele>25.200000762939</ele>
        <time>2021-04-04T10:10:35.000Z</time>
      </trkpt>
      <trkpt lat="47.28607" lon="-2.36158">
        <ele>25.200000762939</ele>
        <time>2021-04-04T10:10:41.000Z</time>
      </trkpt>
      <trkpt lat="47.28593" lon="-2.36158">
        <ele>25.60000038147</ele>
        <time>2021-04-04T10:10:45.000Z</time>
      </trkpt>
      <trkpt lat="47.2859" lon="-2.36156">
        <ele>26</ele>
        <time>2021-04-04T10:10:46.000Z</time>
      </trkpt>
      <trkpt lat="47.28587" lon="-2.36155">
        <ele>26.39999961853</ele>
        <time>2021-04-04T10:10:47.000Z</time>
      </trkpt>
      <trkpt lat="47.28584" lon="-2.36153">
        <ele>26.799999237061</ele>
        <time>2021-04-04T10:10:48.000Z</time>
      </trkpt>
      <trkpt lat="47.28582" lon="-2.36151">
        <ele>27.200000762939</ele>
        <time>2021-04-04T10:10:49.000Z</time>
      </trkpt>
      <trkpt lat="47.28575" lon="-2.36149">
        <ele>27.200000762939</ele>
        <time>2021-04-04T10:10:51.000Z</time>
      </trkpt>
      <trkpt lat="47.28571" lon="-2.36149">
        <ele>27.200000762939</ele>
        <time>2021-04-04T10:10:52.000Z</time>
      </trkpt>
      <trkpt lat="47.28561" lon="-2.36155">
        <ele>26.799999237061</ele>
        <time>2021-04-04T10:10:55.000Z</time>
      </trkpt>
      <trkpt lat="47.28558" lon="-2.36155">
        <ele>26.39999961853</ele>
        <time>2021-04-04T10:10:56.000Z</time>
      </trkpt>
      <trkpt lat="47.28556" lon="-2.36154">
        <ele>26</ele>
        <time>2021-04-04T10:10:57.000Z</time>
      </trkpt>
      <trkpt lat="47.28555" lon="-2.36152">
        <ele>25.60000038147</ele>
        <time>2021-04-04T10:10:58.000Z</time>
      </trkpt>
      <trkpt lat="47.28552" lon="-2.36147">
        <ele>24.60000038147</ele>
        <time>2021-04-04T10:10:59.000Z</time>
      </trkpt>
      <trkpt lat="47.28549" lon="-2.36142">
        <ele>24.200000762939</ele>
        <time>2021-04-04T10:11:00.000Z</time>
      </trkpt>
      <trkpt lat="47.28546" lon="-2.36137">
        <ele>23.799999237061</ele>
        <time>2021-04-04T10:11:01.000Z</time>
      </trkpt>
      <trkpt lat="47.28543" lon="-2.36132">
        <ele>23.39999961853</ele>
        <time>2021-04-04T10:11:02.000Z</time>
      </trkpt>
      <trkpt lat="47.28541" lon="-2.36128">
        <ele>23</ele>
        <time>2021-04-04T10:11:03.000Z</time>
      </trkpt>
      <trkpt lat="47.2854" lon="-2.36123">
        <ele>23</ele>
        <time>2021-04-04T10:11:04.000Z</time>
      </trkpt>
      <trkpt lat="47.28535" lon="-2.361">
        <ele>23</ele>
        <time>2021-04-04T10:11:09.000Z</time>
      </trkpt>
      <trkpt lat="47.28526" lon="-2.3608">
        <ele>23</ele>
        <time>2021-04-04T10:11:13.000Z</time>
      </trkpt>
      <trkpt lat="47.28504" lon="-2.36049">
        <ele>23</ele>
        <time>2021-04-04T10:11:19.000Z</time>
      </trkpt>
      <trkpt lat="47.28489" lon="-2.36037">
        <ele>23</ele>
        <time>2021-04-04T10:11:23.000Z</time>
      </trkpt>
      <trkpt lat="47.28484" lon="-2.36036">
        <ele>23</ele>
        <time>2021-04-04T10:11:24.000Z</time>
      </trkpt>
      <trkpt lat="47.28474" lon="-2.36032">
        <ele>23</ele>
        <time>2021-04-04T10:11:26.000Z</time>
      </trkpt>
      <trkpt lat="47.28462" lon="-2.36021">
        <ele>23</ele>
        <time>2021-04-04T10:11:29.000Z</time>
      </trkpt>
      <trkpt lat="47.28442" lon="-2.35998">
        <ele>23</ele>
        <time>2021-04-04T10:11:35.000Z</time>
      </trkpt>
      <trkpt lat="47.2844" lon="-2.35997">
        <ele>23</ele>
        <time>2021-04-04T10:11:36.000Z</time>
      </trkpt>
      <trkpt lat="47.28434" lon="-2.35999">
        <ele>23</ele>
        <time>2021-04-04T10:11:39.000Z</time>
      </trkpt>
      <trkpt lat="47.28417" lon="-2.36017">
        <ele>23</ele>
        <time>2021-04-04T10:11:44.000Z</time>
      </trkpt>
      <trkpt lat="47.28409" lon="-2.36023">
        <ele>23</ele>
        <time>2021-04-04T10:11:46.000Z</time>
      </trkpt>
      <trkpt lat="47.28395" lon="-2.36027">
        <ele>23</ele>
        <time>2021-04-04T10:11:49.000Z</time>
      </trkpt>
      <trkpt lat="47.28374" lon="-2.36024">
        <ele>23</ele>
        <time>2021-04-04T10:11:52.000Z</time>
      </trkpt>
      <trkpt lat="47.28367" lon="-2.36024">
        <ele>22.39999961853</ele>
        <time>2021-04-04T10:11:53.000Z</time>
      </trkpt>
      <trkpt lat="47.28359" lon="-2.36026">
        <ele>22</ele>
        <time>2021-04-04T10:11:54.000Z</time>
      </trkpt>
      <trkpt lat="47.28352" lon="-2.36029">
        <ele>21.39999961853</ele>
        <time>2021-04-04T10:11:55.000Z</time>
      </trkpt>
      <trkpt lat="47.28344" lon="-2.36033">
        <ele>20.799999237061</ele>
        <time>2021-04-04T10:11:56.000Z</time>
      </trkpt>
      <trkpt lat="47.28337" lon="-2.36039">
        <ele>20</ele>
        <time>2021-04-04T10:11:57.000Z</time>
      </trkpt>
      <trkpt lat="47.2833" lon="-2.36044">
        <ele>19.39999961853</ele>
        <time>2021-04-04T10:11:58.000Z</time>
      </trkpt>
      <trkpt lat="47.28324" lon="-2.36049">
        <ele>18.60000038147</ele>
        <time>2021-04-04T10:11:59.000Z</time>
      </trkpt>
      <trkpt lat="47.28318" lon="-2.3605">
        <ele>18</ele>
        <time>2021-04-04T10:12:00.000Z</time>
      </trkpt>
      <trkpt lat="47.28312" lon="-2.3605">
        <ele>17.39999961853</ele>
        <time>2021-04-04T10:12:01.000Z</time>
      </trkpt>
      <trkpt lat="47.28306" lon="-2.3605">
        <ele>16.799999237061</ele>
        <time>2021-04-04T10:12:02.000Z</time>
      </trkpt>
      <trkpt lat="47.283" lon="-2.36048">
        <ele>16.200000762939</ele>
        <time>2021-04-04T10:12:03.000Z</time>
      </trkpt>
      <trkpt lat="47.28295" lon="-2.36047">
        <ele>15.60000038147</ele>
        <time>2021-04-04T10:12:04.000Z</time>
      </trkpt>
      <trkpt lat="47.2829" lon="-2.36045">
        <ele>15.60000038147</ele>
        <time>2021-04-04T10:12:05.000Z</time>
      </trkpt>
      <trkpt lat="47.28285" lon="-2.36042">
        <ele>15</ele>
        <time>2021-04-04T10:12:06.000Z</time>
      </trkpt>
      <trkpt lat="47.2828" lon="-2.36038">
        <ele>14.60000038147</ele>
        <time>2021-04-04T10:12:07.000Z</time>
      </trkpt>
      <trkpt lat="47.28275" lon="-2.36033">
        <ele>14</ele>
        <time>2021-04-04T10:12:08.000Z</time>
      </trkpt>
      <trkpt lat="47.28271" lon="-2.36029">
        <ele>13.39999961853</ele>
        <time>2021-04-04T10:12:09.000Z</time>
      </trkpt>
      <trkpt lat="47.28267" lon="-2.36024">
        <ele>12.60000038147</ele>
        <time>2021-04-04T10:12:10.000Z</time>
      </trkpt>
      <trkpt lat="47.28263" lon="-2.36019">
        <ele>11.800000190735</ele>
        <time>2021-04-04T10:12:11.000Z</time>
      </trkpt>
      <trkpt lat="47.28261" lon="-2.36012">
        <ele>10</ele>
        <time>2021-04-04T10:12:12.000Z</time>
      </trkpt>
      <trkpt lat="47.28261" lon="-2.36005">
        <ele>9</ele>
        <time>2021-04-04T10:12:13.000Z</time>
      </trkpt>
      <trkpt lat="47.28261" lon="-2.35998">
        <ele>8.1999998092651</ele>
        <time>2021-04-04T10:12:14.000Z</time>
      </trkpt>
      <trkpt lat="47.28262" lon="-2.3599">
        <ele>7.8000001907349</ele>
        <time>2021-04-04T10:12:15.000Z</time>
      </trkpt>
      <trkpt lat="47.28261" lon="-2.35984">
        <ele>7.4000000953674</ele>
        <time>2021-04-04T10:12:16.000Z</time>
      </trkpt>
      <trkpt lat="47.28261" lon="-2.35979">
        <ele>6.8000001907349</ele>
        <time>2021-04-04T10:12:17.000Z</time>
      </trkpt>
      <trkpt lat="47.2826" lon="-2.35974">
        <ele>6.4000000953674</ele>
        <time>2021-04-04T10:12:18.000Z</time>
      </trkpt>
      <trkpt lat="47.28258" lon="-2.3597">
        <ele>6</ele>
        <time>2021-04-04T10:12:19.000Z</time>
      </trkpt>
      <trkpt lat="47.28254" lon="-2.35961">
        <ele>6</ele>
        <time>2021-04-04T10:12:21.000Z</time>
      </trkpt>
      <trkpt lat="47.28238" lon="-2.35932">
        <ele>6</ele>
        <time>2021-04-04T10:12:28.000Z</time>
      </trkpt>
      <trkpt lat="47.28236" lon="-2.35927">
        <ele>6.4000000953674</ele>
        <time>2021-04-04T10:12:29.000Z</time>
      </trkpt>
      <trkpt lat="47.28234" lon="-2.35921">
        <ele>6.8000001907349</ele>
        <time>2021-04-04T10:12:30.000Z</time>
      </trkpt>
      <trkpt lat="47.28232" lon="-2.35918">
        <ele>7.1999998092651</ele>
        <time>2021-04-04T10:12:31.000Z</time>
      </trkpt>
      <trkpt lat="47.28229" lon="-2.35915">
        <ele>7.5999999046326</ele>
        <time>2021-04-04T10:12:32.000Z</time>
      </trkpt>
      <trkpt lat="47.28226" lon="-2.35912">
        <ele>8</ele>
        <time>2021-04-04T10:12:33.000Z</time>
      </trkpt>
      <trkpt lat="47.28213" lon="-2.35907">
        <ele>8</ele>
        <time>2021-04-04T10:12:37.000Z</time>
      </trkpt>
      <trkpt lat="47.28206" lon="-2.35903">
        <ele>8</ele>
        <time>2021-04-04T10:12:39.000Z</time>
      </trkpt>
      <trkpt lat="47.28189" lon="-2.359">
        <ele>8</ele>
        <time>2021-04-04T10:12:43.000Z</time>
      </trkpt>
      <trkpt lat="47.2818" lon="-2.35899">
        <ele>7.5999999046326</ele>
        <time>2021-04-04T10:12:45.000Z</time>
      </trkpt>
      <trkpt lat="47.28175" lon="-2.35897">
        <ele>7.1999998092651</ele>
        <time>2021-04-04T10:12:46.000Z</time>
      </trkpt>
      <trkpt lat="47.28171" lon="-2.35895">
        <ele>6.8000001907349</ele>
        <time>2021-04-04T10:12:47.000Z</time>
      </trkpt>
      <trkpt lat="47.28167" lon="-2.35893">
        <ele>6.4000000953674</ele>
        <time>2021-04-04T10:12:48.000Z</time>
      </trkpt>
      <trkpt lat="47.28163" lon="-2.35892">
        <ele>5.8000001907349</ele>
        <time>2021-04-04T10:12:49.000Z</time>
      </trkpt>
      <trkpt lat="47.28159" lon="-2.35891">
        <ele>5.8000001907349</ele>
        <time>2021-04-04T10:12:50.000Z</time>
      </trkpt>
      <trkpt lat="47.2815" lon="-2.3589">
        <ele>5.8000001907349</ele>
        <time>2021-04-04T10:12:52.000Z</time>
      </trkpt>
      <trkpt lat="47.28132" lon="-2.35877">
        <ele>5.8000001907349</ele>
        <time>2021-04-04T10:12:57.000Z</time>
      </trkpt>
      <trkpt lat="47.28121" lon="-2.35862">
        <ele>5.8000001907349</ele>
        <time>2021-04-04T10:13:02.000Z</time>
      </trkpt>
      <trkpt lat="47.28121" lon="-2.35858">
        <ele>5.8000001907349</ele>
        <time>2021-04-04T10:13:04.000Z</time>
      </trkpt>
      <trkpt lat="47.28119" lon="-2.35857">
        <ele>5.8000001907349</ele>
        <time>2021-04-04T10:13:06.000Z</time>
      </trkpt>
      <trkpt lat="47.28115" lon="-2.35854">
        <ele>5.8000001907349</ele>
        <time>2021-04-04T10:13:10.000Z</time>
      </trkpt>
      <trkpt lat="47.28114" lon="-2.35851">
        <ele>5.8000001907349</ele>
        <time>2021-04-04T10:13:18.000Z</time>
      </trkpt>
      <trkpt lat="47.28113" lon="-2.35848">
        <ele>5.8000001907349</ele>
        <time>2021-04-04T10:13:19.000Z</time>
      </trkpt>
      <trkpt lat="47.28112" lon="-2.35841">
        <ele>5.4000000953674</ele>
        <time>2021-04-04T10:13:21.000Z</time>
      </trkpt>
      <trkpt lat="47.28112" lon="-2.35838">
        <ele>5</ele>
        <time>2021-04-04T10:13:22.000Z</time>
      </trkpt>
      <trkpt lat="47.28111" lon="-2.35835">
        <ele>4.5999999046326</ele>
        <time>2021-04-04T10:13:23.000Z</time>
      </trkpt>
      <trkpt lat="47.28111" lon="-2.35833">
        <ele>4.1999998092651</ele>
        <time>2021-04-04T10:13:24.000Z</time>
      </trkpt>
      <trkpt lat="47.2811" lon="-2.35831">
        <ele>3.7999999523163</ele>
        <time>2021-04-04T10:13:25.000Z</time>
      </trkpt>
      <trkpt lat="47.28105" lon="-2.35823">
        <ele>3.7999999523163</ele>
        <time>2021-04-04T10:13:30.000Z</time>
      </trkpt>
      <trkpt lat="47.28095" lon="-2.35807">
        <ele>3.7999999523163</ele>
        <time>2021-04-04T10:13:36.000Z</time>
      </trkpt>
      <trkpt lat="47.28088" lon="-2.35796">
        <ele>4.1999998092651</ele>
        <time>2021-04-04T10:13:39.000Z</time>
      </trkpt>
      <trkpt lat="47.28088" lon="-2.3579">
        <ele>4.5999999046326</ele>
        <time>2021-04-04T10:13:40.000Z</time>
      </trkpt>
      <trkpt lat="47.28088" lon="-2.35786">
        <ele>5</ele>
        <time>2021-04-04T10:13:41.000Z</time>
      </trkpt>
      <trkpt lat="47.28088" lon="-2.35779">
        <ele>5.4000000953674</ele>
        <time>2021-04-04T10:13:42.000Z</time>
      </trkpt>
      <trkpt lat="47.28089" lon="-2.35773">
        <ele>6</ele>
        <time>2021-04-04T10:13:43.000Z</time>
      </trkpt>
      <trkpt lat="47.28091" lon="-2.35756">
        <ele>6</ele>
        <time>2021-04-04T10:13:46.000Z</time>
      </trkpt>
      <trkpt lat="47.28087" lon="-2.35744">
        <ele>6.4000000953674</ele>
        <time>2021-04-04T10:13:47.000Z</time>
      </trkpt>
      <trkpt lat="47.28086" lon="-2.35735">
        <ele>6.8000001907349</ele>
        <time>2021-04-04T10:13:48.000Z</time>
      </trkpt>
      <trkpt lat="47.28086" lon="-2.3573">
        <ele>7.1999998092651</ele>
        <time>2021-04-04T10:13:49.000Z</time>
      </trkpt>
      <trkpt lat="47.28087" lon="-2.35726">
        <ele>7.5999999046326</ele>
        <time>2021-04-04T10:13:50.000Z</time>
      </trkpt>
      <trkpt lat="47.28086" lon="-2.3572">
        <ele>8</ele>
        <time>2021-04-04T10:13:51.000Z</time>
      </trkpt>
      <trkpt lat="47.28086" lon="-2.35714">
        <ele>8</ele>
        <time>2021-04-04T10:13:52.000Z</time>
      </trkpt>
      <trkpt lat="47.28085" lon="-2.35707">
        <ele>8</ele>
        <time>2021-04-04T10:13:53.000Z</time>
      </trkpt>
      <trkpt lat="47.2808" lon="-2.35683">
        <ele>8</ele>
        <time>2021-04-04T10:13:56.000Z</time>
      </trkpt>
      <trkpt lat="47.28067" lon="-2.35643">
        <ele>7.5999999046326</ele>
        <time>2021-04-04T10:14:01.000Z</time>
      </trkpt>
      <trkpt lat="47.28065" lon="-2.35634">
        <ele>7</ele>
        <time>2021-04-04T10:14:02.000Z</time>
      </trkpt>
      <trkpt lat="47.28063" lon="-2.35625">
        <ele>6.5999999046326</ele>
        <time>2021-04-04T10:14:03.000Z</time>
      </trkpt>
      <trkpt lat="47.28062" lon="-2.35615">
        <ele>6.1999998092651</ele>
        <time>2021-04-04T10:14:04.000Z</time>
      </trkpt>
      <trkpt lat="47.28061" lon="-2.35606">
        <ele>5.5999999046326</ele>
        <time>2021-04-04T10:14:05.000Z</time>
      </trkpt>
      <trkpt lat="47.28061" lon="-2.35597">
        <ele>5.5999999046326</ele>
        <time>2021-04-04T10:14:06.000Z</time>
      </trkpt>
      <trkpt lat="47.28059" lon="-2.35591">
        <ele>5.5999999046326</ele>
        <time>2021-04-04T10:14:07.000Z</time>
      </trkpt>
      <trkpt lat="47.28056" lon="-2.35585">
        <ele>5.1999998092651</ele>
        <time>2021-04-04T10:14:08.000Z</time>
      </trkpt>
      <trkpt lat="47.28052" lon="-2.35582">
        <ele>4.5999999046326</ele>
        <time>2021-04-04T10:14:09.000Z</time>
      </trkpt>
      <trkpt lat="47.28047" lon="-2.3558">
        <ele>4</ele>
        <time>2021-04-04T10:14:10.000Z</time>
      </trkpt>
      <trkpt lat="47.28042" lon="-2.35579">
        <ele>3.5999999046326</ele>
        <time>2021-04-04T10:14:11.000Z</time>
      </trkpt>
      <trkpt lat="47.28037" lon="-2.35579">
        <ele>3</ele>
        <time>2021-04-04T10:14:12.000Z</time>
      </trkpt>
      <trkpt lat="47.28022" lon="-2.35579">
        <ele>2.5999999046326</ele>
        <time>2021-04-04T10:14:15.000Z</time>
      </trkpt>
      <trkpt lat="47.28018" lon="-2.3558">
        <ele>1.7999999523163</ele>
        <time>2021-04-04T10:14:16.000Z</time>
      </trkpt>
      <trkpt lat="47.28015" lon="-2.3558">
        <ele>1.3999999761581</ele>
        <time>2021-04-04T10:14:17.000Z</time>
      </trkpt>
      <trkpt lat="47.28013" lon="-2.3558">
        <ele>1</ele>
        <time>2021-04-04T10:14:18.000Z</time>
      </trkpt>
      <trkpt lat="47.28006" lon="-2.35584">
        <ele>1</ele>
        <time>2021-04-04T10:14:21.000Z</time>
      </trkpt>
      <trkpt lat="47.27998" lon="-2.35585">
        <ele>1</ele>
        <time>2021-04-04T10:14:25.000Z</time>
      </trkpt>
      <trkpt lat="47.27998" lon="-2.35583">
        <ele>1</ele>
        <time>2021-04-04T10:14:27.000Z</time>
      </trkpt>
      <trkpt lat="47.27994" lon="-2.35582">
        <ele>-1.2000000476837</ele>
        <time>2021-04-04T10:18:28.000Z</time>
      </trkpt>
      <trkpt lat="47.27986" lon="-2.35582">
        <ele>-1.2000000476837</ele>
        <time>2021-04-04T10:18:32.000Z</time>
      </trkpt>
      <trkpt lat="47.27977" lon="-2.35586">
        <ele>-1.2000000476837</ele>
        <time>2021-04-04T10:18:37.000Z</time>
      </trkpt>
      <trkpt lat="47.27975" lon="-2.35586">
        <ele>-1.2000000476837</ele>
        <time>2021-04-04T10:18:38.000Z</time>
      </trkpt>
      <trkpt lat="47.27956" lon="-2.35582">
        <ele>-1.2000000476837</ele>
        <time>2021-04-04T10:18:43.000Z</time>
      </trkpt>
      <trkpt lat="47.27951" lon="-2.35582">
        <ele>-1.2000000476837</ele>
        <time>2021-04-04T10:18:44.000Z</time>
      </trkpt>
      <trkpt lat="47.27935" lon="-2.35587">
        <ele>-1.2000000476837</ele>
        <time>2021-04-04T10:18:47.000Z</time>
      </trkpt>
      <trkpt lat="47.27912" lon="-2.35593">
        <ele>-1.2000000476837</ele>
        <time>2021-04-04T10:18:51.000Z</time>
      </trkpt>
      <trkpt lat="47.27899" lon="-2.35595">
        <ele>-1.2000000476837</ele>
        <time>2021-04-04T10:18:53.000Z</time>
      </trkpt>
      <trkpt lat="47.27868" lon="-2.35603">
        <ele>-1.2000000476837</ele>
        <time>2021-04-04T10:18:58.000Z</time>
      </trkpt>
      <trkpt lat="47.2784" lon="-2.35611">
        <ele>-1.6000000238419</ele>
        <time>2021-04-04T10:19:03.000Z</time>
      </trkpt>
      <trkpt lat="47.27832" lon="-2.35613">
        <ele>-2</ele>
        <time>2021-04-04T10:19:04.000Z</time>
      </trkpt>
      <trkpt lat="47.27825" lon="-2.35615">
        <ele>-2.4000000953674</ele>
        <time>2021-04-04T10:19:05.000Z</time>
      </trkpt>
      <trkpt lat="47.27819" lon="-2.35617">
        <ele>-2.7999999523163</ele>
        <time>2021-04-04T10:19:06.000Z</time>
      </trkpt>
      <trkpt lat="47.27812" lon="-2.35619">
        <ele>-3.2000000476837</ele>
        <time>2021-04-04T10:19:07.000Z</time>
      </trkpt>
      <trkpt lat="47.27777" lon="-2.35635">
        <ele>-3.7999999523163</ele>
        <time>2021-04-04T10:19:12.000Z</time>
      </trkpt>
      <trkpt lat="47.27771" lon="-2.3564">
        <ele>-4.1999998092651</ele>
        <time>2021-04-04T10:19:13.000Z</time>
      </trkpt>
      <trkpt lat="47.27765" lon="-2.35647">
        <ele>-4.5999999046326</ele>
        <time>2021-04-04T10:19:14.000Z</time>
      </trkpt>
      <trkpt lat="47.27759" lon="-2.35653">
        <ele>-5</ele>
        <time>2021-04-04T10:19:15.000Z</time>
      </trkpt>
      <trkpt lat="47.27753" lon="-2.35661">
        <ele>-5.4000000953674</ele>
        <time>2021-04-04T10:19:16.000Z</time>
      </trkpt>
      <trkpt lat="47.27748" lon="-2.35667">
        <ele>-5.4000000953674</ele>
        <time>2021-04-04T10:19:17.000Z</time>
      </trkpt>
      <trkpt lat="47.27734" lon="-2.35689">
        <ele>-5.4000000953674</ele>
        <time>2021-04-04T10:19:20.000Z</time>
      </trkpt>
      <trkpt lat="47.27719" lon="-2.3571">
        <ele>-5.8000001907349</ele>
        <time>2021-04-04T10:19:23.000Z</time>
      </trkpt>
      <trkpt lat="47.27713" lon="-2.35716">
        <ele>-6.1999998092651</ele>
        <time>2021-04-04T10:19:24.000Z</time>
      </trkpt>
      <trkpt lat="47.27708" lon="-2.35721">
        <ele>-6.5999999046326</ele>
        <time>2021-04-04T10:19:25.000Z</time>
      </trkpt>
      <trkpt lat="47.27702" lon="-2.35726">
        <ele>-7</ele>
        <time>2021-04-04T10:19:26.000Z</time>
      </trkpt>
      <trkpt lat="47.27696" lon="-2.3573">
        <ele>-7.4000000953674</ele>
        <time>2021-04-04T10:19:27.000Z</time>
      </trkpt>
      <trkpt lat="47.2769" lon="-2.35734">
        <ele>-7.4000000953674</ele>
        <time>2021-04-04T10:19:28.000Z</time>
      </trkpt>
      <trkpt lat="47.27684" lon="-2.35741">
        <ele>-7.4000000953674</ele>
        <time>2021-04-04T10:19:29.000Z</time>
      </trkpt>
      <trkpt lat="47.27674" lon="-2.35746">
        <ele>-7.4000000953674</ele>
        <time>2021-04-04T10:19:31.000Z</time>
      </trkpt>
      <trkpt lat="47.27656" lon="-2.35734">
        <ele>-7.4000000953674</ele>
        <time>2021-04-04T10:19:34.000Z</time>
      </trkpt>
      <trkpt lat="47.27651" lon="-2.35729">
        <ele>-7.4000000953674</ele>
        <time>2021-04-04T10:19:35.000Z</time>
      </trkpt>
      <trkpt lat="47.27641" lon="-2.35722">
        <ele>-7.4000000953674</ele>
        <time>2021-04-04T10:19:37.000Z</time>
      </trkpt>
      <trkpt lat="47.27634" lon="-2.3572">
        <ele>-7.8000001907349</ele>
        <time>2021-04-04T10:19:38.000Z</time>
      </trkpt>
      <trkpt lat="47.27627" lon="-2.35719">
        <ele>-8.1999998092651</ele>
        <time>2021-04-04T10:19:39.000Z</time>
      </trkpt>
      <trkpt lat="47.2762" lon="-2.35717">
        <ele>-8.6000003814697</ele>
        <time>2021-04-04T10:19:40.000Z</time>
      </trkpt>
      <trkpt lat="47.27613" lon="-2.35715">
        <ele>-9</ele>
        <time>2021-04-04T10:19:41.000Z</time>
      </trkpt>
      <trkpt lat="47.27606" lon="-2.35713">
        <ele>-9.3999996185303</ele>
        <time>2021-04-04T10:19:42.000Z</time>
      </trkpt>
      <trkpt lat="47.27579" lon="-2.35706">
        <ele>-9.3999996185303</ele>
        <time>2021-04-04T10:19:46.000Z</time>
      </trkpt>
      <trkpt lat="47.27546" lon="-2.35697">
        <ele>-9.8000001907349</ele>
        <time>2021-04-04T10:19:51.000Z</time>
      </trkpt>
      <trkpt lat="47.27539" lon="-2.35695">
        <ele>-10.39999961853</ele>
        <time>2021-04-04T10:19:52.000Z</time>
      </trkpt>
      <trkpt lat="47.27532" lon="-2.35694">
        <ele>-10.800000190735</ele>
        <time>2021-04-04T10:19:53.000Z</time>
      </trkpt>
      <trkpt lat="47.27526" lon="-2.35692">
        <ele>-11.199999809265</ele>
        <time>2021-04-04T10:19:54.000Z</time>
      </trkpt>
      <trkpt lat="47.27519" lon="-2.35691">
        <ele>-11.60000038147</ele>
        <time>2021-04-04T10:19:55.000Z</time>
      </trkpt>
      <trkpt lat="47.27494" lon="-2.35685">
        <ele>-11.60000038147</ele>
        <time>2021-04-04T10:19:59.000Z</time>
      </trkpt>
      <trkpt lat="47.27481" lon="-2.35681">
        <ele>-12</ele>
        <time>2021-04-04T10:20:01.000Z</time>
      </trkpt>
      <trkpt lat="47.27475" lon="-2.3568">
        <ele>-12.39999961853</ele>
        <time>2021-04-04T10:20:02.000Z</time>
      </trkpt>
      <trkpt lat="47.27469" lon="-2.35678">
        <ele>-12.800000190735</ele>
        <time>2021-04-04T10:20:03.000Z</time>
      </trkpt>
      <trkpt lat="47.27463" lon="-2.35677">
        <ele>-13.199999809265</ele>
        <time>2021-04-04T10:20:04.000Z</time>
      </trkpt>
      <trkpt lat="47.27457" lon="-2.35675">
        <ele>-13.60000038147</ele>
        <time>2021-04-04T10:20:05.000Z</time>
      </trkpt>
      <trkpt lat="47.27422" lon="-2.35669">
        <ele>-13.60000038147</ele>
        <time>2021-04-04T10:20:11.000Z</time>
      </trkpt>
      <trkpt lat="47.27411" lon="-2.35669">
        <ele>-13.60000038147</ele>
        <time>2021-04-04T10:20:13.000Z</time>
      </trkpt>
      <trkpt lat="47.27394" lon="-2.35675">
        <ele>-13.60000038147</ele>
        <time>2021-04-04T10:20:16.000Z</time>
      </trkpt>
      <trkpt lat="47.27389" lon="-2.35678">
        <ele>-13.60000038147</ele>
        <time>2021-04-04T10:20:17.000Z</time>
      </trkpt>
      <trkpt lat="47.27364" lon="-2.35697">
        <ele>-13.60000038147</ele>
        <time>2021-04-04T10:20:22.000Z</time>
      </trkpt>
      <trkpt lat="47.27334" lon="-2.35721">
        <ele>-14</ele>
        <time>2021-04-04T10:20:28.000Z</time>
      </trkpt>
      <trkpt lat="47.2733" lon="-2.35725">
        <ele>-14.60000038147</ele>
        <time>2021-04-04T10:20:29.000Z</time>
      </trkpt>
      <trkpt lat="47.27326" lon="-2.35729">
        <ele>-15</ele>
        <time>2021-04-04T10:20:30.000Z</time>
      </trkpt>
      <trkpt lat="47.27323" lon="-2.35733">
        <ele>-15.39999961853</ele>
        <time>2021-04-04T10:20:31.000Z</time>
      </trkpt>
      <trkpt lat="47.27321" lon="-2.35738">
        <ele>-15.800000190735</ele>
        <time>2021-04-04T10:20:32.000Z</time>
      </trkpt>
      <trkpt lat="47.27318" lon="-2.35742">
        <ele>-15.800000190735</ele>
        <time>2021-04-04T10:20:33.000Z</time>
      </trkpt>
      <trkpt lat="47.27308" lon="-2.35742">
        <ele>-15.800000190735</ele>
        <time>2021-04-04T10:20:37.000Z</time>
      </trkpt>
      <trkpt lat="47.27302" lon="-2.35726">
        <ele>-15.800000190735</ele>
        <time>2021-04-04T10:20:40.000Z</time>
      </trkpt>
      <trkpt lat="47.273" lon="-2.3572">
        <ele>-15.800000190735</ele>
        <time>2021-04-04T10:20:41.000Z</time>
      </trkpt>
      <trkpt lat="47.27296" lon="-2.35707">
        <ele>-15.800000190735</ele>
        <time>2021-04-04T10:20:43.000Z</time>
      </trkpt>
      <trkpt lat="47.27293" lon="-2.35701">
        <ele>-15.39999961853</ele>
        <time>2021-04-04T10:20:44.000Z</time>
      </trkpt>
      <trkpt lat="47.27289" lon="-2.35695">
        <ele>-15</ele>
        <time>2021-04-04T10:20:45.000Z</time>
      </trkpt>
      <trkpt lat="47.27287" lon="-2.35689">
        <ele>-14.60000038147</ele>
        <time>2021-04-04T10:20:46.000Z</time>
      </trkpt>
      <trkpt lat="47.27284" lon="-2.35683">
        <ele>-14.199999809265</ele>
        <time>2021-04-04T10:20:47.000Z</time>
      </trkpt>
      <trkpt lat="47.27281" lon="-2.35676">
        <ele>-13.800000190735</ele>
        <time>2021-04-04T10:20:48.000Z</time>
      </trkpt>
      <trkpt lat="47.27273" lon="-2.35658">
        <ele>-13.800000190735</ele>
        <time>2021-04-04T10:20:51.000Z</time>
      </trkpt>
      <trkpt lat="47.27249" lon="-2.35604">
        <ele>-13.800000190735</ele>
        <time>2021-04-04T10:21:00.000Z</time>
      </trkpt>
      <trkpt lat="47.27246" lon="-2.35597">
        <ele>-13.39999961853</ele>
        <time>2021-04-04T10:21:01.000Z</time>
      </trkpt>
      <trkpt lat="47.27244" lon="-2.35591">
        <ele>-13</ele>
        <time>2021-04-04T10:21:02.000Z</time>
      </trkpt>
      <trkpt lat="47.27241" lon="-2.35585">
        <ele>-12.60000038147</ele>
        <time>2021-04-04T10:21:03.000Z</time>
      </trkpt>
      <trkpt lat="47.27239" lon="-2.35579">
        <ele>-12.199999809265</ele>
        <time>2021-04-04T10:21:04.000Z</time>
      </trkpt>
      <trkpt lat="47.27236" lon="-2.35574">
        <ele>-11.800000190735</ele>
        <time>2021-04-04T10:21:05.000Z</time>
      </trkpt>
      <trkpt lat="47.27228" lon="-2.35556">
        <ele>-11.800000190735</ele>
        <time>2021-04-04T10:21:08.000Z</time>
      </trkpt>
      <trkpt lat="47.27206" lon="-2.35509">
        <ele>-11.800000190735</ele>
        <time>2021-04-04T10:21:16.000Z</time>
      </trkpt>
      <trkpt lat="47.27182" lon="-2.35462">
        <ele>-11.800000190735</ele>
        <time>2021-04-04T10:21:24.000Z</time>
      </trkpt>
      <trkpt lat="47.27157" lon="-2.35415">
        <ele>-11.800000190735</ele>
        <time>2021-04-04T10:21:32.000Z</time>
      </trkpt>
      <trkpt lat="47.27127" lon="-2.3536">
        <ele>-11.800000190735</ele>
        <time>2021-04-04T10:21:41.000Z</time>
      </trkpt>
      <trkpt lat="47.27099" lon="-2.35314">
        <ele>-11.800000190735</ele>
        <time>2021-04-04T10:21:49.000Z</time>
      </trkpt>
      <trkpt lat="47.27069" lon="-2.35269">
        <ele>-11.800000190735</ele>
        <time>2021-04-04T10:21:57.000Z</time>
      </trkpt>
      <trkpt lat="47.27043" lon="-2.35228">
        <ele>-11.800000190735</ele>
        <time>2021-04-04T10:22:04.000Z</time>
      </trkpt>
      <trkpt lat="47.27011" lon="-2.35178">
        <ele>-11.800000190735</ele>
        <time>2021-04-04T10:22:13.000Z</time>
      </trkpt>
      <trkpt lat="47.26981" lon="-2.35134">
        <ele>-11.800000190735</ele>
        <time>2021-04-04T10:22:21.000Z</time>
      </trkpt>
      <trkpt lat="47.26947" lon="-2.35083">
        <ele>-11.800000190735</ele>
        <time>2021-04-04T10:22:30.000Z</time>
      </trkpt>
      <trkpt lat="47.26907" lon="-2.3502">
        <ele>-11.800000190735</ele>
        <time>2021-04-04T10:22:41.000Z</time>
      </trkpt>
      <trkpt lat="47.26877" lon="-2.34971">
        <ele>-11.800000190735</ele>
        <time>2021-04-04T10:22:49.000Z</time>
      </trkpt>
      <trkpt lat="47.26846" lon="-2.34925">
        <ele>-11.800000190735</ele>
        <time>2021-04-04T10:22:57.000Z</time>
      </trkpt>
      <trkpt lat="47.26811" lon="-2.34873">
        <ele>-11.800000190735</ele>
        <time>2021-04-04T10:23:06.000Z</time>
      </trkpt>
      <trkpt lat="47.26796" lon="-2.3485">
        <ele>-12.199999809265</ele>
        <time>2021-04-04T10:23:10.000Z</time>
      </trkpt>
      <trkpt lat="47.26792" lon="-2.34845">
        <ele>-12.60000038147</ele>
        <time>2021-04-04T10:23:11.000Z</time>
      </trkpt>
      <trkpt lat="47.26788" lon="-2.34839">
        <ele>-13</ele>
        <time>2021-04-04T10:23:12.000Z</time>
      </trkpt>
      <trkpt lat="47.26785" lon="-2.34833">
        <ele>-13.39999961853</ele>
        <time>2021-04-04T10:23:13.000Z</time>
      </trkpt>
      <trkpt lat="47.26781" lon="-2.34827">
        <ele>-13.800000190735</ele>
        <time>2021-04-04T10:23:14.000Z</time>
      </trkpt>
      <trkpt lat="47.26777" lon="-2.34822">
        <ele>-13.800000190735</ele>
        <time>2021-04-04T10:23:15.000Z</time>
      </trkpt>
      <trkpt lat="47.26738" lon="-2.34773">
        <ele>-13.800000190735</ele>
        <time>2021-04-04T10:23:24.000Z</time>
      </trkpt>
      <trkpt lat="47.26696" lon="-2.3472">
        <ele>-13.800000190735</ele>
        <time>2021-04-04T10:23:34.000Z</time>
      </trkpt>
      <trkpt lat="47.26669" lon="-2.34686">
        <ele>-13.800000190735</ele>
        <time>2021-04-04T10:23:40.000Z</time>
      </trkpt>
      <trkpt lat="47.2663" lon="-2.34639">
        <ele>-13.800000190735</ele>
        <time>2021-04-04T10:23:48.000Z</time>
      </trkpt>
      <trkpt lat="47.26594" lon="-2.34594">
        <ele>-13.800000190735</ele>
        <time>2021-04-04T10:23:56.000Z</time>
      </trkpt>
      <trkpt lat="47.26561" lon="-2.34558">
        <ele>-13.800000190735</ele>
        <time>2021-04-04T10:24:03.000Z</time>
      </trkpt>
      <trkpt lat="47.26527" lon="-2.34525">
        <ele>-13.800000190735</ele>
        <time>2021-04-04T10:24:10.000Z</time>
      </trkpt>
      <trkpt lat="47.26492" lon="-2.345">
        <ele>-13.800000190735</ele>
        <time>2021-04-04T10:24:16.000Z</time>
      </trkpt>
      <trkpt lat="47.26451" lon="-2.3447">
        <ele>-13.800000190735</ele>
        <time>2021-04-04T10:24:23.000Z</time>
      </trkpt>
      <trkpt lat="47.26408" lon="-2.34439">
        <ele>-13.800000190735</ele>
        <time>2021-04-04T10:24:30.000Z</time>
      </trkpt>
      <trkpt lat="47.26366" lon="-2.34405">
        <ele>-13.800000190735</ele>
        <time>2021-04-04T10:24:38.000Z</time>
      </trkpt>
      <trkpt lat="47.26336" lon="-2.3438">
        <ele>-13.800000190735</ele>
        <time>2021-04-04T10:24:44.000Z</time>
      </trkpt>
      <trkpt lat="47.2632" lon="-2.34372">
        <ele>-13.800000190735</ele>
        <time>2021-04-04T10:24:47.000Z</time>
      </trkpt>
      <trkpt lat="47.26307" lon="-2.34351">
        <ele>-13.800000190735</ele>
        <time>2021-04-04T10:24:50.000Z</time>
      </trkpt>
      <trkpt lat="47.26297" lon="-2.3434">
        <ele>-13.800000190735</ele>
        <time>2021-04-04T10:24:52.000Z</time>
      </trkpt>
      <trkpt lat="47.26276" lon="-2.34318">
        <ele>-13.800000190735</ele>
        <time>2021-04-04T10:24:56.000Z</time>
      </trkpt>
      <trkpt lat="47.26238" lon="-2.34277">
        <ele>-13.800000190735</ele>
        <time>2021-04-04T10:25:04.000Z</time>
      </trkpt>
      <trkpt lat="47.26233" lon="-2.34272">
        <ele>-13.39999961853</ele>
        <time>2021-04-04T10:25:05.000Z</time>
      </trkpt>
      <trkpt lat="47.26229" lon="-2.34267">
        <ele>-12.800000190735</ele>
        <time>2021-04-04T10:25:06.000Z</time>
      </trkpt>
      <trkpt lat="47.26224" lon="-2.34262">
        <ele>-12.39999961853</ele>
        <time>2021-04-04T10:25:07.000Z</time>
      </trkpt>
      <trkpt lat="47.2622" lon="-2.34257">
        <ele>-12</ele>
        <time>2021-04-04T10:25:08.000Z</time>
      </trkpt>
      <trkpt lat="47.26215" lon="-2.34253">
        <ele>-11.60000038147</ele>
        <time>2021-04-04T10:25:09.000Z</time>
      </trkpt>
      <trkpt lat="47.26202" lon="-2.34238">
        <ele>-11.60000038147</ele>
        <time>2021-04-04T10:25:12.000Z</time>
      </trkpt>
      <trkpt lat="47.26168" lon="-2.34205">
        <ele>-12</ele>
        <time>2021-04-04T10:25:19.000Z</time>
      </trkpt>
      <trkpt lat="47.26164" lon="-2.342">
        <ele>-12.39999961853</ele>
        <time>2021-04-04T10:25:20.000Z</time>
      </trkpt>
      <trkpt lat="47.26158" lon="-2.34195">
        <ele>-12.800000190735</ele>
        <time>2021-04-04T10:25:21.000Z</time>
      </trkpt>
      <trkpt lat="47.26154" lon="-2.34191">
        <ele>-13.199999809265</ele>
        <time>2021-04-04T10:25:22.000Z</time>
      </trkpt>
      <trkpt lat="47.26149" lon="-2.34187">
        <ele>-13.60000038147</ele>
        <time>2021-04-04T10:25:23.000Z</time>
      </trkpt>
      <trkpt lat="47.26143" lon="-2.34184">
        <ele>-13.60000038147</ele>
        <time>2021-04-04T10:25:24.000Z</time>
      </trkpt>
      <trkpt lat="47.26132" lon="-2.34179">
        <ele>-13.60000038147</ele>
        <time>2021-04-04T10:25:26.000Z</time>
      </trkpt>
      <trkpt lat="47.26123" lon="-2.34169">
        <ele>-13.60000038147</ele>
        <time>2021-04-04T10:25:28.000Z</time>
      </trkpt>
      <trkpt lat="47.26113" lon="-2.3416">
        <ele>-13.60000038147</ele>
        <time>2021-04-04T10:25:30.000Z</time>
      </trkpt>
      <trkpt lat="47.26082" lon="-2.34144">
        <ele>-13.60000038147</ele>
        <time>2021-04-04T10:25:35.000Z</time>
      </trkpt>
      <trkpt lat="47.26046" lon="-2.34127">
        <ele>-13.60000038147</ele>
        <time>2021-04-04T10:25:41.000Z</time>
      </trkpt>
      <trkpt lat="47.2603" lon="-2.3412">
        <ele>-13.60000038147</ele>
        <time>2021-04-04T10:25:45.000Z</time>
      </trkpt>
      <trkpt lat="47.25997" lon="-2.34103">
        <ele>-13.60000038147</ele>
        <time>2021-04-04T10:25:51.000Z</time>
      </trkpt>
      <trkpt lat="47.25944" lon="-2.34078">
        <ele>-13.60000038147</ele>
        <time>2021-04-04T10:26:00.000Z</time>
      </trkpt>
      <trkpt lat="47.25926" lon="-2.34072">
        <ele>-13.60000038147</ele>
        <time>2021-04-04T10:26:03.000Z</time>
      </trkpt>
      <trkpt lat="47.25913" lon="-2.34071">
        <ele>-13.60000038147</ele>
        <time>2021-04-04T10:26:05.000Z</time>
      </trkpt>
      <trkpt lat="47.25907" lon="-2.34069">
        <ele>-13.60000038147</ele>
        <time>2021-04-04T10:26:06.000Z</time>
      </trkpt>
      <trkpt lat="47.25898" lon="-2.34057">
        <ele>-13.60000038147</ele>
        <time>2021-04-04T10:26:08.000Z</time>
      </trkpt>
      <trkpt lat="47.25897" lon="-2.34033">
        <ele>-13.60000038147</ele>
        <time>2021-04-04T10:26:11.000Z</time>
      </trkpt>
      <trkpt lat="47.25906" lon="-2.34">
        <ele>-13.60000038147</ele>
        <time>2021-04-04T10:26:15.000Z</time>
      </trkpt>
      <trkpt lat="47.25923" lon="-2.33954">
        <ele>-13.60000038147</ele>
        <time>2021-04-04T10:26:21.000Z</time>
      </trkpt>
      <trkpt lat="47.25944" lon="-2.33917">
        <ele>-13.60000038147</ele>
        <time>2021-04-04T10:26:27.000Z</time>
      </trkpt>
      <trkpt lat="47.2595" lon="-2.33896">
        <ele>-13.60000038147</ele>
        <time>2021-04-04T10:26:30.000Z</time>
      </trkpt>
      <trkpt lat="47.25954" lon="-2.33891">
        <ele>-13.60000038147</ele>
        <time>2021-04-04T10:26:31.000Z</time>
      </trkpt>
      <trkpt lat="47.2596" lon="-2.33874">
        <ele>-13.60000038147</ele>
        <time>2021-04-04T10:26:34.000Z</time>
      </trkpt>
      <trkpt lat="47.25964" lon="-2.33854">
        <ele>-14.39999961853</ele>
        <time>2021-04-04T10:26:37.000Z</time>
      </trkpt>
      <trkpt lat="47.25965" lon="-2.33847">
        <ele>-14.800000190735</ele>
        <time>2021-04-04T10:26:38.000Z</time>
      </trkpt>
      <trkpt lat="47.25967" lon="-2.33841">
        <ele>-15.199999809265</ele>
        <time>2021-04-04T10:26:39.000Z</time>
      </trkpt>
      <trkpt lat="47.25969" lon="-2.33834">
        <ele>-15.60000038147</ele>
        <time>2021-04-04T10:26:40.000Z</time>
      </trkpt>
      <trkpt lat="47.25973" lon="-2.33819">
        <ele>-15.60000038147</ele>
        <time>2021-04-04T10:26:42.000Z</time>
      </trkpt>
      <trkpt lat="47.25986" lon="-2.33773">
        <ele>-15.60000038147</ele>
        <time>2021-04-04T10:26:48.000Z</time>
      </trkpt>
      <trkpt lat="47.26001" lon="-2.33727">
        <ele>-15.60000038147</ele>
        <time>2021-04-04T10:26:54.000Z</time>
      </trkpt>
      <trkpt lat="47.26006" lon="-2.33712">
        <ele>-15.60000038147</ele>
        <time>2021-04-04T10:26:56.000Z</time>
      </trkpt>
      <trkpt lat="47.26013" lon="-2.33689">
        <ele>-15.60000038147</ele>
        <time>2021-04-04T10:26:59.000Z</time>
      </trkpt>
      <trkpt lat="47.26019" lon="-2.33669">
        <ele>-15.60000038147</ele>
        <time>2021-04-04T10:27:02.000Z</time>
      </trkpt>
      <trkpt lat="47.26021" lon="-2.33659">
        <ele>-15.60000038147</ele>
        <time>2021-04-04T10:27:04.000Z</time>
      </trkpt>
      <trkpt lat="47.26024" lon="-2.33656">
        <ele>-15.60000038147</ele>
        <time>2021-04-04T10:27:06.000Z</time>
      </trkpt>
      <trkpt lat="47.26026" lon="-2.33655">
        <ele>-15.60000038147</ele>
        <time>2021-04-04T10:27:07.000Z</time>
      </trkpt>
      <trkpt lat="47.26044" lon="-2.33659">
        <ele>-15.60000038147</ele>
        <time>2021-04-04T10:27:13.000Z</time>
      </trkpt>
      <trkpt lat="47.26051" lon="-2.33655">
        <ele>-15.60000038147</ele>
        <time>2021-04-04T10:27:15.000Z</time>
      </trkpt>
      <trkpt lat="47.26053" lon="-2.3365">
        <ele>-15.60000038147</ele>
        <time>2021-04-04T10:27:16.000Z</time>
      </trkpt>
      <trkpt lat="47.26069" lon="-2.33613">
        <ele>-15.60000038147</ele>
        <time>2021-04-04T10:27:22.000Z</time>
      </trkpt>
      <trkpt lat="47.26087" lon="-2.33562">
        <ele>-15.60000038147</ele>
        <time>2021-04-04T10:27:29.000Z</time>
      </trkpt>
      <trkpt lat="47.26111" lon="-2.33499">
        <ele>-15.60000038147</ele>
        <time>2021-04-04T10:27:38.000Z</time>
      </trkpt>
      <trkpt lat="47.2613" lon="-2.33451">
        <ele>-15.60000038147</ele>
        <time>2021-04-04T10:27:46.000Z</time>
      </trkpt>
      <trkpt lat="47.26136" lon="-2.33428">
        <ele>-15.60000038147</ele>
        <time>2021-04-04T10:27:51.000Z</time>
      </trkpt>
      <trkpt lat="47.26127" lon="-2.33414">
        <ele>-15.60000038147</ele>
        <time>2021-04-04T10:27:54.000Z</time>
      </trkpt>
      <trkpt lat="47.26119" lon="-2.33404">
        <ele>-15.60000038147</ele>
        <time>2021-04-04T10:27:56.000Z</time>
      </trkpt>
      <trkpt lat="47.26105" lon="-2.33387">
        <ele>-15.60000038147</ele>
        <time>2021-04-04T10:27:59.000Z</time>
      </trkpt>
      <trkpt lat="47.26083" lon="-2.33359">
        <ele>-15.60000038147</ele>
        <time>2021-04-04T10:28:04.000Z</time>
      </trkpt>
      <trkpt lat="47.26079" lon="-2.33352">
        <ele>-15.60000038147</ele>
        <time>2021-04-04T10:28:05.000Z</time>
      </trkpt>
      <trkpt lat="47.26069" lon="-2.33328">
        <ele>-15.60000038147</ele>
        <time>2021-04-04T10:28:08.000Z</time>
      </trkpt>
      <trkpt lat="47.26064" lon="-2.33313">
        <ele>-15.60000038147</ele>
        <time>2021-04-04T10:28:10.000Z</time>
      </trkpt>
      <trkpt lat="47.26041" lon="-2.33248">
        <ele>-15.60000038147</ele>
        <time>2021-04-04T10:28:18.000Z</time>
      </trkpt>
      <trkpt lat="47.26017" lon="-2.33184">
        <ele>-15.60000038147</ele>
        <time>2021-04-04T10:28:26.000Z</time>
      </trkpt>
      <trkpt lat="47.25997" lon="-2.33121">
        <ele>-15.60000038147</ele>
        <time>2021-04-04T10:28:34.000Z</time>
      </trkpt>
      <trkpt lat="47.25992" lon="-2.33106">
        <ele>-15.60000038147</ele>
        <time>2021-04-04T10:28:36.000Z</time>
      </trkpt>
      <trkpt lat="47.25986" lon="-2.3308">
        <ele>-15.60000038147</ele>
        <time>2021-04-04T10:28:39.000Z</time>
      </trkpt>
      <trkpt lat="47.2597" lon="-2.33039">
        <ele>-15.60000038147</ele>
        <time>2021-04-04T10:28:44.000Z</time>
      </trkpt>
      <trkpt lat="47.25968" lon="-2.33031">
        <ele>-15.60000038147</ele>
        <time>2021-04-04T10:28:45.000Z</time>
      </trkpt>
      <trkpt lat="47.25959" lon="-2.32998">
        <ele>-15.60000038147</ele>
        <time>2021-04-04T10:28:49.000Z</time>
      </trkpt>
      <trkpt lat="47.25951" lon="-2.32964">
        <ele>-15.60000038147</ele>
        <time>2021-04-04T10:28:53.000Z</time>
      </trkpt>
      <trkpt lat="47.25947" lon="-2.32948">
        <ele>-15.60000038147</ele>
        <time>2021-04-04T10:28:55.000Z</time>
      </trkpt>
      <trkpt lat="47.25926" lon="-2.32901">
        <ele>-15.60000038147</ele>
        <time>2021-04-04T10:29:01.000Z</time>
      </trkpt>
      <trkpt lat="47.25905" lon="-2.32846">
        <ele>-15.60000038147</ele>
        <time>2021-04-04T10:29:08.000Z</time>
      </trkpt>
      <trkpt lat="47.25882" lon="-2.32784">
        <ele>-15.60000038147</ele>
        <time>2021-04-04T10:29:16.000Z</time>
      </trkpt>
      <trkpt lat="47.25868" lon="-2.3274">
        <ele>-15.60000038147</ele>
        <time>2021-04-04T10:29:22.000Z</time>
      </trkpt>
      <trkpt lat="47.25864" lon="-2.32721">
        <ele>-15.60000038147</ele>
        <time>2021-04-04T10:29:25.000Z</time>
      </trkpt>
      <trkpt lat="47.25865" lon="-2.32715">
        <ele>-15.60000038147</ele>
        <time>2021-04-04T10:29:26.000Z</time>
      </trkpt>
      <trkpt lat="47.25864" lon="-2.32709">
        <ele>-15.60000038147</ele>
        <time>2021-04-04T10:29:27.000Z</time>
      </trkpt>
      <trkpt lat="47.25858" lon="-2.327">
        <ele>-15.60000038147</ele>
        <time>2021-04-04T10:29:29.000Z</time>
      </trkpt>
      <trkpt lat="47.2585" lon="-2.32682">
        <ele>-15.60000038147</ele>
        <time>2021-04-04T10:29:32.000Z</time>
      </trkpt>
      <trkpt lat="47.25848" lon="-2.32675">
        <ele>-15.60000038147</ele>
        <time>2021-04-04T10:29:33.000Z</time>
      </trkpt>
      <trkpt lat="47.25834" lon="-2.32621">
        <ele>-15.60000038147</ele>
        <time>2021-04-04T10:29:40.000Z</time>
      </trkpt>
      <trkpt lat="47.25821" lon="-2.32564">
        <ele>-15.60000038147</ele>
        <time>2021-04-04T10:29:47.000Z</time>
      </trkpt>
      <trkpt lat="47.25804" lon="-2.32501">
        <ele>-15.60000038147</ele>
        <time>2021-04-04T10:29:55.000Z</time>
      </trkpt>
      <trkpt lat="47.258" lon="-2.32473">
        <ele>-15.60000038147</ele>
        <time>2021-04-04T10:29:59.000Z</time>
      </trkpt>
      <trkpt lat="47.25803" lon="-2.32462">
        <ele>-15.60000038147</ele>
        <time>2021-04-04T10:30:01.000Z</time>
      </trkpt>
      <trkpt lat="47.25805" lon="-2.32457">
        <ele>-15.60000038147</ele>
        <time>2021-04-04T10:30:03.000Z</time>
      </trkpt>
      <trkpt lat="47.25806" lon="-2.32457">
        <ele>-15.60000038147</ele>
        <time>2021-04-04T10:30:04.000Z</time>
      </trkpt>
      <trkpt lat="47.25807" lon="-2.32456">
        <ele>-15.60000038147</ele>
        <time>2021-04-04T10:30:06.000Z</time>
      </trkpt>
      <trkpt lat="47.25815" lon="-2.32458">
        <ele>-15.60000038147</ele>
        <time>2021-04-04T10:30:08.000Z</time>
      </trkpt>
      <trkpt lat="47.25831" lon="-2.32466">
        <ele>-15.60000038147</ele>
        <time>2021-04-04T10:30:11.000Z</time>
      </trkpt>
      <trkpt lat="47.25836" lon="-2.32468">
        <ele>-15.60000038147</ele>
        <time>2021-04-04T10:30:12.000Z</time>
      </trkpt>
      <trkpt lat="47.25841" lon="-2.3247">
        <ele>-15.60000038147</ele>
        <time>2021-04-04T10:30:13.000Z</time>
      </trkpt>
      <trkpt lat="47.25864" lon="-2.32471">
        <ele>-15.60000038147</ele>
        <time>2021-04-04T10:30:17.000Z</time>
      </trkpt>
      <trkpt lat="47.25893" lon="-2.32463">
        <ele>-15.60000038147</ele>
        <time>2021-04-04T10:30:22.000Z</time>
      </trkpt>
      <trkpt lat="47.25906" lon="-2.32447">
        <ele>-15.60000038147</ele>
        <time>2021-04-04T10:30:25.000Z</time>
      </trkpt>
      <trkpt lat="47.2591" lon="-2.32441">
        <ele>-15.199999809265</ele>
        <time>2021-04-04T10:30:26.000Z</time>
      </trkpt>
      <trkpt lat="47.25915" lon="-2.32436">
        <ele>-14.800000190735</ele>
        <time>2021-04-04T10:30:27.000Z</time>
      </trkpt>
      <trkpt lat="47.25919" lon="-2.32431">
        <ele>-14.39999961853</ele>
        <time>2021-04-04T10:30:28.000Z</time>
      </trkpt>
      <trkpt lat="47.25923" lon="-2.32425">
        <ele>-13.800000190735</ele>
        <time>2021-04-04T10:30:29.000Z</time>
      </trkpt>
      <trkpt lat="47.25928" lon="-2.3242">
        <ele>-13.39999961853</ele>
        <time>2021-04-04T10:30:30.000Z</time>
      </trkpt>
      <trkpt lat="47.25932" lon="-2.32415">
        <ele>-13.39999961853</ele>
        <time>2021-04-04T10:30:31.000Z</time>
      </trkpt>
      <trkpt lat="47.25941" lon="-2.32403">
        <ele>-13.800000190735</ele>
        <time>2021-04-04T10:30:33.000Z</time>
      </trkpt>
      <trkpt lat="47.25945" lon="-2.32397">
        <ele>-14.199999809265</ele>
        <time>2021-04-04T10:30:34.000Z</time>
      </trkpt>
      <trkpt lat="47.25949" lon="-2.32392">
        <ele>-14.60000038147</ele>
        <time>2021-04-04T10:30:35.000Z</time>
      </trkpt>
      <trkpt lat="47.25953" lon="-2.32386">
        <ele>-15</ele>
        <time>2021-04-04T10:30:36.000Z</time>
      </trkpt>
      <trkpt lat="47.25957" lon="-2.32381">
        <ele>-15.39999961853</ele>
        <time>2021-04-04T10:30:37.000Z</time>
      </trkpt>
      <trkpt lat="47.25961" lon="-2.32375">
        <ele>-15.39999961853</ele>
        <time>2021-04-04T10:30:38.000Z</time>
      </trkpt>
      <trkpt lat="47.25995" lon="-2.32333">
        <ele>-15.39999961853</ele>
        <time>2021-04-04T10:30:46.000Z</time>
      </trkpt>
      <trkpt lat="47.2602" lon="-2.32301">
        <ele>-15.39999961853</ele>
        <time>2021-04-04T10:30:52.000Z</time>
      </trkpt>
      <trkpt lat="47.26056" lon="-2.32259">
        <ele>-15.39999961853</ele>
        <time>2021-04-04T10:31:00.000Z</time>
      </trkpt>
      <trkpt lat="47.26085" lon="-2.32223">
        <ele>-15.39999961853</ele>
        <time>2021-04-04T10:31:07.000Z</time>
      </trkpt>
      <trkpt lat="47.26108" lon="-2.32178">
        <ele>-15.39999961853</ele>
        <time>2021-04-04T10:31:14.000Z</time>
      </trkpt>
      <trkpt lat="47.26125" lon="-2.32128">
        <ele>-15.39999961853</ele>
        <time>2021-04-04T10:31:21.000Z</time>
      </trkpt>
      <trkpt lat="47.2614" lon="-2.32081">
        <ele>-15.39999961853</ele>
        <time>2021-04-04T10:31:28.000Z</time>
      </trkpt>
      <trkpt lat="47.2615" lon="-2.32043">
        <ele>-15.39999961853</ele>
        <time>2021-04-04T10:31:34.000Z</time>
      </trkpt>
      <trkpt lat="47.26163" lon="-2.3202">
        <ele>-15.39999961853</ele>
        <time>2021-04-04T10:31:40.000Z</time>
      </trkpt>
      <trkpt lat="47.26176" lon="-2.32021">
        <ele>-15.39999961853</ele>
        <time>2021-04-04T10:31:44.000Z</time>
      </trkpt>
      <trkpt lat="47.26189" lon="-2.32024">
        <ele>-15.39999961853</ele>
        <time>2021-04-04T10:31:49.000Z</time>
      </trkpt>
      <trkpt lat="47.26193" lon="-2.3202">
        <ele>-15.39999961853</ele>
        <time>2021-04-04T10:31:52.000Z</time>
      </trkpt>
      <trkpt lat="47.26193" lon="-2.32017">
        <ele>-15.39999961853</ele>
        <time>2021-04-04T10:31:53.000Z</time>
      </trkpt>
      <trkpt lat="47.262" lon="-2.32006">
        <ele>-15.39999961853</ele>
        <time>2021-04-04T10:31:58.000Z</time>
      </trkpt>
      <trkpt lat="47.26204" lon="-2.32">
        <ele>-15.39999961853</ele>
        <time>2021-04-04T10:32:00.000Z</time>
      </trkpt>
      <trkpt lat="47.26212" lon="-2.31991">
        <ele>-15.39999961853</ele>
        <time>2021-04-04T10:32:03.000Z</time>
      </trkpt>
      <trkpt lat="47.26224" lon="-2.31981">
        <ele>-15.39999961853</ele>
        <time>2021-04-04T10:32:07.000Z</time>
      </trkpt>
      <trkpt lat="47.26227" lon="-2.3198">
        <ele>-15.39999961853</ele>
        <time>2021-04-04T10:32:08.000Z</time>
      </trkpt>
      <trkpt lat="47.26229" lon="-2.31978">
        <ele>-15.39999961853</ele>
        <time>2021-04-04T10:32:09.000Z</time>
      </trkpt>
      <trkpt lat="47.26232" lon="-2.31969">
        <ele>-15.39999961853</ele>
        <time>2021-04-04T10:32:11.000Z</time>
      </trkpt>
      <trkpt lat="47.26244" lon="-2.31945">
        <ele>-15.39999961853</ele>
        <time>2021-04-04T10:32:17.000Z</time>
      </trkpt>
      <trkpt lat="47.26253" lon="-2.3193">
        <ele>-15.39999961853</ele>
        <time>2021-04-04T10:32:22.000Z</time>
      </trkpt>
      <trkpt lat="47.26269" lon="-2.31908">
        <ele>-15.39999961853</ele>
        <time>2021-04-04T10:32:28.000Z</time>
      </trkpt>
      <trkpt lat="47.26288" lon="-2.31889">
        <ele>-15.39999961853</ele>
        <time>2021-04-04T10:32:33.000Z</time>
      </trkpt>
      <trkpt lat="47.26291" lon="-2.31864">
        <ele>-15.39999961853</ele>
        <time>2021-04-04T10:32:37.000Z</time>
      </trkpt>
      <trkpt lat="47.26293" lon="-2.31821">
        <ele>-15.39999961853</ele>
        <time>2021-04-04T10:32:44.000Z</time>
      </trkpt>
      <trkpt lat="47.26294" lon="-2.318">
        <ele>-15.39999961853</ele>
        <time>2021-04-04T10:32:48.000Z</time>
      </trkpt>
      <trkpt lat="47.26294" lon="-2.31778">
        <ele>-15.39999961853</ele>
        <time>2021-04-04T10:32:52.000Z</time>
      </trkpt>
      <trkpt lat="47.26292" lon="-2.31738">
        <ele>-15.39999961853</ele>
        <time>2021-04-04T10:32:58.000Z</time>
      </trkpt>
      <trkpt lat="47.26299" lon="-2.31717">
        <ele>-15.39999961853</ele>
        <time>2021-04-04T10:33:02.000Z</time>
      </trkpt>
      <trkpt lat="47.26313" lon="-2.31709">
        <ele>-15.39999961853</ele>
        <time>2021-04-04T10:33:06.000Z</time>
      </trkpt>
      <trkpt lat="47.26326" lon="-2.31698">
        <ele>-15.39999961853</ele>
        <time>2021-04-04T10:33:10.000Z</time>
      </trkpt>
      <trkpt lat="47.26327" lon="-2.31693">
        <ele>-15.39999961853</ele>
        <time>2021-04-04T10:33:11.000Z</time>
      </trkpt>
      <trkpt lat="47.26331" lon="-2.31686">
        <ele>-14.60000038147</ele>
        <time>2021-04-04T10:33:13.000Z</time>
      </trkpt>
      <trkpt lat="47.26334" lon="-2.31685">
        <ele>-14</ele>
        <time>2021-04-04T10:33:14.000Z</time>
      </trkpt>
      <trkpt lat="47.26337" lon="-2.31684">
        <ele>-13.60000038147</ele>
        <time>2021-04-04T10:33:15.000Z</time>
      </trkpt>
      <trkpt lat="47.2634" lon="-2.31683">
        <ele>-13.199999809265</ele>
        <time>2021-04-04T10:33:16.000Z</time>
      </trkpt>
      <trkpt lat="47.26355" lon="-2.31676">
        <ele>-13.199999809265</ele>
        <time>2021-04-04T10:33:20.000Z</time>
      </trkpt>
      <trkpt lat="47.26374" lon="-2.31671">
        <ele>-13.199999809265</ele>
        <time>2021-04-04T10:33:26.000Z</time>
      </trkpt>
      <trkpt lat="47.26384" lon="-2.31664">
        <ele>-12.800000190735</ele>
        <time>2021-04-04T10:33:30.000Z</time>
      </trkpt>
      <trkpt lat="47.26387" lon="-2.31663">
        <ele>-12.199999809265</ele>
        <time>2021-04-04T10:33:31.000Z</time>
      </trkpt>
      <trkpt lat="47.26389" lon="-2.31662">
        <ele>-11.800000190735</ele>
        <time>2021-04-04T10:33:32.000Z</time>
      </trkpt>
      <trkpt lat="47.26392" lon="-2.31661">
        <ele>-11.39999961853</ele>
        <time>2021-04-04T10:33:33.000Z</time>
      </trkpt>
      <trkpt lat="47.26394" lon="-2.31659">
        <ele>-11</ele>
        <time>2021-04-04T10:33:34.000Z</time>
      </trkpt>
      <trkpt lat="47.26405" lon="-2.31651">
        <ele>-11</ele>
        <time>2021-04-04T10:33:38.000Z</time>
      </trkpt>
      <trkpt lat="47.26407" lon="-2.31646">
        <ele>-11</ele>
        <time>2021-04-04T10:33:39.000Z</time>
      </trkpt>
      <trkpt lat="47.26409" lon="-2.31637">
        <ele>-11</ele>
        <time>2021-04-04T10:33:41.000Z</time>
      </trkpt>
      <trkpt lat="47.26408" lon="-2.31628">
        <ele>-11</ele>
        <time>2021-04-04T10:33:43.000Z</time>
      </trkpt>
      <trkpt lat="47.26407" lon="-2.31613">
        <ele>-11</ele>
        <time>2021-04-04T10:33:46.000Z</time>
      </trkpt>
      <trkpt lat="47.26406" lon="-2.31587">
        <ele>-11</ele>
        <time>2021-04-04T10:33:52.000Z</time>
      </trkpt>
      <trkpt lat="47.26405" lon="-2.31565">
        <ele>-11</ele>
        <time>2021-04-04T10:33:58.000Z</time>
      </trkpt>
      <trkpt lat="47.26408" lon="-2.31554">
        <ele>-11</ele>
        <time>2021-04-04T10:34:02.000Z</time>
      </trkpt>
      <trkpt lat="47.2641" lon="-2.31554">
        <ele>-10.60000038147</ele>
        <time>2021-04-04T10:34:03.000Z</time>
      </trkpt>
      <trkpt lat="47.26411" lon="-2.31555">
        <ele>-10.199999809265</ele>
        <time>2021-04-04T10:34:04.000Z</time>
      </trkpt>
      <trkpt lat="47.26411" lon="-2.31555">
        <ele>-9.8000001907349</ele>
        <time>2021-04-04T10:34:05.000Z</time>
      </trkpt>
      <trkpt lat="47.26412" lon="-2.31555">
        <ele>-9.3999996185303</ele>
        <time>2021-04-04T10:34:06.000Z</time>
      </trkpt>
    </trkseg>
  </trk>
</gpx>